<?xml version="1.0" encoding="UTF-8" standalone="no" ?>
<gpx xmlns="http://www.topografix.com/GPX/1/1" xmlns:xsi="http://www.w3.org/2001/XMLSchema-instance" xsi:schemaLocation="http://www.topografix.com/GPX/1/1 http://www.topografix.com/GPX/1/1/gpx.xsd" version="1.1" creator="VisuGPX - https://www.visugpx.com">
  <metadata>
    <name>Saint pierre plage l'oustalet laquirou</name>
  </metadata>
  <trk>
    <name><![CDATA[SityTrail - st pierre plage l'oustalet laquirou]]></name>
    <extensions>
      <line xmlns="http://www.topografix.com/GPX/gpx_style/0/2">
        <color>0000FF</color>
        <width>4</width>
      </line>
    </extensions>
    <trkseg>
      <trkpt lat="43.18147" lon="3.18962">
        <ele>12</ele>
        <time>2024-03-29T08:46:04.376Z</time>
      </trkpt>
      <trkpt lat="43.18146" lon="3.18966">
        <ele>12</ele>
        <time>2024-03-29T08:46:15.555Z</time>
      </trkpt>
      <trkpt lat="43.18151" lon="3.18962">
        <ele>12</ele>
        <time>2024-03-29T08:46:19.555Z</time>
      </trkpt>
      <trkpt lat="43.18153" lon="3.1896">
        <ele>12</ele>
        <time>2024-03-29T08:46:23.555Z</time>
      </trkpt>
      <trkpt lat="43.18155" lon="3.18957">
        <ele>16</ele>
        <time>2024-03-29T08:46:28.555Z</time>
      </trkpt>
      <trkpt lat="43.18156" lon="3.18955">
        <ele>16</ele>
        <time>2024-03-29T08:46:33.555Z</time>
      </trkpt>
      <trkpt lat="43.18155" lon="3.18965">
        <ele>15</ele>
        <time>2024-03-29T08:48:52.477Z</time>
      </trkpt>
      <trkpt lat="43.18157" lon="3.18965">
        <ele>15</ele>
        <time>2024-03-29T08:48:57.477Z</time>
      </trkpt>
      <trkpt lat="43.18157" lon="3.18965">
        <ele>15</ele>
        <time>2024-03-29T08:49:02.477Z</time>
      </trkpt>
      <trkpt lat="43.18157" lon="3.18965">
        <ele>15</ele>
        <time>2024-03-29T08:49:40.477Z</time>
      </trkpt>
      <trkpt lat="43.1816" lon="3.18972">
        <ele>15</ele>
        <time>2024-03-29T08:49:45.477Z</time>
      </trkpt>
      <trkpt lat="43.18161" lon="3.1898">
        <ele>15</ele>
        <time>2024-03-29T08:49:49.477Z</time>
      </trkpt>
      <trkpt lat="43.18161" lon="3.18988">
        <ele>13</ele>
        <time>2024-03-29T08:49:54.477Z</time>
      </trkpt>
      <trkpt lat="43.18159" lon="3.18999">
        <ele>13</ele>
        <time>2024-03-29T08:49:59.477Z</time>
      </trkpt>
      <trkpt lat="43.18156" lon="3.19005">
        <ele>13</ele>
        <time>2024-03-29T08:50:04.477Z</time>
      </trkpt>
      <trkpt lat="43.18154" lon="3.1901">
        <ele>13</ele>
        <time>2024-03-29T08:50:09.477Z</time>
      </trkpt>
      <trkpt lat="43.18149" lon="3.19017">
        <ele>10</ele>
        <time>2024-03-29T08:50:14.477Z</time>
      </trkpt>
      <trkpt lat="43.18147" lon="3.19023">
        <ele>10</ele>
        <time>2024-03-29T08:50:18.477Z</time>
      </trkpt>
      <trkpt lat="43.18144" lon="3.19029">
        <ele>10</ele>
        <time>2024-03-29T08:50:23.477Z</time>
      </trkpt>
      <trkpt lat="43.18142" lon="3.19036">
        <ele>10</ele>
        <time>2024-03-29T08:50:28.477Z</time>
      </trkpt>
      <trkpt lat="43.18138" lon="3.19042">
        <ele>10</ele>
        <time>2024-03-29T08:50:33.477Z</time>
      </trkpt>
      <trkpt lat="43.18136" lon="3.1905">
        <ele>10</ele>
        <time>2024-03-29T08:50:38.477Z</time>
      </trkpt>
      <trkpt lat="43.18133" lon="3.19057">
        <ele>10</ele>
        <time>2024-03-29T08:50:43.477Z</time>
      </trkpt>
      <trkpt lat="43.18128" lon="3.19065">
        <ele>10</ele>
        <time>2024-03-29T08:50:48.477Z</time>
      </trkpt>
      <trkpt lat="43.18122" lon="3.19074">
        <ele>8</ele>
        <time>2024-03-29T08:50:53.477Z</time>
      </trkpt>
      <trkpt lat="43.18119" lon="3.19079">
        <ele>8</ele>
        <time>2024-03-29T08:50:57.477Z</time>
      </trkpt>
      <trkpt lat="43.18118" lon="3.19084">
        <ele>8</ele>
        <time>2024-03-29T08:51:02.477Z</time>
      </trkpt>
      <trkpt lat="43.18117" lon="3.19089">
        <ele>8</ele>
        <time>2024-03-29T08:51:06.477Z</time>
      </trkpt>
      <trkpt lat="43.18111" lon="3.19098">
        <ele>5</ele>
        <time>2024-03-29T08:51:11.477Z</time>
      </trkpt>
      <trkpt lat="43.18108" lon="3.19107">
        <ele>5</ele>
        <time>2024-03-29T08:51:16.477Z</time>
      </trkpt>
      <trkpt lat="43.18105" lon="3.19113">
        <ele>5</ele>
        <time>2024-03-29T08:51:21.477Z</time>
      </trkpt>
      <trkpt lat="43.18102" lon="3.1912">
        <ele>5</ele>
        <time>2024-03-29T08:51:25.477Z</time>
      </trkpt>
      <trkpt lat="43.18099" lon="3.19126">
        <ele>4</ele>
        <time>2024-03-29T08:51:30.477Z</time>
      </trkpt>
      <trkpt lat="43.18097" lon="3.19131">
        <ele>4</ele>
        <time>2024-03-29T08:51:34.477Z</time>
      </trkpt>
      <trkpt lat="43.18094" lon="3.19138">
        <ele>4</ele>
        <time>2024-03-29T08:51:39.477Z</time>
      </trkpt>
      <trkpt lat="43.18091" lon="3.19145">
        <ele>4</ele>
        <time>2024-03-29T08:51:44.477Z</time>
      </trkpt>
      <trkpt lat="43.18089" lon="3.19152">
        <ele>4</ele>
        <time>2024-03-29T08:51:49.477Z</time>
      </trkpt>
      <trkpt lat="43.18087" lon="3.19157">
        <ele>4</ele>
        <time>2024-03-29T08:51:53.477Z</time>
      </trkpt>
      <trkpt lat="43.18084" lon="3.19164">
        <ele>4</ele>
        <time>2024-03-29T08:51:58.477Z</time>
      </trkpt>
      <trkpt lat="43.18081" lon="3.19171">
        <ele>4</ele>
        <time>2024-03-29T08:52:03.477Z</time>
      </trkpt>
      <trkpt lat="43.18077" lon="3.19179">
        <ele>4</ele>
        <time>2024-03-29T08:52:08.477Z</time>
      </trkpt>
      <trkpt lat="43.18074" lon="3.19187">
        <ele>3</ele>
        <time>2024-03-29T08:52:13.477Z</time>
      </trkpt>
      <trkpt lat="43.18071" lon="3.19193">
        <ele>3</ele>
        <time>2024-03-29T08:52:18.477Z</time>
      </trkpt>
      <trkpt lat="43.18066" lon="3.192">
        <ele>3</ele>
        <time>2024-03-29T08:52:23.477Z</time>
      </trkpt>
      <trkpt lat="43.1806" lon="3.19209">
        <ele>3</ele>
        <time>2024-03-29T08:52:28.477Z</time>
      </trkpt>
      <trkpt lat="43.18057" lon="3.19216">
        <ele>3</ele>
        <time>2024-03-29T08:52:33.477Z</time>
      </trkpt>
      <trkpt lat="43.18054" lon="3.19226">
        <ele>3</ele>
        <time>2024-03-29T08:52:38.477Z</time>
      </trkpt>
      <trkpt lat="43.18052" lon="3.19232">
        <ele>3</ele>
        <time>2024-03-29T08:52:42.477Z</time>
      </trkpt>
      <trkpt lat="43.18048" lon="3.19234">
        <ele>3</ele>
        <time>2024-03-29T08:52:46.477Z</time>
      </trkpt>
      <trkpt lat="43.18043" lon="3.19237">
        <ele>4</ele>
        <time>2024-03-29T08:52:51.477Z</time>
      </trkpt>
      <trkpt lat="43.18038" lon="3.19239">
        <ele>5</ele>
        <time>2024-03-29T08:52:56.477Z</time>
      </trkpt>
      <trkpt lat="43.18033" lon="3.19243">
        <ele>5</ele>
        <time>2024-03-29T08:53:01.477Z</time>
      </trkpt>
      <trkpt lat="43.1803" lon="3.19246">
        <ele>5</ele>
        <time>2024-03-29T08:53:06.477Z</time>
      </trkpt>
      <trkpt lat="43.18026" lon="3.19251">
        <ele>5</ele>
        <time>2024-03-29T08:53:10.477Z</time>
      </trkpt>
      <trkpt lat="43.18021" lon="3.19256">
        <ele>5</ele>
        <time>2024-03-29T08:53:15.477Z</time>
      </trkpt>
      <trkpt lat="43.18017" lon="3.19261">
        <ele>5</ele>
        <time>2024-03-29T08:53:19.477Z</time>
      </trkpt>
      <trkpt lat="43.18013" lon="3.19266">
        <ele>2</ele>
        <time>2024-03-29T08:53:24.477Z</time>
      </trkpt>
      <trkpt lat="43.18008" lon="3.1927">
        <ele>2</ele>
        <time>2024-03-29T08:53:29.477Z</time>
      </trkpt>
      <trkpt lat="43.18002" lon="3.19274">
        <ele>2</ele>
        <time>2024-03-29T08:53:34.477Z</time>
      </trkpt>
      <trkpt lat="43.17999" lon="3.19279">
        <ele>2</ele>
        <time>2024-03-29T08:53:38.477Z</time>
      </trkpt>
      <trkpt lat="43.17993" lon="3.19282">
        <ele>1.8</ele>
        <time>2024-03-29T08:53:43.477Z</time>
      </trkpt>
      <trkpt lat="43.1799" lon="3.19284">
        <ele>1.6</ele>
        <time>2024-03-29T08:53:47.477Z</time>
      </trkpt>
      <trkpt lat="43.17987" lon="3.19291">
        <ele>1.5</ele>
        <time>2024-03-29T08:53:52.477Z</time>
      </trkpt>
      <trkpt lat="43.17988" lon="3.19301">
        <ele>1.6</ele>
        <time>2024-03-29T08:54:02.477Z</time>
      </trkpt>
      <trkpt lat="43.17988" lon="3.19304">
        <ele>1.6</ele>
        <time>2024-03-29T08:54:07.477Z</time>
      </trkpt>
      <trkpt lat="43.17988" lon="3.19304">
        <ele>1.6</ele>
        <time>2024-03-29T08:54:12.478Z</time>
      </trkpt>
      <trkpt lat="43.17988" lon="3.19305">
        <ele>1.6</ele>
        <time>2024-03-29T08:57:10.478Z</time>
      </trkpt>
      <trkpt lat="43.17989" lon="3.19312">
        <ele>1.6</ele>
        <time>2024-03-29T08:57:14.478Z</time>
      </trkpt>
      <trkpt lat="43.17991" lon="3.19318">
        <ele>1.7</ele>
        <time>2024-03-29T08:57:18.478Z</time>
      </trkpt>
      <trkpt lat="43.17993" lon="3.19326">
        <ele>1.7</ele>
        <time>2024-03-29T08:57:23.478Z</time>
      </trkpt>
      <trkpt lat="43.17996" lon="3.19332">
        <ele>1.9</ele>
        <time>2024-03-29T08:57:27.478Z</time>
      </trkpt>
      <trkpt lat="43.18" lon="3.19339">
        <ele>1.8</ele>
        <time>2024-03-29T08:57:32.478Z</time>
      </trkpt>
      <trkpt lat="43.18004" lon="3.19346">
        <ele>1.6</ele>
        <time>2024-03-29T08:57:37.478Z</time>
      </trkpt>
      <trkpt lat="43.18009" lon="3.19349">
        <ele>1.6</ele>
        <time>2024-03-29T08:57:41.478Z</time>
      </trkpt>
      <trkpt lat="43.18014" lon="3.19355">
        <ele>1.6</ele>
        <time>2024-03-29T08:57:46.478Z</time>
      </trkpt>
      <trkpt lat="43.18018" lon="3.19361">
        <ele>1.7</ele>
        <time>2024-03-29T08:57:50.478Z</time>
      </trkpt>
      <trkpt lat="43.18022" lon="3.19368">
        <ele>1.7</ele>
        <time>2024-03-29T08:57:55.478Z</time>
      </trkpt>
      <trkpt lat="43.18028" lon="3.19374">
        <ele>1.5</ele>
        <time>2024-03-29T08:58:00.478Z</time>
      </trkpt>
      <trkpt lat="43.18033" lon="3.19379">
        <ele>1.5</ele>
        <time>2024-03-29T08:58:05.478Z</time>
      </trkpt>
      <trkpt lat="43.18038" lon="3.19384">
        <ele>1.5</ele>
        <time>2024-03-29T08:58:10.478Z</time>
      </trkpt>
      <trkpt lat="43.18045" lon="3.1939">
        <ele>1.6</ele>
        <time>2024-03-29T08:58:15.478Z</time>
      </trkpt>
      <trkpt lat="43.18049" lon="3.19396">
        <ele>1.6</ele>
        <time>2024-03-29T08:58:20.478Z</time>
      </trkpt>
      <trkpt lat="43.18052" lon="3.19401">
        <ele>1.5</ele>
        <time>2024-03-29T08:58:24.478Z</time>
      </trkpt>
      <trkpt lat="43.18057" lon="3.19408">
        <ele>1.4</ele>
        <time>2024-03-29T08:58:29.478Z</time>
      </trkpt>
      <trkpt lat="43.18061" lon="3.19414">
        <ele>1.2</ele>
        <time>2024-03-29T08:58:34.478Z</time>
      </trkpt>
      <trkpt lat="43.18067" lon="3.1942">
        <ele>1.5</ele>
        <time>2024-03-29T08:58:39.478Z</time>
      </trkpt>
      <trkpt lat="43.18073" lon="3.19426">
        <ele>1.7</ele>
        <time>2024-03-29T08:58:44.478Z</time>
      </trkpt>
      <trkpt lat="43.18077" lon="3.19431">
        <ele>1.9</ele>
        <time>2024-03-29T08:58:48.478Z</time>
      </trkpt>
      <trkpt lat="43.18083" lon="3.19436">
        <ele>2</ele>
        <time>2024-03-29T08:58:53.478Z</time>
      </trkpt>
      <trkpt lat="43.18088" lon="3.19442">
        <ele>2</ele>
        <time>2024-03-29T08:58:58.478Z</time>
      </trkpt>
      <trkpt lat="43.18093" lon="3.19448">
        <ele>1.9</ele>
        <time>2024-03-29T08:59:03.478Z</time>
      </trkpt>
      <trkpt lat="43.18096" lon="3.19453">
        <ele>1.8</ele>
        <time>2024-03-29T08:59:07.478Z</time>
      </trkpt>
      <trkpt lat="43.18101" lon="3.19457">
        <ele>1.8</ele>
        <time>2024-03-29T08:59:12.478Z</time>
      </trkpt>
      <trkpt lat="43.18105" lon="3.19465">
        <ele>1.8</ele>
        <time>2024-03-29T08:59:17.478Z</time>
      </trkpt>
      <trkpt lat="43.18109" lon="3.19472">
        <ele>1.9</ele>
        <time>2024-03-29T08:59:22.478Z</time>
      </trkpt>
      <trkpt lat="43.18114" lon="3.19478">
        <ele>1.8</ele>
        <time>2024-03-29T08:59:27.478Z</time>
      </trkpt>
      <trkpt lat="43.18119" lon="3.19485">
        <ele>1.7</ele>
        <time>2024-03-29T08:59:32.478Z</time>
      </trkpt>
      <trkpt lat="43.18124" lon="3.1949">
        <ele>1.7</ele>
        <time>2024-03-29T08:59:37.478Z</time>
      </trkpt>
      <trkpt lat="43.18129" lon="3.19497">
        <ele>1.7</ele>
        <time>2024-03-29T08:59:42.478Z</time>
      </trkpt>
      <trkpt lat="43.18134" lon="3.19502">
        <ele>1.8</ele>
        <time>2024-03-29T08:59:47.478Z</time>
      </trkpt>
      <trkpt lat="43.18139" lon="3.19507">
        <ele>1.8</ele>
        <time>2024-03-29T08:59:52.478Z</time>
      </trkpt>
      <trkpt lat="43.18144" lon="3.19514">
        <ele>1.6</ele>
        <time>2024-03-29T08:59:57.478Z</time>
      </trkpt>
      <trkpt lat="43.18147" lon="3.19518">
        <ele>1.6</ele>
        <time>2024-03-29T09:00:01.478Z</time>
      </trkpt>
      <trkpt lat="43.18151" lon="3.19521">
        <ele>1.6</ele>
        <time>2024-03-29T09:00:05.478Z</time>
      </trkpt>
      <trkpt lat="43.18156" lon="3.19528">
        <ele>1.6</ele>
        <time>2024-03-29T09:00:10.478Z</time>
      </trkpt>
      <trkpt lat="43.1816" lon="3.19534">
        <ele>1.7</ele>
        <time>2024-03-29T09:00:14.478Z</time>
      </trkpt>
      <trkpt lat="43.18166" lon="3.1954">
        <ele>1.6</ele>
        <time>2024-03-29T09:00:19.478Z</time>
      </trkpt>
      <trkpt lat="43.18171" lon="3.19546">
        <ele>1.4</ele>
        <time>2024-03-29T09:00:24.478Z</time>
      </trkpt>
      <trkpt lat="43.18176" lon="3.19552">
        <ele>1.4</ele>
        <time>2024-03-29T09:00:29.478Z</time>
      </trkpt>
      <trkpt lat="43.18181" lon="3.19558">
        <ele>2</ele>
        <time>2024-03-29T09:00:34.478Z</time>
      </trkpt>
      <trkpt lat="43.18185" lon="3.19564">
        <ele>2</ele>
        <time>2024-03-29T09:00:39.478Z</time>
      </trkpt>
      <trkpt lat="43.18189" lon="3.19568">
        <ele>2</ele>
        <time>2024-03-29T09:00:43.478Z</time>
      </trkpt>
      <trkpt lat="43.18195" lon="3.19573">
        <ele>3</ele>
        <time>2024-03-29T09:00:48.478Z</time>
      </trkpt>
      <trkpt lat="43.182" lon="3.19578">
        <ele>3</ele>
        <time>2024-03-29T09:00:53.478Z</time>
      </trkpt>
      <trkpt lat="43.18204" lon="3.19585">
        <ele>3</ele>
        <time>2024-03-29T09:00:58.478Z</time>
      </trkpt>
      <trkpt lat="43.18206" lon="3.1959">
        <ele>3</ele>
        <time>2024-03-29T09:01:02.478Z</time>
      </trkpt>
      <trkpt lat="43.18208" lon="3.19598">
        <ele>4</ele>
        <time>2024-03-29T09:01:07.478Z</time>
      </trkpt>
      <trkpt lat="43.1821" lon="3.19607">
        <ele>4</ele>
        <time>2024-03-29T09:01:12.478Z</time>
      </trkpt>
      <trkpt lat="43.18212" lon="3.19614">
        <ele>4</ele>
        <time>2024-03-29T09:01:17.478Z</time>
      </trkpt>
      <trkpt lat="43.18214" lon="3.19622">
        <ele>4</ele>
        <time>2024-03-29T09:01:22.478Z</time>
      </trkpt>
      <trkpt lat="43.18218" lon="3.19628">
        <ele>4</ele>
        <time>2024-03-29T09:01:26.478Z</time>
      </trkpt>
      <trkpt lat="43.18223" lon="3.19634">
        <ele>4</ele>
        <time>2024-03-29T09:01:31.478Z</time>
      </trkpt>
      <trkpt lat="43.18228" lon="3.1964">
        <ele>4</ele>
        <time>2024-03-29T09:01:36.478Z</time>
      </trkpt>
      <trkpt lat="43.18233" lon="3.19646">
        <ele>4</ele>
        <time>2024-03-29T09:01:41.478Z</time>
      </trkpt>
      <trkpt lat="43.18238" lon="3.19652">
        <ele>3</ele>
        <time>2024-03-29T09:01:46.478Z</time>
      </trkpt>
      <trkpt lat="43.18241" lon="3.19657">
        <ele>2</ele>
        <time>2024-03-29T09:01:50.478Z</time>
      </trkpt>
      <trkpt lat="43.18245" lon="3.19662">
        <ele>2</ele>
        <time>2024-03-29T09:01:54.478Z</time>
      </trkpt>
      <trkpt lat="43.18249" lon="3.19667">
        <ele>2</ele>
        <time>2024-03-29T09:01:59.478Z</time>
      </trkpt>
      <trkpt lat="43.18254" lon="3.19672">
        <ele>2</ele>
        <time>2024-03-29T09:02:04.478Z</time>
      </trkpt>
      <trkpt lat="43.18259" lon="3.19678">
        <ele>2</ele>
        <time>2024-03-29T09:02:09.478Z</time>
      </trkpt>
      <trkpt lat="43.18264" lon="3.19683">
        <ele>1</ele>
        <time>2024-03-29T09:02:14.478Z</time>
      </trkpt>
      <trkpt lat="43.18269" lon="3.19689">
        <ele>1</ele>
        <time>2024-03-29T09:02:19.478Z</time>
      </trkpt>
      <trkpt lat="43.18274" lon="3.19694">
        <ele>1</ele>
        <time>2024-03-29T09:02:24.478Z</time>
      </trkpt>
      <trkpt lat="43.18279" lon="3.19699">
        <ele>1</ele>
        <time>2024-03-29T09:02:29.478Z</time>
      </trkpt>
      <trkpt lat="43.18284" lon="3.19705">
        <ele>1</ele>
        <time>2024-03-29T09:02:34.479Z</time>
      </trkpt>
      <trkpt lat="43.18287" lon="3.1971">
        <ele>-1</ele>
        <time>2024-03-29T09:02:39.479Z</time>
      </trkpt>
      <trkpt lat="43.18291" lon="3.19716">
        <ele>-1</ele>
        <time>2024-03-29T09:02:44.479Z</time>
      </trkpt>
      <trkpt lat="43.18295" lon="3.19722">
        <ele>1</ele>
        <time>2024-03-29T09:02:49.479Z</time>
      </trkpt>
      <trkpt lat="43.18301" lon="3.19728">
        <ele>1</ele>
        <time>2024-03-29T09:02:54.479Z</time>
      </trkpt>
      <trkpt lat="43.18305" lon="3.19733">
        <ele>1</ele>
        <time>2024-03-29T09:02:59.479Z</time>
      </trkpt>
      <trkpt lat="43.18309" lon="3.19739">
        <ele>3</ele>
        <time>2024-03-29T09:03:04.479Z</time>
      </trkpt>
      <trkpt lat="43.18312" lon="3.19743">
        <ele>3</ele>
        <time>2024-03-29T09:03:08.479Z</time>
      </trkpt>
      <trkpt lat="43.18317" lon="3.19749">
        <ele>3</ele>
        <time>2024-03-29T09:03:13.479Z</time>
      </trkpt>
      <trkpt lat="43.18322" lon="3.19755">
        <ele>5</ele>
        <time>2024-03-29T09:03:18.479Z</time>
      </trkpt>
      <trkpt lat="43.18326" lon="3.19762">
        <ele>5</ele>
        <time>2024-03-29T09:03:23.479Z</time>
      </trkpt>
      <trkpt lat="43.1833" lon="3.19767">
        <ele>7</ele>
        <time>2024-03-29T09:03:27.479Z</time>
      </trkpt>
      <trkpt lat="43.18335" lon="3.19774">
        <ele>7</ele>
        <time>2024-03-29T09:03:32.479Z</time>
      </trkpt>
      <trkpt lat="43.18339" lon="3.19779">
        <ele>7</ele>
        <time>2024-03-29T09:03:37.479Z</time>
      </trkpt>
      <trkpt lat="43.18343" lon="3.19783">
        <ele>7</ele>
        <time>2024-03-29T09:03:41.479Z</time>
      </trkpt>
      <trkpt lat="43.18347" lon="3.19788">
        <ele>5</ele>
        <time>2024-03-29T09:03:46.479Z</time>
      </trkpt>
      <trkpt lat="43.18351" lon="3.19794">
        <ele>6</ele>
        <time>2024-03-29T09:03:51.479Z</time>
      </trkpt>
      <trkpt lat="43.18356" lon="3.198">
        <ele>6</ele>
        <time>2024-03-29T09:03:56.479Z</time>
      </trkpt>
      <trkpt lat="43.18359" lon="3.19806">
        <ele>6</ele>
        <time>2024-03-29T09:04:01.479Z</time>
      </trkpt>
      <trkpt lat="43.18364" lon="3.19811">
        <ele>6</ele>
        <time>2024-03-29T09:04:06.479Z</time>
      </trkpt>
      <trkpt lat="43.18368" lon="3.19818">
        <ele>6</ele>
        <time>2024-03-29T09:04:11.479Z</time>
      </trkpt>
      <trkpt lat="43.18373" lon="3.19824">
        <ele>8</ele>
        <time>2024-03-29T09:04:16.479Z</time>
      </trkpt>
      <trkpt lat="43.18377" lon="3.19829">
        <ele>5</ele>
        <time>2024-03-29T09:04:20.479Z</time>
      </trkpt>
      <trkpt lat="43.1838" lon="3.19834">
        <ele>5</ele>
        <time>2024-03-29T09:04:25.479Z</time>
      </trkpt>
      <trkpt lat="43.18385" lon="3.1984">
        <ele>5</ele>
        <time>2024-03-29T09:04:30.479Z</time>
      </trkpt>
      <trkpt lat="43.1839" lon="3.19847">
        <ele>5</ele>
        <time>2024-03-29T09:04:35.479Z</time>
      </trkpt>
      <trkpt lat="43.18394" lon="3.19852">
        <ele>6</ele>
        <time>2024-03-29T09:04:40.479Z</time>
      </trkpt>
      <trkpt lat="43.18399" lon="3.19859">
        <ele>6</ele>
        <time>2024-03-29T09:04:45.479Z</time>
      </trkpt>
      <trkpt lat="43.18404" lon="3.19864">
        <ele>6</ele>
        <time>2024-03-29T09:04:50.479Z</time>
      </trkpt>
      <trkpt lat="43.18408" lon="3.19869">
        <ele>6</ele>
        <time>2024-03-29T09:04:55.479Z</time>
      </trkpt>
      <trkpt lat="43.18414" lon="3.19875">
        <ele>6</ele>
        <time>2024-03-29T09:05:00.479Z</time>
      </trkpt>
      <trkpt lat="43.18417" lon="3.19881">
        <ele>7</ele>
        <time>2024-03-29T09:05:05.479Z</time>
      </trkpt>
      <trkpt lat="43.18422" lon="3.19887">
        <ele>7</ele>
        <time>2024-03-29T09:05:10.479Z</time>
      </trkpt>
      <trkpt lat="43.18426" lon="3.19893">
        <ele>7</ele>
        <time>2024-03-29T09:05:15.479Z</time>
      </trkpt>
      <trkpt lat="43.1843" lon="3.19898">
        <ele>7</ele>
        <time>2024-03-29T09:05:20.479Z</time>
      </trkpt>
      <trkpt lat="43.18434" lon="3.19905">
        <ele>6</ele>
        <time>2024-03-29T09:05:25.479Z</time>
      </trkpt>
      <trkpt lat="43.18438" lon="3.19911">
        <ele>6</ele>
        <time>2024-03-29T09:05:30.479Z</time>
      </trkpt>
      <trkpt lat="43.18442" lon="3.19917">
        <ele>6</ele>
        <time>2024-03-29T09:05:35.479Z</time>
      </trkpt>
      <trkpt lat="43.18447" lon="3.19923">
        <ele>6</ele>
        <time>2024-03-29T09:05:40.479Z</time>
      </trkpt>
      <trkpt lat="43.18451" lon="3.19928">
        <ele>6</ele>
        <time>2024-03-29T09:05:44.479Z</time>
      </trkpt>
      <trkpt lat="43.18456" lon="3.19934">
        <ele>4</ele>
        <time>2024-03-29T09:05:49.479Z</time>
      </trkpt>
      <trkpt lat="43.18461" lon="3.19939">
        <ele>4</ele>
        <time>2024-03-29T09:05:54.479Z</time>
      </trkpt>
      <trkpt lat="43.18466" lon="3.19945">
        <ele>4</ele>
        <time>2024-03-29T09:05:59.479Z</time>
      </trkpt>
      <trkpt lat="43.18469" lon="3.19952">
        <ele>4</ele>
        <time>2024-03-29T09:06:04.479Z</time>
      </trkpt>
      <trkpt lat="43.18474" lon="3.19958">
        <ele>4</ele>
        <time>2024-03-29T09:06:09.479Z</time>
      </trkpt>
      <trkpt lat="43.18478" lon="3.19964">
        <ele>4</ele>
        <time>2024-03-29T09:06:14.479Z</time>
      </trkpt>
      <trkpt lat="43.18483" lon="3.1997">
        <ele>4</ele>
        <time>2024-03-29T09:06:19.479Z</time>
      </trkpt>
      <trkpt lat="43.18487" lon="3.19975">
        <ele>5</ele>
        <time>2024-03-29T09:06:24.479Z</time>
      </trkpt>
      <trkpt lat="43.18491" lon="3.19982">
        <ele>5</ele>
        <time>2024-03-29T09:06:29.479Z</time>
      </trkpt>
      <trkpt lat="43.18496" lon="3.19988">
        <ele>7</ele>
        <time>2024-03-29T09:06:34.479Z</time>
      </trkpt>
      <trkpt lat="43.18501" lon="3.19993">
        <ele>7</ele>
        <time>2024-03-29T09:06:39.479Z</time>
      </trkpt>
      <trkpt lat="43.18505" lon="3.2">
        <ele>7</ele>
        <time>2024-03-29T09:06:44.479Z</time>
      </trkpt>
      <trkpt lat="43.1851" lon="3.20005">
        <ele>7</ele>
        <time>2024-03-29T09:06:49.479Z</time>
      </trkpt>
      <trkpt lat="43.18514" lon="3.20012">
        <ele>5</ele>
        <time>2024-03-29T09:06:54.479Z</time>
      </trkpt>
      <trkpt lat="43.18519" lon="3.20018">
        <ele>7</ele>
        <time>2024-03-29T09:06:59.479Z</time>
      </trkpt>
      <trkpt lat="43.18524" lon="3.20023">
        <ele>7</ele>
        <time>2024-03-29T09:07:04.479Z</time>
      </trkpt>
      <trkpt lat="43.18528" lon="3.20028">
        <ele>7</ele>
        <time>2024-03-29T09:07:09.479Z</time>
      </trkpt>
      <trkpt lat="43.18531" lon="3.20033">
        <ele>7</ele>
        <time>2024-03-29T09:07:13.479Z</time>
      </trkpt>
      <trkpt lat="43.18535" lon="3.20041">
        <ele>7</ele>
        <time>2024-03-29T09:07:18.479Z</time>
      </trkpt>
      <trkpt lat="43.18538" lon="3.20048">
        <ele>8</ele>
        <time>2024-03-29T09:07:23.479Z</time>
      </trkpt>
      <trkpt lat="43.18542" lon="3.20054">
        <ele>4</ele>
        <time>2024-03-29T09:07:28.479Z</time>
      </trkpt>
      <trkpt lat="43.18546" lon="3.2006">
        <ele>4</ele>
        <time>2024-03-29T09:07:33.479Z</time>
      </trkpt>
      <trkpt lat="43.1855" lon="3.20063">
        <ele>4</ele>
        <time>2024-03-29T09:07:38.479Z</time>
      </trkpt>
      <trkpt lat="43.18555" lon="3.20068">
        <ele>4</ele>
        <time>2024-03-29T09:07:43.479Z</time>
      </trkpt>
      <trkpt lat="43.1856" lon="3.20075">
        <ele>4</ele>
        <time>2024-03-29T09:07:48.479Z</time>
      </trkpt>
      <trkpt lat="43.18564" lon="3.20081">
        <ele>4</ele>
        <time>2024-03-29T09:07:53.479Z</time>
      </trkpt>
      <trkpt lat="43.18569" lon="3.20088">
        <ele>4</ele>
        <time>2024-03-29T09:07:58.479Z</time>
      </trkpt>
      <trkpt lat="43.18573" lon="3.20093">
        <ele>2</ele>
        <time>2024-03-29T09:08:03.479Z</time>
      </trkpt>
      <trkpt lat="43.18576" lon="3.20098">
        <ele>2</ele>
        <time>2024-03-29T09:08:07.479Z</time>
      </trkpt>
      <trkpt lat="43.1858" lon="3.20103">
        <ele>2</ele>
        <time>2024-03-29T09:08:12.479Z</time>
      </trkpt>
      <trkpt lat="43.18585" lon="3.2011">
        <ele>2</ele>
        <time>2024-03-29T09:08:17.479Z</time>
      </trkpt>
      <trkpt lat="43.1859" lon="3.20117">
        <ele>2</ele>
        <time>2024-03-29T09:08:22.479Z</time>
      </trkpt>
      <trkpt lat="43.18593" lon="3.20122">
        <ele>2</ele>
        <time>2024-03-29T09:08:26.479Z</time>
      </trkpt>
      <trkpt lat="43.18598" lon="3.20128">
        <ele>2</ele>
        <time>2024-03-29T09:08:31.479Z</time>
      </trkpt>
      <trkpt lat="43.18601" lon="3.20133">
        <ele>2</ele>
        <time>2024-03-29T09:08:35.479Z</time>
      </trkpt>
      <trkpt lat="43.18605" lon="3.20138">
        <ele>2</ele>
        <time>2024-03-29T09:08:40.479Z</time>
      </trkpt>
      <trkpt lat="43.1861" lon="3.20144">
        <ele>2</ele>
        <time>2024-03-29T09:08:45.479Z</time>
      </trkpt>
      <trkpt lat="43.18615" lon="3.20149">
        <ele>2</ele>
        <time>2024-03-29T09:08:50.479Z</time>
      </trkpt>
      <trkpt lat="43.18619" lon="3.20155">
        <ele>5</ele>
        <time>2024-03-29T09:08:55.479Z</time>
      </trkpt>
      <trkpt lat="43.18624" lon="3.20159">
        <ele>5</ele>
        <time>2024-03-29T09:09:00.479Z</time>
      </trkpt>
      <trkpt lat="43.18628" lon="3.20164">
        <ele>1</ele>
        <time>2024-03-29T09:09:05.479Z</time>
      </trkpt>
      <trkpt lat="43.18632" lon="3.20171">
        <ele>1</ele>
        <time>2024-03-29T09:09:10.479Z</time>
      </trkpt>
      <trkpt lat="43.18636" lon="3.20177">
        <ele>1</ele>
        <time>2024-03-29T09:09:15.479Z</time>
      </trkpt>
      <trkpt lat="43.1864" lon="3.20185">
        <ele>3</ele>
        <time>2024-03-29T09:09:20.479Z</time>
      </trkpt>
      <trkpt lat="43.18645" lon="3.2019">
        <ele>3</ele>
        <time>2024-03-29T09:09:25.479Z</time>
      </trkpt>
      <trkpt lat="43.18648" lon="3.20195">
        <ele>3</ele>
        <time>2024-03-29T09:09:30.479Z</time>
      </trkpt>
      <trkpt lat="43.18653" lon="3.20201">
        <ele>1</ele>
        <time>2024-03-29T09:09:35.479Z</time>
      </trkpt>
      <trkpt lat="43.18657" lon="3.20207">
        <ele>1</ele>
        <time>2024-03-29T09:09:40.479Z</time>
      </trkpt>
      <trkpt lat="43.18662" lon="3.20212">
        <ele>3</ele>
        <time>2024-03-29T09:09:45.479Z</time>
      </trkpt>
      <trkpt lat="43.18666" lon="3.20217">
        <ele>3</ele>
        <time>2024-03-29T09:09:49.479Z</time>
      </trkpt>
      <trkpt lat="43.18669" lon="3.20223">
        <ele>3</ele>
        <time>2024-03-29T09:09:53.479Z</time>
      </trkpt>
      <trkpt lat="43.18672" lon="3.20229">
        <ele>3</ele>
        <time>2024-03-29T09:09:58.479Z</time>
      </trkpt>
      <trkpt lat="43.18674" lon="3.20232">
        <ele>3</ele>
        <time>2024-03-29T09:10:03.479Z</time>
      </trkpt>
      <trkpt lat="43.18677" lon="3.20233">
        <ele>3</ele>
        <time>2024-03-29T09:10:08.479Z</time>
      </trkpt>
      <trkpt lat="43.18681" lon="3.20229">
        <ele>2</ele>
        <time>2024-03-29T09:10:13.479Z</time>
      </trkpt>
      <trkpt lat="43.18685" lon="3.20224">
        <ele>2</ele>
        <time>2024-03-29T09:10:18.479Z</time>
      </trkpt>
      <trkpt lat="43.18691" lon="3.20227">
        <ele>2</ele>
        <time>2024-03-29T09:10:23.479Z</time>
      </trkpt>
      <trkpt lat="43.18697" lon="3.20228">
        <ele>2</ele>
        <time>2024-03-29T09:10:28.479Z</time>
      </trkpt>
      <trkpt lat="43.18702" lon="3.20232">
        <ele>2</ele>
        <time>2024-03-29T09:10:32.479Z</time>
      </trkpt>
      <trkpt lat="43.18707" lon="3.20237">
        <ele>2</ele>
        <time>2024-03-29T09:10:37.479Z</time>
      </trkpt>
      <trkpt lat="43.18712" lon="3.2024">
        <ele>1</ele>
        <time>2024-03-29T09:10:42.479Z</time>
      </trkpt>
      <trkpt lat="43.18714" lon="3.20243">
        <ele>1</ele>
        <time>2024-03-29T09:10:46.479Z</time>
      </trkpt>
      <trkpt lat="43.18719" lon="3.20248">
        <ele>1</ele>
        <time>2024-03-29T09:10:51.479Z</time>
      </trkpt>
      <trkpt lat="43.18723" lon="3.20252">
        <ele>1</ele>
        <time>2024-03-29T09:10:56.479Z</time>
      </trkpt>
      <trkpt lat="43.18726" lon="3.20257">
        <ele>1</ele>
        <time>2024-03-29T09:11:00.479Z</time>
      </trkpt>
      <trkpt lat="43.1873" lon="3.20262">
        <ele>1</ele>
        <time>2024-03-29T09:11:05.479Z</time>
      </trkpt>
      <trkpt lat="43.18734" lon="3.20267">
        <ele>1</ele>
        <time>2024-03-29T09:11:10.479Z</time>
      </trkpt>
      <trkpt lat="43.18737" lon="3.20271">
        <ele>1</ele>
        <time>2024-03-29T09:11:14.479Z</time>
      </trkpt>
      <trkpt lat="43.18741" lon="3.20275">
        <ele>1</ele>
        <time>2024-03-29T09:11:19.479Z</time>
      </trkpt>
      <trkpt lat="43.18745" lon="3.2028">
        <ele>1</ele>
        <time>2024-03-29T09:11:24.479Z</time>
      </trkpt>
      <trkpt lat="43.18749" lon="3.20282">
        <ele>1</ele>
        <time>2024-03-29T09:11:29.479Z</time>
      </trkpt>
      <trkpt lat="43.18753" lon="3.20285">
        <ele>1.1</ele>
        <time>2024-03-29T09:11:33.479Z</time>
      </trkpt>
      <trkpt lat="43.18758" lon="3.20288">
        <ele>1.2</ele>
        <time>2024-03-29T09:11:37.479Z</time>
      </trkpt>
      <trkpt lat="43.18762" lon="3.20294">
        <ele>1.2</ele>
        <time>2024-03-29T09:11:42.480Z</time>
      </trkpt>
      <trkpt lat="43.18773" lon="3.20304">
        <ele>1.1</ele>
        <time>2024-03-29T09:12:07.480Z</time>
      </trkpt>
      <trkpt lat="43.18775" lon="3.20306">
        <ele>1</ele>
        <time>2024-03-29T09:12:16.480Z</time>
      </trkpt>
      <trkpt lat="43.1878" lon="3.20311">
        <ele>1.1</ele>
        <time>2024-03-29T09:12:21.480Z</time>
      </trkpt>
      <trkpt lat="43.18784" lon="3.20316">
        <ele>1.1</ele>
        <time>2024-03-29T09:12:25.480Z</time>
      </trkpt>
      <trkpt lat="43.18787" lon="3.20321">
        <ele>1.2</ele>
        <time>2024-03-29T09:12:30.480Z</time>
      </trkpt>
      <trkpt lat="43.1879" lon="3.20326">
        <ele>1.1</ele>
        <time>2024-03-29T09:12:34.480Z</time>
      </trkpt>
      <trkpt lat="43.18793" lon="3.2033">
        <ele>1.1</ele>
        <time>2024-03-29T09:12:38.480Z</time>
      </trkpt>
      <trkpt lat="43.18797" lon="3.20336">
        <ele>1</ele>
        <time>2024-03-29T09:12:43.480Z</time>
      </trkpt>
      <trkpt lat="43.188" lon="3.20342">
        <ele>1</ele>
        <time>2024-03-29T09:12:48.480Z</time>
      </trkpt>
      <trkpt lat="43.18803" lon="3.20348">
        <ele>1</ele>
        <time>2024-03-29T09:12:53.480Z</time>
      </trkpt>
      <trkpt lat="43.18806" lon="3.20355">
        <ele>1</ele>
        <time>2024-03-29T09:12:58.480Z</time>
      </trkpt>
      <trkpt lat="43.1881" lon="3.2036">
        <ele>1</ele>
        <time>2024-03-29T09:13:03.480Z</time>
      </trkpt>
      <trkpt lat="43.18814" lon="3.20364">
        <ele>1</ele>
        <time>2024-03-29T09:13:08.480Z</time>
      </trkpt>
      <trkpt lat="43.18823" lon="3.20373">
        <ele>1</ele>
        <time>2024-03-29T09:13:32.480Z</time>
      </trkpt>
      <trkpt lat="43.18826" lon="3.20376">
        <ele>1</ele>
        <time>2024-03-29T09:13:36.480Z</time>
      </trkpt>
      <trkpt lat="43.18829" lon="3.20381">
        <ele>1</ele>
        <time>2024-03-29T09:13:41.480Z</time>
      </trkpt>
      <trkpt lat="43.18832" lon="3.20388">
        <ele>1</ele>
        <time>2024-03-29T09:13:46.480Z</time>
      </trkpt>
      <trkpt lat="43.18834" lon="3.20391">
        <ele>1</ele>
        <time>2024-03-29T09:13:51.480Z</time>
      </trkpt>
      <trkpt lat="43.18833" lon="3.20392">
        <ele>1</ele>
        <time>2024-03-29T09:14:15.480Z</time>
      </trkpt>
      <trkpt lat="43.18833" lon="3.20392">
        <ele>1</ele>
        <time>2024-03-29T09:14:20.480Z</time>
      </trkpt>
      <trkpt lat="43.18836" lon="3.20394">
        <ele>1</ele>
        <time>2024-03-29T09:14:34.480Z</time>
      </trkpt>
      <trkpt lat="43.18839" lon="3.20397">
        <ele>1</ele>
        <time>2024-03-29T09:14:38.480Z</time>
      </trkpt>
      <trkpt lat="43.18843" lon="3.20402">
        <ele>1</ele>
        <time>2024-03-29T09:14:43.480Z</time>
      </trkpt>
      <trkpt lat="43.18849" lon="3.20408">
        <ele>1</ele>
        <time>2024-03-29T09:15:30.480Z</time>
      </trkpt>
      <trkpt lat="43.18851" lon="3.20409">
        <ele>1</ele>
        <time>2024-03-29T09:15:35.480Z</time>
      </trkpt>
      <trkpt lat="43.18854" lon="3.20413">
        <ele>1</ele>
        <time>2024-03-29T09:15:40.480Z</time>
      </trkpt>
      <trkpt lat="43.18857" lon="3.20417">
        <ele>1</ele>
        <time>2024-03-29T09:15:45.480Z</time>
      </trkpt>
      <trkpt lat="43.18857" lon="3.20417">
        <ele>1</ele>
        <time>2024-03-29T09:15:50.480Z</time>
      </trkpt>
      <trkpt lat="43.18868" lon="3.20424">
        <ele>1</ele>
        <time>2024-03-29T09:17:44.480Z</time>
      </trkpt>
      <trkpt lat="43.18871" lon="3.20428">
        <ele>1</ele>
        <time>2024-03-29T09:17:53.480Z</time>
      </trkpt>
      <trkpt lat="43.18875" lon="3.20433">
        <ele>1</ele>
        <time>2024-03-29T09:17:58.480Z</time>
      </trkpt>
      <trkpt lat="43.18878" lon="3.20436">
        <ele>1</ele>
        <time>2024-03-29T09:18:03.480Z</time>
      </trkpt>
      <trkpt lat="43.18881" lon="3.2044">
        <ele>1</ele>
        <time>2024-03-29T09:18:08.480Z</time>
      </trkpt>
      <trkpt lat="43.18888" lon="3.20449">
        <ele>1</ele>
        <time>2024-03-29T09:18:33.480Z</time>
      </trkpt>
      <trkpt lat="43.18892" lon="3.20454">
        <ele>1</ele>
        <time>2024-03-29T09:18:38.480Z</time>
      </trkpt>
      <trkpt lat="43.18895" lon="3.20458">
        <ele>1</ele>
        <time>2024-03-29T09:18:43.480Z</time>
      </trkpt>
      <trkpt lat="43.189" lon="3.2046">
        <ele>1</ele>
        <time>2024-03-29T09:18:48.480Z</time>
      </trkpt>
      <trkpt lat="43.189" lon="3.2046">
        <ele>1</ele>
        <time>2024-03-29T09:18:53.480Z</time>
      </trkpt>
      <trkpt lat="43.189" lon="3.2046">
        <ele>1</ele>
        <time>2024-03-29T09:18:58.480Z</time>
      </trkpt>
      <trkpt lat="43.18903" lon="3.20462">
        <ele>1</ele>
        <time>2024-03-29T09:19:07.480Z</time>
      </trkpt>
      <trkpt lat="43.18906" lon="3.20465">
        <ele>1</ele>
        <time>2024-03-29T09:19:12.480Z</time>
      </trkpt>
      <trkpt lat="43.18908" lon="3.20466">
        <ele>1</ele>
        <time>2024-03-29T09:19:17.480Z</time>
      </trkpt>
      <trkpt lat="43.18908" lon="3.20466">
        <ele>1</ele>
        <time>2024-03-29T09:19:21.480Z</time>
      </trkpt>
      <trkpt lat="43.18908" lon="3.20465">
        <ele>1</ele>
        <time>2024-03-29T09:19:26.480Z</time>
      </trkpt>
      <trkpt lat="43.18906" lon="3.20466">
        <ele>1</ele>
        <time>2024-03-29T09:21:51.481Z</time>
      </trkpt>
      <trkpt lat="43.18903" lon="3.20462">
        <ele>1</ele>
        <time>2024-03-29T09:21:55.481Z</time>
      </trkpt>
      <trkpt lat="43.18899" lon="3.20458">
        <ele>1</ele>
        <time>2024-03-29T09:22:00.481Z</time>
      </trkpt>
      <trkpt lat="43.18895" lon="3.20455">
        <ele>1</ele>
        <time>2024-03-29T09:22:05.481Z</time>
      </trkpt>
      <trkpt lat="43.18891" lon="3.20452">
        <ele>1</ele>
        <time>2024-03-29T09:22:09.481Z</time>
      </trkpt>
      <trkpt lat="43.18889" lon="3.20451">
        <ele>1</ele>
        <time>2024-03-29T09:22:14.481Z</time>
      </trkpt>
      <trkpt lat="43.18885" lon="3.20446">
        <ele>1</ele>
        <time>2024-03-29T09:22:19.481Z</time>
      </trkpt>
      <trkpt lat="43.18881" lon="3.20442">
        <ele>1</ele>
        <time>2024-03-29T09:22:24.481Z</time>
      </trkpt>
      <trkpt lat="43.18878" lon="3.20437">
        <ele>1</ele>
        <time>2024-03-29T09:22:29.481Z</time>
      </trkpt>
      <trkpt lat="43.18873" lon="3.20433">
        <ele>1</ele>
        <time>2024-03-29T09:22:34.481Z</time>
      </trkpt>
      <trkpt lat="43.18868" lon="3.20427">
        <ele>1</ele>
        <time>2024-03-29T09:22:39.481Z</time>
      </trkpt>
      <trkpt lat="43.18865" lon="3.20425">
        <ele>1</ele>
        <time>2024-03-29T09:22:43.481Z</time>
      </trkpt>
      <trkpt lat="43.1886" lon="3.20425">
        <ele>1</ele>
        <time>2024-03-29T09:22:48.481Z</time>
      </trkpt>
      <trkpt lat="43.18857" lon="3.20422">
        <ele>1</ele>
        <time>2024-03-29T09:22:53.481Z</time>
      </trkpt>
      <trkpt lat="43.18856" lon="3.20417">
        <ele>1</ele>
        <time>2024-03-29T09:22:57.481Z</time>
      </trkpt>
      <trkpt lat="43.18855" lon="3.20409">
        <ele>1</ele>
        <time>2024-03-29T09:23:02.481Z</time>
      </trkpt>
      <trkpt lat="43.18852" lon="3.20403">
        <ele>1</ele>
        <time>2024-03-29T09:23:07.481Z</time>
      </trkpt>
      <trkpt lat="43.18848" lon="3.20399">
        <ele>1</ele>
        <time>2024-03-29T09:23:12.481Z</time>
      </trkpt>
      <trkpt lat="43.18844" lon="3.20394">
        <ele>1</ele>
        <time>2024-03-29T09:23:17.481Z</time>
      </trkpt>
      <trkpt lat="43.18839" lon="3.20391">
        <ele>1</ele>
        <time>2024-03-29T09:23:22.481Z</time>
      </trkpt>
      <trkpt lat="43.18835" lon="3.20386">
        <ele>1</ele>
        <time>2024-03-29T09:23:27.481Z</time>
      </trkpt>
      <trkpt lat="43.18832" lon="3.20381">
        <ele>1</ele>
        <time>2024-03-29T09:23:32.481Z</time>
      </trkpt>
      <trkpt lat="43.1883" lon="3.20379">
        <ele>1</ele>
        <time>2024-03-29T09:23:36.481Z</time>
      </trkpt>
      <trkpt lat="43.1883" lon="3.20379">
        <ele>1</ele>
        <time>2024-03-29T09:23:41.481Z</time>
      </trkpt>
      <trkpt lat="43.18827" lon="3.20375">
        <ele>1</ele>
        <time>2024-03-29T09:23:46.481Z</time>
      </trkpt>
      <trkpt lat="43.18823" lon="3.2037">
        <ele>1</ele>
        <time>2024-03-29T09:23:51.481Z</time>
      </trkpt>
      <trkpt lat="43.18824" lon="3.20364">
        <ele>1</ele>
        <time>2024-03-29T09:23:56.481Z</time>
      </trkpt>
      <trkpt lat="43.18829" lon="3.20364">
        <ele>1</ele>
        <time>2024-03-29T09:24:01.481Z</time>
      </trkpt>
      <trkpt lat="43.18835" lon="3.20364">
        <ele>1</ele>
        <time>2024-03-29T09:24:06.481Z</time>
      </trkpt>
      <trkpt lat="43.1884" lon="3.20366">
        <ele>1</ele>
        <time>2024-03-29T09:24:10.481Z</time>
      </trkpt>
      <trkpt lat="43.18847" lon="3.20368">
        <ele>1</ele>
        <time>2024-03-29T09:24:15.481Z</time>
      </trkpt>
      <trkpt lat="43.18852" lon="3.2037">
        <ele>1</ele>
        <time>2024-03-29T09:24:19.481Z</time>
      </trkpt>
      <trkpt lat="43.18858" lon="3.20371">
        <ele>1</ele>
        <time>2024-03-29T09:24:24.481Z</time>
      </trkpt>
      <trkpt lat="43.18864" lon="3.20373">
        <ele>1.1</ele>
        <time>2024-03-29T09:24:29.481Z</time>
      </trkpt>
      <trkpt lat="43.1887" lon="3.20375">
        <ele>1.1</ele>
        <time>2024-03-29T09:24:34.481Z</time>
      </trkpt>
      <trkpt lat="43.18875" lon="3.20376">
        <ele>1.2</ele>
        <time>2024-03-29T09:24:39.481Z</time>
      </trkpt>
      <trkpt lat="43.1888" lon="3.20379">
        <ele>1.2</ele>
        <time>2024-03-29T09:24:44.481Z</time>
      </trkpt>
      <trkpt lat="43.18883" lon="3.20383">
        <ele>1.2</ele>
        <time>2024-03-29T09:24:49.481Z</time>
      </trkpt>
      <trkpt lat="43.18887" lon="3.20388">
        <ele>1</ele>
        <time>2024-03-29T09:24:54.481Z</time>
      </trkpt>
      <trkpt lat="43.18891" lon="3.20392">
        <ele>1.1</ele>
        <time>2024-03-29T09:24:59.481Z</time>
      </trkpt>
      <trkpt lat="43.18896" lon="3.20396">
        <ele>1.2</ele>
        <time>2024-03-29T09:25:04.481Z</time>
      </trkpt>
      <trkpt lat="43.18901" lon="3.204">
        <ele>1.3</ele>
        <time>2024-03-29T09:25:09.481Z</time>
      </trkpt>
      <trkpt lat="43.18906" lon="3.20402">
        <ele>1.3</ele>
        <time>2024-03-29T09:25:14.481Z</time>
      </trkpt>
      <trkpt lat="43.18916" lon="3.20405">
        <ele>1.4</ele>
        <time>2024-03-29T09:25:53.481Z</time>
      </trkpt>
      <trkpt lat="43.18917" lon="3.20407">
        <ele>1.4</ele>
        <time>2024-03-29T09:25:58.481Z</time>
      </trkpt>
      <trkpt lat="43.18917" lon="3.20407">
        <ele>1.4</ele>
        <time>2024-03-29T09:26:03.481Z</time>
      </trkpt>
      <trkpt lat="43.18917" lon="3.20408">
        <ele>1.3</ele>
        <time>2024-03-29T09:26:07.481Z</time>
      </trkpt>
      <trkpt lat="43.18922" lon="3.20411">
        <ele>1.2</ele>
        <time>2024-03-29T09:26:12.481Z</time>
      </trkpt>
      <trkpt lat="43.18926" lon="3.20411">
        <ele>1.1</ele>
        <time>2024-03-29T09:26:17.481Z</time>
      </trkpt>
      <trkpt lat="43.18931" lon="3.20411">
        <ele>1.1</ele>
        <time>2024-03-29T09:26:22.481Z</time>
      </trkpt>
      <trkpt lat="43.18936" lon="3.20412">
        <ele>1.1</ele>
        <time>2024-03-29T09:26:27.481Z</time>
      </trkpt>
      <trkpt lat="43.18939" lon="3.20415">
        <ele>1</ele>
        <time>2024-03-29T09:26:31.481Z</time>
      </trkpt>
      <trkpt lat="43.18961" lon="3.20429">
        <ele>1.3</ele>
        <time>2024-03-29T09:28:02.481Z</time>
      </trkpt>
      <trkpt lat="43.18962" lon="3.20429">
        <ele>1.3</ele>
        <time>2024-03-29T09:28:07.481Z</time>
      </trkpt>
      <trkpt lat="43.18962" lon="3.2043">
        <ele>1.3</ele>
        <time>2024-03-29T09:28:41.482Z</time>
      </trkpt>
      <trkpt lat="43.18966" lon="3.2043">
        <ele>1.4</ele>
        <time>2024-03-29T09:28:45.482Z</time>
      </trkpt>
      <trkpt lat="43.18971" lon="3.20428">
        <ele>1.5</ele>
        <time>2024-03-29T09:28:50.482Z</time>
      </trkpt>
      <trkpt lat="43.18975" lon="3.20425">
        <ele>1.7</ele>
        <time>2024-03-29T09:28:54.482Z</time>
      </trkpt>
      <trkpt lat="43.18976" lon="3.20418">
        <ele>1.8</ele>
        <time>2024-03-29T09:28:59.482Z</time>
      </trkpt>
      <trkpt lat="43.18979" lon="3.20412">
        <ele>1.6</ele>
        <time>2024-03-29T09:29:04.482Z</time>
      </trkpt>
      <trkpt lat="43.18983" lon="3.20407">
        <ele>1.4</ele>
        <time>2024-03-29T09:29:09.482Z</time>
      </trkpt>
      <trkpt lat="43.18992" lon="3.20404">
        <ele>1.2</ele>
        <time>2024-03-29T09:35:17.482Z</time>
      </trkpt>
      <trkpt lat="43.18988" lon="3.20396">
        <ele>1.1</ele>
        <time>2024-03-29T09:35:22.482Z</time>
      </trkpt>
      <trkpt lat="43.18986" lon="3.20389">
        <ele>1</ele>
        <time>2024-03-29T09:35:27.482Z</time>
      </trkpt>
      <trkpt lat="43.18982" lon="3.20384">
        <ele>1</ele>
        <time>2024-03-29T09:35:32.482Z</time>
      </trkpt>
      <trkpt lat="43.18978" lon="3.20378">
        <ele>1</ele>
        <time>2024-03-29T09:35:37.483Z</time>
      </trkpt>
      <trkpt lat="43.18974" lon="3.20371">
        <ele>1</ele>
        <time>2024-03-29T09:35:42.483Z</time>
      </trkpt>
      <trkpt lat="43.1897" lon="3.20366">
        <ele>1</ele>
        <time>2024-03-29T09:35:47.483Z</time>
      </trkpt>
      <trkpt lat="43.18967" lon="3.20358">
        <ele>1.1</ele>
        <time>2024-03-29T09:35:52.483Z</time>
      </trkpt>
      <trkpt lat="43.18964" lon="3.20351">
        <ele>1.3</ele>
        <time>2024-03-29T09:35:57.483Z</time>
      </trkpt>
      <trkpt lat="43.18961" lon="3.20345">
        <ele>1.6</ele>
        <time>2024-03-29T09:36:01.483Z</time>
      </trkpt>
      <trkpt lat="43.18957" lon="3.20339">
        <ele>1.8</ele>
        <time>2024-03-29T09:36:06.483Z</time>
      </trkpt>
      <trkpt lat="43.18953" lon="3.20332">
        <ele>2</ele>
        <time>2024-03-29T09:36:11.483Z</time>
      </trkpt>
      <trkpt lat="43.18948" lon="3.20326">
        <ele>1.7</ele>
        <time>2024-03-29T09:36:16.483Z</time>
      </trkpt>
      <trkpt lat="43.18945" lon="3.20318">
        <ele>1.5</ele>
        <time>2024-03-29T09:36:21.483Z</time>
      </trkpt>
      <trkpt lat="43.18942" lon="3.20312">
        <ele>1.3</ele>
        <time>2024-03-29T09:36:25.483Z</time>
      </trkpt>
      <trkpt lat="43.1894" lon="3.20306">
        <ele>1.2</ele>
        <time>2024-03-29T09:36:30.483Z</time>
      </trkpt>
      <trkpt lat="43.18936" lon="3.203">
        <ele>1.3</ele>
        <time>2024-03-29T09:36:35.483Z</time>
      </trkpt>
      <trkpt lat="43.18931" lon="3.20295">
        <ele>1.5</ele>
        <time>2024-03-29T09:36:40.483Z</time>
      </trkpt>
      <trkpt lat="43.18926" lon="3.20288">
        <ele>1.6</ele>
        <time>2024-03-29T09:36:45.483Z</time>
      </trkpt>
      <trkpt lat="43.18924" lon="3.20279">
        <ele>1.7</ele>
        <time>2024-03-29T09:36:50.483Z</time>
      </trkpt>
      <trkpt lat="43.18921" lon="3.20273">
        <ele>1.9</ele>
        <time>2024-03-29T09:36:54.483Z</time>
      </trkpt>
      <trkpt lat="43.18919" lon="3.20266">
        <ele>2</ele>
        <time>2024-03-29T09:36:59.483Z</time>
      </trkpt>
      <trkpt lat="43.18917" lon="3.20258">
        <ele>2</ele>
        <time>2024-03-29T09:37:04.483Z</time>
      </trkpt>
      <trkpt lat="43.18913" lon="3.20251">
        <ele>1.9</ele>
        <time>2024-03-29T09:37:09.483Z</time>
      </trkpt>
      <trkpt lat="43.18909" lon="3.20245">
        <ele>1.6</ele>
        <time>2024-03-29T09:37:14.483Z</time>
      </trkpt>
      <trkpt lat="43.18907" lon="3.20239">
        <ele>1.5</ele>
        <time>2024-03-29T09:37:18.483Z</time>
      </trkpt>
      <trkpt lat="43.18905" lon="3.20229">
        <ele>1.5</ele>
        <time>2024-03-29T09:37:23.483Z</time>
      </trkpt>
      <trkpt lat="43.18903" lon="3.20223">
        <ele>1.5</ele>
        <time>2024-03-29T09:37:28.483Z</time>
      </trkpt>
      <trkpt lat="43.18901" lon="3.20219">
        <ele>1.5</ele>
        <time>2024-03-29T09:37:32.483Z</time>
      </trkpt>
      <trkpt lat="43.18897" lon="3.20212">
        <ele>1.4</ele>
        <time>2024-03-29T09:37:37.483Z</time>
      </trkpt>
      <trkpt lat="43.18892" lon="3.20207">
        <ele>1.4</ele>
        <time>2024-03-29T09:37:42.483Z</time>
      </trkpt>
      <trkpt lat="43.18887" lon="3.20202">
        <ele>1.3</ele>
        <time>2024-03-29T09:37:47.483Z</time>
      </trkpt>
      <trkpt lat="43.18883" lon="3.20197">
        <ele>1.3</ele>
        <time>2024-03-29T09:37:52.483Z</time>
      </trkpt>
      <trkpt lat="43.1888" lon="3.20193">
        <ele>1.4</ele>
        <time>2024-03-29T09:37:56.483Z</time>
      </trkpt>
      <trkpt lat="43.18878" lon="3.20185">
        <ele>1.6</ele>
        <time>2024-03-29T09:38:01.483Z</time>
      </trkpt>
      <trkpt lat="43.18875" lon="3.2018">
        <ele>1.8</ele>
        <time>2024-03-29T09:38:06.483Z</time>
      </trkpt>
      <trkpt lat="43.18871" lon="3.20171">
        <ele>1.9</ele>
        <time>2024-03-29T09:38:11.483Z</time>
      </trkpt>
      <trkpt lat="43.1887" lon="3.20161">
        <ele>1.8</ele>
        <time>2024-03-29T09:38:16.483Z</time>
      </trkpt>
      <trkpt lat="43.18868" lon="3.20154">
        <ele>1.6</ele>
        <time>2024-03-29T09:38:20.483Z</time>
      </trkpt>
      <trkpt lat="43.18867" lon="3.20147">
        <ele>1.3</ele>
        <time>2024-03-29T09:38:25.483Z</time>
      </trkpt>
      <trkpt lat="43.18864" lon="3.20141">
        <ele>1.1</ele>
        <time>2024-03-29T09:38:30.483Z</time>
      </trkpt>
      <trkpt lat="43.1886" lon="3.20135">
        <ele>1</ele>
        <time>2024-03-29T09:38:35.483Z</time>
      </trkpt>
      <trkpt lat="43.18856" lon="3.2013">
        <ele>1.2</ele>
        <time>2024-03-29T09:38:40.483Z</time>
      </trkpt>
      <trkpt lat="43.18852" lon="3.20123">
        <ele>1.3</ele>
        <time>2024-03-29T09:38:45.483Z</time>
      </trkpt>
      <trkpt lat="43.18847" lon="3.20118">
        <ele>1.5</ele>
        <time>2024-03-29T09:38:50.483Z</time>
      </trkpt>
      <trkpt lat="43.18843" lon="3.20111">
        <ele>1.6</ele>
        <time>2024-03-29T09:38:55.483Z</time>
      </trkpt>
      <trkpt lat="43.18837" lon="3.20107">
        <ele>1.7</ele>
        <time>2024-03-29T09:39:00.483Z</time>
      </trkpt>
      <trkpt lat="43.18833" lon="3.20101">
        <ele>1.6</ele>
        <time>2024-03-29T09:39:05.483Z</time>
      </trkpt>
      <trkpt lat="43.18829" lon="3.20095">
        <ele>2</ele>
        <time>2024-03-29T09:39:10.483Z</time>
      </trkpt>
      <trkpt lat="43.18825" lon="3.2009">
        <ele>2</ele>
        <time>2024-03-29T09:39:14.483Z</time>
      </trkpt>
      <trkpt lat="43.18821" lon="3.20083">
        <ele>2</ele>
        <time>2024-03-29T09:39:19.483Z</time>
      </trkpt>
      <trkpt lat="43.18816" lon="3.20077">
        <ele>1</ele>
        <time>2024-03-29T09:39:24.483Z</time>
      </trkpt>
      <trkpt lat="43.18811" lon="3.20072">
        <ele>1</ele>
        <time>2024-03-29T09:39:29.483Z</time>
      </trkpt>
      <trkpt lat="43.18807" lon="3.20064">
        <ele>1.3</ele>
        <time>2024-03-29T09:39:34.483Z</time>
      </trkpt>
      <trkpt lat="43.18807" lon="3.20056">
        <ele>1</ele>
        <time>2024-03-29T09:39:39.483Z</time>
      </trkpt>
      <trkpt lat="43.18811" lon="3.20049">
        <ele>1.2</ele>
        <time>2024-03-29T09:39:44.483Z</time>
      </trkpt>
      <trkpt lat="43.18814" lon="3.20043">
        <ele>1.3</ele>
        <time>2024-03-29T09:39:49.483Z</time>
      </trkpt>
      <trkpt lat="43.18817" lon="3.20036">
        <ele>1.4</ele>
        <time>2024-03-29T09:39:54.483Z</time>
      </trkpt>
      <trkpt lat="43.18822" lon="3.20031">
        <ele>2</ele>
        <time>2024-03-29T09:39:59.483Z</time>
      </trkpt>
      <trkpt lat="43.18825" lon="3.20025">
        <ele>2</ele>
        <time>2024-03-29T09:40:04.483Z</time>
      </trkpt>
      <trkpt lat="43.18829" lon="3.20021">
        <ele>2</ele>
        <time>2024-03-29T09:40:08.483Z</time>
      </trkpt>
      <trkpt lat="43.18834" lon="3.20015">
        <ele>2</ele>
        <time>2024-03-29T09:40:13.483Z</time>
      </trkpt>
      <trkpt lat="43.18837" lon="3.20008">
        <ele>2</ele>
        <time>2024-03-29T09:40:18.483Z</time>
      </trkpt>
      <trkpt lat="43.18842" lon="3.20003">
        <ele>2</ele>
        <time>2024-03-29T09:40:23.483Z</time>
      </trkpt>
      <trkpt lat="43.18846" lon="3.19996">
        <ele>2</ele>
        <time>2024-03-29T09:40:28.483Z</time>
      </trkpt>
      <trkpt lat="43.1885" lon="3.19991">
        <ele>3</ele>
        <time>2024-03-29T09:40:33.483Z</time>
      </trkpt>
      <trkpt lat="43.18855" lon="3.19986">
        <ele>3</ele>
        <time>2024-03-29T09:40:38.483Z</time>
      </trkpt>
      <trkpt lat="43.18859" lon="3.19981">
        <ele>3</ele>
        <time>2024-03-29T09:40:42.483Z</time>
      </trkpt>
      <trkpt lat="43.18862" lon="3.19975">
        <ele>3</ele>
        <time>2024-03-29T09:40:47.483Z</time>
      </trkpt>
      <trkpt lat="43.18866" lon="3.19968">
        <ele>3</ele>
        <time>2024-03-29T09:40:52.483Z</time>
      </trkpt>
      <trkpt lat="43.18871" lon="3.19964">
        <ele>3</ele>
        <time>2024-03-29T09:40:56.483Z</time>
      </trkpt>
      <trkpt lat="43.18876" lon="3.19961">
        <ele>4</ele>
        <time>2024-03-29T09:41:01.483Z</time>
      </trkpt>
      <trkpt lat="43.18881" lon="3.19964">
        <ele>4</ele>
        <time>2024-03-29T09:41:06.483Z</time>
      </trkpt>
      <trkpt lat="43.18886" lon="3.19968">
        <ele>4</ele>
        <time>2024-03-29T09:41:10.483Z</time>
      </trkpt>
      <trkpt lat="43.1889" lon="3.19971">
        <ele>4</ele>
        <time>2024-03-29T09:41:14.483Z</time>
      </trkpt>
      <trkpt lat="43.18893" lon="3.19976">
        <ele>4</ele>
        <time>2024-03-29T09:41:18.483Z</time>
      </trkpt>
      <trkpt lat="43.18899" lon="3.19977">
        <ele>4</ele>
        <time>2024-03-29T09:41:23.483Z</time>
      </trkpt>
      <trkpt lat="43.18909" lon="3.19975">
        <ele>5</ele>
        <time>2024-03-29T09:41:47.483Z</time>
      </trkpt>
      <trkpt lat="43.1891" lon="3.19969">
        <ele>5</ele>
        <time>2024-03-29T09:41:52.483Z</time>
      </trkpt>
      <trkpt lat="43.18913" lon="3.19961">
        <ele>5</ele>
        <time>2024-03-29T09:41:57.483Z</time>
      </trkpt>
      <trkpt lat="43.18916" lon="3.19954">
        <ele>4</ele>
        <time>2024-03-29T09:42:02.483Z</time>
      </trkpt>
      <trkpt lat="43.18919" lon="3.19948">
        <ele>4</ele>
        <time>2024-03-29T09:42:07.483Z</time>
      </trkpt>
      <trkpt lat="43.1892" lon="3.19942">
        <ele>4</ele>
        <time>2024-03-29T09:42:12.483Z</time>
      </trkpt>
      <trkpt lat="43.18921" lon="3.19938">
        <ele>4</ele>
        <time>2024-03-29T09:42:17.484Z</time>
      </trkpt>
      <trkpt lat="43.18921" lon="3.19938">
        <ele>4</ele>
        <time>2024-03-29T09:42:21.484Z</time>
      </trkpt>
      <trkpt lat="43.18921" lon="3.19937">
        <ele>4</ele>
        <time>2024-03-29T09:42:26.484Z</time>
      </trkpt>
      <trkpt lat="43.18924" lon="3.19929">
        <ele>3</ele>
        <time>2024-03-29T09:42:30.484Z</time>
      </trkpt>
      <trkpt lat="43.18928" lon="3.19921">
        <ele>3</ele>
        <time>2024-03-29T09:44:23.484Z</time>
      </trkpt>
      <trkpt lat="43.18928" lon="3.19917">
        <ele>3</ele>
        <time>2024-03-29T09:44:28.484Z</time>
      </trkpt>
      <trkpt lat="43.18926" lon="3.1991">
        <ele>3</ele>
        <time>2024-03-29T09:44:33.484Z</time>
      </trkpt>
      <trkpt lat="43.18924" lon="3.19903">
        <ele>3</ele>
        <time>2024-03-29T09:44:38.484Z</time>
      </trkpt>
      <trkpt lat="43.18923" lon="3.19894">
        <ele>2</ele>
        <time>2024-03-29T09:44:43.484Z</time>
      </trkpt>
      <trkpt lat="43.18926" lon="3.19888">
        <ele>2</ele>
        <time>2024-03-29T09:44:48.484Z</time>
      </trkpt>
      <trkpt lat="43.18931" lon="3.19884">
        <ele>2</ele>
        <time>2024-03-29T09:44:52.484Z</time>
      </trkpt>
      <trkpt lat="43.18936" lon="3.19881">
        <ele>2</ele>
        <time>2024-03-29T09:44:57.484Z</time>
      </trkpt>
      <trkpt lat="43.18941" lon="3.19879">
        <ele>2</ele>
        <time>2024-03-29T09:45:02.484Z</time>
      </trkpt>
      <trkpt lat="43.18946" lon="3.19876">
        <ele>2</ele>
        <time>2024-03-29T09:45:06.484Z</time>
      </trkpt>
      <trkpt lat="43.18951" lon="3.19871">
        <ele>1</ele>
        <time>2024-03-29T09:45:11.484Z</time>
      </trkpt>
      <trkpt lat="43.18955" lon="3.19868">
        <ele>1</ele>
        <time>2024-03-29T09:45:15.484Z</time>
      </trkpt>
      <trkpt lat="43.18959" lon="3.19868">
        <ele>1</ele>
        <time>2024-03-29T09:45:19.484Z</time>
      </trkpt>
      <trkpt lat="43.18964" lon="3.19866">
        <ele>1</ele>
        <time>2024-03-29T09:45:24.484Z</time>
      </trkpt>
      <trkpt lat="43.18969" lon="3.19864">
        <ele>1</ele>
        <time>2024-03-29T09:45:29.484Z</time>
      </trkpt>
      <trkpt lat="43.18974" lon="3.19861">
        <ele>1</ele>
        <time>2024-03-29T09:45:34.484Z</time>
      </trkpt>
      <trkpt lat="43.18978" lon="3.19858">
        <ele>1</ele>
        <time>2024-03-29T09:45:38.484Z</time>
      </trkpt>
      <trkpt lat="43.18984" lon="3.19854">
        <ele>1</ele>
        <time>2024-03-29T09:45:43.484Z</time>
      </trkpt>
      <trkpt lat="43.18989" lon="3.19853">
        <ele>1</ele>
        <time>2024-03-29T09:45:47.484Z</time>
      </trkpt>
      <trkpt lat="43.18996" lon="3.19851">
        <ele>1</ele>
        <time>2024-03-29T09:45:52.484Z</time>
      </trkpt>
      <trkpt lat="43.19003" lon="3.1985">
        <ele>1</ele>
        <time>2024-03-29T09:45:57.484Z</time>
      </trkpt>
      <trkpt lat="43.19008" lon="3.19848">
        <ele>1</ele>
        <time>2024-03-29T09:46:02.484Z</time>
      </trkpt>
      <trkpt lat="43.19013" lon="3.19846">
        <ele>2</ele>
        <time>2024-03-29T09:46:06.484Z</time>
      </trkpt>
      <trkpt lat="43.19019" lon="3.19847">
        <ele>4</ele>
        <time>2024-03-29T09:46:11.484Z</time>
      </trkpt>
      <trkpt lat="43.19025" lon="3.19846">
        <ele>4</ele>
        <time>2024-03-29T09:46:16.484Z</time>
      </trkpt>
      <trkpt lat="43.19028" lon="3.19845">
        <ele>4</ele>
        <time>2024-03-29T09:46:25.484Z</time>
      </trkpt>
      <trkpt lat="43.19027" lon="3.19844">
        <ele>4</ele>
        <time>2024-03-29T09:46:29.484Z</time>
      </trkpt>
      <trkpt lat="43.19027" lon="3.19844">
        <ele>4</ele>
        <time>2024-03-29T09:46:34.484Z</time>
      </trkpt>
      <trkpt lat="43.19032" lon="3.19851">
        <ele>3</ele>
        <time>2024-03-29T09:46:44.484Z</time>
      </trkpt>
      <trkpt lat="43.19035" lon="3.19857">
        <ele>3</ele>
        <time>2024-03-29T09:46:48.484Z</time>
      </trkpt>
      <trkpt lat="43.19041" lon="3.19861">
        <ele>3</ele>
        <time>2024-03-29T09:46:53.484Z</time>
      </trkpt>
      <trkpt lat="43.19047" lon="3.19859">
        <ele>4</ele>
        <time>2024-03-29T09:46:58.484Z</time>
      </trkpt>
      <trkpt lat="43.19052" lon="3.19858">
        <ele>4</ele>
        <time>2024-03-29T09:47:02.484Z</time>
      </trkpt>
      <trkpt lat="43.19058" lon="3.19857">
        <ele>4</ele>
        <time>2024-03-29T09:47:07.484Z</time>
      </trkpt>
      <trkpt lat="43.19063" lon="3.19854">
        <ele>4</ele>
        <time>2024-03-29T09:47:12.484Z</time>
      </trkpt>
      <trkpt lat="43.1907" lon="3.19852">
        <ele>4</ele>
        <time>2024-03-29T09:47:17.484Z</time>
      </trkpt>
      <trkpt lat="43.19075" lon="3.1985">
        <ele>4</ele>
        <time>2024-03-29T09:47:22.484Z</time>
      </trkpt>
      <trkpt lat="43.1908" lon="3.19848">
        <ele>4</ele>
        <time>2024-03-29T09:47:26.484Z</time>
      </trkpt>
      <trkpt lat="43.19084" lon="3.19846">
        <ele>5</ele>
        <time>2024-03-29T09:47:30.484Z</time>
      </trkpt>
      <trkpt lat="43.19088" lon="3.1984">
        <ele>5</ele>
        <time>2024-03-29T09:47:35.484Z</time>
      </trkpt>
      <trkpt lat="43.19088" lon="3.19833">
        <ele>5</ele>
        <time>2024-03-29T09:47:40.484Z</time>
      </trkpt>
      <trkpt lat="43.19086" lon="3.19828">
        <ele>5</ele>
        <time>2024-03-29T09:47:45.484Z</time>
      </trkpt>
      <trkpt lat="43.19085" lon="3.19822">
        <ele>5</ele>
        <time>2024-03-29T09:47:50.484Z</time>
      </trkpt>
      <trkpt lat="43.19084" lon="3.19815">
        <ele>5</ele>
        <time>2024-03-29T09:47:55.484Z</time>
      </trkpt>
      <trkpt lat="43.19081" lon="3.19808">
        <ele>5</ele>
        <time>2024-03-29T09:48:00.484Z</time>
      </trkpt>
      <trkpt lat="43.19077" lon="3.19798">
        <ele>5</ele>
        <time>2024-03-29T09:48:05.484Z</time>
      </trkpt>
      <trkpt lat="43.19074" lon="3.19789">
        <ele>4</ele>
        <time>2024-03-29T09:48:10.484Z</time>
      </trkpt>
      <trkpt lat="43.19071" lon="3.19782">
        <ele>4</ele>
        <time>2024-03-29T09:48:14.484Z</time>
      </trkpt>
      <trkpt lat="43.19068" lon="3.19773">
        <ele>4</ele>
        <time>2024-03-29T09:48:19.484Z</time>
      </trkpt>
      <trkpt lat="43.19065" lon="3.19767">
        <ele>4</ele>
        <time>2024-03-29T09:48:23.484Z</time>
      </trkpt>
      <trkpt lat="43.19061" lon="3.19761">
        <ele>3</ele>
        <time>2024-03-29T09:48:28.484Z</time>
      </trkpt>
      <trkpt lat="43.19057" lon="3.19757">
        <ele>3</ele>
        <time>2024-03-29T09:48:32.484Z</time>
      </trkpt>
      <trkpt lat="43.19053" lon="3.19752">
        <ele>3</ele>
        <time>2024-03-29T09:48:37.484Z</time>
      </trkpt>
      <trkpt lat="43.1905" lon="3.19748">
        <ele>3</ele>
        <time>2024-03-29T09:48:42.484Z</time>
      </trkpt>
      <trkpt lat="43.19046" lon="3.19744">
        <ele>3</ele>
        <time>2024-03-29T09:48:46.484Z</time>
      </trkpt>
      <trkpt lat="43.19042" lon="3.19739">
        <ele>3</ele>
        <time>2024-03-29T09:48:50.484Z</time>
      </trkpt>
      <trkpt lat="43.19037" lon="3.19732">
        <ele>2</ele>
        <time>2024-03-29T09:48:55.484Z</time>
      </trkpt>
      <trkpt lat="43.19032" lon="3.19726">
        <ele>2</ele>
        <time>2024-03-29T09:49:00.484Z</time>
      </trkpt>
      <trkpt lat="43.19031" lon="3.19719">
        <ele>2</ele>
        <time>2024-03-29T09:49:05.484Z</time>
      </trkpt>
      <trkpt lat="43.19032" lon="3.19712">
        <ele>2</ele>
        <time>2024-03-29T09:49:09.484Z</time>
      </trkpt>
      <trkpt lat="43.19031" lon="3.19705">
        <ele>2</ele>
        <time>2024-03-29T09:49:14.484Z</time>
      </trkpt>
      <trkpt lat="43.19029" lon="3.19696">
        <ele>2</ele>
        <time>2024-03-29T09:49:19.484Z</time>
      </trkpt>
      <trkpt lat="43.19028" lon="3.19695">
        <ele>2</ele>
        <time>2024-03-29T09:49:23.484Z</time>
      </trkpt>
      <trkpt lat="43.19024" lon="3.19689">
        <ele>2</ele>
        <time>2024-03-29T09:49:28.484Z</time>
      </trkpt>
      <trkpt lat="43.19019" lon="3.19682">
        <ele>2</ele>
        <time>2024-03-29T09:49:33.484Z</time>
      </trkpt>
      <trkpt lat="43.19013" lon="3.19674">
        <ele>1</ele>
        <time>2024-03-29T09:49:38.484Z</time>
      </trkpt>
      <trkpt lat="43.1901" lon="3.19669">
        <ele>1</ele>
        <time>2024-03-29T09:49:42.484Z</time>
      </trkpt>
      <trkpt lat="43.19006" lon="3.19664">
        <ele>1</ele>
        <time>2024-03-29T09:49:47.484Z</time>
      </trkpt>
      <trkpt lat="43.19003" lon="3.19657">
        <ele>1</ele>
        <time>2024-03-29T09:49:52.484Z</time>
      </trkpt>
      <trkpt lat="43.19001" lon="3.19651">
        <ele>1</ele>
        <time>2024-03-29T09:49:56.484Z</time>
      </trkpt>
      <trkpt lat="43.19" lon="3.19643">
        <ele>1</ele>
        <time>2024-03-29T09:50:01.484Z</time>
      </trkpt>
      <trkpt lat="43.19001" lon="3.19633">
        <ele>1</ele>
        <time>2024-03-29T09:50:06.484Z</time>
      </trkpt>
      <trkpt lat="43.19003" lon="3.19628">
        <ele>1</ele>
        <time>2024-03-29T09:50:10.484Z</time>
      </trkpt>
      <trkpt lat="43.19005" lon="3.19623">
        <ele>1</ele>
        <time>2024-03-29T09:50:15.484Z</time>
      </trkpt>
      <trkpt lat="43.19012" lon="3.19616">
        <ele>1</ele>
        <time>2024-03-29T09:50:20.484Z</time>
      </trkpt>
      <trkpt lat="43.19017" lon="3.1961">
        <ele>-1</ele>
        <time>2024-03-29T09:50:25.484Z</time>
      </trkpt>
      <trkpt lat="43.19022" lon="3.19607">
        <ele>-1</ele>
        <time>2024-03-29T09:50:29.484Z</time>
      </trkpt>
      <trkpt lat="43.19028" lon="3.19602">
        <ele>-1</ele>
        <time>2024-03-29T09:50:34.484Z</time>
      </trkpt>
      <trkpt lat="43.19032" lon="3.19596">
        <ele>1.5</ele>
        <time>2024-03-29T09:50:39.484Z</time>
      </trkpt>
      <trkpt lat="43.19033" lon="3.1959">
        <ele>1.6</ele>
        <time>2024-03-29T09:50:43.484Z</time>
      </trkpt>
      <trkpt lat="43.19037" lon="3.19584">
        <ele>1.7</ele>
        <time>2024-03-29T09:50:48.484Z</time>
      </trkpt>
      <trkpt lat="43.19041" lon="3.19577">
        <ele>1.8</ele>
        <time>2024-03-29T09:50:53.484Z</time>
      </trkpt>
      <trkpt lat="43.19044" lon="3.1957">
        <ele>-2</ele>
        <time>2024-03-29T09:50:58.484Z</time>
      </trkpt>
      <trkpt lat="43.19046" lon="3.19563">
        <ele>1.8</ele>
        <time>2024-03-29T09:51:03.484Z</time>
      </trkpt>
      <trkpt lat="43.19048" lon="3.19557">
        <ele>1.8</ele>
        <time>2024-03-29T09:51:08.484Z</time>
      </trkpt>
      <trkpt lat="43.19051" lon="3.1955">
        <ele>1.7</ele>
        <time>2024-03-29T09:51:13.484Z</time>
      </trkpt>
      <trkpt lat="43.19054" lon="3.19545">
        <ele>1.5</ele>
        <time>2024-03-29T09:51:17.484Z</time>
      </trkpt>
      <trkpt lat="43.19058" lon="3.19541">
        <ele>3</ele>
        <time>2024-03-29T09:51:21.484Z</time>
      </trkpt>
      <trkpt lat="43.19061" lon="3.19539">
        <ele>3</ele>
        <time>2024-03-29T09:51:26.484Z</time>
      </trkpt>
      <trkpt lat="43.19068" lon="3.19542">
        <ele>1.9</ele>
        <time>2024-03-29T09:51:31.484Z</time>
      </trkpt>
      <trkpt lat="43.19072" lon="3.19548">
        <ele>1.6</ele>
        <time>2024-03-29T09:51:36.484Z</time>
      </trkpt>
      <trkpt lat="43.19077" lon="3.1955">
        <ele>1.5</ele>
        <time>2024-03-29T09:51:40.484Z</time>
      </trkpt>
      <trkpt lat="43.19083" lon="3.19553">
        <ele>1.2</ele>
        <time>2024-03-29T09:51:45.484Z</time>
      </trkpt>
      <trkpt lat="43.19088" lon="3.19553">
        <ele>1.3</ele>
        <time>2024-03-29T09:51:50.484Z</time>
      </trkpt>
      <trkpt lat="43.19094" lon="3.19553">
        <ele>1.3</ele>
        <time>2024-03-29T09:51:55.484Z</time>
      </trkpt>
      <trkpt lat="43.19101" lon="3.19554">
        <ele>1</ele>
        <time>2024-03-29T09:52:00.484Z</time>
      </trkpt>
      <trkpt lat="43.19107" lon="3.19553">
        <ele>1</ele>
        <time>2024-03-29T09:52:05.484Z</time>
      </trkpt>
      <trkpt lat="43.1911" lon="3.1955">
        <ele>1</ele>
        <time>2024-03-29T09:52:09.484Z</time>
      </trkpt>
      <trkpt lat="43.1911" lon="3.19549">
        <ele>1</ele>
        <time>2024-03-29T09:52:13.484Z</time>
      </trkpt>
      <trkpt lat="43.19111" lon="3.19548">
        <ele>1</ele>
        <time>2024-03-29T09:52:18.484Z</time>
      </trkpt>
      <trkpt lat="43.19111" lon="3.19548">
        <ele>1</ele>
        <time>2024-03-29T09:52:23.484Z</time>
      </trkpt>
      <trkpt lat="43.19118" lon="3.19545">
        <ele>1</ele>
        <time>2024-03-29T09:52:48.485Z</time>
      </trkpt>
      <trkpt lat="43.19121" lon="3.19541">
        <ele>2</ele>
        <time>2024-03-29T09:52:53.485Z</time>
      </trkpt>
      <trkpt lat="43.19125" lon="3.19537">
        <ele>2</ele>
        <time>2024-03-29T09:52:58.485Z</time>
      </trkpt>
      <trkpt lat="43.19128" lon="3.19531">
        <ele>2</ele>
        <time>2024-03-29T09:53:03.485Z</time>
      </trkpt>
      <trkpt lat="43.19132" lon="3.19525">
        <ele>2</ele>
        <time>2024-03-29T09:53:08.485Z</time>
      </trkpt>
      <trkpt lat="43.19137" lon="3.1952">
        <ele>2</ele>
        <time>2024-03-29T09:53:13.485Z</time>
      </trkpt>
      <trkpt lat="43.19142" lon="3.19515">
        <ele>2</ele>
        <time>2024-03-29T09:53:17.485Z</time>
      </trkpt>
      <trkpt lat="43.19147" lon="3.19509">
        <ele>4</ele>
        <time>2024-03-29T09:53:22.485Z</time>
      </trkpt>
      <trkpt lat="43.19149" lon="3.19505">
        <ele>4</ele>
        <time>2024-03-29T09:53:26.485Z</time>
      </trkpt>
      <trkpt lat="43.19154" lon="3.19499">
        <ele>3</ele>
        <time>2024-03-29T09:53:31.485Z</time>
      </trkpt>
      <trkpt lat="43.1916" lon="3.19494">
        <ele>3</ele>
        <time>2024-03-29T09:53:36.485Z</time>
      </trkpt>
      <trkpt lat="43.19166" lon="3.19489">
        <ele>3</ele>
        <time>2024-03-29T09:53:41.485Z</time>
      </trkpt>
      <trkpt lat="43.1917" lon="3.19485">
        <ele>5</ele>
        <time>2024-03-29T09:53:46.485Z</time>
      </trkpt>
      <trkpt lat="43.19175" lon="3.19481">
        <ele>5</ele>
        <time>2024-03-29T09:53:51.485Z</time>
      </trkpt>
      <trkpt lat="43.1918" lon="3.19476">
        <ele>5</ele>
        <time>2024-03-29T09:53:56.485Z</time>
      </trkpt>
      <trkpt lat="43.19183" lon="3.19471">
        <ele>3</ele>
        <time>2024-03-29T09:54:01.485Z</time>
      </trkpt>
      <trkpt lat="43.19187" lon="3.19467">
        <ele>3</ele>
        <time>2024-03-29T09:54:06.485Z</time>
      </trkpt>
      <trkpt lat="43.1919" lon="3.19461">
        <ele>3</ele>
        <time>2024-03-29T09:54:11.485Z</time>
      </trkpt>
      <trkpt lat="43.19194" lon="3.19456">
        <ele>3</ele>
        <time>2024-03-29T09:54:15.485Z</time>
      </trkpt>
      <trkpt lat="43.192" lon="3.19452">
        <ele>3</ele>
        <time>2024-03-29T09:54:20.485Z</time>
      </trkpt>
      <trkpt lat="43.19206" lon="3.19447">
        <ele>3</ele>
        <time>2024-03-29T09:54:25.485Z</time>
      </trkpt>
      <trkpt lat="43.1921" lon="3.1944">
        <ele>1</ele>
        <time>2024-03-29T09:54:30.485Z</time>
      </trkpt>
      <trkpt lat="43.19213" lon="3.19434">
        <ele>1</ele>
        <time>2024-03-29T09:54:35.485Z</time>
      </trkpt>
      <trkpt lat="43.19215" lon="3.19427">
        <ele>1</ele>
        <time>2024-03-29T09:54:40.485Z</time>
      </trkpt>
      <trkpt lat="43.19219" lon="3.1942">
        <ele>1</ele>
        <time>2024-03-29T09:54:45.485Z</time>
      </trkpt>
      <trkpt lat="43.19221" lon="3.19412">
        <ele>1</ele>
        <time>2024-03-29T09:54:50.485Z</time>
      </trkpt>
      <trkpt lat="43.19224" lon="3.19404">
        <ele>1</ele>
        <time>2024-03-29T09:54:55.485Z</time>
      </trkpt>
      <trkpt lat="43.19227" lon="3.19397">
        <ele>1</ele>
        <time>2024-03-29T09:55:00.485Z</time>
      </trkpt>
      <trkpt lat="43.19232" lon="3.19391">
        <ele>1</ele>
        <time>2024-03-29T09:55:05.485Z</time>
      </trkpt>
      <trkpt lat="43.19237" lon="3.19385">
        <ele>-1</ele>
        <time>2024-03-29T09:55:10.485Z</time>
      </trkpt>
      <trkpt lat="43.1924" lon="3.1938">
        <ele>-1</ele>
        <time>2024-03-29T09:55:15.485Z</time>
      </trkpt>
      <trkpt lat="43.19244" lon="3.19377">
        <ele>-1</ele>
        <time>2024-03-29T09:55:19.485Z</time>
      </trkpt>
      <trkpt lat="43.19251" lon="3.19375">
        <ele>-1</ele>
        <time>2024-03-29T09:55:24.485Z</time>
      </trkpt>
      <trkpt lat="43.19257" lon="3.19371">
        <ele>1.5</ele>
        <time>2024-03-29T09:55:29.485Z</time>
      </trkpt>
      <trkpt lat="43.19263" lon="3.19368">
        <ele>1.4</ele>
        <time>2024-03-29T09:55:34.485Z</time>
      </trkpt>
      <trkpt lat="43.19267" lon="3.19366">
        <ele>1.3</ele>
        <time>2024-03-29T09:55:38.485Z</time>
      </trkpt>
      <trkpt lat="43.19272" lon="3.19366">
        <ele>1.2</ele>
        <time>2024-03-29T09:55:43.485Z</time>
      </trkpt>
      <trkpt lat="43.19278" lon="3.19366">
        <ele>1</ele>
        <time>2024-03-29T09:55:48.485Z</time>
      </trkpt>
      <trkpt lat="43.19286" lon="3.19366">
        <ele>1</ele>
        <time>2024-03-29T09:55:53.485Z</time>
      </trkpt>
      <trkpt lat="43.19291" lon="3.19364">
        <ele>1</ele>
        <time>2024-03-29T09:55:58.485Z</time>
      </trkpt>
      <trkpt lat="43.19297" lon="3.19364">
        <ele>1</ele>
        <time>2024-03-29T09:56:03.485Z</time>
      </trkpt>
      <trkpt lat="43.19304" lon="3.19364">
        <ele>1</ele>
        <time>2024-03-29T09:56:08.485Z</time>
      </trkpt>
      <trkpt lat="43.19311" lon="3.19362">
        <ele>1</ele>
        <time>2024-03-29T09:56:13.485Z</time>
      </trkpt>
      <trkpt lat="43.19317" lon="3.19361">
        <ele>1</ele>
        <time>2024-03-29T09:56:18.485Z</time>
      </trkpt>
      <trkpt lat="43.19323" lon="3.19362">
        <ele>2</ele>
        <time>2024-03-29T09:56:23.485Z</time>
      </trkpt>
      <trkpt lat="43.19329" lon="3.19363">
        <ele>2</ele>
        <time>2024-03-29T09:56:28.485Z</time>
      </trkpt>
      <trkpt lat="43.19335" lon="3.19361">
        <ele>2</ele>
        <time>2024-03-29T09:56:33.485Z</time>
      </trkpt>
      <trkpt lat="43.19339" lon="3.19363">
        <ele>2</ele>
        <time>2024-03-29T09:56:37.485Z</time>
      </trkpt>
      <trkpt lat="43.19345" lon="3.19364">
        <ele>2</ele>
        <time>2024-03-29T09:56:42.485Z</time>
      </trkpt>
      <trkpt lat="43.1935" lon="3.19369">
        <ele>5</ele>
        <time>2024-03-29T09:56:47.485Z</time>
      </trkpt>
      <trkpt lat="43.19356" lon="3.19373">
        <ele>5</ele>
        <time>2024-03-29T09:56:52.485Z</time>
      </trkpt>
      <trkpt lat="43.19359" lon="3.19377">
        <ele>3</ele>
        <time>2024-03-29T09:56:56.485Z</time>
      </trkpt>
      <trkpt lat="43.19365" lon="3.1938">
        <ele>3</ele>
        <time>2024-03-29T09:57:01.485Z</time>
      </trkpt>
      <trkpt lat="43.1937" lon="3.19384">
        <ele>3</ele>
        <time>2024-03-29T09:57:06.485Z</time>
      </trkpt>
      <trkpt lat="43.19373" lon="3.19388">
        <ele>3</ele>
        <time>2024-03-29T09:57:10.485Z</time>
      </trkpt>
      <trkpt lat="43.19375" lon="3.1939">
        <ele>3</ele>
        <time>2024-03-29T09:57:14.485Z</time>
      </trkpt>
      <trkpt lat="43.19375" lon="3.1939">
        <ele>3</ele>
        <time>2024-03-29T09:57:19.485Z</time>
      </trkpt>
      <trkpt lat="43.19376" lon="3.19391">
        <ele>3</ele>
        <time>2024-03-29T09:57:23.485Z</time>
      </trkpt>
      <trkpt lat="43.19387" lon="3.19392">
        <ele>3</ele>
        <time>2024-03-29T09:57:38.485Z</time>
      </trkpt>
      <trkpt lat="43.19392" lon="3.19396">
        <ele>3</ele>
        <time>2024-03-29T09:57:42.485Z</time>
      </trkpt>
      <trkpt lat="43.19395" lon="3.19399">
        <ele>3</ele>
        <time>2024-03-29T09:57:46.485Z</time>
      </trkpt>
      <trkpt lat="43.194" lon="3.19403">
        <ele>1</ele>
        <time>2024-03-29T09:57:51.485Z</time>
      </trkpt>
      <trkpt lat="43.19405" lon="3.19407">
        <ele>2</ele>
        <time>2024-03-29T09:57:55.485Z</time>
      </trkpt>
      <trkpt lat="43.19409" lon="3.19412">
        <ele>2</ele>
        <time>2024-03-29T09:58:00.485Z</time>
      </trkpt>
      <trkpt lat="43.19413" lon="3.19416">
        <ele>2</ele>
        <time>2024-03-29T09:58:05.485Z</time>
      </trkpt>
      <trkpt lat="43.19419" lon="3.1942">
        <ele>2</ele>
        <time>2024-03-29T09:58:10.485Z</time>
      </trkpt>
      <trkpt lat="43.19424" lon="3.19424">
        <ele>2</ele>
        <time>2024-03-29T09:58:14.485Z</time>
      </trkpt>
      <trkpt lat="43.19428" lon="3.19427">
        <ele>2</ele>
        <time>2024-03-29T09:58:18.485Z</time>
      </trkpt>
      <trkpt lat="43.19433" lon="3.1943">
        <ele>4</ele>
        <time>2024-03-29T09:58:23.485Z</time>
      </trkpt>
      <trkpt lat="43.19438" lon="3.19428">
        <ele>4</ele>
        <time>2024-03-29T09:58:28.485Z</time>
      </trkpt>
      <trkpt lat="43.19445" lon="3.19428">
        <ele>4</ele>
        <time>2024-03-29T09:58:33.485Z</time>
      </trkpt>
      <trkpt lat="43.19449" lon="3.19428">
        <ele>4</ele>
        <time>2024-03-29T09:58:37.485Z</time>
      </trkpt>
      <trkpt lat="43.19455" lon="3.19426">
        <ele>4</ele>
        <time>2024-03-29T09:58:42.485Z</time>
      </trkpt>
      <trkpt lat="43.19459" lon="3.19426">
        <ele>5</ele>
        <time>2024-03-29T09:58:46.485Z</time>
      </trkpt>
      <trkpt lat="43.19464" lon="3.19426">
        <ele>5</ele>
        <time>2024-03-29T09:58:51.485Z</time>
      </trkpt>
      <trkpt lat="43.19468" lon="3.19425">
        <ele>5</ele>
        <time>2024-03-29T09:58:55.485Z</time>
      </trkpt>
      <trkpt lat="43.19473" lon="3.19424">
        <ele>5</ele>
        <time>2024-03-29T09:58:59.485Z</time>
      </trkpt>
      <trkpt lat="43.1948" lon="3.19424">
        <ele>5</ele>
        <time>2024-03-29T09:59:04.485Z</time>
      </trkpt>
      <trkpt lat="43.19482" lon="3.19422">
        <ele>5</ele>
        <time>2024-03-29T09:59:09.485Z</time>
      </trkpt>
      <trkpt lat="43.19482" lon="3.19421">
        <ele>5</ele>
        <time>2024-03-29T09:59:14.485Z</time>
      </trkpt>
      <trkpt lat="43.19484" lon="3.19421">
        <ele>5</ele>
        <time>2024-03-29T09:59:18.485Z</time>
      </trkpt>
      <trkpt lat="43.19487" lon="3.19421">
        <ele>6</ele>
        <time>2024-03-29T09:59:22.485Z</time>
      </trkpt>
      <trkpt lat="43.19494" lon="3.19421">
        <ele>6</ele>
        <time>2024-03-29T09:59:27.485Z</time>
      </trkpt>
      <trkpt lat="43.19501" lon="3.1942">
        <ele>6</ele>
        <time>2024-03-29T09:59:32.485Z</time>
      </trkpt>
      <trkpt lat="43.19508" lon="3.1942">
        <ele>6</ele>
        <time>2024-03-29T09:59:37.485Z</time>
      </trkpt>
      <trkpt lat="43.19514" lon="3.19418">
        <ele>6</ele>
        <time>2024-03-29T09:59:42.485Z</time>
      </trkpt>
      <trkpt lat="43.19519" lon="3.19416">
        <ele>7</ele>
        <time>2024-03-29T09:59:47.485Z</time>
      </trkpt>
      <trkpt lat="43.19523" lon="3.19414">
        <ele>7</ele>
        <time>2024-03-29T09:59:52.485Z</time>
      </trkpt>
      <trkpt lat="43.19529" lon="3.19411">
        <ele>7</ele>
        <time>2024-03-29T09:59:57.485Z</time>
      </trkpt>
      <trkpt lat="43.19535" lon="3.19411">
        <ele>7</ele>
        <time>2024-03-29T10:00:02.485Z</time>
      </trkpt>
      <trkpt lat="43.19541" lon="3.1941">
        <ele>7</ele>
        <time>2024-03-29T10:00:07.485Z</time>
      </trkpt>
      <trkpt lat="43.19546" lon="3.19408">
        <ele>5</ele>
        <time>2024-03-29T10:00:12.485Z</time>
      </trkpt>
      <trkpt lat="43.19552" lon="3.19407">
        <ele>5</ele>
        <time>2024-03-29T10:00:17.485Z</time>
      </trkpt>
      <trkpt lat="43.19556" lon="3.19406">
        <ele>5</ele>
        <time>2024-03-29T10:00:21.485Z</time>
      </trkpt>
      <trkpt lat="43.19563" lon="3.19405">
        <ele>5</ele>
        <time>2024-03-29T10:00:26.485Z</time>
      </trkpt>
      <trkpt lat="43.19568" lon="3.19402">
        <ele>6</ele>
        <time>2024-03-29T10:00:30.485Z</time>
      </trkpt>
      <trkpt lat="43.19573" lon="3.19397">
        <ele>5</ele>
        <time>2024-03-29T10:00:35.485Z</time>
      </trkpt>
      <trkpt lat="43.19575" lon="3.19395">
        <ele>5</ele>
        <time>2024-03-29T10:00:39.485Z</time>
      </trkpt>
      <trkpt lat="43.19579" lon="3.19391">
        <ele>5</ele>
        <time>2024-03-29T10:00:44.485Z</time>
      </trkpt>
      <trkpt lat="43.19582" lon="3.19386">
        <ele>5</ele>
        <time>2024-03-29T10:00:49.485Z</time>
      </trkpt>
      <trkpt lat="43.19586" lon="3.19379">
        <ele>5</ele>
        <time>2024-03-29T10:00:54.485Z</time>
      </trkpt>
      <trkpt lat="43.19592" lon="3.19374">
        <ele>5</ele>
        <time>2024-03-29T10:00:59.485Z</time>
      </trkpt>
      <trkpt lat="43.19595" lon="3.19369">
        <ele>5</ele>
        <time>2024-03-29T10:01:03.485Z</time>
      </trkpt>
      <trkpt lat="43.19599" lon="3.19364">
        <ele>5</ele>
        <time>2024-03-29T10:01:08.485Z</time>
      </trkpt>
      <trkpt lat="43.19603" lon="3.19359">
        <ele>5</ele>
        <time>2024-03-29T10:01:13.485Z</time>
      </trkpt>
      <trkpt lat="43.19607" lon="3.19353">
        <ele>5</ele>
        <time>2024-03-29T10:01:18.485Z</time>
      </trkpt>
      <trkpt lat="43.19613" lon="3.19348">
        <ele>5</ele>
        <time>2024-03-29T10:01:23.485Z</time>
      </trkpt>
      <trkpt lat="43.19616" lon="3.19342">
        <ele>6</ele>
        <time>2024-03-29T10:01:28.485Z</time>
      </trkpt>
      <trkpt lat="43.19618" lon="3.19339">
        <ele>6</ele>
        <time>2024-03-29T10:01:32.485Z</time>
      </trkpt>
      <trkpt lat="43.19621" lon="3.19335">
        <ele>6</ele>
        <time>2024-03-29T10:01:37.485Z</time>
      </trkpt>
      <trkpt lat="43.19624" lon="3.19328">
        <ele>6</ele>
        <time>2024-03-29T10:01:42.485Z</time>
      </trkpt>
      <trkpt lat="43.19626" lon="3.19323">
        <ele>3</ele>
        <time>2024-03-29T10:01:47.485Z</time>
      </trkpt>
      <trkpt lat="43.19628" lon="3.19319">
        <ele>6</ele>
        <time>2024-03-29T10:01:51.485Z</time>
      </trkpt>
      <trkpt lat="43.19634" lon="3.19315">
        <ele>6</ele>
        <time>2024-03-29T10:01:56.485Z</time>
      </trkpt>
      <trkpt lat="43.19642" lon="3.1931">
        <ele>6</ele>
        <time>2024-03-29T10:02:01.485Z</time>
      </trkpt>
      <trkpt lat="43.19647" lon="3.19303">
        <ele>6</ele>
        <time>2024-03-29T10:02:06.485Z</time>
      </trkpt>
      <trkpt lat="43.19651" lon="3.19296">
        <ele>6</ele>
        <time>2024-03-29T10:02:11.485Z</time>
      </trkpt>
      <trkpt lat="43.19653" lon="3.19289">
        <ele>6</ele>
        <time>2024-03-29T10:02:16.485Z</time>
      </trkpt>
      <trkpt lat="43.19656" lon="3.19284">
        <ele>6</ele>
        <time>2024-03-29T10:02:20.485Z</time>
      </trkpt>
      <trkpt lat="43.19659" lon="3.19277">
        <ele>6</ele>
        <time>2024-03-29T10:02:25.485Z</time>
      </trkpt>
      <trkpt lat="43.19661" lon="3.1927">
        <ele>6</ele>
        <time>2024-03-29T10:02:30.485Z</time>
      </trkpt>
      <trkpt lat="43.19661" lon="3.19262">
        <ele>7</ele>
        <time>2024-03-29T10:02:35.485Z</time>
      </trkpt>
      <trkpt lat="43.19662" lon="3.19254">
        <ele>7</ele>
        <time>2024-03-29T10:02:40.485Z</time>
      </trkpt>
      <trkpt lat="43.19663" lon="3.19246">
        <ele>7</ele>
        <time>2024-03-29T10:02:45.486Z</time>
      </trkpt>
      <trkpt lat="43.19664" lon="3.19238">
        <ele>7</ele>
        <time>2024-03-29T10:02:50.486Z</time>
      </trkpt>
      <trkpt lat="43.19665" lon="3.19233">
        <ele>6</ele>
        <time>2024-03-29T10:02:54.486Z</time>
      </trkpt>
      <trkpt lat="43.19666" lon="3.19226">
        <ele>6</ele>
        <time>2024-03-29T10:02:59.486Z</time>
      </trkpt>
      <trkpt lat="43.19667" lon="3.1922">
        <ele>6</ele>
        <time>2024-03-29T10:03:03.486Z</time>
      </trkpt>
      <trkpt lat="43.19667" lon="3.19214">
        <ele>6</ele>
        <time>2024-03-29T10:03:08.486Z</time>
      </trkpt>
      <trkpt lat="43.19667" lon="3.19207">
        <ele>6</ele>
        <time>2024-03-29T10:03:13.486Z</time>
      </trkpt>
      <trkpt lat="43.19668" lon="3.192">
        <ele>6</ele>
        <time>2024-03-29T10:03:18.486Z</time>
      </trkpt>
      <trkpt lat="43.19668" lon="3.19184">
        <ele>6</ele>
        <time>2024-03-29T10:03:38.486Z</time>
      </trkpt>
      <trkpt lat="43.19669" lon="3.19178">
        <ele>7</ele>
        <time>2024-03-29T10:05:41.486Z</time>
      </trkpt>
      <trkpt lat="43.1967" lon="3.19172">
        <ele>7</ele>
        <time>2024-03-29T10:05:46.486Z</time>
      </trkpt>
      <trkpt lat="43.19671" lon="3.19166">
        <ele>7</ele>
        <time>2024-03-29T10:05:51.486Z</time>
      </trkpt>
      <trkpt lat="43.19673" lon="3.1916">
        <ele>7</ele>
        <time>2024-03-29T10:05:56.486Z</time>
      </trkpt>
      <trkpt lat="43.19675" lon="3.19152">
        <ele>11</ele>
        <time>2024-03-29T10:06:01.486Z</time>
      </trkpt>
      <trkpt lat="43.19676" lon="3.19145">
        <ele>11</ele>
        <time>2024-03-29T10:06:06.486Z</time>
      </trkpt>
      <trkpt lat="43.19677" lon="3.19137">
        <ele>11</ele>
        <time>2024-03-29T10:06:11.486Z</time>
      </trkpt>
      <trkpt lat="43.19678" lon="3.19129">
        <ele>11</ele>
        <time>2024-03-29T10:06:16.486Z</time>
      </trkpt>
      <trkpt lat="43.19679" lon="3.19124">
        <ele>14</ele>
        <time>2024-03-29T10:06:20.486Z</time>
      </trkpt>
      <trkpt lat="43.19679" lon="3.19116">
        <ele>14</ele>
        <time>2024-03-29T10:06:25.486Z</time>
      </trkpt>
      <trkpt lat="43.1968" lon="3.19109">
        <ele>14</ele>
        <time>2024-03-29T10:06:30.486Z</time>
      </trkpt>
      <trkpt lat="43.19681" lon="3.19102">
        <ele>7</ele>
        <time>2024-03-29T10:06:35.486Z</time>
      </trkpt>
      <trkpt lat="43.19682" lon="3.19096">
        <ele>10</ele>
        <time>2024-03-29T10:06:39.486Z</time>
      </trkpt>
      <trkpt lat="43.19683" lon="3.19087">
        <ele>10</ele>
        <time>2024-03-29T10:06:44.486Z</time>
      </trkpt>
      <trkpt lat="43.19683" lon="3.19081">
        <ele>10</ele>
        <time>2024-03-29T10:06:48.486Z</time>
      </trkpt>
      <trkpt lat="43.19685" lon="3.19074">
        <ele>10</ele>
        <time>2024-03-29T10:06:53.486Z</time>
      </trkpt>
      <trkpt lat="43.19686" lon="3.19066">
        <ele>11</ele>
        <time>2024-03-29T10:06:58.486Z</time>
      </trkpt>
      <trkpt lat="43.19687" lon="3.19058">
        <ele>11</ele>
        <time>2024-03-29T10:07:03.486Z</time>
      </trkpt>
      <trkpt lat="43.19687" lon="3.1905">
        <ele>11</ele>
        <time>2024-03-29T10:07:07.486Z</time>
      </trkpt>
      <trkpt lat="43.19687" lon="3.1904">
        <ele>11</ele>
        <time>2024-03-29T10:07:12.486Z</time>
      </trkpt>
      <trkpt lat="43.19686" lon="3.19033">
        <ele>11</ele>
        <time>2024-03-29T10:07:17.486Z</time>
      </trkpt>
      <trkpt lat="43.19687" lon="3.19025">
        <ele>11</ele>
        <time>2024-03-29T10:07:22.486Z</time>
      </trkpt>
      <trkpt lat="43.1969" lon="3.19018">
        <ele>11</ele>
        <time>2024-03-29T10:07:27.486Z</time>
      </trkpt>
      <trkpt lat="43.19694" lon="3.19013">
        <ele>10</ele>
        <time>2024-03-29T10:07:32.486Z</time>
      </trkpt>
      <trkpt lat="43.19695" lon="3.19007">
        <ele>10</ele>
        <time>2024-03-29T10:07:37.486Z</time>
      </trkpt>
      <trkpt lat="43.19696" lon="3.18999">
        <ele>10</ele>
        <time>2024-03-29T10:07:42.486Z</time>
      </trkpt>
      <trkpt lat="43.19696" lon="3.1899">
        <ele>10</ele>
        <time>2024-03-29T10:07:47.486Z</time>
      </trkpt>
      <trkpt lat="43.19697" lon="3.1898">
        <ele>10</ele>
        <time>2024-03-29T10:07:52.486Z</time>
      </trkpt>
      <trkpt lat="43.19698" lon="3.18973">
        <ele>10</ele>
        <time>2024-03-29T10:07:56.486Z</time>
      </trkpt>
      <trkpt lat="43.19699" lon="3.18963">
        <ele>10</ele>
        <time>2024-03-29T10:08:01.486Z</time>
      </trkpt>
      <trkpt lat="43.197" lon="3.18955">
        <ele>11</ele>
        <time>2024-03-29T10:08:06.486Z</time>
      </trkpt>
      <trkpt lat="43.19702" lon="3.18947">
        <ele>11</ele>
        <time>2024-03-29T10:08:11.486Z</time>
      </trkpt>
      <trkpt lat="43.19704" lon="3.18937">
        <ele>11</ele>
        <time>2024-03-29T10:08:16.486Z</time>
      </trkpt>
      <trkpt lat="43.19707" lon="3.18929">
        <ele>13</ele>
        <time>2024-03-29T10:08:21.486Z</time>
      </trkpt>
      <trkpt lat="43.19711" lon="3.18922">
        <ele>11</ele>
        <time>2024-03-29T10:08:26.486Z</time>
      </trkpt>
      <trkpt lat="43.19716" lon="3.18918">
        <ele>11</ele>
        <time>2024-03-29T10:08:31.486Z</time>
      </trkpt>
      <trkpt lat="43.1972" lon="3.18914">
        <ele>11</ele>
        <time>2024-03-29T10:08:35.486Z</time>
      </trkpt>
      <trkpt lat="43.19722" lon="3.18911">
        <ele>11</ele>
        <time>2024-03-29T10:08:40.486Z</time>
      </trkpt>
      <trkpt lat="43.19725" lon="3.18907">
        <ele>11</ele>
        <time>2024-03-29T10:08:44.486Z</time>
      </trkpt>
      <trkpt lat="43.1973" lon="3.18903">
        <ele>15</ele>
        <time>2024-03-29T10:08:49.486Z</time>
      </trkpt>
      <trkpt lat="43.19736" lon="3.18898">
        <ele>15</ele>
        <time>2024-03-29T10:08:54.486Z</time>
      </trkpt>
      <trkpt lat="43.1974" lon="3.18894">
        <ele>13</ele>
        <time>2024-03-29T10:08:59.486Z</time>
      </trkpt>
      <trkpt lat="43.19745" lon="3.18891">
        <ele>13</ele>
        <time>2024-03-29T10:09:03.486Z</time>
      </trkpt>
      <trkpt lat="43.1975" lon="3.18887">
        <ele>13</ele>
        <time>2024-03-29T10:09:08.486Z</time>
      </trkpt>
      <trkpt lat="43.19755" lon="3.18885">
        <ele>13</ele>
        <time>2024-03-29T10:09:13.486Z</time>
      </trkpt>
      <trkpt lat="43.1976" lon="3.18881">
        <ele>13</ele>
        <time>2024-03-29T10:09:18.486Z</time>
      </trkpt>
      <trkpt lat="43.19766" lon="3.18876">
        <ele>9</ele>
        <time>2024-03-29T10:09:23.486Z</time>
      </trkpt>
      <trkpt lat="43.19769" lon="3.18869">
        <ele>10</ele>
        <time>2024-03-29T10:09:28.486Z</time>
      </trkpt>
      <trkpt lat="43.19773" lon="3.18862">
        <ele>10</ele>
        <time>2024-03-29T10:09:33.486Z</time>
      </trkpt>
      <trkpt lat="43.19778" lon="3.18855">
        <ele>10</ele>
        <time>2024-03-29T10:09:38.486Z</time>
      </trkpt>
      <trkpt lat="43.19781" lon="3.18849">
        <ele>10</ele>
        <time>2024-03-29T10:09:43.486Z</time>
      </trkpt>
      <trkpt lat="43.19782" lon="3.18841">
        <ele>14</ele>
        <time>2024-03-29T10:09:48.486Z</time>
      </trkpt>
      <trkpt lat="43.19784" lon="3.18833">
        <ele>14</ele>
        <time>2024-03-29T10:09:53.486Z</time>
      </trkpt>
      <trkpt lat="43.19785" lon="3.18827">
        <ele>14</ele>
        <time>2024-03-29T10:09:58.486Z</time>
      </trkpt>
      <trkpt lat="43.19786" lon="3.18819">
        <ele>15</ele>
        <time>2024-03-29T10:10:03.486Z</time>
      </trkpt>
      <trkpt lat="43.19786" lon="3.18809">
        <ele>15</ele>
        <time>2024-03-29T10:10:08.486Z</time>
      </trkpt>
      <trkpt lat="43.19786" lon="3.188">
        <ele>15</ele>
        <time>2024-03-29T10:10:13.486Z</time>
      </trkpt>
      <trkpt lat="43.19786" lon="3.18793">
        <ele>15</ele>
        <time>2024-03-29T10:10:18.486Z</time>
      </trkpt>
      <trkpt lat="43.19788" lon="3.18784">
        <ele>15</ele>
        <time>2024-03-29T10:10:23.486Z</time>
      </trkpt>
      <trkpt lat="43.1979" lon="3.18775">
        <ele>15</ele>
        <time>2024-03-29T10:10:28.486Z</time>
      </trkpt>
      <trkpt lat="43.1979" lon="3.18768">
        <ele>15</ele>
        <time>2024-03-29T10:10:33.486Z</time>
      </trkpt>
      <trkpt lat="43.1979" lon="3.18759">
        <ele>13</ele>
        <time>2024-03-29T10:10:38.486Z</time>
      </trkpt>
      <trkpt lat="43.1979" lon="3.18751">
        <ele>13</ele>
        <time>2024-03-29T10:10:43.486Z</time>
      </trkpt>
      <trkpt lat="43.19791" lon="3.18746">
        <ele>13</ele>
        <time>2024-03-29T10:10:48.486Z</time>
      </trkpt>
      <trkpt lat="43.19793" lon="3.18741">
        <ele>8</ele>
        <time>2024-03-29T10:10:53.486Z</time>
      </trkpt>
      <trkpt lat="43.19792" lon="3.18735">
        <ele>10</ele>
        <time>2024-03-29T10:10:58.486Z</time>
      </trkpt>
      <trkpt lat="43.1979" lon="3.18728">
        <ele>10</ele>
        <time>2024-03-29T10:11:03.486Z</time>
      </trkpt>
      <trkpt lat="43.19788" lon="3.18723">
        <ele>10</ele>
        <time>2024-03-29T10:11:07.486Z</time>
      </trkpt>
      <trkpt lat="43.19785" lon="3.18717">
        <ele>10</ele>
        <time>2024-03-29T10:11:12.486Z</time>
      </trkpt>
      <trkpt lat="43.19781" lon="3.18711">
        <ele>10</ele>
        <time>2024-03-29T10:11:17.486Z</time>
      </trkpt>
      <trkpt lat="43.19777" lon="3.18706">
        <ele>9</ele>
        <time>2024-03-29T10:11:22.486Z</time>
      </trkpt>
      <trkpt lat="43.19774" lon="3.18702">
        <ele>9</ele>
        <time>2024-03-29T10:11:26.486Z</time>
      </trkpt>
      <trkpt lat="43.19771" lon="3.18696">
        <ele>9</ele>
        <time>2024-03-29T10:11:31.486Z</time>
      </trkpt>
      <trkpt lat="43.1977" lon="3.1869">
        <ele>9</ele>
        <time>2024-03-29T10:11:36.486Z</time>
      </trkpt>
      <trkpt lat="43.19769" lon="3.18684">
        <ele>9</ele>
        <time>2024-03-29T10:11:40.486Z</time>
      </trkpt>
      <trkpt lat="43.19768" lon="3.18678">
        <ele>6</ele>
        <time>2024-03-29T10:11:44.486Z</time>
      </trkpt>
      <trkpt lat="43.19767" lon="3.18669">
        <ele>6</ele>
        <time>2024-03-29T10:11:49.486Z</time>
      </trkpt>
      <trkpt lat="43.19766" lon="3.18663">
        <ele>6</ele>
        <time>2024-03-29T10:11:53.486Z</time>
      </trkpt>
      <trkpt lat="43.19765" lon="3.18655">
        <ele>6</ele>
        <time>2024-03-29T10:11:58.486Z</time>
      </trkpt>
      <trkpt lat="43.19764" lon="3.18647">
        <ele>14</ele>
        <time>2024-03-29T10:12:03.486Z</time>
      </trkpt>
      <trkpt lat="43.19763" lon="3.18638">
        <ele>14</ele>
        <time>2024-03-29T10:12:08.486Z</time>
      </trkpt>
      <trkpt lat="43.19762" lon="3.18628">
        <ele>14</ele>
        <time>2024-03-29T10:12:13.486Z</time>
      </trkpt>
      <trkpt lat="43.19761" lon="3.18619">
        <ele>12</ele>
        <time>2024-03-29T10:12:18.486Z</time>
      </trkpt>
      <trkpt lat="43.19762" lon="3.1861">
        <ele>12</ele>
        <time>2024-03-29T10:12:23.486Z</time>
      </trkpt>
      <trkpt lat="43.19762" lon="3.18602">
        <ele>12</ele>
        <time>2024-03-29T10:12:28.486Z</time>
      </trkpt>
      <trkpt lat="43.19764" lon="3.18593">
        <ele>14</ele>
        <time>2024-03-29T10:12:33.486Z</time>
      </trkpt>
      <trkpt lat="43.19766" lon="3.18588">
        <ele>8</ele>
        <time>2024-03-29T10:12:37.486Z</time>
      </trkpt>
      <trkpt lat="43.19767" lon="3.1858">
        <ele>8</ele>
        <time>2024-03-29T10:12:42.486Z</time>
      </trkpt>
      <trkpt lat="43.19769" lon="3.18573">
        <ele>8</ele>
        <time>2024-03-29T10:12:47.486Z</time>
      </trkpt>
      <trkpt lat="43.19772" lon="3.18565">
        <ele>11</ele>
        <time>2024-03-29T10:12:52.487Z</time>
      </trkpt>
      <trkpt lat="43.19774" lon="3.18558">
        <ele>11</ele>
        <time>2024-03-29T10:12:57.487Z</time>
      </trkpt>
      <trkpt lat="43.19778" lon="3.18551">
        <ele>11</ele>
        <time>2024-03-29T10:13:02.487Z</time>
      </trkpt>
      <trkpt lat="43.19781" lon="3.18544">
        <ele>11</ele>
        <time>2024-03-29T10:13:07.487Z</time>
      </trkpt>
      <trkpt lat="43.19782" lon="3.18539">
        <ele>13</ele>
        <time>2024-03-29T10:13:11.487Z</time>
      </trkpt>
      <trkpt lat="43.19785" lon="3.18532">
        <ele>13</ele>
        <time>2024-03-29T10:13:16.487Z</time>
      </trkpt>
      <trkpt lat="43.19787" lon="3.18527">
        <ele>13</ele>
        <time>2024-03-29T10:13:21.487Z</time>
      </trkpt>
      <trkpt lat="43.1979" lon="3.18519">
        <ele>13</ele>
        <time>2024-03-29T10:13:26.487Z</time>
      </trkpt>
      <trkpt lat="43.19792" lon="3.18511">
        <ele>10</ele>
        <time>2024-03-29T10:13:31.487Z</time>
      </trkpt>
      <trkpt lat="43.19791" lon="3.18505">
        <ele>17</ele>
        <time>2024-03-29T10:13:35.487Z</time>
      </trkpt>
      <trkpt lat="43.19791" lon="3.18501">
        <ele>17</ele>
        <time>2024-03-29T10:13:40.487Z</time>
      </trkpt>
      <trkpt lat="43.1979" lon="3.18492">
        <ele>17</ele>
        <time>2024-03-29T10:13:45.487Z</time>
      </trkpt>
      <trkpt lat="43.19792" lon="3.18476">
        <ele>11</ele>
        <time>2024-03-29T10:13:50.487Z</time>
      </trkpt>
      <trkpt lat="43.19795" lon="3.18465">
        <ele>11</ele>
        <time>2024-03-29T10:13:55.487Z</time>
      </trkpt>
      <trkpt lat="43.19796" lon="3.18459">
        <ele>11</ele>
        <time>2024-03-29T10:14:00.487Z</time>
      </trkpt>
      <trkpt lat="43.19794" lon="3.18452">
        <ele>14</ele>
        <time>2024-03-29T10:14:05.487Z</time>
      </trkpt>
      <trkpt lat="43.19793" lon="3.18447">
        <ele>14</ele>
        <time>2024-03-29T10:14:09.487Z</time>
      </trkpt>
      <trkpt lat="43.19793" lon="3.18439">
        <ele>14</ele>
        <time>2024-03-29T10:14:14.487Z</time>
      </trkpt>
      <trkpt lat="43.19794" lon="3.18431">
        <ele>14</ele>
        <time>2024-03-29T10:14:19.487Z</time>
      </trkpt>
      <trkpt lat="43.19794" lon="3.18423">
        <ele>14</ele>
        <time>2024-03-29T10:14:24.487Z</time>
      </trkpt>
      <trkpt lat="43.19793" lon="3.18417">
        <ele>14</ele>
        <time>2024-03-29T10:14:28.487Z</time>
      </trkpt>
      <trkpt lat="43.19792" lon="3.18411">
        <ele>14</ele>
        <time>2024-03-29T10:14:33.487Z</time>
      </trkpt>
      <trkpt lat="43.19791" lon="3.18403">
        <ele>18</ele>
        <time>2024-03-29T10:14:38.487Z</time>
      </trkpt>
      <trkpt lat="43.19793" lon="3.18394">
        <ele>13</ele>
        <time>2024-03-29T10:14:43.487Z</time>
      </trkpt>
      <trkpt lat="43.19793" lon="3.18387">
        <ele>13</ele>
        <time>2024-03-29T10:14:48.487Z</time>
      </trkpt>
      <trkpt lat="43.19793" lon="3.18386">
        <ele>13</ele>
        <time>2024-03-29T10:14:52.487Z</time>
      </trkpt>
      <trkpt lat="43.19798" lon="3.18377">
        <ele>13</ele>
        <time>2024-03-29T10:14:57.487Z</time>
      </trkpt>
      <trkpt lat="43.19804" lon="3.18367">
        <ele>12</ele>
        <time>2024-03-29T10:15:02.487Z</time>
      </trkpt>
      <trkpt lat="43.1981" lon="3.1836">
        <ele>12</ele>
        <time>2024-03-29T10:15:07.487Z</time>
      </trkpt>
      <trkpt lat="43.19815" lon="3.18354">
        <ele>12</ele>
        <time>2024-03-29T10:15:12.487Z</time>
      </trkpt>
      <trkpt lat="43.19818" lon="3.18347">
        <ele>12</ele>
        <time>2024-03-29T10:15:17.487Z</time>
      </trkpt>
      <trkpt lat="43.19822" lon="3.18341">
        <ele>9</ele>
        <time>2024-03-29T10:15:22.487Z</time>
      </trkpt>
      <trkpt lat="43.19826" lon="3.18336">
        <ele>9</ele>
        <time>2024-03-29T10:15:27.487Z</time>
      </trkpt>
      <trkpt lat="43.1983" lon="3.18332">
        <ele>9</ele>
        <time>2024-03-29T10:15:32.487Z</time>
      </trkpt>
      <trkpt lat="43.19834" lon="3.18326">
        <ele>9</ele>
        <time>2024-03-29T10:15:37.487Z</time>
      </trkpt>
      <trkpt lat="43.19837" lon="3.18321">
        <ele>9</ele>
        <time>2024-03-29T10:15:42.487Z</time>
      </trkpt>
      <trkpt lat="43.1984" lon="3.18313">
        <ele>10</ele>
        <time>2024-03-29T10:15:47.487Z</time>
      </trkpt>
      <trkpt lat="43.19843" lon="3.1831">
        <ele>10</ele>
        <time>2024-03-29T10:15:51.487Z</time>
      </trkpt>
      <trkpt lat="43.19845" lon="3.18304">
        <ele>10</ele>
        <time>2024-03-29T10:15:56.487Z</time>
      </trkpt>
      <trkpt lat="43.19846" lon="3.18304">
        <ele>10</ele>
        <time>2024-03-29T10:16:01.487Z</time>
      </trkpt>
      <trkpt lat="43.19846" lon="3.18304">
        <ele>10</ele>
        <time>2024-03-29T10:16:06.487Z</time>
      </trkpt>
      <trkpt lat="43.19853" lon="3.18302">
        <ele>10</ele>
        <time>2024-03-29T10:16:29.487Z</time>
      </trkpt>
      <trkpt lat="43.19855" lon="3.18294">
        <ele>10</ele>
        <time>2024-03-29T10:16:34.487Z</time>
      </trkpt>
      <trkpt lat="43.19857" lon="3.18286">
        <ele>11</ele>
        <time>2024-03-29T10:16:39.487Z</time>
      </trkpt>
      <trkpt lat="43.1986" lon="3.1828">
        <ele>11</ele>
        <time>2024-03-29T10:16:44.487Z</time>
      </trkpt>
      <trkpt lat="43.19863" lon="3.18275">
        <ele>11</ele>
        <time>2024-03-29T10:16:49.487Z</time>
      </trkpt>
      <trkpt lat="43.19868" lon="3.18268">
        <ele>11</ele>
        <time>2024-03-29T10:16:54.487Z</time>
      </trkpt>
      <trkpt lat="43.1987" lon="3.18263">
        <ele>10</ele>
        <time>2024-03-29T10:16:58.487Z</time>
      </trkpt>
      <trkpt lat="43.19875" lon="3.18257">
        <ele>14</ele>
        <time>2024-03-29T10:17:03.487Z</time>
      </trkpt>
      <trkpt lat="43.19879" lon="3.18252">
        <ele>14</ele>
        <time>2024-03-29T10:17:08.487Z</time>
      </trkpt>
      <trkpt lat="43.19884" lon="3.18246">
        <ele>14</ele>
        <time>2024-03-29T10:17:13.487Z</time>
      </trkpt>
      <trkpt lat="43.19886" lon="3.18241">
        <ele>14</ele>
        <time>2024-03-29T10:17:17.487Z</time>
      </trkpt>
      <trkpt lat="43.1989" lon="3.18237">
        <ele>14</ele>
        <time>2024-03-29T10:17:22.487Z</time>
      </trkpt>
      <trkpt lat="43.19893" lon="3.18231">
        <ele>12</ele>
        <time>2024-03-29T10:17:26.487Z</time>
      </trkpt>
      <trkpt lat="43.19896" lon="3.18225">
        <ele>12</ele>
        <time>2024-03-29T10:17:31.487Z</time>
      </trkpt>
      <trkpt lat="43.199" lon="3.18219">
        <ele>12</ele>
        <time>2024-03-29T10:17:36.487Z</time>
      </trkpt>
      <trkpt lat="43.19905" lon="3.18215">
        <ele>16</ele>
        <time>2024-03-29T10:17:40.487Z</time>
      </trkpt>
      <trkpt lat="43.19909" lon="3.1821">
        <ele>16</ele>
        <time>2024-03-29T10:17:45.487Z</time>
      </trkpt>
      <trkpt lat="43.19912" lon="3.18205">
        <ele>15</ele>
        <time>2024-03-29T10:17:50.487Z</time>
      </trkpt>
      <trkpt lat="43.19915" lon="3.182">
        <ele>15</ele>
        <time>2024-03-29T10:17:55.487Z</time>
      </trkpt>
      <trkpt lat="43.1992" lon="3.18193">
        <ele>15</ele>
        <time>2024-03-29T10:18:00.487Z</time>
      </trkpt>
      <trkpt lat="43.19923" lon="3.18186">
        <ele>15</ele>
        <time>2024-03-29T10:18:04.487Z</time>
      </trkpt>
      <trkpt lat="43.19927" lon="3.18182">
        <ele>15</ele>
        <time>2024-03-29T10:18:08.487Z</time>
      </trkpt>
      <trkpt lat="43.19931" lon="3.18176">
        <ele>16</ele>
        <time>2024-03-29T10:18:13.487Z</time>
      </trkpt>
      <trkpt lat="43.19935" lon="3.18172">
        <ele>16</ele>
        <time>2024-03-29T10:18:17.487Z</time>
      </trkpt>
      <trkpt lat="43.19941" lon="3.18167">
        <ele>16</ele>
        <time>2024-03-29T10:18:22.487Z</time>
      </trkpt>
      <trkpt lat="43.19943" lon="3.18161">
        <ele>16</ele>
        <time>2024-03-29T10:18:27.487Z</time>
      </trkpt>
      <trkpt lat="43.19946" lon="3.18155">
        <ele>16</ele>
        <time>2024-03-29T10:18:32.487Z</time>
      </trkpt>
      <trkpt lat="43.1995" lon="3.18149">
        <ele>15</ele>
        <time>2024-03-29T10:18:37.487Z</time>
      </trkpt>
      <trkpt lat="43.19953" lon="3.18144">
        <ele>15</ele>
        <time>2024-03-29T10:18:42.487Z</time>
      </trkpt>
      <trkpt lat="43.19955" lon="3.18136">
        <ele>15</ele>
        <time>2024-03-29T10:18:47.487Z</time>
      </trkpt>
      <trkpt lat="43.19955" lon="3.1813">
        <ele>15</ele>
        <time>2024-03-29T10:18:52.487Z</time>
      </trkpt>
      <trkpt lat="43.19953" lon="3.18122">
        <ele>15</ele>
        <time>2024-03-29T10:18:57.487Z</time>
      </trkpt>
      <trkpt lat="43.19951" lon="3.18115">
        <ele>15</ele>
        <time>2024-03-29T10:19:01.487Z</time>
      </trkpt>
      <trkpt lat="43.19949" lon="3.18108">
        <ele>15</ele>
        <time>2024-03-29T10:19:06.487Z</time>
      </trkpt>
      <trkpt lat="43.1995" lon="3.18099">
        <ele>15</ele>
        <time>2024-03-29T10:19:11.487Z</time>
      </trkpt>
      <trkpt lat="43.19952" lon="3.1809">
        <ele>16</ele>
        <time>2024-03-29T10:19:16.487Z</time>
      </trkpt>
      <trkpt lat="43.19956" lon="3.18084">
        <ele>16</ele>
        <time>2024-03-29T10:19:21.487Z</time>
      </trkpt>
      <trkpt lat="43.19959" lon="3.18079">
        <ele>17</ele>
        <time>2024-03-29T10:19:26.487Z</time>
      </trkpt>
      <trkpt lat="43.19961" lon="3.18076">
        <ele>17</ele>
        <time>2024-03-29T10:19:30.487Z</time>
      </trkpt>
      <trkpt lat="43.19965" lon="3.18072">
        <ele>17</ele>
        <time>2024-03-29T10:19:35.487Z</time>
      </trkpt>
      <trkpt lat="43.19968" lon="3.18065">
        <ele>18</ele>
        <time>2024-03-29T10:19:40.487Z</time>
      </trkpt>
      <trkpt lat="43.19973" lon="3.18061">
        <ele>18</ele>
        <time>2024-03-29T10:19:44.487Z</time>
      </trkpt>
      <trkpt lat="43.19977" lon="3.18056">
        <ele>18</ele>
        <time>2024-03-29T10:19:49.487Z</time>
      </trkpt>
      <trkpt lat="43.19981" lon="3.1805">
        <ele>18</ele>
        <time>2024-03-29T10:19:54.487Z</time>
      </trkpt>
      <trkpt lat="43.19984" lon="3.18044">
        <ele>18</ele>
        <time>2024-03-29T10:19:59.487Z</time>
      </trkpt>
      <trkpt lat="43.19986" lon="3.18037">
        <ele>19</ele>
        <time>2024-03-29T10:20:04.487Z</time>
      </trkpt>
      <trkpt lat="43.19988" lon="3.18031">
        <ele>20</ele>
        <time>2024-03-29T10:20:08.487Z</time>
      </trkpt>
      <trkpt lat="43.19991" lon="3.18024">
        <ele>20</ele>
        <time>2024-03-29T10:20:13.487Z</time>
      </trkpt>
      <trkpt lat="43.19991" lon="3.18016">
        <ele>20</ele>
        <time>2024-03-29T10:20:18.487Z</time>
      </trkpt>
      <trkpt lat="43.19995" lon="3.1801">
        <ele>23</ele>
        <time>2024-03-29T10:20:23.487Z</time>
      </trkpt>
      <trkpt lat="43.19998" lon="3.18004">
        <ele>23</ele>
        <time>2024-03-29T10:20:28.487Z</time>
      </trkpt>
      <trkpt lat="43.20001" lon="3.18001">
        <ele>23</ele>
        <time>2024-03-29T10:20:32.487Z</time>
      </trkpt>
      <trkpt lat="43.20006" lon="3.17997">
        <ele>23</ele>
        <time>2024-03-29T10:20:37.487Z</time>
      </trkpt>
      <trkpt lat="43.2001" lon="3.17993">
        <ele>23</ele>
        <time>2024-03-29T10:20:42.487Z</time>
      </trkpt>
      <trkpt lat="43.20014" lon="3.1799">
        <ele>24</ele>
        <time>2024-03-29T10:20:47.487Z</time>
      </trkpt>
      <trkpt lat="43.20019" lon="3.17986">
        <ele>26</ele>
        <time>2024-03-29T10:20:52.487Z</time>
      </trkpt>
      <trkpt lat="43.20022" lon="3.17981">
        <ele>26</ele>
        <time>2024-03-29T10:20:57.487Z</time>
      </trkpt>
      <trkpt lat="43.20025" lon="3.17978">
        <ele>26</ele>
        <time>2024-03-29T10:21:01.487Z</time>
      </trkpt>
      <trkpt lat="43.2003" lon="3.17974">
        <ele>26</ele>
        <time>2024-03-29T10:21:06.487Z</time>
      </trkpt>
      <trkpt lat="43.20035" lon="3.1797">
        <ele>26</ele>
        <time>2024-03-29T10:21:11.487Z</time>
      </trkpt>
      <trkpt lat="43.20038" lon="3.17967">
        <ele>26</ele>
        <time>2024-03-29T10:21:15.487Z</time>
      </trkpt>
      <trkpt lat="43.20042" lon="3.17963">
        <ele>25</ele>
        <time>2024-03-29T10:21:20.487Z</time>
      </trkpt>
      <trkpt lat="43.20047" lon="3.17959">
        <ele>25</ele>
        <time>2024-03-29T10:21:25.487Z</time>
      </trkpt>
      <trkpt lat="43.2005" lon="3.17954">
        <ele>29</ele>
        <time>2024-03-29T10:21:30.487Z</time>
      </trkpt>
      <trkpt lat="43.20055" lon="3.17949">
        <ele>29</ele>
        <time>2024-03-29T10:21:35.487Z</time>
      </trkpt>
      <trkpt lat="43.2006" lon="3.17945">
        <ele>29</ele>
        <time>2024-03-29T10:21:40.487Z</time>
      </trkpt>
      <trkpt lat="43.20064" lon="3.17943">
        <ele>29</ele>
        <time>2024-03-29T10:21:44.487Z</time>
      </trkpt>
      <trkpt lat="43.20071" lon="3.17942">
        <ele>30</ele>
        <time>2024-03-29T10:21:49.487Z</time>
      </trkpt>
      <trkpt lat="43.20077" lon="3.1794">
        <ele>30</ele>
        <time>2024-03-29T10:21:54.487Z</time>
      </trkpt>
      <trkpt lat="43.20081" lon="3.17939">
        <ele>30</ele>
        <time>2024-03-29T10:21:58.487Z</time>
      </trkpt>
      <trkpt lat="43.20086" lon="3.1794">
        <ele>30</ele>
        <time>2024-03-29T10:22:02.487Z</time>
      </trkpt>
      <trkpt lat="43.20092" lon="3.17942">
        <ele>30</ele>
        <time>2024-03-29T10:22:07.487Z</time>
      </trkpt>
      <trkpt lat="43.20099" lon="3.17943">
        <ele>33</ele>
        <time>2024-03-29T10:22:12.487Z</time>
      </trkpt>
      <trkpt lat="43.20106" lon="3.17946">
        <ele>33</ele>
        <time>2024-03-29T10:22:17.487Z</time>
      </trkpt>
      <trkpt lat="43.20109" lon="3.17949">
        <ele>33</ele>
        <time>2024-03-29T10:22:21.487Z</time>
      </trkpt>
      <trkpt lat="43.20114" lon="3.17951">
        <ele>33</ele>
        <time>2024-03-29T10:22:26.487Z</time>
      </trkpt>
      <trkpt lat="43.20119" lon="3.17951">
        <ele>33</ele>
        <time>2024-03-29T10:22:31.487Z</time>
      </trkpt>
      <trkpt lat="43.20123" lon="3.17951">
        <ele>33</ele>
        <time>2024-03-29T10:22:35.487Z</time>
      </trkpt>
      <trkpt lat="43.20128" lon="3.17949">
        <ele>34</ele>
        <time>2024-03-29T10:22:40.487Z</time>
      </trkpt>
      <trkpt lat="43.20132" lon="3.17945">
        <ele>34</ele>
        <time>2024-03-29T10:22:45.487Z</time>
      </trkpt>
      <trkpt lat="43.20135" lon="3.17939">
        <ele>34</ele>
        <time>2024-03-29T10:22:50.487Z</time>
      </trkpt>
      <trkpt lat="43.20136" lon="3.17934">
        <ele>34</ele>
        <time>2024-03-29T10:22:54.487Z</time>
      </trkpt>
      <trkpt lat="43.20136" lon="3.17927">
        <ele>35</ele>
        <time>2024-03-29T10:22:59.487Z</time>
      </trkpt>
      <trkpt lat="43.20137" lon="3.17921">
        <ele>35</ele>
        <time>2024-03-29T10:23:04.487Z</time>
      </trkpt>
      <trkpt lat="43.20136" lon="3.17916">
        <ele>35</ele>
        <time>2024-03-29T10:23:09.487Z</time>
      </trkpt>
      <trkpt lat="43.20134" lon="3.17911">
        <ele>35</ele>
        <time>2024-03-29T10:23:14.487Z</time>
      </trkpt>
      <trkpt lat="43.20131" lon="3.17905">
        <ele>35</ele>
        <time>2024-03-29T10:23:18.487Z</time>
      </trkpt>
      <trkpt lat="43.20127" lon="3.17899">
        <ele>36</ele>
        <time>2024-03-29T10:23:23.487Z</time>
      </trkpt>
      <trkpt lat="43.20124" lon="3.17892">
        <ele>40</ele>
        <time>2024-03-29T10:23:28.487Z</time>
      </trkpt>
      <trkpt lat="43.20122" lon="3.17885">
        <ele>40</ele>
        <time>2024-03-29T10:23:33.487Z</time>
      </trkpt>
      <trkpt lat="43.2012" lon="3.17877">
        <ele>40</ele>
        <time>2024-03-29T10:23:38.487Z</time>
      </trkpt>
      <trkpt lat="43.20119" lon="3.17872">
        <ele>42</ele>
        <time>2024-03-29T10:23:42.487Z</time>
      </trkpt>
      <trkpt lat="43.20117" lon="3.17864">
        <ele>42</ele>
        <time>2024-03-29T10:23:47.487Z</time>
      </trkpt>
      <trkpt lat="43.20116" lon="3.17857">
        <ele>42</ele>
        <time>2024-03-29T10:23:52.487Z</time>
      </trkpt>
      <trkpt lat="43.20115" lon="3.17852">
        <ele>42</ele>
        <time>2024-03-29T10:23:56.487Z</time>
      </trkpt>
      <trkpt lat="43.20114" lon="3.17846">
        <ele>42</ele>
        <time>2024-03-29T10:24:00.487Z</time>
      </trkpt>
      <trkpt lat="43.20113" lon="3.17838">
        <ele>42</ele>
        <time>2024-03-29T10:24:05.487Z</time>
      </trkpt>
      <trkpt lat="43.20112" lon="3.17832">
        <ele>42</ele>
        <time>2024-03-29T10:24:10.487Z</time>
      </trkpt>
      <trkpt lat="43.20111" lon="3.17825">
        <ele>42</ele>
        <time>2024-03-29T10:24:15.487Z</time>
      </trkpt>
      <trkpt lat="43.20111" lon="3.17817">
        <ele>43</ele>
        <time>2024-03-29T10:24:20.487Z</time>
      </trkpt>
      <trkpt lat="43.20111" lon="3.17809">
        <ele>43</ele>
        <time>2024-03-29T10:24:25.487Z</time>
      </trkpt>
      <trkpt lat="43.20111" lon="3.178">
        <ele>43</ele>
        <time>2024-03-29T10:24:30.487Z</time>
      </trkpt>
      <trkpt lat="43.2011" lon="3.17792">
        <ele>45</ele>
        <time>2024-03-29T10:24:35.487Z</time>
      </trkpt>
      <trkpt lat="43.2011" lon="3.17784">
        <ele>45</ele>
        <time>2024-03-29T10:24:40.487Z</time>
      </trkpt>
      <trkpt lat="43.20109" lon="3.17778">
        <ele>45</ele>
        <time>2024-03-29T10:24:44.487Z</time>
      </trkpt>
      <trkpt lat="43.20108" lon="3.17771">
        <ele>45</ele>
        <time>2024-03-29T10:24:49.487Z</time>
      </trkpt>
      <trkpt lat="43.20108" lon="3.17763">
        <ele>47</ele>
        <time>2024-03-29T10:24:54.487Z</time>
      </trkpt>
      <trkpt lat="43.20108" lon="3.17756">
        <ele>47</ele>
        <time>2024-03-29T10:24:59.487Z</time>
      </trkpt>
      <trkpt lat="43.20107" lon="3.1775">
        <ele>47</ele>
        <time>2024-03-29T10:25:04.487Z</time>
      </trkpt>
      <trkpt lat="43.20107" lon="3.17743">
        <ele>47</ele>
        <time>2024-03-29T10:25:09.487Z</time>
      </trkpt>
      <trkpt lat="43.20106" lon="3.17735">
        <ele>48</ele>
        <time>2024-03-29T10:25:14.487Z</time>
      </trkpt>
      <trkpt lat="43.20105" lon="3.17726">
        <ele>48</ele>
        <time>2024-03-29T10:25:19.487Z</time>
      </trkpt>
      <trkpt lat="43.20105" lon="3.17719">
        <ele>48</ele>
        <time>2024-03-29T10:25:23.487Z</time>
      </trkpt>
      <trkpt lat="43.20104" lon="3.17713">
        <ele>48</ele>
        <time>2024-03-29T10:25:28.487Z</time>
      </trkpt>
      <trkpt lat="43.20103" lon="3.17706">
        <ele>48</ele>
        <time>2024-03-29T10:25:32.487Z</time>
      </trkpt>
      <trkpt lat="43.20103" lon="3.177">
        <ele>48</ele>
        <time>2024-03-29T10:25:37.487Z</time>
      </trkpt>
      <trkpt lat="43.20102" lon="3.17695">
        <ele>48</ele>
        <time>2024-03-29T10:25:42.487Z</time>
      </trkpt>
      <trkpt lat="43.201" lon="3.17689">
        <ele>48</ele>
        <time>2024-03-29T10:25:47.487Z</time>
      </trkpt>
      <trkpt lat="43.20096" lon="3.17682">
        <ele>52</ele>
        <time>2024-03-29T10:25:52.487Z</time>
      </trkpt>
      <trkpt lat="43.20093" lon="3.17675">
        <ele>49</ele>
        <time>2024-03-29T10:25:57.487Z</time>
      </trkpt>
      <trkpt lat="43.2009" lon="3.17668">
        <ele>49</ele>
        <time>2024-03-29T10:26:02.488Z</time>
      </trkpt>
      <trkpt lat="43.20086" lon="3.17661">
        <ele>49</ele>
        <time>2024-03-29T10:26:07.488Z</time>
      </trkpt>
      <trkpt lat="43.20083" lon="3.17653">
        <ele>49</ele>
        <time>2024-03-29T10:26:12.488Z</time>
      </trkpt>
      <trkpt lat="43.20081" lon="3.17646">
        <ele>49</ele>
        <time>2024-03-29T10:26:17.488Z</time>
      </trkpt>
      <trkpt lat="43.20079" lon="3.17638">
        <ele>49</ele>
        <time>2024-03-29T10:26:22.488Z</time>
      </trkpt>
      <trkpt lat="43.20078" lon="3.17631">
        <ele>49</ele>
        <time>2024-03-29T10:26:26.488Z</time>
      </trkpt>
      <trkpt lat="43.20076" lon="3.17624">
        <ele>49</ele>
        <time>2024-03-29T10:26:31.488Z</time>
      </trkpt>
      <trkpt lat="43.20075" lon="3.17616">
        <ele>49</ele>
        <time>2024-03-29T10:26:36.488Z</time>
      </trkpt>
      <trkpt lat="43.20073" lon="3.17611">
        <ele>49</ele>
        <time>2024-03-29T10:26:40.488Z</time>
      </trkpt>
      <trkpt lat="43.20072" lon="3.17604">
        <ele>49</ele>
        <time>2024-03-29T10:26:45.488Z</time>
      </trkpt>
      <trkpt lat="43.20073" lon="3.17596">
        <ele>51</ele>
        <time>2024-03-29T10:26:49.488Z</time>
      </trkpt>
      <trkpt lat="43.20074" lon="3.17585">
        <ele>51</ele>
        <time>2024-03-29T10:26:54.488Z</time>
      </trkpt>
      <trkpt lat="43.20074" lon="3.17576">
        <ele>51</ele>
        <time>2024-03-29T10:26:59.488Z</time>
      </trkpt>
      <trkpt lat="43.20073" lon="3.17567">
        <ele>49</ele>
        <time>2024-03-29T10:27:04.488Z</time>
      </trkpt>
      <trkpt lat="43.20073" lon="3.17558">
        <ele>49</ele>
        <time>2024-03-29T10:27:09.488Z</time>
      </trkpt>
      <trkpt lat="43.20073" lon="3.17552">
        <ele>49</ele>
        <time>2024-03-29T10:27:14.488Z</time>
      </trkpt>
      <trkpt lat="43.20073" lon="3.17544">
        <ele>49</ele>
        <time>2024-03-29T10:27:19.488Z</time>
      </trkpt>
      <trkpt lat="43.20072" lon="3.17539">
        <ele>48</ele>
        <time>2024-03-29T10:27:23.488Z</time>
      </trkpt>
      <trkpt lat="43.20073" lon="3.17533">
        <ele>48</ele>
        <time>2024-03-29T10:27:28.488Z</time>
      </trkpt>
      <trkpt lat="43.20073" lon="3.17526">
        <ele>48</ele>
        <time>2024-03-29T10:27:32.488Z</time>
      </trkpt>
      <trkpt lat="43.20074" lon="3.17518">
        <ele>48</ele>
        <time>2024-03-29T10:27:36.488Z</time>
      </trkpt>
      <trkpt lat="43.20073" lon="3.17507">
        <ele>47</ele>
        <time>2024-03-29T10:27:41.488Z</time>
      </trkpt>
      <trkpt lat="43.20072" lon="3.17498">
        <ele>47</ele>
        <time>2024-03-29T10:27:46.488Z</time>
      </trkpt>
      <trkpt lat="43.20072" lon="3.17492">
        <ele>47</ele>
        <time>2024-03-29T10:27:50.488Z</time>
      </trkpt>
      <trkpt lat="43.20071" lon="3.17485">
        <ele>47</ele>
        <time>2024-03-29T10:27:55.488Z</time>
      </trkpt>
      <trkpt lat="43.20071" lon="3.17478">
        <ele>47</ele>
        <time>2024-03-29T10:28:00.488Z</time>
      </trkpt>
      <trkpt lat="43.20069" lon="3.17471">
        <ele>49</ele>
        <time>2024-03-29T10:28:05.488Z</time>
      </trkpt>
      <trkpt lat="43.20068" lon="3.17463">
        <ele>49</ele>
        <time>2024-03-29T10:28:10.488Z</time>
      </trkpt>
      <trkpt lat="43.20068" lon="3.17455">
        <ele>49</ele>
        <time>2024-03-29T10:28:14.488Z</time>
      </trkpt>
      <trkpt lat="43.2007" lon="3.17448">
        <ele>47</ele>
        <time>2024-03-29T10:28:19.488Z</time>
      </trkpt>
      <trkpt lat="43.20072" lon="3.17439">
        <ele>47</ele>
        <time>2024-03-29T10:28:24.488Z</time>
      </trkpt>
      <trkpt lat="43.20073" lon="3.17432">
        <ele>47</ele>
        <time>2024-03-29T10:28:29.488Z</time>
      </trkpt>
      <trkpt lat="43.20075" lon="3.17424">
        <ele>47</ele>
        <time>2024-03-29T10:28:34.488Z</time>
      </trkpt>
      <trkpt lat="43.20076" lon="3.17419">
        <ele>47</ele>
        <time>2024-03-29T10:28:38.488Z</time>
      </trkpt>
      <trkpt lat="43.20077" lon="3.17411">
        <ele>47</ele>
        <time>2024-03-29T10:28:43.488Z</time>
      </trkpt>
      <trkpt lat="43.20079" lon="3.17404">
        <ele>47</ele>
        <time>2024-03-29T10:28:47.488Z</time>
      </trkpt>
      <trkpt lat="43.2008" lon="3.17397">
        <ele>47</ele>
        <time>2024-03-29T10:28:52.488Z</time>
      </trkpt>
      <trkpt lat="43.20081" lon="3.17389">
        <ele>47</ele>
        <time>2024-03-29T10:28:57.488Z</time>
      </trkpt>
      <trkpt lat="43.20082" lon="3.17383">
        <ele>47</ele>
        <time>2024-03-29T10:29:01.488Z</time>
      </trkpt>
      <trkpt lat="43.20083" lon="3.17375">
        <ele>47</ele>
        <time>2024-03-29T10:29:06.488Z</time>
      </trkpt>
      <trkpt lat="43.20084" lon="3.17367">
        <ele>48</ele>
        <time>2024-03-29T10:29:11.488Z</time>
      </trkpt>
      <trkpt lat="43.20086" lon="3.17359">
        <ele>48</ele>
        <time>2024-03-29T10:29:16.488Z</time>
      </trkpt>
      <trkpt lat="43.20088" lon="3.17351">
        <ele>48</ele>
        <time>2024-03-29T10:29:21.488Z</time>
      </trkpt>
      <trkpt lat="43.2009" lon="3.17344">
        <ele>49</ele>
        <time>2024-03-29T10:29:26.488Z</time>
      </trkpt>
      <trkpt lat="43.20092" lon="3.17336">
        <ele>49</ele>
        <time>2024-03-29T10:29:31.488Z</time>
      </trkpt>
      <trkpt lat="43.20092" lon="3.17328">
        <ele>49</ele>
        <time>2024-03-29T10:29:36.488Z</time>
      </trkpt>
      <trkpt lat="43.20095" lon="3.1732">
        <ele>49</ele>
        <time>2024-03-29T10:29:41.488Z</time>
      </trkpt>
      <trkpt lat="43.20095" lon="3.17312">
        <ele>48</ele>
        <time>2024-03-29T10:29:46.488Z</time>
      </trkpt>
      <trkpt lat="43.20096" lon="3.17304">
        <ele>48</ele>
        <time>2024-03-29T10:29:51.488Z</time>
      </trkpt>
      <trkpt lat="43.20095" lon="3.17297">
        <ele>48</ele>
        <time>2024-03-29T10:29:56.488Z</time>
      </trkpt>
      <trkpt lat="43.20095" lon="3.17291">
        <ele>47</ele>
        <time>2024-03-29T10:30:00.488Z</time>
      </trkpt>
      <trkpt lat="43.20093" lon="3.17283">
        <ele>47</ele>
        <time>2024-03-29T10:30:05.488Z</time>
      </trkpt>
      <trkpt lat="43.20092" lon="3.17277">
        <ele>47</ele>
        <time>2024-03-29T10:30:09.488Z</time>
      </trkpt>
      <trkpt lat="43.2009" lon="3.17269">
        <ele>47</ele>
        <time>2024-03-29T10:30:14.488Z</time>
      </trkpt>
      <trkpt lat="43.20089" lon="3.17264">
        <ele>47</ele>
        <time>2024-03-29T10:30:18.488Z</time>
      </trkpt>
      <trkpt lat="43.20087" lon="3.17254">
        <ele>47</ele>
        <time>2024-03-29T10:30:23.488Z</time>
      </trkpt>
      <trkpt lat="43.20084" lon="3.17244">
        <ele>47</ele>
        <time>2024-03-29T10:30:28.488Z</time>
      </trkpt>
      <trkpt lat="43.20082" lon="3.17238">
        <ele>47</ele>
        <time>2024-03-29T10:30:32.488Z</time>
      </trkpt>
      <trkpt lat="43.20081" lon="3.1723">
        <ele>47</ele>
        <time>2024-03-29T10:30:37.488Z</time>
      </trkpt>
      <trkpt lat="43.2008" lon="3.17223">
        <ele>47</ele>
        <time>2024-03-29T10:30:42.488Z</time>
      </trkpt>
      <trkpt lat="43.20078" lon="3.17216">
        <ele>47</ele>
        <time>2024-03-29T10:30:47.488Z</time>
      </trkpt>
      <trkpt lat="43.20077" lon="3.17208">
        <ele>47</ele>
        <time>2024-03-29T10:30:52.488Z</time>
      </trkpt>
      <trkpt lat="43.20075" lon="3.17202">
        <ele>47</ele>
        <time>2024-03-29T10:30:57.488Z</time>
      </trkpt>
      <trkpt lat="43.20076" lon="3.17195">
        <ele>47</ele>
        <time>2024-03-29T10:31:02.488Z</time>
      </trkpt>
      <trkpt lat="43.20075" lon="3.17188">
        <ele>47</ele>
        <time>2024-03-29T10:31:07.488Z</time>
      </trkpt>
      <trkpt lat="43.20075" lon="3.17179">
        <ele>46</ele>
        <time>2024-03-29T10:31:12.488Z</time>
      </trkpt>
      <trkpt lat="43.20076" lon="3.1717">
        <ele>46</ele>
        <time>2024-03-29T10:31:17.488Z</time>
      </trkpt>
      <trkpt lat="43.20077" lon="3.17163">
        <ele>46</ele>
        <time>2024-03-29T10:31:21.488Z</time>
      </trkpt>
      <trkpt lat="43.20078" lon="3.17154">
        <ele>46</ele>
        <time>2024-03-29T10:31:26.488Z</time>
      </trkpt>
      <trkpt lat="43.2008" lon="3.17146">
        <ele>44</ele>
        <time>2024-03-29T10:31:31.488Z</time>
      </trkpt>
      <trkpt lat="43.20082" lon="3.17138">
        <ele>44</ele>
        <time>2024-03-29T10:31:36.488Z</time>
      </trkpt>
      <trkpt lat="43.20082" lon="3.1713">
        <ele>44</ele>
        <time>2024-03-29T10:31:41.488Z</time>
      </trkpt>
      <trkpt lat="43.20085" lon="3.17122">
        <ele>44</ele>
        <time>2024-03-29T10:31:46.488Z</time>
      </trkpt>
      <trkpt lat="43.20087" lon="3.17114">
        <ele>44</ele>
        <time>2024-03-29T10:31:51.488Z</time>
      </trkpt>
      <trkpt lat="43.20087" lon="3.17107">
        <ele>44</ele>
        <time>2024-03-29T10:31:56.488Z</time>
      </trkpt>
      <trkpt lat="43.20087" lon="3.171">
        <ele>44</ele>
        <time>2024-03-29T10:32:01.488Z</time>
      </trkpt>
      <trkpt lat="43.20088" lon="3.17092">
        <ele>45</ele>
        <time>2024-03-29T10:32:06.488Z</time>
      </trkpt>
      <trkpt lat="43.2009" lon="3.17084">
        <ele>45</ele>
        <time>2024-03-29T10:32:11.488Z</time>
      </trkpt>
      <trkpt lat="43.20091" lon="3.17077">
        <ele>45</ele>
        <time>2024-03-29T10:32:16.488Z</time>
      </trkpt>
      <trkpt lat="43.20092" lon="3.17069">
        <ele>45</ele>
        <time>2024-03-29T10:32:21.488Z</time>
      </trkpt>
      <trkpt lat="43.20093" lon="3.17061">
        <ele>45</ele>
        <time>2024-03-29T10:32:26.488Z</time>
      </trkpt>
      <trkpt lat="43.20093" lon="3.17053">
        <ele>45</ele>
        <time>2024-03-29T10:32:31.488Z</time>
      </trkpt>
      <trkpt lat="43.20094" lon="3.17046">
        <ele>45</ele>
        <time>2024-03-29T10:32:36.488Z</time>
      </trkpt>
      <trkpt lat="43.20096" lon="3.17038">
        <ele>46</ele>
        <time>2024-03-29T10:32:41.488Z</time>
      </trkpt>
      <trkpt lat="43.20098" lon="3.1703">
        <ele>43</ele>
        <time>2024-03-29T10:32:46.488Z</time>
      </trkpt>
      <trkpt lat="43.201" lon="3.17023">
        <ele>43</ele>
        <time>2024-03-29T10:32:51.488Z</time>
      </trkpt>
      <trkpt lat="43.20106" lon="3.17012">
        <ele>44</ele>
        <time>2024-03-29T10:33:11.488Z</time>
      </trkpt>
      <trkpt lat="43.2011" lon="3.17004">
        <ele>44</ele>
        <time>2024-03-29T10:33:43.488Z</time>
      </trkpt>
      <trkpt lat="43.20112" lon="3.16998">
        <ele>44</ele>
        <time>2024-03-29T10:33:47.488Z</time>
      </trkpt>
      <trkpt lat="43.20117" lon="3.16991">
        <ele>44</ele>
        <time>2024-03-29T10:33:52.488Z</time>
      </trkpt>
      <trkpt lat="43.20121" lon="3.16984">
        <ele>46</ele>
        <time>2024-03-29T10:33:57.488Z</time>
      </trkpt>
      <trkpt lat="43.20122" lon="3.16976">
        <ele>46</ele>
        <time>2024-03-29T10:34:02.488Z</time>
      </trkpt>
      <trkpt lat="43.20125" lon="3.16968">
        <ele>46</ele>
        <time>2024-03-29T10:34:07.488Z</time>
      </trkpt>
      <trkpt lat="43.20127" lon="3.16962">
        <ele>42</ele>
        <time>2024-03-29T10:34:12.488Z</time>
      </trkpt>
      <trkpt lat="43.20129" lon="3.16954">
        <ele>43</ele>
        <time>2024-03-29T10:34:17.488Z</time>
      </trkpt>
      <trkpt lat="43.2013" lon="3.16947">
        <ele>43</ele>
        <time>2024-03-29T10:34:22.488Z</time>
      </trkpt>
      <trkpt lat="43.20129" lon="3.1694">
        <ele>43</ele>
        <time>2024-03-29T10:34:27.488Z</time>
      </trkpt>
      <trkpt lat="43.2013" lon="3.16931">
        <ele>43</ele>
        <time>2024-03-29T10:34:32.488Z</time>
      </trkpt>
      <trkpt lat="43.20132" lon="3.16923">
        <ele>44</ele>
        <time>2024-03-29T10:34:37.488Z</time>
      </trkpt>
      <trkpt lat="43.20135" lon="3.16916">
        <ele>44</ele>
        <time>2024-03-29T10:34:42.488Z</time>
      </trkpt>
      <trkpt lat="43.20141" lon="3.16908">
        <ele>44</ele>
        <time>2024-03-29T10:34:47.488Z</time>
      </trkpt>
      <trkpt lat="43.20145" lon="3.16901">
        <ele>43</ele>
        <time>2024-03-29T10:34:52.488Z</time>
      </trkpt>
      <trkpt lat="43.20149" lon="3.16896">
        <ele>43</ele>
        <time>2024-03-29T10:34:57.488Z</time>
      </trkpt>
      <trkpt lat="43.20153" lon="3.16891">
        <ele>41</ele>
        <time>2024-03-29T10:35:02.488Z</time>
      </trkpt>
      <trkpt lat="43.20156" lon="3.16884">
        <ele>41</ele>
        <time>2024-03-29T10:35:07.488Z</time>
      </trkpt>
      <trkpt lat="43.20159" lon="3.16878">
        <ele>41</ele>
        <time>2024-03-29T10:35:12.488Z</time>
      </trkpt>
      <trkpt lat="43.20163" lon="3.16874">
        <ele>40</ele>
        <time>2024-03-29T10:35:17.488Z</time>
      </trkpt>
      <trkpt lat="43.20167" lon="3.16869">
        <ele>40</ele>
        <time>2024-03-29T10:35:22.488Z</time>
      </trkpt>
      <trkpt lat="43.20173" lon="3.16864">
        <ele>40</ele>
        <time>2024-03-29T10:35:27.488Z</time>
      </trkpt>
      <trkpt lat="43.20178" lon="3.1686">
        <ele>40</ele>
        <time>2024-03-29T10:35:32.488Z</time>
      </trkpt>
      <trkpt lat="43.20183" lon="3.16856">
        <ele>39</ele>
        <time>2024-03-29T10:35:37.488Z</time>
      </trkpt>
      <trkpt lat="43.20189" lon="3.16853">
        <ele>39</ele>
        <time>2024-03-29T10:35:42.488Z</time>
      </trkpt>
      <trkpt lat="43.20194" lon="3.16851">
        <ele>39</ele>
        <time>2024-03-29T10:35:46.488Z</time>
      </trkpt>
      <trkpt lat="43.20201" lon="3.16849">
        <ele>39</ele>
        <time>2024-03-29T10:35:51.488Z</time>
      </trkpt>
      <trkpt lat="43.20205" lon="3.16844">
        <ele>39</ele>
        <time>2024-03-29T10:35:56.488Z</time>
      </trkpt>
      <trkpt lat="43.20209" lon="3.16839">
        <ele>40</ele>
        <time>2024-03-29T10:36:01.488Z</time>
      </trkpt>
      <trkpt lat="43.20214" lon="3.16836">
        <ele>40</ele>
        <time>2024-03-29T10:36:06.488Z</time>
      </trkpt>
      <trkpt lat="43.20219" lon="3.16832">
        <ele>40</ele>
        <time>2024-03-29T10:36:11.488Z</time>
      </trkpt>
      <trkpt lat="43.20222" lon="3.16827">
        <ele>40</ele>
        <time>2024-03-29T10:36:15.488Z</time>
      </trkpt>
      <trkpt lat="43.20227" lon="3.16821">
        <ele>40</ele>
        <time>2024-03-29T10:36:20.488Z</time>
      </trkpt>
      <trkpt lat="43.20232" lon="3.16816">
        <ele>41</ele>
        <time>2024-03-29T10:36:25.488Z</time>
      </trkpt>
      <trkpt lat="43.20237" lon="3.16814">
        <ele>41</ele>
        <time>2024-03-29T10:36:30.488Z</time>
      </trkpt>
      <trkpt lat="43.20243" lon="3.16813">
        <ele>41</ele>
        <time>2024-03-29T10:36:35.488Z</time>
      </trkpt>
      <trkpt lat="43.20248" lon="3.16807">
        <ele>41</ele>
        <time>2024-03-29T10:36:40.488Z</time>
      </trkpt>
      <trkpt lat="43.20251" lon="3.16801">
        <ele>41</ele>
        <time>2024-03-29T10:36:45.488Z</time>
      </trkpt>
      <trkpt lat="43.20255" lon="3.16795">
        <ele>41</ele>
        <time>2024-03-29T10:36:50.488Z</time>
      </trkpt>
      <trkpt lat="43.20258" lon="3.16788">
        <ele>42</ele>
        <time>2024-03-29T10:36:55.488Z</time>
      </trkpt>
      <trkpt lat="43.20261" lon="3.16782">
        <ele>42</ele>
        <time>2024-03-29T10:36:59.488Z</time>
      </trkpt>
      <trkpt lat="43.20265" lon="3.16777">
        <ele>43</ele>
        <time>2024-03-29T10:37:04.488Z</time>
      </trkpt>
      <trkpt lat="43.20271" lon="3.16773">
        <ele>43</ele>
        <time>2024-03-29T10:37:09.488Z</time>
      </trkpt>
      <trkpt lat="43.20275" lon="3.16769">
        <ele>43</ele>
        <time>2024-03-29T10:37:13.488Z</time>
      </trkpt>
      <trkpt lat="43.20279" lon="3.16763">
        <ele>44</ele>
        <time>2024-03-29T10:37:18.488Z</time>
      </trkpt>
      <trkpt lat="43.20284" lon="3.16757">
        <ele>44</ele>
        <time>2024-03-29T10:37:23.488Z</time>
      </trkpt>
      <trkpt lat="43.20287" lon="3.16751">
        <ele>44</ele>
        <time>2024-03-29T10:37:28.488Z</time>
      </trkpt>
      <trkpt lat="43.2029" lon="3.16746">
        <ele>44</ele>
        <time>2024-03-29T10:37:32.488Z</time>
      </trkpt>
      <trkpt lat="43.20293" lon="3.16739">
        <ele>44</ele>
        <time>2024-03-29T10:37:37.488Z</time>
      </trkpt>
      <trkpt lat="43.20297" lon="3.16732">
        <ele>45</ele>
        <time>2024-03-29T10:37:42.488Z</time>
      </trkpt>
      <trkpt lat="43.203" lon="3.16727">
        <ele>45</ele>
        <time>2024-03-29T10:37:46.488Z</time>
      </trkpt>
      <trkpt lat="43.20305" lon="3.16721">
        <ele>45</ele>
        <time>2024-03-29T10:37:51.488Z</time>
      </trkpt>
      <trkpt lat="43.20309" lon="3.16715">
        <ele>45</ele>
        <time>2024-03-29T10:37:56.488Z</time>
      </trkpt>
      <trkpt lat="43.20313" lon="3.1671">
        <ele>45</ele>
        <time>2024-03-29T10:38:01.488Z</time>
      </trkpt>
      <trkpt lat="43.20318" lon="3.16705">
        <ele>45</ele>
        <time>2024-03-29T10:38:06.488Z</time>
      </trkpt>
      <trkpt lat="43.20321" lon="3.167">
        <ele>44</ele>
        <time>2024-03-29T10:38:11.488Z</time>
      </trkpt>
      <trkpt lat="43.20325" lon="3.16695">
        <ele>44</ele>
        <time>2024-03-29T10:38:15.488Z</time>
      </trkpt>
      <trkpt lat="43.20329" lon="3.16688">
        <ele>44</ele>
        <time>2024-03-29T10:38:20.488Z</time>
      </trkpt>
      <trkpt lat="43.20333" lon="3.16682">
        <ele>44</ele>
        <time>2024-03-29T10:38:25.488Z</time>
      </trkpt>
      <trkpt lat="43.20337" lon="3.16677">
        <ele>44</ele>
        <time>2024-03-29T10:38:30.488Z</time>
      </trkpt>
      <trkpt lat="43.20342" lon="3.16673">
        <ele>44</ele>
        <time>2024-03-29T10:38:35.488Z</time>
      </trkpt>
      <trkpt lat="43.20347" lon="3.16668">
        <ele>44</ele>
        <time>2024-03-29T10:38:40.488Z</time>
      </trkpt>
      <trkpt lat="43.20351" lon="3.16664">
        <ele>45</ele>
        <time>2024-03-29T10:38:44.488Z</time>
      </trkpt>
      <trkpt lat="43.20356" lon="3.1666">
        <ele>45</ele>
        <time>2024-03-29T10:38:49.488Z</time>
      </trkpt>
      <trkpt lat="43.20363" lon="3.16659">
        <ele>45</ele>
        <time>2024-03-29T10:38:54.488Z</time>
      </trkpt>
      <trkpt lat="43.20369" lon="3.1666">
        <ele>45</ele>
        <time>2024-03-29T10:38:59.488Z</time>
      </trkpt>
      <trkpt lat="43.20374" lon="3.1666">
        <ele>45</ele>
        <time>2024-03-29T10:39:04.488Z</time>
      </trkpt>
      <trkpt lat="43.20375" lon="3.16659">
        <ele>45</ele>
        <time>2024-03-29T10:39:09.488Z</time>
      </trkpt>
      <trkpt lat="43.20375" lon="3.16659">
        <ele>45</ele>
        <time>2024-03-29T10:39:13.488Z</time>
      </trkpt>
      <trkpt lat="43.20377" lon="3.16664">
        <ele>45</ele>
        <time>2024-03-29T10:39:33.488Z</time>
      </trkpt>
      <trkpt lat="43.20379" lon="3.16669">
        <ele>45</ele>
        <time>2024-03-29T10:39:37.488Z</time>
      </trkpt>
      <trkpt lat="43.20382" lon="3.16674">
        <ele>45</ele>
        <time>2024-03-29T10:39:42.488Z</time>
      </trkpt>
      <trkpt lat="43.20383" lon="3.16681">
        <ele>45</ele>
        <time>2024-03-29T10:39:47.488Z</time>
      </trkpt>
      <trkpt lat="43.20384" lon="3.1669">
        <ele>45</ele>
        <time>2024-03-29T10:39:52.488Z</time>
      </trkpt>
      <trkpt lat="43.20384" lon="3.16695">
        <ele>45</ele>
        <time>2024-03-29T10:39:56.488Z</time>
      </trkpt>
      <trkpt lat="43.20385" lon="3.16703">
        <ele>45</ele>
        <time>2024-03-29T10:40:01.488Z</time>
      </trkpt>
      <trkpt lat="43.20384" lon="3.1671">
        <ele>46</ele>
        <time>2024-03-29T10:40:06.488Z</time>
      </trkpt>
      <trkpt lat="43.20382" lon="3.16717">
        <ele>46</ele>
        <time>2024-03-29T10:40:11.488Z</time>
      </trkpt>
      <trkpt lat="43.2038" lon="3.16725">
        <ele>46</ele>
        <time>2024-03-29T10:40:16.488Z</time>
      </trkpt>
      <trkpt lat="43.20378" lon="3.1673">
        <ele>46</ele>
        <time>2024-03-29T10:40:20.488Z</time>
      </trkpt>
      <trkpt lat="43.20376" lon="3.16737">
        <ele>45</ele>
        <time>2024-03-29T10:40:25.488Z</time>
      </trkpt>
      <trkpt lat="43.20375" lon="3.16745">
        <ele>44</ele>
        <time>2024-03-29T10:40:30.488Z</time>
      </trkpt>
      <trkpt lat="43.20374" lon="3.1675">
        <ele>44</ele>
        <time>2024-03-29T10:40:34.488Z</time>
      </trkpt>
      <trkpt lat="43.20374" lon="3.16757">
        <ele>44</ele>
        <time>2024-03-29T10:40:39.488Z</time>
      </trkpt>
      <trkpt lat="43.20374" lon="3.16768">
        <ele>44</ele>
        <time>2024-03-29T10:40:48.488Z</time>
      </trkpt>
      <trkpt lat="43.20375" lon="3.1677">
        <ele>44</ele>
        <time>2024-03-29T10:40:53.488Z</time>
      </trkpt>
      <trkpt lat="43.20375" lon="3.16771">
        <ele>44</ele>
        <time>2024-03-29T10:40:58.488Z</time>
      </trkpt>
      <trkpt lat="43.20375" lon="3.16771">
        <ele>44</ele>
        <time>2024-03-29T10:41:03.488Z</time>
      </trkpt>
      <trkpt lat="43.20381" lon="3.16772">
        <ele>45</ele>
        <time>2024-03-29T10:42:07.488Z</time>
      </trkpt>
      <trkpt lat="43.20386" lon="3.16776">
        <ele>45</ele>
        <time>2024-03-29T10:42:12.488Z</time>
      </trkpt>
      <trkpt lat="43.2039" lon="3.16779">
        <ele>45</ele>
        <time>2024-03-29T10:42:16.488Z</time>
      </trkpt>
      <trkpt lat="43.20397" lon="3.16782">
        <ele>45</ele>
        <time>2024-03-29T10:42:21.488Z</time>
      </trkpt>
      <trkpt lat="43.20402" lon="3.16785">
        <ele>45</ele>
        <time>2024-03-29T10:42:26.488Z</time>
      </trkpt>
      <trkpt lat="43.20408" lon="3.16788">
        <ele>46</ele>
        <time>2024-03-29T10:42:31.488Z</time>
      </trkpt>
      <trkpt lat="43.20411" lon="3.16791">
        <ele>46</ele>
        <time>2024-03-29T10:42:35.488Z</time>
      </trkpt>
      <trkpt lat="43.20413" lon="3.16792">
        <ele>46</ele>
        <time>2024-03-29T10:42:40.488Z</time>
      </trkpt>
      <trkpt lat="43.2042" lon="3.16792">
        <ele>47</ele>
        <time>2024-03-29T10:42:45.488Z</time>
      </trkpt>
      <trkpt lat="43.20424" lon="3.16794">
        <ele>47</ele>
        <time>2024-03-29T10:42:49.488Z</time>
      </trkpt>
      <trkpt lat="43.20429" lon="3.16794">
        <ele>47</ele>
        <time>2024-03-29T10:42:54.488Z</time>
      </trkpt>
      <trkpt lat="43.20435" lon="3.16796">
        <ele>51</ele>
        <time>2024-03-29T10:42:59.488Z</time>
      </trkpt>
      <trkpt lat="43.20437" lon="3.168">
        <ele>51</ele>
        <time>2024-03-29T10:43:03.488Z</time>
      </trkpt>
      <trkpt lat="43.20439" lon="3.16805">
        <ele>51</ele>
        <time>2024-03-29T10:43:08.488Z</time>
      </trkpt>
      <trkpt lat="43.2044" lon="3.16812">
        <ele>51</ele>
        <time>2024-03-29T10:43:13.488Z</time>
      </trkpt>
      <trkpt lat="43.2044" lon="3.16819">
        <ele>51</ele>
        <time>2024-03-29T10:43:18.488Z</time>
      </trkpt>
      <trkpt lat="43.20439" lon="3.16827">
        <ele>52</ele>
        <time>2024-03-29T10:43:23.488Z</time>
      </trkpt>
      <trkpt lat="43.20439" lon="3.16836">
        <ele>52</ele>
        <time>2024-03-29T10:43:28.488Z</time>
      </trkpt>
      <trkpt lat="43.20438" lon="3.16843">
        <ele>52</ele>
        <time>2024-03-29T10:43:33.488Z</time>
      </trkpt>
      <trkpt lat="43.20436" lon="3.16849">
        <ele>53</ele>
        <time>2024-03-29T10:43:37.488Z</time>
      </trkpt>
      <trkpt lat="43.20436" lon="3.16857">
        <ele>53</ele>
        <time>2024-03-29T10:43:42.488Z</time>
      </trkpt>
      <trkpt lat="43.20436" lon="3.16866">
        <ele>53</ele>
        <time>2024-03-29T10:43:47.488Z</time>
      </trkpt>
      <trkpt lat="43.20438" lon="3.16872">
        <ele>53</ele>
        <time>2024-03-29T10:43:52.488Z</time>
      </trkpt>
      <trkpt lat="43.20442" lon="3.1688">
        <ele>53</ele>
        <time>2024-03-29T10:43:57.488Z</time>
      </trkpt>
      <trkpt lat="43.20446" lon="3.16887">
        <ele>53</ele>
        <time>2024-03-29T10:44:02.488Z</time>
      </trkpt>
      <trkpt lat="43.2045" lon="3.16893">
        <ele>53</ele>
        <time>2024-03-29T10:44:07.488Z</time>
      </trkpt>
      <trkpt lat="43.20453" lon="3.169">
        <ele>53</ele>
        <time>2024-03-29T10:44:12.488Z</time>
      </trkpt>
      <trkpt lat="43.20457" lon="3.16906">
        <ele>54</ele>
        <time>2024-03-29T10:44:17.488Z</time>
      </trkpt>
      <trkpt lat="43.2046" lon="3.16912">
        <ele>55</ele>
        <time>2024-03-29T10:44:22.488Z</time>
      </trkpt>
      <trkpt lat="43.20463" lon="3.16917">
        <ele>55</ele>
        <time>2024-03-29T10:44:27.488Z</time>
      </trkpt>
      <trkpt lat="43.20466" lon="3.16924">
        <ele>55</ele>
        <time>2024-03-29T10:44:32.488Z</time>
      </trkpt>
      <trkpt lat="43.20468" lon="3.1693">
        <ele>55</ele>
        <time>2024-03-29T10:44:36.488Z</time>
      </trkpt>
      <trkpt lat="43.20471" lon="3.16935">
        <ele>54</ele>
        <time>2024-03-29T10:44:41.488Z</time>
      </trkpt>
      <trkpt lat="43.20474" lon="3.16943">
        <ele>54</ele>
        <time>2024-03-29T10:44:46.488Z</time>
      </trkpt>
      <trkpt lat="43.20475" lon="3.16949">
        <ele>54</ele>
        <time>2024-03-29T10:44:50.488Z</time>
      </trkpt>
      <trkpt lat="43.20475" lon="3.16954">
        <ele>54</ele>
        <time>2024-03-29T10:44:55.488Z</time>
      </trkpt>
      <trkpt lat="43.20475" lon="3.16961">
        <ele>54</ele>
        <time>2024-03-29T10:45:00.488Z</time>
      </trkpt>
      <trkpt lat="43.20473" lon="3.16968">
        <ele>54</ele>
        <time>2024-03-29T10:45:04.488Z</time>
      </trkpt>
      <trkpt lat="43.20474" lon="3.16976">
        <ele>54</ele>
        <time>2024-03-29T10:45:08.488Z</time>
      </trkpt>
      <trkpt lat="43.20477" lon="3.16985">
        <ele>54</ele>
        <time>2024-03-29T10:45:13.488Z</time>
      </trkpt>
      <trkpt lat="43.20481" lon="3.16989">
        <ele>54</ele>
        <time>2024-03-29T10:45:18.488Z</time>
      </trkpt>
      <trkpt lat="43.20487" lon="3.16993">
        <ele>54</ele>
        <time>2024-03-29T10:45:23.488Z</time>
      </trkpt>
      <trkpt lat="43.20494" lon="3.16993">
        <ele>54</ele>
        <time>2024-03-29T10:45:28.488Z</time>
      </trkpt>
      <trkpt lat="43.20499" lon="3.16995">
        <ele>54</ele>
        <time>2024-03-29T10:45:33.488Z</time>
      </trkpt>
      <trkpt lat="43.20503" lon="3.16996">
        <ele>54</ele>
        <time>2024-03-29T10:45:37.488Z</time>
      </trkpt>
      <trkpt lat="43.20509" lon="3.16997">
        <ele>54</ele>
        <time>2024-03-29T10:45:42.488Z</time>
      </trkpt>
      <trkpt lat="43.20515" lon="3.16999">
        <ele>55</ele>
        <time>2024-03-29T10:45:47.488Z</time>
      </trkpt>
      <trkpt lat="43.20522" lon="3.17001">
        <ele>55</ele>
        <time>2024-03-29T10:45:52.488Z</time>
      </trkpt>
      <trkpt lat="43.20527" lon="3.17003">
        <ele>55</ele>
        <time>2024-03-29T10:45:57.488Z</time>
      </trkpt>
      <trkpt lat="43.20529" lon="3.17004">
        <ele>55</ele>
        <time>2024-03-29T10:46:06.488Z</time>
      </trkpt>
      <trkpt lat="43.20529" lon="3.17004">
        <ele>55</ele>
        <time>2024-03-29T10:46:10.488Z</time>
      </trkpt>
      <trkpt lat="43.2053" lon="3.17004">
        <ele>55</ele>
        <time>2024-03-29T10:46:15.488Z</time>
      </trkpt>
      <trkpt lat="43.20536" lon="3.17007">
        <ele>55</ele>
        <time>2024-03-29T10:46:20.488Z</time>
      </trkpt>
      <trkpt lat="43.2054" lon="3.17012">
        <ele>55</ele>
        <time>2024-03-29T10:46:25.488Z</time>
      </trkpt>
      <trkpt lat="43.20546" lon="3.17016">
        <ele>56</ele>
        <time>2024-03-29T10:46:30.488Z</time>
      </trkpt>
      <trkpt lat="43.2055" lon="3.1702">
        <ele>56</ele>
        <time>2024-03-29T10:46:34.488Z</time>
      </trkpt>
      <trkpt lat="43.20553" lon="3.17025">
        <ele>56</ele>
        <time>2024-03-29T10:46:38.488Z</time>
      </trkpt>
      <trkpt lat="43.20557" lon="3.1703">
        <ele>56</ele>
        <time>2024-03-29T10:46:42.488Z</time>
      </trkpt>
      <trkpt lat="43.20562" lon="3.17037">
        <ele>56</ele>
        <time>2024-03-29T10:46:47.488Z</time>
      </trkpt>
      <trkpt lat="43.20566" lon="3.17043">
        <ele>56</ele>
        <time>2024-03-29T10:46:52.488Z</time>
      </trkpt>
      <trkpt lat="43.2057" lon="3.1705">
        <ele>56</ele>
        <time>2024-03-29T10:46:57.488Z</time>
      </trkpt>
      <trkpt lat="43.20575" lon="3.17055">
        <ele>56</ele>
        <time>2024-03-29T10:47:02.488Z</time>
      </trkpt>
      <trkpt lat="43.20579" lon="3.1706">
        <ele>56</ele>
        <time>2024-03-29T10:47:07.488Z</time>
      </trkpt>
      <trkpt lat="43.20583" lon="3.17066">
        <ele>56</ele>
        <time>2024-03-29T10:47:12.488Z</time>
      </trkpt>
      <trkpt lat="43.20587" lon="3.17073">
        <ele>55</ele>
        <time>2024-03-29T10:47:17.488Z</time>
      </trkpt>
      <trkpt lat="43.20591" lon="3.17078">
        <ele>55</ele>
        <time>2024-03-29T10:47:22.488Z</time>
      </trkpt>
      <trkpt lat="43.20595" lon="3.17084">
        <ele>55</ele>
        <time>2024-03-29T10:47:27.488Z</time>
      </trkpt>
      <trkpt lat="43.20598" lon="3.1709">
        <ele>54</ele>
        <time>2024-03-29T10:47:32.488Z</time>
      </trkpt>
      <trkpt lat="43.20601" lon="3.17098">
        <ele>52</ele>
        <time>2024-03-29T10:47:37.488Z</time>
      </trkpt>
      <trkpt lat="43.20603" lon="3.17107">
        <ele>52</ele>
        <time>2024-03-29T10:47:42.488Z</time>
      </trkpt>
      <trkpt lat="43.20606" lon="3.17112">
        <ele>52</ele>
        <time>2024-03-29T10:47:47.488Z</time>
      </trkpt>
      <trkpt lat="43.20611" lon="3.17118">
        <ele>52</ele>
        <time>2024-03-29T10:47:52.488Z</time>
      </trkpt>
      <trkpt lat="43.20616" lon="3.17124">
        <ele>52</ele>
        <time>2024-03-29T10:47:57.488Z</time>
      </trkpt>
      <trkpt lat="43.2062" lon="3.17128">
        <ele>51</ele>
        <time>2024-03-29T10:48:02.488Z</time>
      </trkpt>
      <trkpt lat="43.20624" lon="3.17132">
        <ele>51</ele>
        <time>2024-03-29T10:48:06.489Z</time>
      </trkpt>
      <trkpt lat="43.20627" lon="3.17139">
        <ele>52</ele>
        <time>2024-03-29T10:48:11.489Z</time>
      </trkpt>
      <trkpt lat="43.2063" lon="3.17143">
        <ele>52</ele>
        <time>2024-03-29T10:48:15.489Z</time>
      </trkpt>
      <trkpt lat="43.20636" lon="3.17143">
        <ele>52</ele>
        <time>2024-03-29T10:48:20.489Z</time>
      </trkpt>
      <trkpt lat="43.20638" lon="3.17139">
        <ele>52</ele>
        <time>2024-03-29T10:48:24.489Z</time>
      </trkpt>
      <trkpt lat="43.20641" lon="3.17133">
        <ele>52</ele>
        <time>2024-03-29T10:48:29.489Z</time>
      </trkpt>
      <trkpt lat="43.20643" lon="3.17127">
        <ele>52</ele>
        <time>2024-03-29T10:48:34.489Z</time>
      </trkpt>
      <trkpt lat="43.20646" lon="3.1712">
        <ele>53</ele>
        <time>2024-03-29T10:48:39.489Z</time>
      </trkpt>
      <trkpt lat="43.20647" lon="3.17115">
        <ele>53</ele>
        <time>2024-03-29T10:48:44.489Z</time>
      </trkpt>
      <trkpt lat="43.2065" lon="3.17109">
        <ele>53</ele>
        <time>2024-03-29T10:48:49.489Z</time>
      </trkpt>
      <trkpt lat="43.20651" lon="3.17103">
        <ele>53</ele>
        <time>2024-03-29T10:48:53.489Z</time>
      </trkpt>
      <trkpt lat="43.20652" lon="3.17096">
        <ele>54</ele>
        <time>2024-03-29T10:48:58.489Z</time>
      </trkpt>
      <trkpt lat="43.20651" lon="3.17089">
        <ele>54</ele>
        <time>2024-03-29T10:49:03.489Z</time>
      </trkpt>
      <trkpt lat="43.20651" lon="3.17082">
        <ele>54</ele>
        <time>2024-03-29T10:49:07.489Z</time>
      </trkpt>
      <trkpt lat="43.20651" lon="3.17073">
        <ele>54</ele>
        <time>2024-03-29T10:49:12.489Z</time>
      </trkpt>
      <trkpt lat="43.20649" lon="3.17065">
        <ele>55</ele>
        <time>2024-03-29T10:49:17.489Z</time>
      </trkpt>
      <trkpt lat="43.20648" lon="3.17057">
        <ele>55</ele>
        <time>2024-03-29T10:49:22.489Z</time>
      </trkpt>
      <trkpt lat="43.20648" lon="3.17051">
        <ele>55</ele>
        <time>2024-03-29T10:49:26.489Z</time>
      </trkpt>
      <trkpt lat="43.20647" lon="3.17046">
        <ele>55</ele>
        <time>2024-03-29T10:49:30.489Z</time>
      </trkpt>
      <trkpt lat="43.20647" lon="3.17045">
        <ele>55</ele>
        <time>2024-03-29T10:49:35.489Z</time>
      </trkpt>
      <trkpt lat="43.20647" lon="3.17044">
        <ele>55</ele>
        <time>2024-03-29T10:49:39.489Z</time>
      </trkpt>
      <trkpt lat="43.20647" lon="3.17044">
        <ele>55</ele>
        <time>2024-03-29T10:49:43.489Z</time>
      </trkpt>
      <trkpt lat="43.20646" lon="3.17046">
        <ele>55</ele>
        <time>2024-03-29T10:49:47.489Z</time>
      </trkpt>
      <trkpt lat="43.20647" lon="3.17055">
        <ele>55</ele>
        <time>2024-03-29T10:49:52.489Z</time>
      </trkpt>
      <trkpt lat="43.20649" lon="3.1706">
        <ele>55</ele>
        <time>2024-03-29T10:49:56.489Z</time>
      </trkpt>
      <trkpt lat="43.2065" lon="3.17068">
        <ele>55</ele>
        <time>2024-03-29T10:50:01.489Z</time>
      </trkpt>
      <trkpt lat="43.2065" lon="3.17076">
        <ele>54</ele>
        <time>2024-03-29T10:50:06.489Z</time>
      </trkpt>
      <trkpt lat="43.20651" lon="3.17081">
        <ele>54</ele>
        <time>2024-03-29T10:50:10.489Z</time>
      </trkpt>
      <trkpt lat="43.20651" lon="3.1709">
        <ele>54</ele>
        <time>2024-03-29T10:50:14.489Z</time>
      </trkpt>
      <trkpt lat="43.20651" lon="3.17095">
        <ele>54</ele>
        <time>2024-03-29T10:50:19.489Z</time>
      </trkpt>
      <trkpt lat="43.2065" lon="3.17104">
        <ele>53</ele>
        <time>2024-03-29T10:50:23.489Z</time>
      </trkpt>
      <trkpt lat="43.20648" lon="3.17112">
        <ele>53</ele>
        <time>2024-03-29T10:50:28.489Z</time>
      </trkpt>
      <trkpt lat="43.20648" lon="3.17115">
        <ele>53</ele>
        <time>2024-03-29T10:50:32.489Z</time>
      </trkpt>
      <trkpt lat="43.20644" lon="3.17127">
        <ele>52</ele>
        <time>2024-03-29T10:50:37.489Z</time>
      </trkpt>
      <trkpt lat="43.20642" lon="3.17131">
        <ele>52</ele>
        <time>2024-03-29T10:50:41.489Z</time>
      </trkpt>
      <trkpt lat="43.20639" lon="3.17139">
        <ele>52</ele>
        <time>2024-03-29T10:50:46.489Z</time>
      </trkpt>
      <trkpt lat="43.20635" lon="3.17144">
        <ele>52</ele>
        <time>2024-03-29T10:50:50.489Z</time>
      </trkpt>
      <trkpt lat="43.20635" lon="3.17151">
        <ele>52</ele>
        <time>2024-03-29T10:50:55.489Z</time>
      </trkpt>
      <trkpt lat="43.20638" lon="3.17161">
        <ele>51</ele>
        <time>2024-03-29T10:51:00.489Z</time>
      </trkpt>
      <trkpt lat="43.20639" lon="3.17165">
        <ele>51</ele>
        <time>2024-03-29T10:51:04.489Z</time>
      </trkpt>
      <trkpt lat="43.20643" lon="3.17171">
        <ele>51</ele>
        <time>2024-03-29T10:51:08.489Z</time>
      </trkpt>
      <trkpt lat="43.20647" lon="3.17178">
        <ele>51</ele>
        <time>2024-03-29T10:51:13.489Z</time>
      </trkpt>
      <trkpt lat="43.20651" lon="3.17181">
        <ele>49</ele>
        <time>2024-03-29T10:51:18.489Z</time>
      </trkpt>
      <trkpt lat="43.20656" lon="3.17186">
        <ele>50</ele>
        <time>2024-03-29T10:51:22.489Z</time>
      </trkpt>
      <trkpt lat="43.20661" lon="3.17191">
        <ele>50</ele>
        <time>2024-03-29T10:51:27.489Z</time>
      </trkpt>
      <trkpt lat="43.20666" lon="3.17191">
        <ele>50</ele>
        <time>2024-03-29T10:51:31.489Z</time>
      </trkpt>
      <trkpt lat="43.2067" lon="3.17188">
        <ele>50</ele>
        <time>2024-03-29T10:51:36.489Z</time>
      </trkpt>
      <trkpt lat="43.20674" lon="3.17182">
        <ele>50</ele>
        <time>2024-03-29T10:51:40.489Z</time>
      </trkpt>
      <trkpt lat="43.20678" lon="3.17176">
        <ele>51</ele>
        <time>2024-03-29T10:51:45.489Z</time>
      </trkpt>
      <trkpt lat="43.20682" lon="3.1717">
        <ele>53</ele>
        <time>2024-03-29T10:51:50.489Z</time>
      </trkpt>
      <trkpt lat="43.20685" lon="3.17167">
        <ele>53</ele>
        <time>2024-03-29T10:51:54.489Z</time>
      </trkpt>
      <trkpt lat="43.20687" lon="3.17162">
        <ele>53</ele>
        <time>2024-03-29T10:51:58.489Z</time>
      </trkpt>
      <trkpt lat="43.20688" lon="3.17161">
        <ele>53</ele>
        <time>2024-03-29T10:52:03.489Z</time>
      </trkpt>
      <trkpt lat="43.20691" lon="3.17157">
        <ele>53</ele>
        <time>2024-03-29T10:52:07.489Z</time>
      </trkpt>
      <trkpt lat="43.20694" lon="3.17153">
        <ele>53</ele>
        <time>2024-03-29T10:52:11.489Z</time>
      </trkpt>
      <trkpt lat="43.20697" lon="3.17149">
        <ele>54</ele>
        <time>2024-03-29T10:52:15.489Z</time>
      </trkpt>
      <trkpt lat="43.20701" lon="3.17143">
        <ele>54</ele>
        <time>2024-03-29T10:52:20.489Z</time>
      </trkpt>
      <trkpt lat="43.20703" lon="3.17138">
        <ele>54</ele>
        <time>2024-03-29T10:52:24.489Z</time>
      </trkpt>
      <trkpt lat="43.20707" lon="3.17133">
        <ele>54</ele>
        <time>2024-03-29T10:52:29.489Z</time>
      </trkpt>
      <trkpt lat="43.20709" lon="3.17129">
        <ele>55</ele>
        <time>2024-03-29T10:52:33.489Z</time>
      </trkpt>
      <trkpt lat="43.20712" lon="3.17123">
        <ele>56</ele>
        <time>2024-03-29T10:52:38.489Z</time>
      </trkpt>
      <trkpt lat="43.20715" lon="3.17118">
        <ele>56</ele>
        <time>2024-03-29T10:52:43.489Z</time>
      </trkpt>
      <trkpt lat="43.20717" lon="3.17113">
        <ele>56</ele>
        <time>2024-03-29T10:52:47.489Z</time>
      </trkpt>
      <trkpt lat="43.20721" lon="3.1711">
        <ele>56</ele>
        <time>2024-03-29T10:52:51.489Z</time>
      </trkpt>
      <trkpt lat="43.20725" lon="3.17103">
        <ele>56</ele>
        <time>2024-03-29T10:52:56.489Z</time>
      </trkpt>
      <trkpt lat="43.20729" lon="3.17097">
        <ele>56</ele>
        <time>2024-03-29T10:53:00.489Z</time>
      </trkpt>
      <trkpt lat="43.20733" lon="3.17091">
        <ele>57</ele>
        <time>2024-03-29T10:53:05.489Z</time>
      </trkpt>
      <trkpt lat="43.20733" lon="3.17084">
        <ele>57</ele>
        <time>2024-03-29T10:53:10.489Z</time>
      </trkpt>
      <trkpt lat="43.20735" lon="3.17078">
        <ele>57</ele>
        <time>2024-03-29T10:53:14.489Z</time>
      </trkpt>
      <trkpt lat="43.20739" lon="3.17072">
        <ele>58</ele>
        <time>2024-03-29T10:53:19.489Z</time>
      </trkpt>
      <trkpt lat="43.20741" lon="3.17067">
        <ele>58</ele>
        <time>2024-03-29T10:53:23.489Z</time>
      </trkpt>
      <trkpt lat="43.20745" lon="3.17061">
        <ele>58</ele>
        <time>2024-03-29T10:53:28.489Z</time>
      </trkpt>
      <trkpt lat="43.20748" lon="3.17056">
        <ele>58</ele>
        <time>2024-03-29T10:53:32.489Z</time>
      </trkpt>
      <trkpt lat="43.20752" lon="3.17049">
        <ele>58</ele>
        <time>2024-03-29T10:53:37.489Z</time>
      </trkpt>
      <trkpt lat="43.20756" lon="3.17042">
        <ele>58</ele>
        <time>2024-03-29T10:53:42.489Z</time>
      </trkpt>
      <trkpt lat="43.20759" lon="3.17036">
        <ele>57</ele>
        <time>2024-03-29T10:53:47.489Z</time>
      </trkpt>
      <trkpt lat="43.20761" lon="3.17029">
        <ele>57</ele>
        <time>2024-03-29T10:53:52.489Z</time>
      </trkpt>
      <trkpt lat="43.20765" lon="3.17023">
        <ele>58</ele>
        <time>2024-03-29T10:53:57.489Z</time>
      </trkpt>
      <trkpt lat="43.20768" lon="3.17017">
        <ele>58</ele>
        <time>2024-03-29T10:54:02.489Z</time>
      </trkpt>
      <trkpt lat="43.2077" lon="3.17012">
        <ele>58</ele>
        <time>2024-03-29T10:54:06.489Z</time>
      </trkpt>
      <trkpt lat="43.20773" lon="3.17006">
        <ele>58</ele>
        <time>2024-03-29T10:54:11.489Z</time>
      </trkpt>
      <trkpt lat="43.20775" lon="3.16999">
        <ele>58</ele>
        <time>2024-03-29T10:54:16.489Z</time>
      </trkpt>
      <trkpt lat="43.20779" lon="3.16992">
        <ele>58</ele>
        <time>2024-03-29T10:54:21.489Z</time>
      </trkpt>
      <trkpt lat="43.20783" lon="3.16985">
        <ele>58</ele>
        <time>2024-03-29T10:54:26.489Z</time>
      </trkpt>
      <trkpt lat="43.20785" lon="3.1698">
        <ele>58</ele>
        <time>2024-03-29T10:54:30.489Z</time>
      </trkpt>
      <trkpt lat="43.20788" lon="3.16973">
        <ele>58</ele>
        <time>2024-03-29T10:54:35.489Z</time>
      </trkpt>
      <trkpt lat="43.20792" lon="3.16966">
        <ele>58</ele>
        <time>2024-03-29T10:54:40.489Z</time>
      </trkpt>
      <trkpt lat="43.20794" lon="3.1696">
        <ele>60</ele>
        <time>2024-03-29T10:54:44.489Z</time>
      </trkpt>
      <trkpt lat="43.20796" lon="3.16953">
        <ele>62</ele>
        <time>2024-03-29T10:54:49.489Z</time>
      </trkpt>
      <trkpt lat="43.20798" lon="3.16945">
        <ele>62</ele>
        <time>2024-03-29T10:54:54.489Z</time>
      </trkpt>
      <trkpt lat="43.20801" lon="3.1694">
        <ele>62</ele>
        <time>2024-03-29T10:54:58.489Z</time>
      </trkpt>
      <trkpt lat="43.20804" lon="3.16934">
        <ele>62</ele>
        <time>2024-03-29T10:55:02.489Z</time>
      </trkpt>
      <trkpt lat="43.20807" lon="3.16926">
        <ele>64</ele>
        <time>2024-03-29T10:55:07.489Z</time>
      </trkpt>
      <trkpt lat="43.20808" lon="3.16919">
        <ele>64</ele>
        <time>2024-03-29T10:55:12.489Z</time>
      </trkpt>
      <trkpt lat="43.20811" lon="3.16912">
        <ele>64</ele>
        <time>2024-03-29T10:55:17.489Z</time>
      </trkpt>
      <trkpt lat="43.20813" lon="3.16905">
        <ele>64</ele>
        <time>2024-03-29T10:55:22.489Z</time>
      </trkpt>
      <trkpt lat="43.20815" lon="3.169">
        <ele>64</ele>
        <time>2024-03-29T10:55:26.489Z</time>
      </trkpt>
      <trkpt lat="43.20818" lon="3.16892">
        <ele>64</ele>
        <time>2024-03-29T10:55:31.489Z</time>
      </trkpt>
      <trkpt lat="43.2082" lon="3.16884">
        <ele>64</ele>
        <time>2024-03-29T10:55:36.489Z</time>
      </trkpt>
      <trkpt lat="43.20822" lon="3.16876">
        <ele>64</ele>
        <time>2024-03-29T10:55:41.489Z</time>
      </trkpt>
      <trkpt lat="43.20825" lon="3.16869">
        <ele>64</ele>
        <time>2024-03-29T10:55:46.489Z</time>
      </trkpt>
      <trkpt lat="43.20828" lon="3.16863">
        <ele>64</ele>
        <time>2024-03-29T10:55:51.489Z</time>
      </trkpt>
      <trkpt lat="43.2083" lon="3.16857">
        <ele>64</ele>
        <time>2024-03-29T10:55:55.489Z</time>
      </trkpt>
      <trkpt lat="43.20833" lon="3.1685">
        <ele>64</ele>
        <time>2024-03-29T10:56:00.489Z</time>
      </trkpt>
      <trkpt lat="43.20836" lon="3.16844">
        <ele>64</ele>
        <time>2024-03-29T10:56:04.489Z</time>
      </trkpt>
      <trkpt lat="43.20839" lon="3.16838">
        <ele>64</ele>
        <time>2024-03-29T10:56:09.489Z</time>
      </trkpt>
      <trkpt lat="43.20841" lon="3.16833">
        <ele>64</ele>
        <time>2024-03-29T10:56:13.489Z</time>
      </trkpt>
      <trkpt lat="43.20843" lon="3.16828">
        <ele>64</ele>
        <time>2024-03-29T10:56:17.489Z</time>
      </trkpt>
      <trkpt lat="43.20845" lon="3.1682">
        <ele>64</ele>
        <time>2024-03-29T10:56:22.489Z</time>
      </trkpt>
      <trkpt lat="43.20847" lon="3.16813">
        <ele>65</ele>
        <time>2024-03-29T10:56:27.489Z</time>
      </trkpt>
      <trkpt lat="43.20848" lon="3.16806">
        <ele>66</ele>
        <time>2024-03-29T10:56:32.489Z</time>
      </trkpt>
      <trkpt lat="43.2085" lon="3.16799">
        <ele>66</ele>
        <time>2024-03-29T10:56:37.489Z</time>
      </trkpt>
      <trkpt lat="43.20852" lon="3.16792">
        <ele>66</ele>
        <time>2024-03-29T10:56:42.489Z</time>
      </trkpt>
      <trkpt lat="43.20855" lon="3.16784">
        <ele>67</ele>
        <time>2024-03-29T10:56:47.489Z</time>
      </trkpt>
      <trkpt lat="43.20858" lon="3.16775">
        <ele>67</ele>
        <time>2024-03-29T10:56:52.489Z</time>
      </trkpt>
      <trkpt lat="43.2086" lon="3.16767">
        <ele>67</ele>
        <time>2024-03-29T10:56:57.489Z</time>
      </trkpt>
      <trkpt lat="43.20862" lon="3.16758">
        <ele>68</ele>
        <time>2024-03-29T10:57:02.489Z</time>
      </trkpt>
      <trkpt lat="43.20864" lon="3.16751">
        <ele>68</ele>
        <time>2024-03-29T10:57:07.489Z</time>
      </trkpt>
      <trkpt lat="43.20865" lon="3.16744">
        <ele>68</ele>
        <time>2024-03-29T10:57:12.489Z</time>
      </trkpt>
      <trkpt lat="43.20868" lon="3.16739">
        <ele>68</ele>
        <time>2024-03-29T10:57:16.489Z</time>
      </trkpt>
      <trkpt lat="43.20873" lon="3.16737">
        <ele>68</ele>
        <time>2024-03-29T10:57:21.489Z</time>
      </trkpt>
      <trkpt lat="43.20878" lon="3.16738">
        <ele>69</ele>
        <time>2024-03-29T10:57:25.489Z</time>
      </trkpt>
      <trkpt lat="43.20884" lon="3.1674">
        <ele>69</ele>
        <time>2024-03-29T10:57:30.489Z</time>
      </trkpt>
      <trkpt lat="43.20889" lon="3.1674">
        <ele>69</ele>
        <time>2024-03-29T10:57:34.489Z</time>
      </trkpt>
      <trkpt lat="43.20894" lon="3.16741">
        <ele>69</ele>
        <time>2024-03-29T10:57:39.489Z</time>
      </trkpt>
      <trkpt lat="43.20897" lon="3.16743">
        <ele>69</ele>
        <time>2024-03-29T10:57:43.489Z</time>
      </trkpt>
      <trkpt lat="43.20902" lon="3.16744">
        <ele>69</ele>
        <time>2024-03-29T10:57:48.489Z</time>
      </trkpt>
      <trkpt lat="43.20907" lon="3.16743">
        <ele>73</ele>
        <time>2024-03-29T10:57:53.489Z</time>
      </trkpt>
      <trkpt lat="43.20913" lon="3.16743">
        <ele>73</ele>
        <time>2024-03-29T10:57:58.489Z</time>
      </trkpt>
      <trkpt lat="43.20918" lon="3.16744">
        <ele>73</ele>
        <time>2024-03-29T10:58:02.489Z</time>
      </trkpt>
      <trkpt lat="43.20923" lon="3.16746">
        <ele>73</ele>
        <time>2024-03-29T10:58:07.489Z</time>
      </trkpt>
      <trkpt lat="43.20928" lon="3.16749">
        <ele>73</ele>
        <time>2024-03-29T10:58:12.489Z</time>
      </trkpt>
      <trkpt lat="43.20932" lon="3.16752">
        <ele>78</ele>
        <time>2024-03-29T10:58:17.489Z</time>
      </trkpt>
      <trkpt lat="43.20935" lon="3.16754">
        <ele>78</ele>
        <time>2024-03-29T10:58:22.489Z</time>
      </trkpt>
      <trkpt lat="43.20938" lon="3.16758">
        <ele>78</ele>
        <time>2024-03-29T10:58:26.489Z</time>
      </trkpt>
      <trkpt lat="43.20941" lon="3.16763">
        <ele>78</ele>
        <time>2024-03-29T10:58:31.489Z</time>
      </trkpt>
      <trkpt lat="43.20944" lon="3.16768">
        <ele>77</ele>
        <time>2024-03-29T10:58:36.489Z</time>
      </trkpt>
      <trkpt lat="43.20947" lon="3.16773">
        <ele>77</ele>
        <time>2024-03-29T10:58:41.489Z</time>
      </trkpt>
      <trkpt lat="43.2095" lon="3.16778">
        <ele>77</ele>
        <time>2024-03-29T10:58:45.489Z</time>
      </trkpt>
      <trkpt lat="43.20954" lon="3.16784">
        <ele>77</ele>
        <time>2024-03-29T10:58:50.489Z</time>
      </trkpt>
      <trkpt lat="43.20958" lon="3.16785">
        <ele>77</ele>
        <time>2024-03-29T10:58:54.489Z</time>
      </trkpt>
      <trkpt lat="43.20961" lon="3.16785">
        <ele>80</ele>
        <time>2024-03-29T10:58:59.489Z</time>
      </trkpt>
      <trkpt lat="43.20965" lon="3.16785">
        <ele>80</ele>
        <time>2024-03-29T10:59:03.489Z</time>
      </trkpt>
      <trkpt lat="43.20969" lon="3.16784">
        <ele>80</ele>
        <time>2024-03-29T10:59:08.489Z</time>
      </trkpt>
      <trkpt lat="43.20975" lon="3.16782">
        <ele>80</ele>
        <time>2024-03-29T10:59:13.489Z</time>
      </trkpt>
      <trkpt lat="43.20979" lon="3.1678">
        <ele>80</ele>
        <time>2024-03-29T10:59:17.489Z</time>
      </trkpt>
      <trkpt lat="43.20983" lon="3.16779">
        <ele>80</ele>
        <time>2024-03-29T10:59:22.489Z</time>
      </trkpt>
      <trkpt lat="43.20987" lon="3.16779">
        <ele>82</ele>
        <time>2024-03-29T10:59:26.489Z</time>
      </trkpt>
      <trkpt lat="43.20991" lon="3.16777">
        <ele>82</ele>
        <time>2024-03-29T10:59:31.489Z</time>
      </trkpt>
      <trkpt lat="43.20995" lon="3.16776">
        <ele>82</ele>
        <time>2024-03-29T10:59:36.489Z</time>
      </trkpt>
      <trkpt lat="43.20996" lon="3.16776">
        <ele>82</ele>
        <time>2024-03-29T10:59:41.489Z</time>
      </trkpt>
      <trkpt lat="43.20996" lon="3.16776">
        <ele>82</ele>
        <time>2024-03-29T10:59:45.489Z</time>
      </trkpt>
      <trkpt lat="43.20998" lon="3.16769">
        <ele>82</ele>
        <time>2024-03-29T10:59:59.489Z</time>
      </trkpt>
      <trkpt lat="43.20999" lon="3.16763">
        <ele>84</ele>
        <time>2024-03-29T11:00:04.489Z</time>
      </trkpt>
      <trkpt lat="43.20998" lon="3.16756">
        <ele>84</ele>
        <time>2024-03-29T11:00:09.489Z</time>
      </trkpt>
      <trkpt lat="43.21" lon="3.16751">
        <ele>84</ele>
        <time>2024-03-29T11:00:14.489Z</time>
      </trkpt>
      <trkpt lat="43.21003" lon="3.16746">
        <ele>84</ele>
        <time>2024-03-29T11:00:19.489Z</time>
      </trkpt>
      <trkpt lat="43.21005" lon="3.1674">
        <ele>84</ele>
        <time>2024-03-29T11:00:23.489Z</time>
      </trkpt>
      <trkpt lat="43.21007" lon="3.16733">
        <ele>84</ele>
        <time>2024-03-29T11:00:28.489Z</time>
      </trkpt>
      <trkpt lat="43.21008" lon="3.16729">
        <ele>84</ele>
        <time>2024-03-29T11:00:33.489Z</time>
      </trkpt>
      <trkpt lat="43.21011" lon="3.16724">
        <ele>84</ele>
        <time>2024-03-29T11:00:38.489Z</time>
      </trkpt>
      <trkpt lat="43.21012" lon="3.16716">
        <ele>84</ele>
        <time>2024-03-29T11:00:43.489Z</time>
      </trkpt>
      <trkpt lat="43.21012" lon="3.16713">
        <ele>84</ele>
        <time>2024-03-29T11:00:48.490Z</time>
      </trkpt>
      <trkpt lat="43.21012" lon="3.16709">
        <ele>84</ele>
        <time>2024-03-29T11:00:53.490Z</time>
      </trkpt>
      <trkpt lat="43.21012" lon="3.16706">
        <ele>85</ele>
        <time>2024-03-29T11:00:58.490Z</time>
      </trkpt>
      <trkpt lat="43.21014" lon="3.16702">
        <ele>85</ele>
        <time>2024-03-29T11:01:02.490Z</time>
      </trkpt>
      <trkpt lat="43.21017" lon="3.16697">
        <ele>85</ele>
        <time>2024-03-29T11:01:06.490Z</time>
      </trkpt>
      <trkpt lat="43.21019" lon="3.1669">
        <ele>85</ele>
        <time>2024-03-29T11:01:11.490Z</time>
      </trkpt>
      <trkpt lat="43.21022" lon="3.16683">
        <ele>85</ele>
        <time>2024-03-29T11:01:16.490Z</time>
      </trkpt>
      <trkpt lat="43.21023" lon="3.16676">
        <ele>87</ele>
        <time>2024-03-29T11:01:21.490Z</time>
      </trkpt>
      <trkpt lat="43.21025" lon="3.1667">
        <ele>87</ele>
        <time>2024-03-29T11:01:26.490Z</time>
      </trkpt>
      <trkpt lat="43.21026" lon="3.16663">
        <ele>87</ele>
        <time>2024-03-29T11:01:31.490Z</time>
      </trkpt>
      <trkpt lat="43.21027" lon="3.16657">
        <ele>87</ele>
        <time>2024-03-29T11:01:36.490Z</time>
      </trkpt>
      <trkpt lat="43.21027" lon="3.1665">
        <ele>88</ele>
        <time>2024-03-29T11:01:41.490Z</time>
      </trkpt>
      <trkpt lat="43.21025" lon="3.16643">
        <ele>88</ele>
        <time>2024-03-29T11:01:46.490Z</time>
      </trkpt>
      <trkpt lat="43.21026" lon="3.16637">
        <ele>88</ele>
        <time>2024-03-29T11:01:51.490Z</time>
      </trkpt>
      <trkpt lat="43.21027" lon="3.1663">
        <ele>88</ele>
        <time>2024-03-29T11:01:56.490Z</time>
      </trkpt>
      <trkpt lat="43.21027" lon="3.16622">
        <ele>90</ele>
        <time>2024-03-29T11:02:01.490Z</time>
      </trkpt>
      <trkpt lat="43.21028" lon="3.16614">
        <ele>90</ele>
        <time>2024-03-29T11:02:06.490Z</time>
      </trkpt>
      <trkpt lat="43.21027" lon="3.16606">
        <ele>90</ele>
        <time>2024-03-29T11:02:11.490Z</time>
      </trkpt>
      <trkpt lat="43.21029" lon="3.16599">
        <ele>90</ele>
        <time>2024-03-29T11:02:16.490Z</time>
      </trkpt>
      <trkpt lat="43.2103" lon="3.16595">
        <ele>90</ele>
        <time>2024-03-29T11:02:20.490Z</time>
      </trkpt>
      <trkpt lat="43.2103" lon="3.16586">
        <ele>90</ele>
        <time>2024-03-29T11:02:25.490Z</time>
      </trkpt>
      <trkpt lat="43.21031" lon="3.1658">
        <ele>90</ele>
        <time>2024-03-29T11:02:29.490Z</time>
      </trkpt>
      <trkpt lat="43.21032" lon="3.16572">
        <ele>90</ele>
        <time>2024-03-29T11:02:34.490Z</time>
      </trkpt>
      <trkpt lat="43.21033" lon="3.16566">
        <ele>90</ele>
        <time>2024-03-29T11:02:38.490Z</time>
      </trkpt>
      <trkpt lat="43.21033" lon="3.16558">
        <ele>90</ele>
        <time>2024-03-29T11:02:43.490Z</time>
      </trkpt>
      <trkpt lat="43.21034" lon="3.16551">
        <ele>90</ele>
        <time>2024-03-29T11:02:48.490Z</time>
      </trkpt>
      <trkpt lat="43.21035" lon="3.16543">
        <ele>90</ele>
        <time>2024-03-29T11:02:53.490Z</time>
      </trkpt>
      <trkpt lat="43.21035" lon="3.16536">
        <ele>89</ele>
        <time>2024-03-29T11:02:58.490Z</time>
      </trkpt>
      <trkpt lat="43.21037" lon="3.16529">
        <ele>89</ele>
        <time>2024-03-29T11:03:03.490Z</time>
      </trkpt>
      <trkpt lat="43.21037" lon="3.16523">
        <ele>89</ele>
        <time>2024-03-29T11:03:07.490Z</time>
      </trkpt>
      <trkpt lat="43.21039" lon="3.16517">
        <ele>89</ele>
        <time>2024-03-29T11:03:12.490Z</time>
      </trkpt>
      <trkpt lat="43.21039" lon="3.1651">
        <ele>89</ele>
        <time>2024-03-29T11:03:17.490Z</time>
      </trkpt>
      <trkpt lat="43.21041" lon="3.16507">
        <ele>89</ele>
        <time>2024-03-29T11:03:22.490Z</time>
      </trkpt>
      <trkpt lat="43.21041" lon="3.16504">
        <ele>89</ele>
        <time>2024-03-29T11:03:26.490Z</time>
      </trkpt>
      <trkpt lat="43.21045" lon="3.16494">
        <ele>89</ele>
        <time>2024-03-29T11:03:31.490Z</time>
      </trkpt>
      <trkpt lat="43.21048" lon="3.16486">
        <ele>90</ele>
        <time>2024-03-29T11:03:35.490Z</time>
      </trkpt>
      <trkpt lat="43.21051" lon="3.16476">
        <ele>90</ele>
        <time>2024-03-29T11:03:40.490Z</time>
      </trkpt>
      <trkpt lat="43.2105" lon="3.16471">
        <ele>90</ele>
        <time>2024-03-29T11:03:45.490Z</time>
      </trkpt>
      <trkpt lat="43.21053" lon="3.16465">
        <ele>90</ele>
        <time>2024-03-29T11:03:49.490Z</time>
      </trkpt>
      <trkpt lat="43.21055" lon="3.16456">
        <ele>92</ele>
        <time>2024-03-29T11:03:54.490Z</time>
      </trkpt>
      <trkpt lat="43.21057" lon="3.16447">
        <ele>92</ele>
        <time>2024-03-29T11:03:59.490Z</time>
      </trkpt>
      <trkpt lat="43.21059" lon="3.16441">
        <ele>92</ele>
        <time>2024-03-29T11:04:04.490Z</time>
      </trkpt>
      <trkpt lat="43.21059" lon="3.16438">
        <ele>92</ele>
        <time>2024-03-29T11:04:08.490Z</time>
      </trkpt>
      <trkpt lat="43.21056" lon="3.16432">
        <ele>92</ele>
        <time>2024-03-29T11:04:13.490Z</time>
      </trkpt>
      <trkpt lat="43.21054" lon="3.16424">
        <ele>94</ele>
        <time>2024-03-29T11:04:18.490Z</time>
      </trkpt>
      <trkpt lat="43.21055" lon="3.16416">
        <ele>94</ele>
        <time>2024-03-29T11:04:23.490Z</time>
      </trkpt>
      <trkpt lat="43.21056" lon="3.16409">
        <ele>94</ele>
        <time>2024-03-29T11:04:28.490Z</time>
      </trkpt>
      <trkpt lat="43.21057" lon="3.16401">
        <ele>95</ele>
        <time>2024-03-29T11:04:33.490Z</time>
      </trkpt>
      <trkpt lat="43.21057" lon="3.16393">
        <ele>95</ele>
        <time>2024-03-29T11:04:38.490Z</time>
      </trkpt>
      <trkpt lat="43.21057" lon="3.16389">
        <ele>95</ele>
        <time>2024-03-29T11:04:43.490Z</time>
      </trkpt>
      <trkpt lat="43.21057" lon="3.16383">
        <ele>95</ele>
        <time>2024-03-29T11:04:47.490Z</time>
      </trkpt>
      <trkpt lat="43.21058" lon="3.16373">
        <ele>95</ele>
        <time>2024-03-29T11:04:52.490Z</time>
      </trkpt>
      <trkpt lat="43.21059" lon="3.16365">
        <ele>95</ele>
        <time>2024-03-29T11:04:56.490Z</time>
      </trkpt>
      <trkpt lat="43.21059" lon="3.16359">
        <ele>95</ele>
        <time>2024-03-29T11:05:00.490Z</time>
      </trkpt>
      <trkpt lat="43.21059" lon="3.16352">
        <ele>95</ele>
        <time>2024-03-29T11:05:05.490Z</time>
      </trkpt>
      <trkpt lat="43.2106" lon="3.16346">
        <ele>96</ele>
        <time>2024-03-29T11:05:10.490Z</time>
      </trkpt>
      <trkpt lat="43.21064" lon="3.16342">
        <ele>96</ele>
        <time>2024-03-29T11:05:15.490Z</time>
      </trkpt>
      <trkpt lat="43.21067" lon="3.16338">
        <ele>96</ele>
        <time>2024-03-29T11:06:22.490Z</time>
      </trkpt>
      <trkpt lat="43.21068" lon="3.16338">
        <ele>96</ele>
        <time>2024-03-29T11:06:47.490Z</time>
      </trkpt>
      <trkpt lat="43.2107" lon="3.16333">
        <ele>94</ele>
        <time>2024-03-29T11:06:52.490Z</time>
      </trkpt>
      <trkpt lat="43.21076" lon="3.16331">
        <ele>94</ele>
        <time>2024-03-29T11:06:57.490Z</time>
      </trkpt>
      <trkpt lat="43.2108" lon="3.16328">
        <ele>94</ele>
        <time>2024-03-29T11:07:01.490Z</time>
      </trkpt>
      <trkpt lat="43.21082" lon="3.16321">
        <ele>94</ele>
        <time>2024-03-29T11:07:06.490Z</time>
      </trkpt>
      <trkpt lat="43.21083" lon="3.16313">
        <ele>95</ele>
        <time>2024-03-29T11:07:11.490Z</time>
      </trkpt>
      <trkpt lat="43.21084" lon="3.16304">
        <ele>95</ele>
        <time>2024-03-29T11:07:16.490Z</time>
      </trkpt>
      <trkpt lat="43.21084" lon="3.16301">
        <ele>95</ele>
        <time>2024-03-29T11:07:20.490Z</time>
      </trkpt>
      <trkpt lat="43.21087" lon="3.16295">
        <ele>95</ele>
        <time>2024-03-29T11:07:25.490Z</time>
      </trkpt>
      <trkpt lat="43.21088" lon="3.16285">
        <ele>95</ele>
        <time>2024-03-29T11:07:29.490Z</time>
      </trkpt>
      <trkpt lat="43.21088" lon="3.16275">
        <ele>95</ele>
        <time>2024-03-29T11:07:34.490Z</time>
      </trkpt>
      <trkpt lat="43.2109" lon="3.16268">
        <ele>95</ele>
        <time>2024-03-29T11:07:39.490Z</time>
      </trkpt>
      <trkpt lat="43.21092" lon="3.1626">
        <ele>95</ele>
        <time>2024-03-29T11:07:58.490Z</time>
      </trkpt>
      <trkpt lat="43.21092" lon="3.16258">
        <ele>95</ele>
        <time>2024-03-29T11:08:02.490Z</time>
      </trkpt>
      <trkpt lat="43.21092" lon="3.16249">
        <ele>95</ele>
        <time>2024-03-29T11:08:07.490Z</time>
      </trkpt>
      <trkpt lat="43.21092" lon="3.16242">
        <ele>95</ele>
        <time>2024-03-29T11:08:12.490Z</time>
      </trkpt>
      <trkpt lat="43.21093" lon="3.16234">
        <ele>94</ele>
        <time>2024-03-29T11:08:17.490Z</time>
      </trkpt>
      <trkpt lat="43.21093" lon="3.16225">
        <ele>94</ele>
        <time>2024-03-29T11:08:22.490Z</time>
      </trkpt>
      <trkpt lat="43.21094" lon="3.1622">
        <ele>94</ele>
        <time>2024-03-29T11:08:26.490Z</time>
      </trkpt>
      <trkpt lat="43.21095" lon="3.16211">
        <ele>94</ele>
        <time>2024-03-29T11:08:31.490Z</time>
      </trkpt>
      <trkpt lat="43.21096" lon="3.16204">
        <ele>94</ele>
        <time>2024-03-29T11:08:36.490Z</time>
      </trkpt>
      <trkpt lat="43.21098" lon="3.16197">
        <ele>95</ele>
        <time>2024-03-29T11:08:41.490Z</time>
      </trkpt>
      <trkpt lat="43.21098" lon="3.16189">
        <ele>95</ele>
        <time>2024-03-29T11:08:45.490Z</time>
      </trkpt>
      <trkpt lat="43.21098" lon="3.16183">
        <ele>95</ele>
        <time>2024-03-29T11:08:49.490Z</time>
      </trkpt>
      <trkpt lat="43.21099" lon="3.16175">
        <ele>95</ele>
        <time>2024-03-29T11:08:54.490Z</time>
      </trkpt>
      <trkpt lat="43.21099" lon="3.16168">
        <ele>95</ele>
        <time>2024-03-29T11:08:59.490Z</time>
      </trkpt>
      <trkpt lat="43.21101" lon="3.1616">
        <ele>95</ele>
        <time>2024-03-29T11:09:04.490Z</time>
      </trkpt>
      <trkpt lat="43.21102" lon="3.16153">
        <ele>95</ele>
        <time>2024-03-29T11:09:08.490Z</time>
      </trkpt>
      <trkpt lat="43.21104" lon="3.16144">
        <ele>95</ele>
        <time>2024-03-29T11:09:13.490Z</time>
      </trkpt>
      <trkpt lat="43.21105" lon="3.16137">
        <ele>95</ele>
        <time>2024-03-29T11:09:17.490Z</time>
      </trkpt>
      <trkpt lat="43.21106" lon="3.16128">
        <ele>95</ele>
        <time>2024-03-29T11:09:22.490Z</time>
      </trkpt>
      <trkpt lat="43.21107" lon="3.16122">
        <ele>96</ele>
        <time>2024-03-29T11:09:26.490Z</time>
      </trkpt>
      <trkpt lat="43.21108" lon="3.16112">
        <ele>96</ele>
        <time>2024-03-29T11:09:31.490Z</time>
      </trkpt>
      <trkpt lat="43.21108" lon="3.16107">
        <ele>96</ele>
        <time>2024-03-29T11:09:35.490Z</time>
      </trkpt>
      <trkpt lat="43.2111" lon="3.16099">
        <ele>96</ele>
        <time>2024-03-29T11:09:40.490Z</time>
      </trkpt>
      <trkpt lat="43.21111" lon="3.16093">
        <ele>98</ele>
        <time>2024-03-29T11:09:44.490Z</time>
      </trkpt>
      <trkpt lat="43.21112" lon="3.16085">
        <ele>98</ele>
        <time>2024-03-29T11:09:49.490Z</time>
      </trkpt>
      <trkpt lat="43.21113" lon="3.16077">
        <ele>98</ele>
        <time>2024-03-29T11:09:54.490Z</time>
      </trkpt>
      <trkpt lat="43.21114" lon="3.16073">
        <ele>98</ele>
        <time>2024-03-29T11:09:58.490Z</time>
      </trkpt>
      <trkpt lat="43.21114" lon="3.16066">
        <ele>99</ele>
        <time>2024-03-29T11:10:02.490Z</time>
      </trkpt>
      <trkpt lat="43.21116" lon="3.16056">
        <ele>99</ele>
        <time>2024-03-29T11:10:07.490Z</time>
      </trkpt>
      <trkpt lat="43.21118" lon="3.16049">
        <ele>99</ele>
        <time>2024-03-29T11:10:11.490Z</time>
      </trkpt>
      <trkpt lat="43.2112" lon="3.16041">
        <ele>99</ele>
        <time>2024-03-29T11:10:15.490Z</time>
      </trkpt>
      <trkpt lat="43.21123" lon="3.16033">
        <ele>99</ele>
        <time>2024-03-29T11:10:20.490Z</time>
      </trkpt>
      <trkpt lat="43.21124" lon="3.16024">
        <ele>99</ele>
        <time>2024-03-29T11:10:25.490Z</time>
      </trkpt>
      <trkpt lat="43.21125" lon="3.16018">
        <ele>101</ele>
        <time>2024-03-29T11:10:29.490Z</time>
      </trkpt>
      <trkpt lat="43.21126" lon="3.16012">
        <ele>101</ele>
        <time>2024-03-29T11:10:34.490Z</time>
      </trkpt>
      <trkpt lat="43.21126" lon="3.16005">
        <ele>101</ele>
        <time>2024-03-29T11:10:39.490Z</time>
      </trkpt>
      <trkpt lat="43.21126" lon="3.15999">
        <ele>101</ele>
        <time>2024-03-29T11:10:43.490Z</time>
      </trkpt>
      <trkpt lat="43.21127" lon="3.1599">
        <ele>101</ele>
        <time>2024-03-29T11:10:48.490Z</time>
      </trkpt>
      <trkpt lat="43.2113" lon="3.15983">
        <ele>99</ele>
        <time>2024-03-29T11:10:52.490Z</time>
      </trkpt>
      <trkpt lat="43.21132" lon="3.15978">
        <ele>99</ele>
        <time>2024-03-29T11:10:56.490Z</time>
      </trkpt>
      <trkpt lat="43.21137" lon="3.15972">
        <ele>99</ele>
        <time>2024-03-29T11:11:01.490Z</time>
      </trkpt>
      <trkpt lat="43.2114" lon="3.15965">
        <ele>99</ele>
        <time>2024-03-29T11:11:06.490Z</time>
      </trkpt>
      <trkpt lat="43.21145" lon="3.15959">
        <ele>99</ele>
        <time>2024-03-29T11:11:11.490Z</time>
      </trkpt>
      <trkpt lat="43.21149" lon="3.15953">
        <ele>98</ele>
        <time>2024-03-29T11:11:16.490Z</time>
      </trkpt>
      <trkpt lat="43.21151" lon="3.15946">
        <ele>98</ele>
        <time>2024-03-29T11:11:21.490Z</time>
      </trkpt>
      <trkpt lat="43.21154" lon="3.15939">
        <ele>100</ele>
        <time>2024-03-29T11:11:26.490Z</time>
      </trkpt>
      <trkpt lat="43.21157" lon="3.15933">
        <ele>100</ele>
        <time>2024-03-29T11:11:31.490Z</time>
      </trkpt>
      <trkpt lat="43.2116" lon="3.15925">
        <ele>100</ele>
        <time>2024-03-29T11:11:36.490Z</time>
      </trkpt>
      <trkpt lat="43.21162" lon="3.15919">
        <ele>100</ele>
        <time>2024-03-29T11:11:41.490Z</time>
      </trkpt>
      <trkpt lat="43.21164" lon="3.15912">
        <ele>100</ele>
        <time>2024-03-29T11:11:46.490Z</time>
      </trkpt>
      <trkpt lat="43.21166" lon="3.15906">
        <ele>100</ele>
        <time>2024-03-29T11:11:51.490Z</time>
      </trkpt>
      <trkpt lat="43.21169" lon="3.159">
        <ele>101</ele>
        <time>2024-03-29T11:11:56.490Z</time>
      </trkpt>
      <trkpt lat="43.2117" lon="3.15892">
        <ele>101</ele>
        <time>2024-03-29T11:12:01.490Z</time>
      </trkpt>
      <trkpt lat="43.21171" lon="3.15885">
        <ele>101</ele>
        <time>2024-03-29T11:12:06.490Z</time>
      </trkpt>
      <trkpt lat="43.2117" lon="3.15877">
        <ele>101</ele>
        <time>2024-03-29T11:12:11.490Z</time>
      </trkpt>
      <trkpt lat="43.21168" lon="3.1587">
        <ele>102</ele>
        <time>2024-03-29T11:12:16.490Z</time>
      </trkpt>
      <trkpt lat="43.21167" lon="3.15864">
        <ele>102</ele>
        <time>2024-03-29T11:12:21.490Z</time>
      </trkpt>
      <trkpt lat="43.21165" lon="3.15856">
        <ele>102</ele>
        <time>2024-03-29T11:12:26.490Z</time>
      </trkpt>
      <trkpt lat="43.21164" lon="3.15849">
        <ele>102</ele>
        <time>2024-03-29T11:12:31.490Z</time>
      </trkpt>
      <trkpt lat="43.21163" lon="3.15842">
        <ele>102</ele>
        <time>2024-03-29T11:12:35.490Z</time>
      </trkpt>
      <trkpt lat="43.21161" lon="3.15833">
        <ele>102</ele>
        <time>2024-03-29T11:12:40.490Z</time>
      </trkpt>
      <trkpt lat="43.21159" lon="3.15826">
        <ele>102</ele>
        <time>2024-03-29T11:12:45.490Z</time>
      </trkpt>
      <trkpt lat="43.21158" lon="3.15817">
        <ele>103</ele>
        <time>2024-03-29T11:12:50.490Z</time>
      </trkpt>
      <trkpt lat="43.21156" lon="3.15809">
        <ele>103</ele>
        <time>2024-03-29T11:12:55.490Z</time>
      </trkpt>
      <trkpt lat="43.21153" lon="3.15801">
        <ele>103</ele>
        <time>2024-03-29T11:13:00.490Z</time>
      </trkpt>
      <trkpt lat="43.21152" lon="3.15793">
        <ele>100</ele>
        <time>2024-03-29T11:13:05.490Z</time>
      </trkpt>
      <trkpt lat="43.21151" lon="3.15786">
        <ele>99</ele>
        <time>2024-03-29T11:13:10.490Z</time>
      </trkpt>
      <trkpt lat="43.21151" lon="3.15777">
        <ele>99</ele>
        <time>2024-03-29T11:13:15.490Z</time>
      </trkpt>
      <trkpt lat="43.2115" lon="3.15767">
        <ele>99</ele>
        <time>2024-03-29T11:13:20.490Z</time>
      </trkpt>
      <trkpt lat="43.2115" lon="3.15758">
        <ele>99</ele>
        <time>2024-03-29T11:13:25.490Z</time>
      </trkpt>
      <trkpt lat="43.21149" lon="3.15749">
        <ele>99</ele>
        <time>2024-03-29T11:13:30.490Z</time>
      </trkpt>
      <trkpt lat="43.21148" lon="3.15741">
        <ele>99</ele>
        <time>2024-03-29T11:13:35.490Z</time>
      </trkpt>
      <trkpt lat="43.21147" lon="3.15732">
        <ele>99</ele>
        <time>2024-03-29T11:13:40.490Z</time>
      </trkpt>
      <trkpt lat="43.21147" lon="3.15724">
        <ele>99</ele>
        <time>2024-03-29T11:13:45.490Z</time>
      </trkpt>
      <trkpt lat="43.21147" lon="3.15717">
        <ele>99</ele>
        <time>2024-03-29T11:13:50.490Z</time>
      </trkpt>
      <trkpt lat="43.21148" lon="3.1571">
        <ele>99</ele>
        <time>2024-03-29T11:13:55.490Z</time>
      </trkpt>
      <trkpt lat="43.21149" lon="3.15703">
        <ele>100</ele>
        <time>2024-03-29T11:14:00.490Z</time>
      </trkpt>
      <trkpt lat="43.21151" lon="3.15697">
        <ele>100</ele>
        <time>2024-03-29T11:14:05.490Z</time>
      </trkpt>
      <trkpt lat="43.21153" lon="3.15689">
        <ele>102</ele>
        <time>2024-03-29T11:14:10.490Z</time>
      </trkpt>
      <trkpt lat="43.21155" lon="3.15684">
        <ele>102</ele>
        <time>2024-03-29T11:14:14.490Z</time>
      </trkpt>
      <trkpt lat="43.21156" lon="3.15676">
        <ele>103</ele>
        <time>2024-03-29T11:14:19.490Z</time>
      </trkpt>
      <trkpt lat="43.21156" lon="3.15669">
        <ele>103</ele>
        <time>2024-03-29T11:14:24.490Z</time>
      </trkpt>
      <trkpt lat="43.21155" lon="3.15663">
        <ele>103</ele>
        <time>2024-03-29T11:14:29.490Z</time>
      </trkpt>
      <trkpt lat="43.21154" lon="3.15654">
        <ele>103</ele>
        <time>2024-03-29T11:14:34.490Z</time>
      </trkpt>
      <trkpt lat="43.21153" lon="3.1565">
        <ele>102</ele>
        <time>2024-03-29T11:14:38.490Z</time>
      </trkpt>
      <trkpt lat="43.21151" lon="3.15642">
        <ele>102</ele>
        <time>2024-03-29T11:14:43.490Z</time>
      </trkpt>
      <trkpt lat="43.21149" lon="3.15634">
        <ele>102</ele>
        <time>2024-03-29T11:14:48.490Z</time>
      </trkpt>
      <trkpt lat="43.21148" lon="3.15627">
        <ele>102</ele>
        <time>2024-03-29T11:14:53.490Z</time>
      </trkpt>
      <trkpt lat="43.21146" lon="3.15621">
        <ele>103</ele>
        <time>2024-03-29T11:14:58.490Z</time>
      </trkpt>
      <trkpt lat="43.21145" lon="3.15612">
        <ele>103</ele>
        <time>2024-03-29T11:15:03.490Z</time>
      </trkpt>
      <trkpt lat="43.21143" lon="3.15602">
        <ele>103</ele>
        <time>2024-03-29T11:15:08.490Z</time>
      </trkpt>
      <trkpt lat="43.21143" lon="3.15598">
        <ele>103</ele>
        <time>2024-03-29T11:15:12.490Z</time>
      </trkpt>
      <trkpt lat="43.21142" lon="3.15588">
        <ele>102</ele>
        <time>2024-03-29T11:15:17.490Z</time>
      </trkpt>
      <trkpt lat="43.21139" lon="3.15579">
        <ele>102</ele>
        <time>2024-03-29T11:15:22.490Z</time>
      </trkpt>
      <trkpt lat="43.21138" lon="3.15572">
        <ele>102</ele>
        <time>2024-03-29T11:15:26.490Z</time>
      </trkpt>
      <trkpt lat="43.21136" lon="3.15565">
        <ele>101</ele>
        <time>2024-03-29T11:15:31.490Z</time>
      </trkpt>
      <trkpt lat="43.21134" lon="3.15557">
        <ele>101</ele>
        <time>2024-03-29T11:15:36.490Z</time>
      </trkpt>
      <trkpt lat="43.21132" lon="3.15549">
        <ele>101</ele>
        <time>2024-03-29T11:15:41.490Z</time>
      </trkpt>
      <trkpt lat="43.21129" lon="3.15542">
        <ele>101</ele>
        <time>2024-03-29T11:15:46.490Z</time>
      </trkpt>
      <trkpt lat="43.21127" lon="3.15536">
        <ele>100</ele>
        <time>2024-03-29T11:15:50.490Z</time>
      </trkpt>
      <trkpt lat="43.21125" lon="3.15529">
        <ele>98</ele>
        <time>2024-03-29T11:15:55.490Z</time>
      </trkpt>
      <trkpt lat="43.21122" lon="3.15522">
        <ele>98</ele>
        <time>2024-03-29T11:16:00.490Z</time>
      </trkpt>
      <trkpt lat="43.2112" lon="3.15515">
        <ele>98</ele>
        <time>2024-03-29T11:16:05.490Z</time>
      </trkpt>
      <trkpt lat="43.21118" lon="3.15507">
        <ele>98</ele>
        <time>2024-03-29T11:16:10.490Z</time>
      </trkpt>
      <trkpt lat="43.21115" lon="3.15501">
        <ele>98</ele>
        <time>2024-03-29T11:16:15.490Z</time>
      </trkpt>
      <trkpt lat="43.21113" lon="3.15493">
        <ele>98</ele>
        <time>2024-03-29T11:16:20.490Z</time>
      </trkpt>
      <trkpt lat="43.2111" lon="3.15486">
        <ele>99</ele>
        <time>2024-03-29T11:16:25.490Z</time>
      </trkpt>
      <trkpt lat="43.21108" lon="3.15481">
        <ele>99</ele>
        <time>2024-03-29T11:16:29.490Z</time>
      </trkpt>
      <trkpt lat="43.21106" lon="3.15475">
        <ele>99</ele>
        <time>2024-03-29T11:16:34.491Z</time>
      </trkpt>
      <trkpt lat="43.21103" lon="3.1547">
        <ele>99</ele>
        <time>2024-03-29T11:16:38.491Z</time>
      </trkpt>
      <trkpt lat="43.21099" lon="3.15464">
        <ele>99</ele>
        <time>2024-03-29T11:16:43.491Z</time>
      </trkpt>
      <trkpt lat="43.21094" lon="3.1546">
        <ele>97</ele>
        <time>2024-03-29T11:16:48.491Z</time>
      </trkpt>
      <trkpt lat="43.21091" lon="3.15456">
        <ele>98</ele>
        <time>2024-03-29T11:16:52.491Z</time>
      </trkpt>
      <trkpt lat="43.21088" lon="3.15453">
        <ele>98</ele>
        <time>2024-03-29T11:16:57.491Z</time>
      </trkpt>
      <trkpt lat="43.21084" lon="3.15448">
        <ele>98</ele>
        <time>2024-03-29T11:17:02.491Z</time>
      </trkpt>
      <trkpt lat="43.21079" lon="3.15442">
        <ele>98</ele>
        <time>2024-03-29T11:17:07.491Z</time>
      </trkpt>
      <trkpt lat="43.21076" lon="3.15436">
        <ele>98</ele>
        <time>2024-03-29T11:17:12.491Z</time>
      </trkpt>
      <trkpt lat="43.21071" lon="3.15429">
        <ele>97</ele>
        <time>2024-03-29T11:17:17.491Z</time>
      </trkpt>
      <trkpt lat="43.21066" lon="3.15423">
        <ele>96</ele>
        <time>2024-03-29T11:17:22.491Z</time>
      </trkpt>
      <trkpt lat="43.21062" lon="3.15419">
        <ele>96</ele>
        <time>2024-03-29T11:17:26.491Z</time>
      </trkpt>
      <trkpt lat="43.21059" lon="3.15412">
        <ele>96</ele>
        <time>2024-03-29T11:17:31.491Z</time>
      </trkpt>
      <trkpt lat="43.21056" lon="3.15405">
        <ele>96</ele>
        <time>2024-03-29T11:17:36.491Z</time>
      </trkpt>
      <trkpt lat="43.21054" lon="3.15397">
        <ele>96</ele>
        <time>2024-03-29T11:17:41.491Z</time>
      </trkpt>
      <trkpt lat="43.21052" lon="3.1539">
        <ele>96</ele>
        <time>2024-03-29T11:17:46.491Z</time>
      </trkpt>
      <trkpt lat="43.2105" lon="3.15382">
        <ele>96</ele>
        <time>2024-03-29T11:17:51.491Z</time>
      </trkpt>
      <trkpt lat="43.2105" lon="3.15376">
        <ele>96</ele>
        <time>2024-03-29T11:17:55.491Z</time>
      </trkpt>
      <trkpt lat="43.21048" lon="3.1537">
        <ele>95</ele>
        <time>2024-03-29T11:17:59.491Z</time>
      </trkpt>
      <trkpt lat="43.21047" lon="3.15363">
        <ele>95</ele>
        <time>2024-03-29T11:18:04.491Z</time>
      </trkpt>
      <trkpt lat="43.21047" lon="3.15357">
        <ele>95</ele>
        <time>2024-03-29T11:18:09.491Z</time>
      </trkpt>
      <trkpt lat="43.21048" lon="3.15349">
        <ele>95</ele>
        <time>2024-03-29T11:18:13.491Z</time>
      </trkpt>
      <trkpt lat="43.21048" lon="3.15337">
        <ele>95</ele>
        <time>2024-03-29T11:18:18.491Z</time>
      </trkpt>
      <trkpt lat="43.21047" lon="3.15332">
        <ele>95</ele>
        <time>2024-03-29T11:18:23.491Z</time>
      </trkpt>
      <trkpt lat="43.21047" lon="3.15325">
        <ele>95</ele>
        <time>2024-03-29T11:18:27.491Z</time>
      </trkpt>
      <trkpt lat="43.21047" lon="3.15314">
        <ele>95</ele>
        <time>2024-03-29T11:18:32.491Z</time>
      </trkpt>
      <trkpt lat="43.21045" lon="3.15302">
        <ele>95</ele>
        <time>2024-03-29T11:18:37.491Z</time>
      </trkpt>
      <trkpt lat="43.21045" lon="3.15292">
        <ele>95</ele>
        <time>2024-03-29T11:18:42.491Z</time>
      </trkpt>
      <trkpt lat="43.21045" lon="3.15283">
        <ele>95</ele>
        <time>2024-03-29T11:18:47.491Z</time>
      </trkpt>
      <trkpt lat="43.21045" lon="3.15275">
        <ele>95</ele>
        <time>2024-03-29T11:18:52.491Z</time>
      </trkpt>
      <trkpt lat="43.21046" lon="3.15267">
        <ele>95</ele>
        <time>2024-03-29T11:18:57.491Z</time>
      </trkpt>
      <trkpt lat="43.21047" lon="3.1526">
        <ele>94</ele>
        <time>2024-03-29T11:19:02.491Z</time>
      </trkpt>
      <trkpt lat="43.21048" lon="3.15252">
        <ele>94</ele>
        <time>2024-03-29T11:19:07.491Z</time>
      </trkpt>
      <trkpt lat="43.21047" lon="3.15243">
        <ele>94</ele>
        <time>2024-03-29T11:19:12.491Z</time>
      </trkpt>
      <trkpt lat="43.21047" lon="3.15238">
        <ele>94</ele>
        <time>2024-03-29T11:19:16.491Z</time>
      </trkpt>
      <trkpt lat="43.21047" lon="3.1523">
        <ele>94</ele>
        <time>2024-03-29T11:19:21.491Z</time>
      </trkpt>
      <trkpt lat="43.21049" lon="3.1522">
        <ele>94</ele>
        <time>2024-03-29T11:19:26.491Z</time>
      </trkpt>
      <trkpt lat="43.21051" lon="3.15211">
        <ele>94</ele>
        <time>2024-03-29T11:19:31.491Z</time>
      </trkpt>
      <trkpt lat="43.21053" lon="3.15203">
        <ele>93</ele>
        <time>2024-03-29T11:19:36.491Z</time>
      </trkpt>
      <trkpt lat="43.21055" lon="3.15197">
        <ele>93</ele>
        <time>2024-03-29T11:19:40.491Z</time>
      </trkpt>
      <trkpt lat="43.21056" lon="3.15189">
        <ele>93</ele>
        <time>2024-03-29T11:19:45.491Z</time>
      </trkpt>
      <trkpt lat="43.21058" lon="3.15181">
        <ele>93</ele>
        <time>2024-03-29T11:19:50.491Z</time>
      </trkpt>
      <trkpt lat="43.2106" lon="3.15173">
        <ele>93</ele>
        <time>2024-03-29T11:19:55.491Z</time>
      </trkpt>
      <trkpt lat="43.2106" lon="3.15166">
        <ele>93</ele>
        <time>2024-03-29T11:20:00.491Z</time>
      </trkpt>
      <trkpt lat="43.21059" lon="3.15157">
        <ele>93</ele>
        <time>2024-03-29T11:20:05.491Z</time>
      </trkpt>
      <trkpt lat="43.21059" lon="3.15151">
        <ele>92</ele>
        <time>2024-03-29T11:20:10.491Z</time>
      </trkpt>
      <trkpt lat="43.21059" lon="3.15144">
        <ele>92</ele>
        <time>2024-03-29T11:20:14.491Z</time>
      </trkpt>
      <trkpt lat="43.21058" lon="3.15135">
        <ele>92</ele>
        <time>2024-03-29T11:20:19.491Z</time>
      </trkpt>
      <trkpt lat="43.21056" lon="3.1513">
        <ele>92</ele>
        <time>2024-03-29T11:20:23.491Z</time>
      </trkpt>
      <trkpt lat="43.21053" lon="3.15125">
        <ele>90</ele>
        <time>2024-03-29T11:20:28.491Z</time>
      </trkpt>
      <trkpt lat="43.21049" lon="3.15119">
        <ele>90</ele>
        <time>2024-03-29T11:20:33.491Z</time>
      </trkpt>
      <trkpt lat="43.21045" lon="3.15112">
        <ele>90</ele>
        <time>2024-03-29T11:20:38.491Z</time>
      </trkpt>
      <trkpt lat="43.21042" lon="3.15103">
        <ele>90</ele>
        <time>2024-03-29T11:20:43.491Z</time>
      </trkpt>
      <trkpt lat="43.21042" lon="3.15095">
        <ele>89</ele>
        <time>2024-03-29T11:20:48.491Z</time>
      </trkpt>
      <trkpt lat="43.21042" lon="3.15087">
        <ele>89</ele>
        <time>2024-03-29T11:20:53.491Z</time>
      </trkpt>
      <trkpt lat="43.21041" lon="3.15079">
        <ele>89</ele>
        <time>2024-03-29T11:20:58.491Z</time>
      </trkpt>
      <trkpt lat="43.21043" lon="3.1507">
        <ele>89</ele>
        <time>2024-03-29T11:21:03.491Z</time>
      </trkpt>
      <trkpt lat="43.21043" lon="3.15062">
        <ele>88</ele>
        <time>2024-03-29T11:21:08.491Z</time>
      </trkpt>
      <trkpt lat="43.21044" lon="3.15055">
        <ele>88</ele>
        <time>2024-03-29T11:21:13.491Z</time>
      </trkpt>
      <trkpt lat="43.21046" lon="3.15048">
        <ele>88</ele>
        <time>2024-03-29T11:21:17.491Z</time>
      </trkpt>
      <trkpt lat="43.21048" lon="3.15041">
        <ele>88</ele>
        <time>2024-03-29T11:21:22.491Z</time>
      </trkpt>
      <trkpt lat="43.2105" lon="3.15033">
        <ele>88</ele>
        <time>2024-03-29T11:21:27.491Z</time>
      </trkpt>
      <trkpt lat="43.21051" lon="3.15027">
        <ele>88</ele>
        <time>2024-03-29T11:21:31.491Z</time>
      </trkpt>
      <trkpt lat="43.21052" lon="3.15019">
        <ele>88</ele>
        <time>2024-03-29T11:21:36.491Z</time>
      </trkpt>
      <trkpt lat="43.21054" lon="3.15012">
        <ele>89</ele>
        <time>2024-03-29T11:21:41.491Z</time>
      </trkpt>
      <trkpt lat="43.21056" lon="3.15005">
        <ele>89</ele>
        <time>2024-03-29T11:21:46.491Z</time>
      </trkpt>
      <trkpt lat="43.21058" lon="3.14999">
        <ele>89</ele>
        <time>2024-03-29T11:21:50.491Z</time>
      </trkpt>
      <trkpt lat="43.21061" lon="3.14999">
        <ele>89</ele>
        <time>2024-03-29T11:21:55.491Z</time>
      </trkpt>
      <trkpt lat="43.21061" lon="3.14997">
        <ele>89</ele>
        <time>2024-03-29T11:22:00.491Z</time>
      </trkpt>
      <trkpt lat="43.21061" lon="3.1499">
        <ele>89</ele>
        <time>2024-03-29T11:22:05.491Z</time>
      </trkpt>
      <trkpt lat="43.21067" lon="3.1498">
        <ele>90</ele>
        <time>2024-03-29T11:22:19.491Z</time>
      </trkpt>
      <trkpt lat="43.21067" lon="3.14979">
        <ele>90</ele>
        <time>2024-03-29T11:22:24.491Z</time>
      </trkpt>
      <trkpt lat="43.21069" lon="3.14973">
        <ele>90</ele>
        <time>2024-03-29T11:22:33.491Z</time>
      </trkpt>
      <trkpt lat="43.21071" lon="3.1497">
        <ele>91</ele>
        <time>2024-03-29T11:22:37.491Z</time>
      </trkpt>
      <trkpt lat="43.21073" lon="3.14966">
        <ele>91</ele>
        <time>2024-03-29T11:22:41.491Z</time>
      </trkpt>
      <trkpt lat="43.21075" lon="3.1496">
        <ele>91</ele>
        <time>2024-03-29T11:22:46.491Z</time>
      </trkpt>
      <trkpt lat="43.21078" lon="3.14956">
        <ele>92</ele>
        <time>2024-03-29T11:22:50.491Z</time>
      </trkpt>
      <trkpt lat="43.2108" lon="3.1495">
        <ele>92</ele>
        <time>2024-03-29T11:22:55.491Z</time>
      </trkpt>
      <trkpt lat="43.21084" lon="3.14947">
        <ele>92</ele>
        <time>2024-03-29T11:22:59.491Z</time>
      </trkpt>
      <trkpt lat="43.21088" lon="3.14942">
        <ele>92</ele>
        <time>2024-03-29T11:23:04.491Z</time>
      </trkpt>
      <trkpt lat="43.21092" lon="3.1494">
        <ele>92</ele>
        <time>2024-03-29T11:23:08.491Z</time>
      </trkpt>
      <trkpt lat="43.21097" lon="3.14937">
        <ele>92</ele>
        <time>2024-03-29T11:23:13.491Z</time>
      </trkpt>
      <trkpt lat="43.21102" lon="3.14938">
        <ele>92</ele>
        <time>2024-03-29T11:23:17.491Z</time>
      </trkpt>
      <trkpt lat="43.21102" lon="3.14938">
        <ele>92</ele>
        <time>2024-03-29T11:23:27.491Z</time>
      </trkpt>
      <trkpt lat="43.21102" lon="3.14938">
        <ele>92</ele>
        <time>2024-03-29T11:23:32.491Z</time>
      </trkpt>
      <trkpt lat="43.21103" lon="3.14938">
        <ele>92</ele>
        <time>2024-03-29T11:23:36.491Z</time>
      </trkpt>
      <trkpt lat="43.21107" lon="3.14935">
        <ele>92</ele>
        <time>2024-03-29T11:23:41.491Z</time>
      </trkpt>
      <trkpt lat="43.2111" lon="3.14928">
        <ele>93</ele>
        <time>2024-03-29T11:23:46.491Z</time>
      </trkpt>
      <trkpt lat="43.21111" lon="3.14922">
        <ele>93</ele>
        <time>2024-03-29T11:23:51.491Z</time>
      </trkpt>
      <trkpt lat="43.21113" lon="3.14916">
        <ele>93</ele>
        <time>2024-03-29T11:23:56.491Z</time>
      </trkpt>
      <trkpt lat="43.21113" lon="3.14908">
        <ele>93</ele>
        <time>2024-03-29T11:24:01.491Z</time>
      </trkpt>
      <trkpt lat="43.21114" lon="3.14904">
        <ele>93</ele>
        <time>2024-03-29T11:24:05.491Z</time>
      </trkpt>
      <trkpt lat="43.21114" lon="3.149">
        <ele>94</ele>
        <time>2024-03-29T11:24:09.491Z</time>
      </trkpt>
      <trkpt lat="43.21114" lon="3.14892">
        <ele>94</ele>
        <time>2024-03-29T11:24:14.491Z</time>
      </trkpt>
      <trkpt lat="43.21116" lon="3.14883">
        <ele>94</ele>
        <time>2024-03-29T11:24:19.491Z</time>
      </trkpt>
      <trkpt lat="43.21118" lon="3.14877">
        <ele>94</ele>
        <time>2024-03-29T11:24:24.491Z</time>
      </trkpt>
      <trkpt lat="43.21122" lon="3.1487">
        <ele>94</ele>
        <time>2024-03-29T11:24:29.491Z</time>
      </trkpt>
      <trkpt lat="43.21125" lon="3.14863">
        <ele>93</ele>
        <time>2024-03-29T11:24:34.491Z</time>
      </trkpt>
      <trkpt lat="43.21125" lon="3.14858">
        <ele>93</ele>
        <time>2024-03-29T11:24:39.491Z</time>
      </trkpt>
      <trkpt lat="43.21127" lon="3.14853">
        <ele>93</ele>
        <time>2024-03-29T11:24:44.491Z</time>
      </trkpt>
      <trkpt lat="43.21129" lon="3.14848">
        <ele>93</ele>
        <time>2024-03-29T11:24:49.491Z</time>
      </trkpt>
      <trkpt lat="43.21131" lon="3.14838">
        <ele>94</ele>
        <time>2024-03-29T11:24:53.491Z</time>
      </trkpt>
      <trkpt lat="43.21135" lon="3.1483">
        <ele>94</ele>
        <time>2024-03-29T11:24:58.491Z</time>
      </trkpt>
      <trkpt lat="43.21138" lon="3.14824">
        <ele>94</ele>
        <time>2024-03-29T11:25:03.491Z</time>
      </trkpt>
      <trkpt lat="43.21139" lon="3.14817">
        <ele>95</ele>
        <time>2024-03-29T11:25:07.491Z</time>
      </trkpt>
      <trkpt lat="43.21139" lon="3.1481">
        <ele>95</ele>
        <time>2024-03-29T11:25:12.491Z</time>
      </trkpt>
      <trkpt lat="43.21139" lon="3.14802">
        <ele>95</ele>
        <time>2024-03-29T11:25:17.491Z</time>
      </trkpt>
      <trkpt lat="43.2114" lon="3.14793">
        <ele>95</ele>
        <time>2024-03-29T11:25:22.491Z</time>
      </trkpt>
      <trkpt lat="43.2114" lon="3.14785">
        <ele>95</ele>
        <time>2024-03-29T11:25:27.491Z</time>
      </trkpt>
      <trkpt lat="43.2114" lon="3.14777">
        <ele>95</ele>
        <time>2024-03-29T11:25:32.491Z</time>
      </trkpt>
      <trkpt lat="43.21139" lon="3.14769">
        <ele>95</ele>
        <time>2024-03-29T11:25:37.491Z</time>
      </trkpt>
      <trkpt lat="43.21138" lon="3.14761">
        <ele>96</ele>
        <time>2024-03-29T11:25:42.491Z</time>
      </trkpt>
      <trkpt lat="43.21137" lon="3.14754">
        <ele>96</ele>
        <time>2024-03-29T11:25:47.491Z</time>
      </trkpt>
      <trkpt lat="43.21135" lon="3.14749">
        <ele>96</ele>
        <time>2024-03-29T11:25:52.491Z</time>
      </trkpt>
      <trkpt lat="43.21133" lon="3.14746">
        <ele>96</ele>
        <time>2024-03-29T11:25:57.491Z</time>
      </trkpt>
      <trkpt lat="43.21132" lon="3.14736">
        <ele>96</ele>
        <time>2024-03-29T11:26:02.491Z</time>
      </trkpt>
      <trkpt lat="43.2113" lon="3.14726">
        <ele>96</ele>
        <time>2024-03-29T11:26:07.491Z</time>
      </trkpt>
      <trkpt lat="43.21127" lon="3.14717">
        <ele>96</ele>
        <time>2024-03-29T11:26:12.491Z</time>
      </trkpt>
      <trkpt lat="43.21125" lon="3.14713">
        <ele>97</ele>
        <time>2024-03-29T11:26:16.491Z</time>
      </trkpt>
      <trkpt lat="43.21123" lon="3.14706">
        <ele>97</ele>
        <time>2024-03-29T11:26:21.491Z</time>
      </trkpt>
      <trkpt lat="43.21119" lon="3.14696">
        <ele>97</ele>
        <time>2024-03-29T11:26:30.491Z</time>
      </trkpt>
      <trkpt lat="43.21118" lon="3.14693">
        <ele>97</ele>
        <time>2024-03-29T11:26:35.491Z</time>
      </trkpt>
      <trkpt lat="43.21117" lon="3.14691">
        <ele>97</ele>
        <time>2024-03-29T11:26:40.491Z</time>
      </trkpt>
      <trkpt lat="43.21117" lon="3.14691">
        <ele>97</ele>
        <time>2024-03-29T11:26:45.491Z</time>
      </trkpt>
      <trkpt lat="43.21115" lon="3.14686">
        <ele>97</ele>
        <time>2024-03-29T11:27:44.491Z</time>
      </trkpt>
      <trkpt lat="43.21113" lon="3.14677">
        <ele>96</ele>
        <time>2024-03-29T11:27:49.491Z</time>
      </trkpt>
      <trkpt lat="43.2111" lon="3.14672">
        <ele>96</ele>
        <time>2024-03-29T11:27:53.491Z</time>
      </trkpt>
      <trkpt lat="43.21109" lon="3.14667">
        <ele>96</ele>
        <time>2024-03-29T11:27:58.491Z</time>
      </trkpt>
      <trkpt lat="43.21107" lon="3.14663">
        <ele>96</ele>
        <time>2024-03-29T11:28:02.491Z</time>
      </trkpt>
      <trkpt lat="43.21104" lon="3.14656">
        <ele>96</ele>
        <time>2024-03-29T11:28:07.491Z</time>
      </trkpt>
      <trkpt lat="43.21102" lon="3.14651">
        <ele>96</ele>
        <time>2024-03-29T11:28:11.491Z</time>
      </trkpt>
      <trkpt lat="43.21098" lon="3.14645">
        <ele>96</ele>
        <time>2024-03-29T11:28:16.491Z</time>
      </trkpt>
      <trkpt lat="43.21095" lon="3.14639">
        <ele>96</ele>
        <time>2024-03-29T11:28:20.491Z</time>
      </trkpt>
      <trkpt lat="43.21092" lon="3.14633">
        <ele>96</ele>
        <time>2024-03-29T11:28:25.491Z</time>
      </trkpt>
      <trkpt lat="43.2109" lon="3.14627">
        <ele>96</ele>
        <time>2024-03-29T11:28:30.491Z</time>
      </trkpt>
      <trkpt lat="43.21088" lon="3.1462">
        <ele>96</ele>
        <time>2024-03-29T11:28:35.491Z</time>
      </trkpt>
      <trkpt lat="43.21086" lon="3.14614">
        <ele>96</ele>
        <time>2024-03-29T11:28:39.491Z</time>
      </trkpt>
      <trkpt lat="43.21083" lon="3.14606">
        <ele>96</ele>
        <time>2024-03-29T11:28:44.491Z</time>
      </trkpt>
      <trkpt lat="43.21081" lon="3.14601">
        <ele>96</ele>
        <time>2024-03-29T11:28:48.491Z</time>
      </trkpt>
      <trkpt lat="43.21076" lon="3.14597">
        <ele>97</ele>
        <time>2024-03-29T11:28:53.491Z</time>
      </trkpt>
      <trkpt lat="43.21071" lon="3.14596">
        <ele>97</ele>
        <time>2024-03-29T11:28:57.491Z</time>
      </trkpt>
      <trkpt lat="43.21068" lon="3.14594">
        <ele>96</ele>
        <time>2024-03-29T11:29:02.491Z</time>
      </trkpt>
      <trkpt lat="43.21062" lon="3.14596">
        <ele>96</ele>
        <time>2024-03-29T11:29:07.491Z</time>
      </trkpt>
      <trkpt lat="43.21056" lon="3.14602">
        <ele>96</ele>
        <time>2024-03-29T11:29:12.491Z</time>
      </trkpt>
      <trkpt lat="43.21052" lon="3.14607">
        <ele>96</ele>
        <time>2024-03-29T11:29:17.491Z</time>
      </trkpt>
      <trkpt lat="43.21047" lon="3.1461">
        <ele>96</ele>
        <time>2024-03-29T11:29:22.491Z</time>
      </trkpt>
      <trkpt lat="43.21042" lon="3.14612">
        <ele>96</ele>
        <time>2024-03-29T11:29:27.491Z</time>
      </trkpt>
      <trkpt lat="43.21037" lon="3.14614">
        <ele>97</ele>
        <time>2024-03-29T11:29:32.491Z</time>
      </trkpt>
      <trkpt lat="43.21032" lon="3.14614">
        <ele>97</ele>
        <time>2024-03-29T11:29:37.491Z</time>
      </trkpt>
      <trkpt lat="43.21023" lon="3.14614">
        <ele>97</ele>
        <time>2024-03-29T11:29:55.491Z</time>
      </trkpt>
      <trkpt lat="43.21023" lon="3.14613">
        <ele>97</ele>
        <time>2024-03-29T11:29:59.491Z</time>
      </trkpt>
      <trkpt lat="43.21017" lon="3.14612">
        <ele>97</ele>
        <time>2024-03-29T11:30:04.491Z</time>
      </trkpt>
      <trkpt lat="43.21011" lon="3.14612">
        <ele>97</ele>
        <time>2024-03-29T11:30:08.491Z</time>
      </trkpt>
      <trkpt lat="43.21006" lon="3.14613">
        <ele>97</ele>
        <time>2024-03-29T11:30:13.491Z</time>
      </trkpt>
      <trkpt lat="43.21" lon="3.14611">
        <ele>97</ele>
        <time>2024-03-29T11:30:18.491Z</time>
      </trkpt>
      <trkpt lat="43.20996" lon="3.1461">
        <ele>97</ele>
        <time>2024-03-29T11:30:22.491Z</time>
      </trkpt>
      <trkpt lat="43.20989" lon="3.1461">
        <ele>97</ele>
        <time>2024-03-29T11:30:27.491Z</time>
      </trkpt>
      <trkpt lat="43.20983" lon="3.1461">
        <ele>94</ele>
        <time>2024-03-29T11:30:32.491Z</time>
      </trkpt>
      <trkpt lat="43.20979" lon="3.14609">
        <ele>94</ele>
        <time>2024-03-29T11:30:36.491Z</time>
      </trkpt>
      <trkpt lat="43.20974" lon="3.14608">
        <ele>94</ele>
        <time>2024-03-29T11:30:40.491Z</time>
      </trkpt>
      <trkpt lat="43.20967" lon="3.14608">
        <ele>94</ele>
        <time>2024-03-29T11:30:45.491Z</time>
      </trkpt>
      <trkpt lat="43.20963" lon="3.14607">
        <ele>94</ele>
        <time>2024-03-29T11:30:49.491Z</time>
      </trkpt>
      <trkpt lat="43.20957" lon="3.14605">
        <ele>91</ele>
        <time>2024-03-29T11:30:54.491Z</time>
      </trkpt>
      <trkpt lat="43.20952" lon="3.14603">
        <ele>91</ele>
        <time>2024-03-29T11:30:58.491Z</time>
      </trkpt>
      <trkpt lat="43.20948" lon="3.14599">
        <ele>91</ele>
        <time>2024-03-29T11:31:02.491Z</time>
      </trkpt>
      <trkpt lat="43.20945" lon="3.14595">
        <ele>92</ele>
        <time>2024-03-29T11:31:06.491Z</time>
      </trkpt>
      <trkpt lat="43.20942" lon="3.14591">
        <ele>92</ele>
        <time>2024-03-29T11:31:11.491Z</time>
      </trkpt>
      <trkpt lat="43.20936" lon="3.1459">
        <ele>92</ele>
        <time>2024-03-29T11:31:15.491Z</time>
      </trkpt>
      <trkpt lat="43.20933" lon="3.14587">
        <ele>92</ele>
        <time>2024-03-29T11:31:19.491Z</time>
      </trkpt>
      <trkpt lat="43.20928" lon="3.14582">
        <ele>93</ele>
        <time>2024-03-29T11:31:24.491Z</time>
      </trkpt>
      <trkpt lat="43.20923" lon="3.14579">
        <ele>93</ele>
        <time>2024-03-29T11:31:29.491Z</time>
      </trkpt>
      <trkpt lat="43.20922" lon="3.14575">
        <ele>93</ele>
        <time>2024-03-29T11:31:33.491Z</time>
      </trkpt>
      <trkpt lat="43.20922" lon="3.14568">
        <ele>94</ele>
        <time>2024-03-29T11:31:38.491Z</time>
      </trkpt>
      <trkpt lat="43.20921" lon="3.1456">
        <ele>94</ele>
        <time>2024-03-29T11:31:43.491Z</time>
      </trkpt>
      <trkpt lat="43.2092" lon="3.14553">
        <ele>94</ele>
        <time>2024-03-29T11:31:47.491Z</time>
      </trkpt>
      <trkpt lat="43.20919" lon="3.14545">
        <ele>94</ele>
        <time>2024-03-29T11:31:52.491Z</time>
      </trkpt>
      <trkpt lat="43.20919" lon="3.14538">
        <ele>95</ele>
        <time>2024-03-29T11:31:57.491Z</time>
      </trkpt>
      <trkpt lat="43.20919" lon="3.14532">
        <ele>95</ele>
        <time>2024-03-29T11:32:01.491Z</time>
      </trkpt>
      <trkpt lat="43.20918" lon="3.14525">
        <ele>95</ele>
        <time>2024-03-29T11:32:06.491Z</time>
      </trkpt>
      <trkpt lat="43.20917" lon="3.14518">
        <ele>95</ele>
        <time>2024-03-29T11:32:10.491Z</time>
      </trkpt>
      <trkpt lat="43.20916" lon="3.14511">
        <ele>97</ele>
        <time>2024-03-29T11:32:14.491Z</time>
      </trkpt>
      <trkpt lat="43.20916" lon="3.14503">
        <ele>97</ele>
        <time>2024-03-29T11:32:19.491Z</time>
      </trkpt>
      <trkpt lat="43.20916" lon="3.14496">
        <ele>97</ele>
        <time>2024-03-29T11:32:23.491Z</time>
      </trkpt>
      <trkpt lat="43.20914" lon="3.14489">
        <ele>97</ele>
        <time>2024-03-29T11:32:28.491Z</time>
      </trkpt>
      <trkpt lat="43.20914" lon="3.14484">
        <ele>98</ele>
        <time>2024-03-29T11:32:32.491Z</time>
      </trkpt>
      <trkpt lat="43.20914" lon="3.14478">
        <ele>98</ele>
        <time>2024-03-29T11:32:36.491Z</time>
      </trkpt>
      <trkpt lat="43.20913" lon="3.14472">
        <ele>98</ele>
        <time>2024-03-29T11:32:40.491Z</time>
      </trkpt>
      <trkpt lat="43.20912" lon="3.14465">
        <ele>98</ele>
        <time>2024-03-29T11:32:45.491Z</time>
      </trkpt>
      <trkpt lat="43.20913" lon="3.14464">
        <ele>98</ele>
        <time>2024-03-29T11:32:50.491Z</time>
      </trkpt>
      <trkpt lat="43.20913" lon="3.14462">
        <ele>98</ele>
        <time>2024-03-29T11:32:54.491Z</time>
      </trkpt>
      <trkpt lat="43.20912" lon="3.14456">
        <ele>100</ele>
        <time>2024-03-29T11:32:59.491Z</time>
      </trkpt>
      <trkpt lat="43.20906" lon="3.14455">
        <ele>100</ele>
        <time>2024-03-29T11:33:04.491Z</time>
      </trkpt>
      <trkpt lat="43.20903" lon="3.14457">
        <ele>99</ele>
        <time>2024-03-29T11:33:08.491Z</time>
      </trkpt>
      <trkpt lat="43.20898" lon="3.14459">
        <ele>98</ele>
        <time>2024-03-29T11:33:13.491Z</time>
      </trkpt>
      <trkpt lat="43.20894" lon="3.1446">
        <ele>98</ele>
        <time>2024-03-29T11:33:17.491Z</time>
      </trkpt>
      <trkpt lat="43.20889" lon="3.14463">
        <ele>98</ele>
        <time>2024-03-29T11:33:22.491Z</time>
      </trkpt>
      <trkpt lat="43.20884" lon="3.14464">
        <ele>98</ele>
        <time>2024-03-29T11:33:26.491Z</time>
      </trkpt>
      <trkpt lat="43.20879" lon="3.14465">
        <ele>98</ele>
        <time>2024-03-29T11:33:31.491Z</time>
      </trkpt>
      <trkpt lat="43.20874" lon="3.14468">
        <ele>98</ele>
        <time>2024-03-29T11:33:35.491Z</time>
      </trkpt>
      <trkpt lat="43.20867" lon="3.14467">
        <ele>98</ele>
        <time>2024-03-29T11:33:40.491Z</time>
      </trkpt>
      <trkpt lat="43.2086" lon="3.14468">
        <ele>98</ele>
        <time>2024-03-29T11:33:45.491Z</time>
      </trkpt>
      <trkpt lat="43.20856" lon="3.14468">
        <ele>98</ele>
        <time>2024-03-29T11:33:49.491Z</time>
      </trkpt>
      <trkpt lat="43.2085" lon="3.1447">
        <ele>98</ele>
        <time>2024-03-29T11:33:53.491Z</time>
      </trkpt>
      <trkpt lat="43.20845" lon="3.14475">
        <ele>96</ele>
        <time>2024-03-29T11:33:58.491Z</time>
      </trkpt>
      <trkpt lat="43.20842" lon="3.14477">
        <ele>96</ele>
        <time>2024-03-29T11:34:02.491Z</time>
      </trkpt>
      <trkpt lat="43.20836" lon="3.14481">
        <ele>96</ele>
        <time>2024-03-29T11:34:07.491Z</time>
      </trkpt>
      <trkpt lat="43.20832" lon="3.14484">
        <ele>96</ele>
        <time>2024-03-29T11:34:11.491Z</time>
      </trkpt>
      <trkpt lat="43.20827" lon="3.14486">
        <ele>96</ele>
        <time>2024-03-29T11:34:15.491Z</time>
      </trkpt>
      <trkpt lat="43.20824" lon="3.14489">
        <ele>96</ele>
        <time>2024-03-29T11:34:20.491Z</time>
      </trkpt>
      <trkpt lat="43.20819" lon="3.14491">
        <ele>95</ele>
        <time>2024-03-29T11:34:24.491Z</time>
      </trkpt>
      <trkpt lat="43.20814" lon="3.14494">
        <ele>95</ele>
        <time>2024-03-29T11:34:28.491Z</time>
      </trkpt>
      <trkpt lat="43.20807" lon="3.14496">
        <ele>95</ele>
        <time>2024-03-29T11:34:33.491Z</time>
      </trkpt>
      <trkpt lat="43.20802" lon="3.14497">
        <ele>95</ele>
        <time>2024-03-29T11:34:37.491Z</time>
      </trkpt>
      <trkpt lat="43.20799" lon="3.145">
        <ele>95</ele>
        <time>2024-03-29T11:34:42.491Z</time>
      </trkpt>
      <trkpt lat="43.20793" lon="3.14503">
        <ele>95</ele>
        <time>2024-03-29T11:34:46.491Z</time>
      </trkpt>
      <trkpt lat="43.20789" lon="3.14506">
        <ele>93</ele>
        <time>2024-03-29T11:34:50.491Z</time>
      </trkpt>
      <trkpt lat="43.20785" lon="3.14509">
        <ele>93</ele>
        <time>2024-03-29T11:34:55.491Z</time>
      </trkpt>
      <trkpt lat="43.2078" lon="3.14512">
        <ele>93</ele>
        <time>2024-03-29T11:34:59.491Z</time>
      </trkpt>
      <trkpt lat="43.20774" lon="3.14514">
        <ele>93</ele>
        <time>2024-03-29T11:35:03.491Z</time>
      </trkpt>
      <trkpt lat="43.20767" lon="3.14515">
        <ele>94</ele>
        <time>2024-03-29T11:35:08.491Z</time>
      </trkpt>
      <trkpt lat="43.20762" lon="3.14519">
        <ele>91</ele>
        <time>2024-03-29T11:35:12.491Z</time>
      </trkpt>
      <trkpt lat="43.20756" lon="3.14523">
        <ele>91</ele>
        <time>2024-03-29T11:35:17.491Z</time>
      </trkpt>
      <trkpt lat="43.20751" lon="3.14526">
        <ele>91</ele>
        <time>2024-03-29T11:35:22.491Z</time>
      </trkpt>
      <trkpt lat="43.20748" lon="3.14528">
        <ele>91</ele>
        <time>2024-03-29T11:35:27.491Z</time>
      </trkpt>
      <trkpt lat="43.20741" lon="3.14532">
        <ele>91</ele>
        <time>2024-03-29T11:35:32.491Z</time>
      </trkpt>
      <trkpt lat="43.20738" lon="3.14533">
        <ele>91</ele>
        <time>2024-03-29T11:35:36.491Z</time>
      </trkpt>
      <trkpt lat="43.20733" lon="3.14533">
        <ele>88</ele>
        <time>2024-03-29T11:35:41.491Z</time>
      </trkpt>
      <trkpt lat="43.20727" lon="3.14527">
        <ele>88</ele>
        <time>2024-03-29T11:35:46.491Z</time>
      </trkpt>
      <trkpt lat="43.20725" lon="3.14523">
        <ele>88</ele>
        <time>2024-03-29T11:35:50.491Z</time>
      </trkpt>
      <trkpt lat="43.20722" lon="3.1452">
        <ele>88</ele>
        <time>2024-03-29T11:35:55.491Z</time>
      </trkpt>
      <trkpt lat="43.20719" lon="3.14518">
        <ele>88</ele>
        <time>2024-03-29T11:35:59.492Z</time>
      </trkpt>
      <trkpt lat="43.20717" lon="3.14517">
        <ele>88</ele>
        <time>2024-03-29T11:36:04.492Z</time>
      </trkpt>
      <trkpt lat="43.20711" lon="3.14509">
        <ele>88</ele>
        <time>2024-03-29T11:36:08.492Z</time>
      </trkpt>
      <trkpt lat="43.20708" lon="3.14504">
        <ele>85</ele>
        <time>2024-03-29T11:36:13.492Z</time>
      </trkpt>
      <trkpt lat="43.20703" lon="3.14501">
        <ele>85</ele>
        <time>2024-03-29T11:36:17.492Z</time>
      </trkpt>
      <trkpt lat="43.20699" lon="3.14499">
        <ele>85</ele>
        <time>2024-03-29T11:36:22.492Z</time>
      </trkpt>
      <trkpt lat="43.20695" lon="3.14495">
        <ele>85</ele>
        <time>2024-03-29T11:36:27.492Z</time>
      </trkpt>
      <trkpt lat="43.20694" lon="3.14494">
        <ele>85</ele>
        <time>2024-03-29T11:36:31.492Z</time>
      </trkpt>
      <trkpt lat="43.20694" lon="3.14489">
        <ele>85</ele>
        <time>2024-03-29T11:36:36.492Z</time>
      </trkpt>
      <trkpt lat="43.2069" lon="3.14482">
        <ele>84</ele>
        <time>2024-03-29T11:36:41.492Z</time>
      </trkpt>
      <trkpt lat="43.20687" lon="3.14476">
        <ele>84</ele>
        <time>2024-03-29T11:36:46.492Z</time>
      </trkpt>
      <trkpt lat="43.20686" lon="3.14472">
        <ele>84</ele>
        <time>2024-03-29T11:36:50.492Z</time>
      </trkpt>
      <trkpt lat="43.20681" lon="3.14468">
        <ele>81</ele>
        <time>2024-03-29T11:36:55.492Z</time>
      </trkpt>
      <trkpt lat="43.20675" lon="3.14466">
        <ele>81</ele>
        <time>2024-03-29T11:37:00.492Z</time>
      </trkpt>
      <trkpt lat="43.20669" lon="3.14461">
        <ele>81</ele>
        <time>2024-03-29T11:37:05.492Z</time>
      </trkpt>
      <trkpt lat="43.20666" lon="3.1446">
        <ele>81</ele>
        <time>2024-03-29T11:37:09.492Z</time>
      </trkpt>
      <trkpt lat="43.20665" lon="3.14454">
        <ele>80</ele>
        <time>2024-03-29T11:37:14.492Z</time>
      </trkpt>
      <trkpt lat="43.20664" lon="3.14443">
        <ele>80</ele>
        <time>2024-03-29T11:37:19.492Z</time>
      </trkpt>
      <trkpt lat="43.20658" lon="3.14443">
        <ele>80</ele>
        <time>2024-03-29T11:37:23.492Z</time>
      </trkpt>
      <trkpt lat="43.20652" lon="3.14442">
        <ele>78</ele>
        <time>2024-03-29T11:37:28.492Z</time>
      </trkpt>
      <trkpt lat="43.20649" lon="3.14441">
        <ele>78</ele>
        <time>2024-03-29T11:37:33.492Z</time>
      </trkpt>
      <trkpt lat="43.20644" lon="3.14443">
        <ele>78</ele>
        <time>2024-03-29T11:37:37.492Z</time>
      </trkpt>
      <trkpt lat="43.20638" lon="3.1444">
        <ele>78</ele>
        <time>2024-03-29T11:37:42.492Z</time>
      </trkpt>
      <trkpt lat="43.20633" lon="3.14436">
        <ele>78</ele>
        <time>2024-03-29T11:37:46.492Z</time>
      </trkpt>
      <trkpt lat="43.2063" lon="3.14434">
        <ele>78</ele>
        <time>2024-03-29T11:37:51.492Z</time>
      </trkpt>
      <trkpt lat="43.20624" lon="3.14433">
        <ele>75</ele>
        <time>2024-03-29T11:37:55.492Z</time>
      </trkpt>
      <trkpt lat="43.20621" lon="3.14436">
        <ele>75</ele>
        <time>2024-03-29T11:37:59.492Z</time>
      </trkpt>
      <trkpt lat="43.20616" lon="3.14437">
        <ele>75</ele>
        <time>2024-03-29T11:38:04.492Z</time>
      </trkpt>
      <trkpt lat="43.2061" lon="3.14436">
        <ele>75</ele>
        <time>2024-03-29T11:38:09.492Z</time>
      </trkpt>
      <trkpt lat="43.20607" lon="3.14434">
        <ele>75</ele>
        <time>2024-03-29T11:38:13.492Z</time>
      </trkpt>
      <trkpt lat="43.20602" lon="3.14433">
        <ele>75</ele>
        <time>2024-03-29T11:38:18.492Z</time>
      </trkpt>
      <trkpt lat="43.20599" lon="3.14432">
        <ele>75</ele>
        <time>2024-03-29T11:38:22.492Z</time>
      </trkpt>
      <trkpt lat="43.20591" lon="3.14429">
        <ele>71</ele>
        <time>2024-03-29T11:38:27.492Z</time>
      </trkpt>
      <trkpt lat="43.20587" lon="3.14428">
        <ele>71</ele>
        <time>2024-03-29T11:38:31.492Z</time>
      </trkpt>
      <trkpt lat="43.20582" lon="3.14429">
        <ele>71</ele>
        <time>2024-03-29T11:38:35.492Z</time>
      </trkpt>
      <trkpt lat="43.20576" lon="3.14429">
        <ele>71</ele>
        <time>2024-03-29T11:38:40.492Z</time>
      </trkpt>
      <trkpt lat="43.20572" lon="3.14426">
        <ele>71</ele>
        <time>2024-03-29T11:38:45.492Z</time>
      </trkpt>
      <trkpt lat="43.20569" lon="3.14427">
        <ele>70</ele>
        <time>2024-03-29T11:38:49.492Z</time>
      </trkpt>
      <trkpt lat="43.20565" lon="3.14431">
        <ele>73</ele>
        <time>2024-03-29T11:38:54.492Z</time>
      </trkpt>
      <trkpt lat="43.20562" lon="3.14437">
        <ele>73</ele>
        <time>2024-03-29T11:38:59.492Z</time>
      </trkpt>
      <trkpt lat="43.20559" lon="3.14444">
        <ele>73</ele>
        <time>2024-03-29T11:39:04.492Z</time>
      </trkpt>
      <trkpt lat="43.20555" lon="3.14454">
        <ele>73</ele>
        <time>2024-03-29T11:39:09.492Z</time>
      </trkpt>
      <trkpt lat="43.20555" lon="3.1446">
        <ele>75</ele>
        <time>2024-03-29T11:39:14.492Z</time>
      </trkpt>
      <trkpt lat="43.20552" lon="3.14467">
        <ele>75</ele>
        <time>2024-03-29T11:39:19.492Z</time>
      </trkpt>
      <trkpt lat="43.20548" lon="3.1447">
        <ele>75</ele>
        <time>2024-03-29T11:39:23.492Z</time>
      </trkpt>
      <trkpt lat="43.20544" lon="3.14469">
        <ele>75</ele>
        <time>2024-03-29T11:39:28.492Z</time>
      </trkpt>
      <trkpt lat="43.2054" lon="3.14467">
        <ele>76</ele>
        <time>2024-03-29T11:39:32.492Z</time>
      </trkpt>
      <trkpt lat="43.20536" lon="3.14464">
        <ele>76</ele>
        <time>2024-03-29T11:39:37.492Z</time>
      </trkpt>
      <trkpt lat="43.20532" lon="3.14462">
        <ele>76</ele>
        <time>2024-03-29T11:39:41.492Z</time>
      </trkpt>
      <trkpt lat="43.20527" lon="3.14461">
        <ele>76</ele>
        <time>2024-03-29T11:39:45.492Z</time>
      </trkpt>
      <trkpt lat="43.20523" lon="3.1446">
        <ele>76</ele>
        <time>2024-03-29T11:39:50.492Z</time>
      </trkpt>
      <trkpt lat="43.20519" lon="3.1446">
        <ele>76</ele>
        <time>2024-03-29T11:39:54.492Z</time>
      </trkpt>
      <trkpt lat="43.20512" lon="3.14461">
        <ele>75</ele>
        <time>2024-03-29T11:39:59.492Z</time>
      </trkpt>
      <trkpt lat="43.20507" lon="3.14463">
        <ele>75</ele>
        <time>2024-03-29T11:40:04.492Z</time>
      </trkpt>
      <trkpt lat="43.20503" lon="3.14462">
        <ele>75</ele>
        <time>2024-03-29T11:40:08.492Z</time>
      </trkpt>
      <trkpt lat="43.20499" lon="3.14459">
        <ele>75</ele>
        <time>2024-03-29T11:40:13.492Z</time>
      </trkpt>
      <trkpt lat="43.20495" lon="3.14458">
        <ele>73</ele>
        <time>2024-03-29T11:40:17.492Z</time>
      </trkpt>
      <trkpt lat="43.20491" lon="3.14455">
        <ele>73</ele>
        <time>2024-03-29T11:40:22.492Z</time>
      </trkpt>
      <trkpt lat="43.20491" lon="3.14454">
        <ele>73</ele>
        <time>2024-03-29T11:40:36.492Z</time>
      </trkpt>
      <trkpt lat="43.20486" lon="3.14454">
        <ele>73</ele>
        <time>2024-03-29T11:40:45.492Z</time>
      </trkpt>
      <trkpt lat="43.20485" lon="3.14453">
        <ele>73</ele>
        <time>2024-03-29T11:40:49.492Z</time>
      </trkpt>
      <trkpt lat="43.20483" lon="3.1445">
        <ele>73</ele>
        <time>2024-03-29T11:40:53.492Z</time>
      </trkpt>
      <trkpt lat="43.20481" lon="3.14446">
        <ele>73</ele>
        <time>2024-03-29T11:40:58.492Z</time>
      </trkpt>
      <trkpt lat="43.20478" lon="3.14441">
        <ele>73</ele>
        <time>2024-03-29T11:41:03.492Z</time>
      </trkpt>
      <trkpt lat="43.20474" lon="3.1444">
        <ele>73</ele>
        <time>2024-03-29T11:41:07.492Z</time>
      </trkpt>
      <trkpt lat="43.2047" lon="3.14439">
        <ele>73</ele>
        <time>2024-03-29T11:41:11.492Z</time>
      </trkpt>
      <trkpt lat="43.20465" lon="3.14438">
        <ele>73</ele>
        <time>2024-03-29T11:41:15.492Z</time>
      </trkpt>
      <trkpt lat="43.2046" lon="3.14437">
        <ele>73</ele>
        <time>2024-03-29T11:41:20.492Z</time>
      </trkpt>
      <trkpt lat="43.20456" lon="3.14435">
        <ele>75</ele>
        <time>2024-03-29T11:41:25.492Z</time>
      </trkpt>
      <trkpt lat="43.20451" lon="3.14435">
        <ele>75</ele>
        <time>2024-03-29T11:41:29.492Z</time>
      </trkpt>
      <trkpt lat="43.20446" lon="3.14432">
        <ele>75</ele>
        <time>2024-03-29T11:41:34.492Z</time>
      </trkpt>
      <trkpt lat="43.2044" lon="3.14429">
        <ele>70</ele>
        <time>2024-03-29T11:41:39.492Z</time>
      </trkpt>
      <trkpt lat="43.20436" lon="3.14429">
        <ele>70</ele>
        <time>2024-03-29T11:41:43.492Z</time>
      </trkpt>
      <trkpt lat="43.20431" lon="3.14429">
        <ele>70</ele>
        <time>2024-03-29T11:41:48.492Z</time>
      </trkpt>
      <trkpt lat="43.20427" lon="3.14433">
        <ele>76</ele>
        <time>2024-03-29T11:41:53.492Z</time>
      </trkpt>
      <trkpt lat="43.20422" lon="3.14436">
        <ele>76</ele>
        <time>2024-03-29T11:41:58.492Z</time>
      </trkpt>
      <trkpt lat="43.20417" lon="3.14438">
        <ele>76</ele>
        <time>2024-03-29T11:42:03.492Z</time>
      </trkpt>
      <trkpt lat="43.20412" lon="3.14439">
        <ele>76</ele>
        <time>2024-03-29T11:42:08.492Z</time>
      </trkpt>
      <trkpt lat="43.20408" lon="3.14439">
        <ele>76</ele>
        <time>2024-03-29T11:42:13.492Z</time>
      </trkpt>
      <trkpt lat="43.20399" lon="3.14447">
        <ele>70</ele>
        <time>2024-03-29T11:42:43.492Z</time>
      </trkpt>
      <trkpt lat="43.20397" lon="3.14449">
        <ele>70</ele>
        <time>2024-03-29T11:42:52.492Z</time>
      </trkpt>
      <trkpt lat="43.20396" lon="3.14455">
        <ele>70</ele>
        <time>2024-03-29T11:42:57.492Z</time>
      </trkpt>
      <trkpt lat="43.20395" lon="3.1446">
        <ele>74</ele>
        <time>2024-03-29T11:43:01.492Z</time>
      </trkpt>
      <trkpt lat="43.20392" lon="3.14467">
        <ele>74</ele>
        <time>2024-03-29T11:43:06.492Z</time>
      </trkpt>
      <trkpt lat="43.20391" lon="3.14471">
        <ele>74</ele>
        <time>2024-03-29T11:43:10.492Z</time>
      </trkpt>
      <trkpt lat="43.20389" lon="3.14477">
        <ele>74</ele>
        <time>2024-03-29T11:43:15.492Z</time>
      </trkpt>
      <trkpt lat="43.20386" lon="3.14482">
        <ele>74</ele>
        <time>2024-03-29T11:43:19.492Z</time>
      </trkpt>
      <trkpt lat="43.20385" lon="3.14487">
        <ele>75</ele>
        <time>2024-03-29T11:43:23.492Z</time>
      </trkpt>
      <trkpt lat="43.20384" lon="3.1449">
        <ele>75</ele>
        <time>2024-03-29T11:43:28.492Z</time>
      </trkpt>
      <trkpt lat="43.20383" lon="3.14495">
        <ele>75</ele>
        <time>2024-03-29T11:43:33.492Z</time>
      </trkpt>
      <trkpt lat="43.20381" lon="3.14501">
        <ele>75</ele>
        <time>2024-03-29T11:43:37.492Z</time>
      </trkpt>
      <trkpt lat="43.2038" lon="3.14506">
        <ele>75</ele>
        <time>2024-03-29T11:43:42.492Z</time>
      </trkpt>
      <trkpt lat="43.20378" lon="3.14512">
        <ele>75</ele>
        <time>2024-03-29T11:43:46.492Z</time>
      </trkpt>
      <trkpt lat="43.20377" lon="3.1452">
        <ele>78</ele>
        <time>2024-03-29T11:43:51.492Z</time>
      </trkpt>
      <trkpt lat="43.20375" lon="3.14525">
        <ele>76</ele>
        <time>2024-03-29T11:43:55.492Z</time>
      </trkpt>
      <trkpt lat="43.20374" lon="3.14532">
        <ele>76</ele>
        <time>2024-03-29T11:44:00.492Z</time>
      </trkpt>
      <trkpt lat="43.20373" lon="3.14538">
        <ele>76</ele>
        <time>2024-03-29T11:44:05.492Z</time>
      </trkpt>
      <trkpt lat="43.2037" lon="3.14546">
        <ele>77</ele>
        <time>2024-03-29T11:44:10.492Z</time>
      </trkpt>
      <trkpt lat="43.20369" lon="3.14554">
        <ele>77</ele>
        <time>2024-03-29T11:44:15.492Z</time>
      </trkpt>
      <trkpt lat="43.20367" lon="3.14561">
        <ele>77</ele>
        <time>2024-03-29T11:44:20.492Z</time>
      </trkpt>
      <trkpt lat="43.20364" lon="3.14567">
        <ele>77</ele>
        <time>2024-03-29T11:44:25.492Z</time>
      </trkpt>
      <trkpt lat="43.20362" lon="3.14574">
        <ele>77</ele>
        <time>2024-03-29T11:44:29.492Z</time>
      </trkpt>
      <trkpt lat="43.20359" lon="3.14577">
        <ele>77</ele>
        <time>2024-03-29T11:44:34.492Z</time>
      </trkpt>
      <trkpt lat="43.20358" lon="3.1458">
        <ele>77</ele>
        <time>2024-03-29T11:44:38.492Z</time>
      </trkpt>
      <trkpt lat="43.20358" lon="3.1458">
        <ele>77</ele>
        <time>2024-03-29T11:44:43.492Z</time>
      </trkpt>
      <trkpt lat="43.20357" lon="3.14583">
        <ele>77</ele>
        <time>2024-03-29T11:44:48.492Z</time>
      </trkpt>
      <trkpt lat="43.20353" lon="3.14588">
        <ele>77</ele>
        <time>2024-03-29T11:44:53.492Z</time>
      </trkpt>
      <trkpt lat="43.20349" lon="3.14594">
        <ele>77</ele>
        <time>2024-03-29T11:44:58.492Z</time>
      </trkpt>
      <trkpt lat="43.20345" lon="3.14601">
        <ele>72</ele>
        <time>2024-03-29T11:45:03.492Z</time>
      </trkpt>
      <trkpt lat="43.20343" lon="3.14607">
        <ele>72</ele>
        <time>2024-03-29T11:45:08.492Z</time>
      </trkpt>
      <trkpt lat="43.20341" lon="3.14614">
        <ele>72</ele>
        <time>2024-03-29T11:45:13.492Z</time>
      </trkpt>
      <trkpt lat="43.20339" lon="3.1462">
        <ele>72</ele>
        <time>2024-03-29T11:45:18.492Z</time>
      </trkpt>
      <trkpt lat="43.20335" lon="3.14626">
        <ele>73</ele>
        <time>2024-03-29T11:45:23.493Z</time>
      </trkpt>
      <trkpt lat="43.2033" lon="3.14629">
        <ele>73</ele>
        <time>2024-03-29T11:45:27.493Z</time>
      </trkpt>
      <trkpt lat="43.20327" lon="3.14636">
        <ele>73</ele>
        <time>2024-03-29T11:45:32.493Z</time>
      </trkpt>
      <trkpt lat="43.20326" lon="3.14644">
        <ele>73</ele>
        <time>2024-03-29T11:45:37.493Z</time>
      </trkpt>
      <trkpt lat="43.20328" lon="3.14648">
        <ele>73</ele>
        <time>2024-03-29T11:45:42.493Z</time>
      </trkpt>
      <trkpt lat="43.20327" lon="3.14656">
        <ele>73</ele>
        <time>2024-03-29T11:45:47.493Z</time>
      </trkpt>
      <trkpt lat="43.20326" lon="3.14664">
        <ele>73</ele>
        <time>2024-03-29T11:45:52.493Z</time>
      </trkpt>
      <trkpt lat="43.20324" lon="3.14673">
        <ele>73</ele>
        <time>2024-03-29T11:45:57.493Z</time>
      </trkpt>
      <trkpt lat="43.20322" lon="3.14681">
        <ele>73</ele>
        <time>2024-03-29T11:46:01.493Z</time>
      </trkpt>
      <trkpt lat="43.20322" lon="3.14688">
        <ele>73</ele>
        <time>2024-03-29T11:46:06.493Z</time>
      </trkpt>
      <trkpt lat="43.20321" lon="3.14696">
        <ele>73</ele>
        <time>2024-03-29T11:46:11.493Z</time>
      </trkpt>
      <trkpt lat="43.20321" lon="3.14703">
        <ele>73</ele>
        <time>2024-03-29T11:46:15.493Z</time>
      </trkpt>
      <trkpt lat="43.20319" lon="3.1471">
        <ele>70</ele>
        <time>2024-03-29T11:46:20.493Z</time>
      </trkpt>
      <trkpt lat="43.20317" lon="3.14717">
        <ele>70</ele>
        <time>2024-03-29T11:46:25.493Z</time>
      </trkpt>
      <trkpt lat="43.20314" lon="3.14725">
        <ele>70</ele>
        <time>2024-03-29T11:46:30.493Z</time>
      </trkpt>
      <trkpt lat="43.20311" lon="3.14731">
        <ele>70</ele>
        <time>2024-03-29T11:46:35.493Z</time>
      </trkpt>
      <trkpt lat="43.20307" lon="3.1474">
        <ele>72</ele>
        <time>2024-03-29T11:46:40.493Z</time>
      </trkpt>
      <trkpt lat="43.20303" lon="3.14747">
        <ele>72</ele>
        <time>2024-03-29T11:46:45.493Z</time>
      </trkpt>
      <trkpt lat="43.203" lon="3.14754">
        <ele>72</ele>
        <time>2024-03-29T11:46:50.493Z</time>
      </trkpt>
      <trkpt lat="43.20298" lon="3.14761">
        <ele>72</ele>
        <time>2024-03-29T11:46:55.493Z</time>
      </trkpt>
      <trkpt lat="43.20295" lon="3.14768">
        <ele>73</ele>
        <time>2024-03-29T11:47:00.493Z</time>
      </trkpt>
      <trkpt lat="43.20294" lon="3.14775">
        <ele>73</ele>
        <time>2024-03-29T11:47:05.493Z</time>
      </trkpt>
      <trkpt lat="43.20292" lon="3.14782">
        <ele>69</ele>
        <time>2024-03-29T11:47:10.493Z</time>
      </trkpt>
      <trkpt lat="43.20287" lon="3.14784">
        <ele>69</ele>
        <time>2024-03-29T11:47:15.493Z</time>
      </trkpt>
      <trkpt lat="43.20281" lon="3.14786">
        <ele>69</ele>
        <time>2024-03-29T11:47:20.493Z</time>
      </trkpt>
      <trkpt lat="43.20274" lon="3.14786">
        <ele>69</ele>
        <time>2024-03-29T11:47:25.493Z</time>
      </trkpt>
      <trkpt lat="43.20268" lon="3.14788">
        <ele>69</ele>
        <time>2024-03-29T11:47:30.493Z</time>
      </trkpt>
      <trkpt lat="43.20262" lon="3.14788">
        <ele>66</ele>
        <time>2024-03-29T11:47:35.493Z</time>
      </trkpt>
      <trkpt lat="43.20257" lon="3.1479">
        <ele>66</ele>
        <time>2024-03-29T11:47:40.493Z</time>
      </trkpt>
      <trkpt lat="43.20253" lon="3.14791">
        <ele>66</ele>
        <time>2024-03-29T11:47:44.493Z</time>
      </trkpt>
      <trkpt lat="43.20248" lon="3.14794">
        <ele>67</ele>
        <time>2024-03-29T11:47:49.493Z</time>
      </trkpt>
      <trkpt lat="43.20243" lon="3.14797">
        <ele>67</ele>
        <time>2024-03-29T11:47:54.493Z</time>
      </trkpt>
      <trkpt lat="43.20238" lon="3.14801">
        <ele>67</ele>
        <time>2024-03-29T11:47:59.493Z</time>
      </trkpt>
      <trkpt lat="43.20234" lon="3.14807">
        <ele>67</ele>
        <time>2024-03-29T11:48:04.493Z</time>
      </trkpt>
      <trkpt lat="43.20231" lon="3.14811">
        <ele>67</ele>
        <time>2024-03-29T11:48:08.493Z</time>
      </trkpt>
      <trkpt lat="43.20229" lon="3.14814">
        <ele>67</ele>
        <time>2024-03-29T11:48:13.493Z</time>
      </trkpt>
      <trkpt lat="43.20227" lon="3.14819">
        <ele>67</ele>
        <time>2024-03-29T11:48:18.493Z</time>
      </trkpt>
      <trkpt lat="43.20223" lon="3.14828">
        <ele>68</ele>
        <time>2024-03-29T11:48:23.493Z</time>
      </trkpt>
      <trkpt lat="43.2022" lon="3.14836">
        <ele>68</ele>
        <time>2024-03-29T11:48:28.493Z</time>
      </trkpt>
      <trkpt lat="43.20221" lon="3.14844">
        <ele>68</ele>
        <time>2024-03-29T11:48:32.493Z</time>
      </trkpt>
      <trkpt lat="43.20223" lon="3.1485">
        <ele>68</ele>
        <time>2024-03-29T11:48:37.493Z</time>
      </trkpt>
      <trkpt lat="43.20227" lon="3.14857">
        <ele>68</ele>
        <time>2024-03-29T11:48:42.493Z</time>
      </trkpt>
      <trkpt lat="43.20228" lon="3.14867">
        <ele>68</ele>
        <time>2024-03-29T11:48:47.493Z</time>
      </trkpt>
      <trkpt lat="43.20229" lon="3.14873">
        <ele>68</ele>
        <time>2024-03-29T11:48:51.493Z</time>
      </trkpt>
      <trkpt lat="43.20233" lon="3.14879">
        <ele>68</ele>
        <time>2024-03-29T11:48:56.493Z</time>
      </trkpt>
      <trkpt lat="43.20234" lon="3.14886">
        <ele>68</ele>
        <time>2024-03-29T11:49:01.493Z</time>
      </trkpt>
      <trkpt lat="43.20234" lon="3.14895">
        <ele>68</ele>
        <time>2024-03-29T11:49:06.493Z</time>
      </trkpt>
      <trkpt lat="43.20234" lon="3.14902">
        <ele>68</ele>
        <time>2024-03-29T11:49:11.493Z</time>
      </trkpt>
      <trkpt lat="43.20235" lon="3.14905">
        <ele>67</ele>
        <time>2024-03-29T11:49:16.493Z</time>
      </trkpt>
      <trkpt lat="43.20236" lon="3.14909">
        <ele>67</ele>
        <time>2024-03-29T11:49:21.493Z</time>
      </trkpt>
      <trkpt lat="43.20237" lon="3.14918">
        <ele>70</ele>
        <time>2024-03-29T11:49:26.493Z</time>
      </trkpt>
      <trkpt lat="43.20239" lon="3.14931">
        <ele>69</ele>
        <time>2024-03-29T11:49:31.493Z</time>
      </trkpt>
      <trkpt lat="43.20241" lon="3.1494">
        <ele>69</ele>
        <time>2024-03-29T11:49:36.493Z</time>
      </trkpt>
      <trkpt lat="43.20242" lon="3.14947">
        <ele>69</ele>
        <time>2024-03-29T11:49:41.493Z</time>
      </trkpt>
      <trkpt lat="43.20243" lon="3.14953">
        <ele>69</ele>
        <time>2024-03-29T11:49:46.493Z</time>
      </trkpt>
      <trkpt lat="43.20245" lon="3.14961">
        <ele>68</ele>
        <time>2024-03-29T11:49:51.493Z</time>
      </trkpt>
      <trkpt lat="43.20248" lon="3.1497">
        <ele>68</ele>
        <time>2024-03-29T11:49:56.493Z</time>
      </trkpt>
      <trkpt lat="43.2025" lon="3.14977">
        <ele>68</ele>
        <time>2024-03-29T11:50:00.493Z</time>
      </trkpt>
      <trkpt lat="43.20252" lon="3.14985">
        <ele>68</ele>
        <time>2024-03-29T11:50:05.493Z</time>
      </trkpt>
      <trkpt lat="43.20253" lon="3.14993">
        <ele>68</ele>
        <time>2024-03-29T11:50:10.493Z</time>
      </trkpt>
      <trkpt lat="43.20253" lon="3.15001">
        <ele>68</ele>
        <time>2024-03-29T11:50:14.493Z</time>
      </trkpt>
      <trkpt lat="43.20253" lon="3.1501">
        <ele>68</ele>
        <time>2024-03-29T11:50:19.493Z</time>
      </trkpt>
      <trkpt lat="43.20253" lon="3.15019">
        <ele>67</ele>
        <time>2024-03-29T11:50:24.493Z</time>
      </trkpt>
      <trkpt lat="43.20252" lon="3.15029">
        <ele>67</ele>
        <time>2024-03-29T11:50:29.493Z</time>
      </trkpt>
      <trkpt lat="43.20252" lon="3.15036">
        <ele>67</ele>
        <time>2024-03-29T11:50:33.493Z</time>
      </trkpt>
      <trkpt lat="43.20252" lon="3.15044">
        <ele>66</ele>
        <time>2024-03-29T11:50:38.493Z</time>
      </trkpt>
      <trkpt lat="43.20252" lon="3.15053">
        <ele>66</ele>
        <time>2024-03-29T11:50:43.493Z</time>
      </trkpt>
      <trkpt lat="43.20253" lon="3.1506">
        <ele>66</ele>
        <time>2024-03-29T11:50:48.493Z</time>
      </trkpt>
      <trkpt lat="43.20254" lon="3.15068">
        <ele>66</ele>
        <time>2024-03-29T11:50:53.493Z</time>
      </trkpt>
      <trkpt lat="43.20255" lon="3.15074">
        <ele>65</ele>
        <time>2024-03-29T11:50:57.493Z</time>
      </trkpt>
      <trkpt lat="43.20255" lon="3.15081">
        <ele>65</ele>
        <time>2024-03-29T11:51:02.493Z</time>
      </trkpt>
      <trkpt lat="43.20254" lon="3.15089">
        <ele>65</ele>
        <time>2024-03-29T11:51:07.493Z</time>
      </trkpt>
      <trkpt lat="43.20254" lon="3.15095">
        <ele>65</ele>
        <time>2024-03-29T11:51:11.493Z</time>
      </trkpt>
      <trkpt lat="43.20255" lon="3.15101">
        <ele>65</ele>
        <time>2024-03-29T11:51:16.493Z</time>
      </trkpt>
      <trkpt lat="43.20255" lon="3.15108">
        <ele>65</ele>
        <time>2024-03-29T11:51:20.493Z</time>
      </trkpt>
      <trkpt lat="43.20258" lon="3.15117">
        <ele>65</ele>
        <time>2024-03-29T11:51:25.493Z</time>
      </trkpt>
      <trkpt lat="43.2026" lon="3.15124">
        <ele>65</ele>
        <time>2024-03-29T11:51:29.493Z</time>
      </trkpt>
      <trkpt lat="43.20262" lon="3.15131">
        <ele>64</ele>
        <time>2024-03-29T11:51:34.493Z</time>
      </trkpt>
      <trkpt lat="43.20265" lon="3.15137">
        <ele>62</ele>
        <time>2024-03-29T11:51:39.493Z</time>
      </trkpt>
      <trkpt lat="43.20268" lon="3.15142">
        <ele>62</ele>
        <time>2024-03-29T11:51:43.493Z</time>
      </trkpt>
      <trkpt lat="43.20271" lon="3.15148">
        <ele>62</ele>
        <time>2024-03-29T11:51:48.493Z</time>
      </trkpt>
      <trkpt lat="43.20274" lon="3.15156">
        <ele>62</ele>
        <time>2024-03-29T11:51:53.493Z</time>
      </trkpt>
      <trkpt lat="43.20276" lon="3.15162">
        <ele>62</ele>
        <time>2024-03-29T11:51:57.493Z</time>
      </trkpt>
      <trkpt lat="43.20279" lon="3.15169">
        <ele>62</ele>
        <time>2024-03-29T11:52:02.493Z</time>
      </trkpt>
      <trkpt lat="43.20282" lon="3.15175">
        <ele>62</ele>
        <time>2024-03-29T11:52:06.493Z</time>
      </trkpt>
      <trkpt lat="43.20285" lon="3.15182">
        <ele>61</ele>
        <time>2024-03-29T11:52:11.493Z</time>
      </trkpt>
      <trkpt lat="43.20287" lon="3.15189">
        <ele>61</ele>
        <time>2024-03-29T11:52:16.493Z</time>
      </trkpt>
      <trkpt lat="43.20287" lon="3.15195">
        <ele>61</ele>
        <time>2024-03-29T11:52:21.493Z</time>
      </trkpt>
      <trkpt lat="43.20286" lon="3.15203">
        <ele>61</ele>
        <time>2024-03-29T11:52:26.493Z</time>
      </trkpt>
      <trkpt lat="43.20285" lon="3.15211">
        <ele>60</ele>
        <time>2024-03-29T11:52:31.493Z</time>
      </trkpt>
      <trkpt lat="43.20285" lon="3.15216">
        <ele>60</ele>
        <time>2024-03-29T11:52:35.493Z</time>
      </trkpt>
      <trkpt lat="43.20284" lon="3.15221">
        <ele>60</ele>
        <time>2024-03-29T11:52:39.493Z</time>
      </trkpt>
      <trkpt lat="43.20284" lon="3.15227">
        <ele>60</ele>
        <time>2024-03-29T11:52:44.493Z</time>
      </trkpt>
      <trkpt lat="43.20286" lon="3.15234">
        <ele>60</ele>
        <time>2024-03-29T11:52:49.493Z</time>
      </trkpt>
      <trkpt lat="43.20288" lon="3.15242">
        <ele>60</ele>
        <time>2024-03-29T11:52:54.493Z</time>
      </trkpt>
      <trkpt lat="43.2029" lon="3.1525">
        <ele>60</ele>
        <time>2024-03-29T11:52:59.493Z</time>
      </trkpt>
      <trkpt lat="43.20293" lon="3.15259">
        <ele>60</ele>
        <time>2024-03-29T11:53:04.493Z</time>
      </trkpt>
      <trkpt lat="43.20295" lon="3.15266">
        <ele>59</ele>
        <time>2024-03-29T11:53:09.493Z</time>
      </trkpt>
      <trkpt lat="43.20298" lon="3.15274">
        <ele>59</ele>
        <time>2024-03-29T11:53:14.493Z</time>
      </trkpt>
      <trkpt lat="43.20301" lon="3.15281">
        <ele>59</ele>
        <time>2024-03-29T11:53:19.493Z</time>
      </trkpt>
      <trkpt lat="43.20304" lon="3.15288">
        <ele>59</ele>
        <time>2024-03-29T11:53:24.493Z</time>
      </trkpt>
      <trkpt lat="43.20307" lon="3.15294">
        <ele>59</ele>
        <time>2024-03-29T11:53:29.493Z</time>
      </trkpt>
      <trkpt lat="43.2031" lon="3.15301">
        <ele>59</ele>
        <time>2024-03-29T11:53:34.493Z</time>
      </trkpt>
      <trkpt lat="43.20312" lon="3.15309">
        <ele>59</ele>
        <time>2024-03-29T11:53:39.493Z</time>
      </trkpt>
      <trkpt lat="43.20312" lon="3.15318">
        <ele>59</ele>
        <time>2024-03-29T11:53:44.493Z</time>
      </trkpt>
      <trkpt lat="43.20312" lon="3.15325">
        <ele>59</ele>
        <time>2024-03-29T11:53:49.493Z</time>
      </trkpt>
      <trkpt lat="43.20311" lon="3.15334">
        <ele>59</ele>
        <time>2024-03-29T11:53:54.493Z</time>
      </trkpt>
      <trkpt lat="43.2031" lon="3.15341">
        <ele>59</ele>
        <time>2024-03-29T11:53:59.493Z</time>
      </trkpt>
      <trkpt lat="43.20309" lon="3.15349">
        <ele>61</ele>
        <time>2024-03-29T11:54:04.493Z</time>
      </trkpt>
      <trkpt lat="43.20309" lon="3.15356">
        <ele>61</ele>
        <time>2024-03-29T11:54:09.493Z</time>
      </trkpt>
      <trkpt lat="43.20309" lon="3.15361">
        <ele>61</ele>
        <time>2024-03-29T11:54:13.493Z</time>
      </trkpt>
      <trkpt lat="43.20308" lon="3.15363">
        <ele>61</ele>
        <time>2024-03-29T11:54:18.493Z</time>
      </trkpt>
      <trkpt lat="43.20307" lon="3.15366">
        <ele>61</ele>
        <time>2024-03-29T11:54:28.493Z</time>
      </trkpt>
      <trkpt lat="43.20307" lon="3.15366">
        <ele>61</ele>
        <time>2024-03-29T11:54:32.493Z</time>
      </trkpt>
      <trkpt lat="43.20307" lon="3.15368">
        <ele>61</ele>
        <time>2024-03-29T11:54:36.493Z</time>
      </trkpt>
      <trkpt lat="43.20308" lon="3.15373">
        <ele>61</ele>
        <time>2024-03-29T11:54:41.493Z</time>
      </trkpt>
      <trkpt lat="43.20309" lon="3.15379">
        <ele>62</ele>
        <time>2024-03-29T11:54:45.493Z</time>
      </trkpt>
      <trkpt lat="43.20309" lon="3.15386">
        <ele>62</ele>
        <time>2024-03-29T11:54:50.493Z</time>
      </trkpt>
      <trkpt lat="43.20311" lon="3.15394">
        <ele>62</ele>
        <time>2024-03-29T11:54:55.493Z</time>
      </trkpt>
      <trkpt lat="43.20312" lon="3.15402">
        <ele>62</ele>
        <time>2024-03-29T11:55:00.493Z</time>
      </trkpt>
      <trkpt lat="43.20314" lon="3.15409">
        <ele>62</ele>
        <time>2024-03-29T11:55:05.493Z</time>
      </trkpt>
      <trkpt lat="43.20315" lon="3.15417">
        <ele>62</ele>
        <time>2024-03-29T11:55:10.494Z</time>
      </trkpt>
      <trkpt lat="43.20316" lon="3.15423">
        <ele>62</ele>
        <time>2024-03-29T11:55:14.494Z</time>
      </trkpt>
      <trkpt lat="43.20318" lon="3.15429">
        <ele>62</ele>
        <time>2024-03-29T11:55:19.494Z</time>
      </trkpt>
      <trkpt lat="43.20318" lon="3.15435">
        <ele>62</ele>
        <time>2024-03-29T11:55:23.494Z</time>
      </trkpt>
      <trkpt lat="43.20319" lon="3.15444">
        <ele>62</ele>
        <time>2024-03-29T11:55:28.494Z</time>
      </trkpt>
      <trkpt lat="43.2032" lon="3.1545">
        <ele>60</ele>
        <time>2024-03-29T11:55:32.494Z</time>
      </trkpt>
      <trkpt lat="43.20322" lon="3.15458">
        <ele>60</ele>
        <time>2024-03-29T11:55:37.494Z</time>
      </trkpt>
      <trkpt lat="43.20323" lon="3.15464">
        <ele>58</ele>
        <time>2024-03-29T11:55:41.494Z</time>
      </trkpt>
      <trkpt lat="43.20324" lon="3.15472">
        <ele>58</ele>
        <time>2024-03-29T11:55:46.494Z</time>
      </trkpt>
      <trkpt lat="43.20325" lon="3.15479">
        <ele>58</ele>
        <time>2024-03-29T11:55:50.494Z</time>
      </trkpt>
      <trkpt lat="43.20327" lon="3.15486">
        <ele>58</ele>
        <time>2024-03-29T11:55:55.494Z</time>
      </trkpt>
      <trkpt lat="43.20328" lon="3.15494">
        <ele>56</ele>
        <time>2024-03-29T11:56:00.494Z</time>
      </trkpt>
      <trkpt lat="43.20329" lon="3.155">
        <ele>56</ele>
        <time>2024-03-29T11:56:05.494Z</time>
      </trkpt>
      <trkpt lat="43.2033" lon="3.15507">
        <ele>56</ele>
        <time>2024-03-29T11:56:10.494Z</time>
      </trkpt>
      <trkpt lat="43.20333" lon="3.15514">
        <ele>56</ele>
        <time>2024-03-29T11:56:15.494Z</time>
      </trkpt>
      <trkpt lat="43.20334" lon="3.15523">
        <ele>56</ele>
        <time>2024-03-29T11:56:20.494Z</time>
      </trkpt>
      <trkpt lat="43.20337" lon="3.1553">
        <ele>56</ele>
        <time>2024-03-29T11:56:25.494Z</time>
      </trkpt>
      <trkpt lat="43.20339" lon="3.15536">
        <ele>56</ele>
        <time>2024-03-29T11:56:30.494Z</time>
      </trkpt>
      <trkpt lat="43.2034" lon="3.15545">
        <ele>57</ele>
        <time>2024-03-29T11:56:35.494Z</time>
      </trkpt>
      <trkpt lat="43.20343" lon="3.15552">
        <ele>57</ele>
        <time>2024-03-29T11:56:40.494Z</time>
      </trkpt>
      <trkpt lat="43.20345" lon="3.15561">
        <ele>57</ele>
        <time>2024-03-29T11:56:45.494Z</time>
      </trkpt>
      <trkpt lat="43.20347" lon="3.15568">
        <ele>57</ele>
        <time>2024-03-29T11:56:50.494Z</time>
      </trkpt>
      <trkpt lat="43.20348" lon="3.15576">
        <ele>58</ele>
        <time>2024-03-29T11:56:55.494Z</time>
      </trkpt>
      <trkpt lat="43.2035" lon="3.15584">
        <ele>58</ele>
        <time>2024-03-29T11:57:00.494Z</time>
      </trkpt>
      <trkpt lat="43.20353" lon="3.15591">
        <ele>58</ele>
        <time>2024-03-29T11:57:05.494Z</time>
      </trkpt>
      <trkpt lat="43.20356" lon="3.15598">
        <ele>59</ele>
        <time>2024-03-29T11:57:10.494Z</time>
      </trkpt>
      <trkpt lat="43.20357" lon="3.15603">
        <ele>59</ele>
        <time>2024-03-29T11:57:14.494Z</time>
      </trkpt>
      <trkpt lat="43.20359" lon="3.15611">
        <ele>59</ele>
        <time>2024-03-29T11:57:19.494Z</time>
      </trkpt>
      <trkpt lat="43.20361" lon="3.15617">
        <ele>59</ele>
        <time>2024-03-29T11:57:23.494Z</time>
      </trkpt>
      <trkpt lat="43.20363" lon="3.15624">
        <ele>59</ele>
        <time>2024-03-29T11:57:28.494Z</time>
      </trkpt>
      <trkpt lat="43.20364" lon="3.1563">
        <ele>59</ele>
        <time>2024-03-29T11:57:32.494Z</time>
      </trkpt>
      <trkpt lat="43.20365" lon="3.15639">
        <ele>59</ele>
        <time>2024-03-29T11:57:37.494Z</time>
      </trkpt>
      <trkpt lat="43.20365" lon="3.15647">
        <ele>59</ele>
        <time>2024-03-29T11:57:42.494Z</time>
      </trkpt>
      <trkpt lat="43.20364" lon="3.15654">
        <ele>60</ele>
        <time>2024-03-29T11:57:47.494Z</time>
      </trkpt>
      <trkpt lat="43.20363" lon="3.15661">
        <ele>60</ele>
        <time>2024-03-29T11:57:52.494Z</time>
      </trkpt>
      <trkpt lat="43.20362" lon="3.1567">
        <ele>60</ele>
        <time>2024-03-29T11:57:57.494Z</time>
      </trkpt>
      <trkpt lat="43.2036" lon="3.15678">
        <ele>60</ele>
        <time>2024-03-29T11:58:02.494Z</time>
      </trkpt>
      <trkpt lat="43.2036" lon="3.15684">
        <ele>59</ele>
        <time>2024-03-29T11:58:07.494Z</time>
      </trkpt>
      <trkpt lat="43.20359" lon="3.15691">
        <ele>59</ele>
        <time>2024-03-29T11:58:12.494Z</time>
      </trkpt>
      <trkpt lat="43.20359" lon="3.15699">
        <ele>59</ele>
        <time>2024-03-29T11:58:17.494Z</time>
      </trkpt>
      <trkpt lat="43.2036" lon="3.15706">
        <ele>59</ele>
        <time>2024-03-29T11:58:22.494Z</time>
      </trkpt>
      <trkpt lat="43.2036" lon="3.15713">
        <ele>58</ele>
        <time>2024-03-29T11:58:26.494Z</time>
      </trkpt>
      <trkpt lat="43.20359" lon="3.15723">
        <ele>58</ele>
        <time>2024-03-29T11:58:31.494Z</time>
      </trkpt>
      <trkpt lat="43.20359" lon="3.15732">
        <ele>58</ele>
        <time>2024-03-29T11:58:36.494Z</time>
      </trkpt>
      <trkpt lat="43.20358" lon="3.15741">
        <ele>57</ele>
        <time>2024-03-29T11:58:41.494Z</time>
      </trkpt>
      <trkpt lat="43.20359" lon="3.15751">
        <ele>57</ele>
        <time>2024-03-29T11:58:46.494Z</time>
      </trkpt>
      <trkpt lat="43.20361" lon="3.15758">
        <ele>57</ele>
        <time>2024-03-29T11:58:51.494Z</time>
      </trkpt>
      <trkpt lat="43.20362" lon="3.15765">
        <ele>56</ele>
        <time>2024-03-29T11:58:56.494Z</time>
      </trkpt>
      <trkpt lat="43.20363" lon="3.1577">
        <ele>56</ele>
        <time>2024-03-29T11:59:00.494Z</time>
      </trkpt>
      <trkpt lat="43.20364" lon="3.15777">
        <ele>56</ele>
        <time>2024-03-29T11:59:05.494Z</time>
      </trkpt>
      <trkpt lat="43.20365" lon="3.15784">
        <ele>56</ele>
        <time>2024-03-29T11:59:10.494Z</time>
      </trkpt>
      <trkpt lat="43.20365" lon="3.15794">
        <ele>56</ele>
        <time>2024-03-29T11:59:15.494Z</time>
      </trkpt>
      <trkpt lat="43.20365" lon="3.15802">
        <ele>56</ele>
        <time>2024-03-29T11:59:20.494Z</time>
      </trkpt>
      <trkpt lat="43.20366" lon="3.15809">
        <ele>56</ele>
        <time>2024-03-29T11:59:25.494Z</time>
      </trkpt>
      <trkpt lat="43.20368" lon="3.15815">
        <ele>56</ele>
        <time>2024-03-29T11:59:29.494Z</time>
      </trkpt>
      <trkpt lat="43.20367" lon="3.15823">
        <ele>56</ele>
        <time>2024-03-29T11:59:34.494Z</time>
      </trkpt>
      <trkpt lat="43.20367" lon="3.15828">
        <ele>56</ele>
        <time>2024-03-29T11:59:38.494Z</time>
      </trkpt>
      <trkpt lat="43.20367" lon="3.15835">
        <ele>56</ele>
        <time>2024-03-29T11:59:43.494Z</time>
      </trkpt>
      <trkpt lat="43.20367" lon="3.15842">
        <ele>56</ele>
        <time>2024-03-29T11:59:48.494Z</time>
      </trkpt>
      <trkpt lat="43.20368" lon="3.1585">
        <ele>56</ele>
        <time>2024-03-29T11:59:53.494Z</time>
      </trkpt>
      <trkpt lat="43.20369" lon="3.15858">
        <ele>56</ele>
        <time>2024-03-29T11:59:57.494Z</time>
      </trkpt>
      <trkpt lat="43.20372" lon="3.15867">
        <ele>56</ele>
        <time>2024-03-29T12:00:02.494Z</time>
      </trkpt>
      <trkpt lat="43.20374" lon="3.15873">
        <ele>56</ele>
        <time>2024-03-29T12:00:07.494Z</time>
      </trkpt>
      <trkpt lat="43.20375" lon="3.15878">
        <ele>56</ele>
        <time>2024-03-29T12:00:11.494Z</time>
      </trkpt>
      <trkpt lat="43.20376" lon="3.1588">
        <ele>56</ele>
        <time>2024-03-29T12:00:15.494Z</time>
      </trkpt>
      <trkpt lat="43.20379" lon="3.15886">
        <ele>56</ele>
        <time>2024-03-29T12:00:20.494Z</time>
      </trkpt>
      <trkpt lat="43.2038" lon="3.1589">
        <ele>56</ele>
        <time>2024-03-29T12:00:24.494Z</time>
      </trkpt>
      <trkpt lat="43.20381" lon="3.15899">
        <ele>56</ele>
        <time>2024-03-29T12:00:29.494Z</time>
      </trkpt>
      <trkpt lat="43.20384" lon="3.15903">
        <ele>55</ele>
        <time>2024-03-29T12:00:33.494Z</time>
      </trkpt>
      <trkpt lat="43.20387" lon="3.1591">
        <ele>55</ele>
        <time>2024-03-29T12:00:38.494Z</time>
      </trkpt>
      <trkpt lat="43.2039" lon="3.15915">
        <ele>55</ele>
        <time>2024-03-29T12:00:43.494Z</time>
      </trkpt>
      <trkpt lat="43.20393" lon="3.15922">
        <ele>55</ele>
        <time>2024-03-29T12:00:48.494Z</time>
      </trkpt>
      <trkpt lat="43.20396" lon="3.15929">
        <ele>55</ele>
        <time>2024-03-29T12:00:53.494Z</time>
      </trkpt>
      <trkpt lat="43.20398" lon="3.15936">
        <ele>55</ele>
        <time>2024-03-29T12:00:58.494Z</time>
      </trkpt>
      <trkpt lat="43.204" lon="3.15945">
        <ele>55</ele>
        <time>2024-03-29T12:01:03.494Z</time>
      </trkpt>
      <trkpt lat="43.20401" lon="3.15949">
        <ele>55</ele>
        <time>2024-03-29T12:01:07.494Z</time>
      </trkpt>
      <trkpt lat="43.20402" lon="3.15956">
        <ele>55</ele>
        <time>2024-03-29T12:01:12.494Z</time>
      </trkpt>
      <trkpt lat="43.20402" lon="3.15964">
        <ele>54</ele>
        <time>2024-03-29T12:01:17.494Z</time>
      </trkpt>
      <trkpt lat="43.20403" lon="3.15972">
        <ele>55</ele>
        <time>2024-03-29T12:01:22.494Z</time>
      </trkpt>
      <trkpt lat="43.20405" lon="3.1598">
        <ele>55</ele>
        <time>2024-03-29T12:01:27.494Z</time>
      </trkpt>
      <trkpt lat="43.20406" lon="3.15988">
        <ele>55</ele>
        <time>2024-03-29T12:01:36.494Z</time>
      </trkpt>
      <trkpt lat="43.20407" lon="3.15991">
        <ele>55</ele>
        <time>2024-03-29T12:01:41.494Z</time>
      </trkpt>
      <trkpt lat="43.20407" lon="3.15991">
        <ele>55</ele>
        <time>2024-03-29T12:01:45.494Z</time>
      </trkpt>
      <trkpt lat="43.20408" lon="3.15995">
        <ele>55</ele>
        <time>2024-03-29T12:01:50.494Z</time>
      </trkpt>
      <trkpt lat="43.20409" lon="3.15999">
        <ele>55</ele>
        <time>2024-03-29T12:01:54.494Z</time>
      </trkpt>
      <trkpt lat="43.2041" lon="3.16007">
        <ele>55</ele>
        <time>2024-03-29T12:01:59.494Z</time>
      </trkpt>
      <trkpt lat="43.2041" lon="3.16012">
        <ele>55</ele>
        <time>2024-03-29T12:02:03.494Z</time>
      </trkpt>
      <trkpt lat="43.20411" lon="3.1602">
        <ele>55</ele>
        <time>2024-03-29T12:02:08.494Z</time>
      </trkpt>
      <trkpt lat="43.20411" lon="3.16024">
        <ele>55</ele>
        <time>2024-03-29T12:02:13.494Z</time>
      </trkpt>
      <trkpt lat="43.20411" lon="3.16024">
        <ele>55</ele>
        <time>2024-03-29T12:02:17.494Z</time>
      </trkpt>
      <trkpt lat="43.20411" lon="3.1603">
        <ele>55</ele>
        <time>2024-03-29T12:02:22.494Z</time>
      </trkpt>
      <trkpt lat="43.2041" lon="3.16036">
        <ele>55</ele>
        <time>2024-03-29T12:02:27.494Z</time>
      </trkpt>
      <trkpt lat="43.20411" lon="3.16039">
        <ele>55</ele>
        <time>2024-03-29T12:02:32.494Z</time>
      </trkpt>
      <trkpt lat="43.20411" lon="3.16039">
        <ele>55</ele>
        <time>2024-03-29T12:02:37.494Z</time>
      </trkpt>
      <trkpt lat="43.2041" lon="3.16043">
        <ele>55</ele>
        <time>2024-03-29T12:02:41.494Z</time>
      </trkpt>
      <trkpt lat="43.20408" lon="3.1605">
        <ele>55</ele>
        <time>2024-03-29T12:02:46.494Z</time>
      </trkpt>
      <trkpt lat="43.20406" lon="3.16055">
        <ele>55</ele>
        <time>2024-03-29T12:02:51.494Z</time>
      </trkpt>
      <trkpt lat="43.20405" lon="3.1606">
        <ele>55</ele>
        <time>2024-03-29T12:02:55.494Z</time>
      </trkpt>
      <trkpt lat="43.20404" lon="3.16065">
        <ele>55</ele>
        <time>2024-03-29T12:02:59.494Z</time>
      </trkpt>
      <trkpt lat="43.20401" lon="3.16073">
        <ele>52</ele>
        <time>2024-03-29T12:03:04.494Z</time>
      </trkpt>
      <trkpt lat="43.20399" lon="3.16077">
        <ele>52</ele>
        <time>2024-03-29T12:03:08.494Z</time>
      </trkpt>
      <trkpt lat="43.20397" lon="3.16085">
        <ele>52</ele>
        <time>2024-03-29T12:03:13.494Z</time>
      </trkpt>
      <trkpt lat="43.20394" lon="3.16093">
        <ele>52</ele>
        <time>2024-03-29T12:03:18.494Z</time>
      </trkpt>
      <trkpt lat="43.20392" lon="3.16101">
        <ele>53</ele>
        <time>2024-03-29T12:03:23.494Z</time>
      </trkpt>
      <trkpt lat="43.20391" lon="3.16108">
        <ele>53</ele>
        <time>2024-03-29T12:03:28.494Z</time>
      </trkpt>
      <trkpt lat="43.2039" lon="3.16114">
        <ele>53</ele>
        <time>2024-03-29T12:03:32.494Z</time>
      </trkpt>
      <trkpt lat="43.20389" lon="3.1612">
        <ele>53</ele>
        <time>2024-03-29T12:03:36.494Z</time>
      </trkpt>
      <trkpt lat="43.20387" lon="3.16129">
        <ele>54</ele>
        <time>2024-03-29T12:03:41.494Z</time>
      </trkpt>
      <trkpt lat="43.20386" lon="3.16136">
        <ele>54</ele>
        <time>2024-03-29T12:03:45.494Z</time>
      </trkpt>
      <trkpt lat="43.20385" lon="3.16144">
        <ele>54</ele>
        <time>2024-03-29T12:03:50.494Z</time>
      </trkpt>
      <trkpt lat="43.20385" lon="3.16151">
        <ele>54</ele>
        <time>2024-03-29T12:03:55.494Z</time>
      </trkpt>
      <trkpt lat="43.20386" lon="3.16156">
        <ele>54</ele>
        <time>2024-03-29T12:03:59.494Z</time>
      </trkpt>
      <trkpt lat="43.20386" lon="3.16165">
        <ele>54</ele>
        <time>2024-03-29T12:04:04.494Z</time>
      </trkpt>
      <trkpt lat="43.20386" lon="3.16172">
        <ele>54</ele>
        <time>2024-03-29T12:04:08.494Z</time>
      </trkpt>
      <trkpt lat="43.20385" lon="3.1618">
        <ele>54</ele>
        <time>2024-03-29T12:04:13.494Z</time>
      </trkpt>
      <trkpt lat="43.20384" lon="3.16185">
        <ele>54</ele>
        <time>2024-03-29T12:04:17.494Z</time>
      </trkpt>
      <trkpt lat="43.20383" lon="3.16191">
        <ele>54</ele>
        <time>2024-03-29T12:04:21.494Z</time>
      </trkpt>
      <trkpt lat="43.20383" lon="3.16199">
        <ele>54</ele>
        <time>2024-03-29T12:04:26.494Z</time>
      </trkpt>
      <trkpt lat="43.20384" lon="3.16207">
        <ele>54</ele>
        <time>2024-03-29T12:04:30.494Z</time>
      </trkpt>
      <trkpt lat="43.20384" lon="3.16214">
        <ele>54</ele>
        <time>2024-03-29T12:04:34.494Z</time>
      </trkpt>
      <trkpt lat="43.20384" lon="3.16221">
        <ele>54</ele>
        <time>2024-03-29T12:04:39.494Z</time>
      </trkpt>
      <trkpt lat="43.20384" lon="3.16227">
        <ele>54</ele>
        <time>2024-03-29T12:04:44.494Z</time>
      </trkpt>
      <trkpt lat="43.20384" lon="3.16235">
        <ele>54</ele>
        <time>2024-03-29T12:04:49.494Z</time>
      </trkpt>
      <trkpt lat="43.20385" lon="3.16242">
        <ele>55</ele>
        <time>2024-03-29T12:04:53.494Z</time>
      </trkpt>
      <trkpt lat="43.20386" lon="3.16248">
        <ele>55</ele>
        <time>2024-03-29T12:04:57.494Z</time>
      </trkpt>
      <trkpt lat="43.20384" lon="3.16255">
        <ele>55</ele>
        <time>2024-03-29T12:05:02.494Z</time>
      </trkpt>
      <trkpt lat="43.20384" lon="3.16262">
        <ele>55</ele>
        <time>2024-03-29T12:05:06.494Z</time>
      </trkpt>
      <trkpt lat="43.20384" lon="3.16269">
        <ele>55</ele>
        <time>2024-03-29T12:05:10.494Z</time>
      </trkpt>
      <trkpt lat="43.20384" lon="3.16276">
        <ele>55</ele>
        <time>2024-03-29T12:05:15.494Z</time>
      </trkpt>
      <trkpt lat="43.20384" lon="3.16285">
        <ele>55</ele>
        <time>2024-03-29T12:05:20.494Z</time>
      </trkpt>
      <trkpt lat="43.20385" lon="3.1629">
        <ele>55</ele>
        <time>2024-03-29T12:05:24.494Z</time>
      </trkpt>
      <trkpt lat="43.20385" lon="3.16298">
        <ele>54</ele>
        <time>2024-03-29T12:05:29.494Z</time>
      </trkpt>
      <trkpt lat="43.20386" lon="3.16306">
        <ele>54</ele>
        <time>2024-03-29T12:05:34.494Z</time>
      </trkpt>
      <trkpt lat="43.20386" lon="3.16313">
        <ele>54</ele>
        <time>2024-03-29T12:05:39.494Z</time>
      </trkpt>
      <trkpt lat="43.20386" lon="3.16318">
        <ele>54</ele>
        <time>2024-03-29T12:05:43.494Z</time>
      </trkpt>
      <trkpt lat="43.20385" lon="3.16323">
        <ele>53</ele>
        <time>2024-03-29T12:05:47.494Z</time>
      </trkpt>
      <trkpt lat="43.20382" lon="3.16329">
        <ele>53</ele>
        <time>2024-03-29T12:05:52.494Z</time>
      </trkpt>
      <trkpt lat="43.20378" lon="3.16334">
        <ele>53</ele>
        <time>2024-03-29T12:05:57.495Z</time>
      </trkpt>
      <trkpt lat="43.20373" lon="3.16341">
        <ele>52</ele>
        <time>2024-03-29T12:06:02.495Z</time>
      </trkpt>
      <trkpt lat="43.2037" lon="3.16349">
        <ele>50</ele>
        <time>2024-03-29T12:06:07.495Z</time>
      </trkpt>
      <trkpt lat="43.20369" lon="3.16357">
        <ele>50</ele>
        <time>2024-03-29T12:06:12.495Z</time>
      </trkpt>
      <trkpt lat="43.20367" lon="3.16364">
        <ele>50</ele>
        <time>2024-03-29T12:06:17.495Z</time>
      </trkpt>
      <trkpt lat="43.20365" lon="3.1637">
        <ele>50</ele>
        <time>2024-03-29T12:06:21.495Z</time>
      </trkpt>
      <trkpt lat="43.20363" lon="3.16375">
        <ele>49</ele>
        <time>2024-03-29T12:06:25.495Z</time>
      </trkpt>
      <trkpt lat="43.20361" lon="3.16381">
        <ele>49</ele>
        <time>2024-03-29T12:06:29.495Z</time>
      </trkpt>
      <trkpt lat="43.20357" lon="3.16387">
        <ele>49</ele>
        <time>2024-03-29T12:06:34.495Z</time>
      </trkpt>
      <trkpt lat="43.20356" lon="3.16395">
        <ele>49</ele>
        <time>2024-03-29T12:06:39.495Z</time>
      </trkpt>
      <trkpt lat="43.20354" lon="3.16403">
        <ele>49</ele>
        <time>2024-03-29T12:06:44.495Z</time>
      </trkpt>
      <trkpt lat="43.20355" lon="3.16411">
        <ele>49</ele>
        <time>2024-03-29T12:06:49.495Z</time>
      </trkpt>
      <trkpt lat="43.20355" lon="3.16418">
        <ele>49</ele>
        <time>2024-03-29T12:06:54.495Z</time>
      </trkpt>
      <trkpt lat="43.20358" lon="3.16426">
        <ele>49</ele>
        <time>2024-03-29T12:06:59.495Z</time>
      </trkpt>
      <trkpt lat="43.2036" lon="3.16435">
        <ele>48</ele>
        <time>2024-03-29T12:07:04.495Z</time>
      </trkpt>
      <trkpt lat="43.20362" lon="3.16442">
        <ele>48</ele>
        <time>2024-03-29T12:07:09.495Z</time>
      </trkpt>
      <trkpt lat="43.20363" lon="3.16449">
        <ele>48</ele>
        <time>2024-03-29T12:07:14.495Z</time>
      </trkpt>
      <trkpt lat="43.20364" lon="3.16456">
        <ele>48</ele>
        <time>2024-03-29T12:07:19.495Z</time>
      </trkpt>
      <trkpt lat="43.20365" lon="3.16463">
        <ele>48</ele>
        <time>2024-03-29T12:07:23.495Z</time>
      </trkpt>
      <trkpt lat="43.20366" lon="3.1647">
        <ele>48</ele>
        <time>2024-03-29T12:07:28.495Z</time>
      </trkpt>
      <trkpt lat="43.20367" lon="3.16478">
        <ele>48</ele>
        <time>2024-03-29T12:07:33.495Z</time>
      </trkpt>
      <trkpt lat="43.20367" lon="3.16486">
        <ele>48</ele>
        <time>2024-03-29T12:07:38.495Z</time>
      </trkpt>
      <trkpt lat="43.20367" lon="3.16495">
        <ele>47</ele>
        <time>2024-03-29T12:07:43.495Z</time>
      </trkpt>
      <trkpt lat="43.20367" lon="3.16504">
        <ele>47</ele>
        <time>2024-03-29T12:07:48.495Z</time>
      </trkpt>
      <trkpt lat="43.20367" lon="3.16511">
        <ele>47</ele>
        <time>2024-03-29T12:07:53.495Z</time>
      </trkpt>
      <trkpt lat="43.20368" lon="3.16519">
        <ele>47</ele>
        <time>2024-03-29T12:07:58.495Z</time>
      </trkpt>
      <trkpt lat="43.20369" lon="3.16527">
        <ele>47</ele>
        <time>2024-03-29T12:08:03.495Z</time>
      </trkpt>
      <trkpt lat="43.2037" lon="3.16535">
        <ele>47</ele>
        <time>2024-03-29T12:08:08.495Z</time>
      </trkpt>
      <trkpt lat="43.20369" lon="3.16543">
        <ele>47</ele>
        <time>2024-03-29T12:08:13.495Z</time>
      </trkpt>
      <trkpt lat="43.2037" lon="3.16552">
        <ele>47</ele>
        <time>2024-03-29T12:08:18.495Z</time>
      </trkpt>
      <trkpt lat="43.2037" lon="3.1656">
        <ele>47</ele>
        <time>2024-03-29T12:08:23.495Z</time>
      </trkpt>
      <trkpt lat="43.20371" lon="3.16568">
        <ele>47</ele>
        <time>2024-03-29T12:08:28.495Z</time>
      </trkpt>
      <trkpt lat="43.2037" lon="3.16576">
        <ele>46</ele>
        <time>2024-03-29T12:08:33.495Z</time>
      </trkpt>
      <trkpt lat="43.20371" lon="3.16583">
        <ele>46</ele>
        <time>2024-03-29T12:08:38.495Z</time>
      </trkpt>
      <trkpt lat="43.20371" lon="3.16591">
        <ele>46</ele>
        <time>2024-03-29T12:08:43.495Z</time>
      </trkpt>
      <trkpt lat="43.20371" lon="3.16596">
        <ele>46</ele>
        <time>2024-03-29T12:08:47.495Z</time>
      </trkpt>
      <trkpt lat="43.20371" lon="3.16602">
        <ele>45</ele>
        <time>2024-03-29T12:08:52.495Z</time>
      </trkpt>
      <trkpt lat="43.20372" lon="3.16609">
        <ele>45</ele>
        <time>2024-03-29T12:08:57.495Z</time>
      </trkpt>
      <trkpt lat="43.20373" lon="3.16615">
        <ele>45</ele>
        <time>2024-03-29T12:09:01.495Z</time>
      </trkpt>
      <trkpt lat="43.20373" lon="3.16623">
        <ele>45</ele>
        <time>2024-03-29T12:09:06.495Z</time>
      </trkpt>
      <trkpt lat="43.20372" lon="3.16631">
        <ele>45</ele>
        <time>2024-03-29T12:09:11.495Z</time>
      </trkpt>
      <trkpt lat="43.20369" lon="3.16639">
        <ele>45</ele>
        <time>2024-03-29T12:09:16.495Z</time>
      </trkpt>
      <trkpt lat="43.20367" lon="3.16644">
        <ele>45</ele>
        <time>2024-03-29T12:09:20.495Z</time>
      </trkpt>
      <trkpt lat="43.20363" lon="3.1665">
        <ele>45</ele>
        <time>2024-03-29T12:09:25.495Z</time>
      </trkpt>
      <trkpt lat="43.20359" lon="3.16655">
        <ele>45</ele>
        <time>2024-03-29T12:09:30.495Z</time>
      </trkpt>
      <trkpt lat="43.20355" lon="3.16659">
        <ele>45</ele>
        <time>2024-03-29T12:09:35.495Z</time>
      </trkpt>
      <trkpt lat="43.2035" lon="3.16663">
        <ele>45</ele>
        <time>2024-03-29T12:09:40.495Z</time>
      </trkpt>
      <trkpt lat="43.20347" lon="3.16667">
        <ele>44</ele>
        <time>2024-03-29T12:09:44.495Z</time>
      </trkpt>
      <trkpt lat="43.20342" lon="3.16672">
        <ele>44</ele>
        <time>2024-03-29T12:09:49.495Z</time>
      </trkpt>
      <trkpt lat="43.20339" lon="3.16676">
        <ele>44</ele>
        <time>2024-03-29T12:09:53.495Z</time>
      </trkpt>
      <trkpt lat="43.20334" lon="3.16681">
        <ele>44</ele>
        <time>2024-03-29T12:09:58.495Z</time>
      </trkpt>
      <trkpt lat="43.20331" lon="3.16685">
        <ele>44</ele>
        <time>2024-03-29T12:10:02.495Z</time>
      </trkpt>
      <trkpt lat="43.20328" lon="3.16691">
        <ele>44</ele>
        <time>2024-03-29T12:10:07.495Z</time>
      </trkpt>
      <trkpt lat="43.20325" lon="3.16696">
        <ele>44</ele>
        <time>2024-03-29T12:10:12.495Z</time>
      </trkpt>
      <trkpt lat="43.20321" lon="3.16698">
        <ele>44</ele>
        <time>2024-03-29T12:10:17.495Z</time>
      </trkpt>
      <trkpt lat="43.20316" lon="3.16705">
        <ele>45</ele>
        <time>2024-03-29T12:10:22.495Z</time>
      </trkpt>
      <trkpt lat="43.20312" lon="3.16709">
        <ele>45</ele>
        <time>2024-03-29T12:10:26.495Z</time>
      </trkpt>
      <trkpt lat="43.20307" lon="3.16716">
        <ele>45</ele>
        <time>2024-03-29T12:10:31.495Z</time>
      </trkpt>
      <trkpt lat="43.20303" lon="3.16722">
        <ele>45</ele>
        <time>2024-03-29T12:10:36.495Z</time>
      </trkpt>
      <trkpt lat="43.20299" lon="3.16727">
        <ele>45</ele>
        <time>2024-03-29T12:10:41.495Z</time>
      </trkpt>
      <trkpt lat="43.20297" lon="3.16732">
        <ele>45</ele>
        <time>2024-03-29T12:10:46.495Z</time>
      </trkpt>
      <trkpt lat="43.20293" lon="3.16738">
        <ele>44</ele>
        <time>2024-03-29T12:10:51.495Z</time>
      </trkpt>
      <trkpt lat="43.20289" lon="3.16744">
        <ele>44</ele>
        <time>2024-03-29T12:10:56.495Z</time>
      </trkpt>
      <trkpt lat="43.20285" lon="3.1675">
        <ele>44</ele>
        <time>2024-03-29T12:11:01.495Z</time>
      </trkpt>
      <trkpt lat="43.20281" lon="3.16757">
        <ele>44</ele>
        <time>2024-03-29T12:11:06.495Z</time>
      </trkpt>
      <trkpt lat="43.20276" lon="3.16763">
        <ele>44</ele>
        <time>2024-03-29T12:11:11.495Z</time>
      </trkpt>
      <trkpt lat="43.20271" lon="3.1677">
        <ele>43</ele>
        <time>2024-03-29T12:11:16.495Z</time>
      </trkpt>
      <trkpt lat="43.20267" lon="3.16775">
        <ele>43</ele>
        <time>2024-03-29T12:11:21.495Z</time>
      </trkpt>
      <trkpt lat="43.20262" lon="3.1678">
        <ele>42</ele>
        <time>2024-03-29T12:11:26.495Z</time>
      </trkpt>
      <trkpt lat="43.20258" lon="3.16781">
        <ele>42</ele>
        <time>2024-03-29T12:11:30.495Z</time>
      </trkpt>
      <trkpt lat="43.20254" lon="3.16785">
        <ele>42</ele>
        <time>2024-03-29T12:11:35.495Z</time>
      </trkpt>
      <trkpt lat="43.20249" lon="3.16789">
        <ele>42</ele>
        <time>2024-03-29T12:11:40.495Z</time>
      </trkpt>
      <trkpt lat="43.20246" lon="3.16793">
        <ele>41</ele>
        <time>2024-03-29T12:11:44.495Z</time>
      </trkpt>
      <trkpt lat="43.20242" lon="3.16798">
        <ele>41</ele>
        <time>2024-03-29T12:11:49.495Z</time>
      </trkpt>
      <trkpt lat="43.20237" lon="3.16804">
        <ele>41</ele>
        <time>2024-03-29T12:11:54.495Z</time>
      </trkpt>
      <trkpt lat="43.20234" lon="3.1681">
        <ele>41</ele>
        <time>2024-03-29T12:11:59.495Z</time>
      </trkpt>
      <trkpt lat="43.20231" lon="3.16815">
        <ele>41</ele>
        <time>2024-03-29T12:12:03.495Z</time>
      </trkpt>
      <trkpt lat="43.20227" lon="3.16821">
        <ele>40</ele>
        <time>2024-03-29T12:12:08.495Z</time>
      </trkpt>
      <trkpt lat="43.20223" lon="3.16826">
        <ele>40</ele>
        <time>2024-03-29T12:12:13.495Z</time>
      </trkpt>
      <trkpt lat="43.20221" lon="3.16829">
        <ele>40</ele>
        <time>2024-03-29T12:12:18.495Z</time>
      </trkpt>
      <trkpt lat="43.20217" lon="3.16832">
        <ele>40</ele>
        <time>2024-03-29T12:12:22.495Z</time>
      </trkpt>
      <trkpt lat="43.20213" lon="3.16836">
        <ele>40</ele>
        <time>2024-03-29T12:12:27.495Z</time>
      </trkpt>
      <trkpt lat="43.20207" lon="3.16841">
        <ele>39</ele>
        <time>2024-03-29T12:12:32.495Z</time>
      </trkpt>
      <trkpt lat="43.202" lon="3.16845">
        <ele>39</ele>
        <time>2024-03-29T12:12:37.495Z</time>
      </trkpt>
      <trkpt lat="43.20194" lon="3.16848">
        <ele>39</ele>
        <time>2024-03-29T12:12:42.495Z</time>
      </trkpt>
      <trkpt lat="43.2019" lon="3.16852">
        <ele>39</ele>
        <time>2024-03-29T12:12:46.495Z</time>
      </trkpt>
      <trkpt lat="43.20186" lon="3.16854">
        <ele>39</ele>
        <time>2024-03-29T12:12:50.495Z</time>
      </trkpt>
      <trkpt lat="43.20181" lon="3.1686">
        <ele>40</ele>
        <time>2024-03-29T12:12:55.495Z</time>
      </trkpt>
      <trkpt lat="43.20175" lon="3.16864">
        <ele>40</ele>
        <time>2024-03-29T12:13:00.495Z</time>
      </trkpt>
      <trkpt lat="43.20171" lon="3.16867">
        <ele>40</ele>
        <time>2024-03-29T12:13:05.495Z</time>
      </trkpt>
      <trkpt lat="43.20168" lon="3.16869">
        <ele>40</ele>
        <time>2024-03-29T12:13:09.495Z</time>
      </trkpt>
      <trkpt lat="43.20163" lon="3.16875">
        <ele>41</ele>
        <time>2024-03-29T12:13:14.495Z</time>
      </trkpt>
      <trkpt lat="43.20159" lon="3.1688">
        <ele>41</ele>
        <time>2024-03-29T12:13:18.495Z</time>
      </trkpt>
      <trkpt lat="43.20155" lon="3.16886">
        <ele>41</ele>
        <time>2024-03-29T12:13:23.495Z</time>
      </trkpt>
      <trkpt lat="43.20153" lon="3.1689">
        <ele>41</ele>
        <time>2024-03-29T12:13:27.495Z</time>
      </trkpt>
      <trkpt lat="43.2015" lon="3.16898">
        <ele>43</ele>
        <time>2024-03-29T12:13:32.495Z</time>
      </trkpt>
      <trkpt lat="43.20146" lon="3.16904">
        <ele>44</ele>
        <time>2024-03-29T12:13:37.495Z</time>
      </trkpt>
      <trkpt lat="43.20142" lon="3.1691">
        <ele>44</ele>
        <time>2024-03-29T12:13:42.495Z</time>
      </trkpt>
      <trkpt lat="43.20138" lon="3.16918">
        <ele>44</ele>
        <time>2024-03-29T12:13:47.495Z</time>
      </trkpt>
      <trkpt lat="43.20137" lon="3.16924">
        <ele>44</ele>
        <time>2024-03-29T12:13:52.495Z</time>
      </trkpt>
      <trkpt lat="43.20136" lon="3.1693">
        <ele>44</ele>
        <time>2024-03-29T12:13:57.495Z</time>
      </trkpt>
      <trkpt lat="43.20135" lon="3.16938">
        <ele>43</ele>
        <time>2024-03-29T12:14:02.495Z</time>
      </trkpt>
      <trkpt lat="43.20132" lon="3.16947">
        <ele>43</ele>
        <time>2024-03-29T12:14:07.495Z</time>
      </trkpt>
      <trkpt lat="43.20132" lon="3.16955">
        <ele>43</ele>
        <time>2024-03-29T12:14:12.495Z</time>
      </trkpt>
      <trkpt lat="43.20131" lon="3.16961">
        <ele>42</ele>
        <time>2024-03-29T12:14:16.495Z</time>
      </trkpt>
      <trkpt lat="43.20129" lon="3.16967">
        <ele>42</ele>
        <time>2024-03-29T12:14:20.495Z</time>
      </trkpt>
      <trkpt lat="43.20126" lon="3.16972">
        <ele>42</ele>
        <time>2024-03-29T12:14:24.495Z</time>
      </trkpt>
      <trkpt lat="43.20124" lon="3.1698">
        <ele>46</ele>
        <time>2024-03-29T12:14:29.495Z</time>
      </trkpt>
      <trkpt lat="43.20121" lon="3.16987">
        <ele>44</ele>
        <time>2024-03-29T12:14:34.495Z</time>
      </trkpt>
      <trkpt lat="43.20119" lon="3.16995">
        <ele>44</ele>
        <time>2024-03-29T12:14:39.495Z</time>
      </trkpt>
      <trkpt lat="43.20117" lon="3.17001">
        <ele>44</ele>
        <time>2024-03-29T12:14:43.495Z</time>
      </trkpt>
      <trkpt lat="43.20114" lon="3.17006">
        <ele>44</ele>
        <time>2024-03-29T12:14:48.495Z</time>
      </trkpt>
      <trkpt lat="43.20112" lon="3.17011">
        <ele>44</ele>
        <time>2024-03-29T12:14:53.495Z</time>
      </trkpt>
      <trkpt lat="43.20114" lon="3.17014">
        <ele>44</ele>
        <time>2024-03-29T12:14:58.495Z</time>
      </trkpt>
      <trkpt lat="43.20114" lon="3.17014">
        <ele>43</ele>
        <time>2024-03-29T12:15:02.495Z</time>
      </trkpt>
      <trkpt lat="43.20114" lon="3.17014">
        <ele>43</ele>
        <time>2024-03-29T12:15:07.495Z</time>
      </trkpt>
      <trkpt lat="43.20111" lon="3.17025">
        <ele>43</ele>
        <time>2024-03-29T12:15:12.495Z</time>
      </trkpt>
      <trkpt lat="43.20107" lon="3.1703">
        <ele>43</ele>
        <time>2024-03-29T12:15:17.495Z</time>
      </trkpt>
      <trkpt lat="43.20103" lon="3.17034">
        <ele>43</ele>
        <time>2024-03-29T12:15:21.495Z</time>
      </trkpt>
      <trkpt lat="43.20101" lon="3.1704">
        <ele>43</ele>
        <time>2024-03-29T12:15:26.495Z</time>
      </trkpt>
      <trkpt lat="43.201" lon="3.17044">
        <ele>43</ele>
        <time>2024-03-29T12:15:30.495Z</time>
      </trkpt>
      <trkpt lat="43.20099" lon="3.17051">
        <ele>43</ele>
        <time>2024-03-29T12:15:35.495Z</time>
      </trkpt>
      <trkpt lat="43.20097" lon="3.17059">
        <ele>43</ele>
        <time>2024-03-29T12:15:40.495Z</time>
      </trkpt>
      <trkpt lat="43.20096" lon="3.17066">
        <ele>45</ele>
        <time>2024-03-29T12:15:44.495Z</time>
      </trkpt>
      <trkpt lat="43.20094" lon="3.17073">
        <ele>45</ele>
        <time>2024-03-29T12:15:49.495Z</time>
      </trkpt>
      <trkpt lat="43.20092" lon="3.17081">
        <ele>45</ele>
        <time>2024-03-29T12:15:54.495Z</time>
      </trkpt>
      <trkpt lat="43.20092" lon="3.17088">
        <ele>45</ele>
        <time>2024-03-29T12:15:59.495Z</time>
      </trkpt>
      <trkpt lat="43.20091" lon="3.17096">
        <ele>45</ele>
        <time>2024-03-29T12:16:04.495Z</time>
      </trkpt>
      <trkpt lat="43.2009" lon="3.17103">
        <ele>44</ele>
        <time>2024-03-29T12:16:09.495Z</time>
      </trkpt>
      <trkpt lat="43.20087" lon="3.17111">
        <ele>44</ele>
        <time>2024-03-29T12:16:14.495Z</time>
      </trkpt>
      <trkpt lat="43.20087" lon="3.17117">
        <ele>44</ele>
        <time>2024-03-29T12:16:19.495Z</time>
      </trkpt>
      <trkpt lat="43.20087" lon="3.17124">
        <ele>44</ele>
        <time>2024-03-29T12:16:24.495Z</time>
      </trkpt>
      <trkpt lat="43.20085" lon="3.17132">
        <ele>44</ele>
        <time>2024-03-29T12:16:29.495Z</time>
      </trkpt>
      <trkpt lat="43.20085" lon="3.17141">
        <ele>44</ele>
        <time>2024-03-29T12:16:34.495Z</time>
      </trkpt>
      <trkpt lat="43.20082" lon="3.17149">
        <ele>44</ele>
        <time>2024-03-29T12:16:39.495Z</time>
      </trkpt>
      <trkpt lat="43.20081" lon="3.17156">
        <ele>46</ele>
        <time>2024-03-29T12:16:44.495Z</time>
      </trkpt>
      <trkpt lat="43.2008" lon="3.17164">
        <ele>46</ele>
        <time>2024-03-29T12:16:49.495Z</time>
      </trkpt>
      <trkpt lat="43.2008" lon="3.17172">
        <ele>46</ele>
        <time>2024-03-29T12:16:54.495Z</time>
      </trkpt>
      <trkpt lat="43.20078" lon="3.1718">
        <ele>46</ele>
        <time>2024-03-29T12:16:59.496Z</time>
      </trkpt>
      <trkpt lat="43.20077" lon="3.17185">
        <ele>47</ele>
        <time>2024-03-29T12:17:03.496Z</time>
      </trkpt>
      <trkpt lat="43.20078" lon="3.17193">
        <ele>47</ele>
        <time>2024-03-29T12:17:08.496Z</time>
      </trkpt>
      <trkpt lat="43.2008" lon="3.172">
        <ele>47</ele>
        <time>2024-03-29T12:17:13.496Z</time>
      </trkpt>
      <trkpt lat="43.2008" lon="3.17206">
        <ele>47</ele>
        <time>2024-03-29T12:17:17.496Z</time>
      </trkpt>
      <trkpt lat="43.20081" lon="3.17213">
        <ele>47</ele>
        <time>2024-03-29T12:17:22.496Z</time>
      </trkpt>
      <trkpt lat="43.20083" lon="3.1722">
        <ele>47</ele>
        <time>2024-03-29T12:17:27.496Z</time>
      </trkpt>
      <trkpt lat="43.20084" lon="3.17228">
        <ele>47</ele>
        <time>2024-03-29T12:17:32.496Z</time>
      </trkpt>
      <trkpt lat="43.20085" lon="3.17236">
        <ele>47</ele>
        <time>2024-03-29T12:17:37.496Z</time>
      </trkpt>
      <trkpt lat="43.20086" lon="3.17243">
        <ele>47</ele>
        <time>2024-03-29T12:17:42.496Z</time>
      </trkpt>
      <trkpt lat="43.20089" lon="3.1725">
        <ele>47</ele>
        <time>2024-03-29T12:17:47.496Z</time>
      </trkpt>
      <trkpt lat="43.2009" lon="3.17255">
        <ele>47</ele>
        <time>2024-03-29T12:17:51.496Z</time>
      </trkpt>
      <trkpt lat="43.20092" lon="3.17261">
        <ele>47</ele>
        <time>2024-03-29T12:17:56.496Z</time>
      </trkpt>
      <trkpt lat="43.20094" lon="3.17267">
        <ele>47</ele>
        <time>2024-03-29T12:18:00.496Z</time>
      </trkpt>
      <trkpt lat="43.20097" lon="3.17274">
        <ele>47</ele>
        <time>2024-03-29T12:18:05.496Z</time>
      </trkpt>
      <trkpt lat="43.20099" lon="3.17281">
        <ele>42</ele>
        <time>2024-03-29T12:18:10.496Z</time>
      </trkpt>
      <trkpt lat="43.20101" lon="3.17287">
        <ele>42</ele>
        <time>2024-03-29T12:18:14.496Z</time>
      </trkpt>
      <trkpt lat="43.20102" lon="3.17294">
        <ele>44</ele>
        <time>2024-03-29T12:18:19.496Z</time>
      </trkpt>
      <trkpt lat="43.20102" lon="3.17301">
        <ele>44</ele>
        <time>2024-03-29T12:18:24.496Z</time>
      </trkpt>
      <trkpt lat="43.20101" lon="3.17309">
        <ele>44</ele>
        <time>2024-03-29T12:18:29.496Z</time>
      </trkpt>
      <trkpt lat="43.201" lon="3.17318">
        <ele>44</ele>
        <time>2024-03-29T12:18:34.496Z</time>
      </trkpt>
      <trkpt lat="43.20098" lon="3.17325">
        <ele>45</ele>
        <time>2024-03-29T12:18:39.496Z</time>
      </trkpt>
      <trkpt lat="43.20097" lon="3.17333">
        <ele>49</ele>
        <time>2024-03-29T12:18:44.496Z</time>
      </trkpt>
      <trkpt lat="43.20096" lon="3.1734">
        <ele>49</ele>
        <time>2024-03-29T12:18:49.496Z</time>
      </trkpt>
      <trkpt lat="43.20094" lon="3.17345">
        <ele>49</ele>
        <time>2024-03-29T12:18:53.496Z</time>
      </trkpt>
      <trkpt lat="43.20092" lon="3.17351">
        <ele>48</ele>
        <time>2024-03-29T12:18:58.496Z</time>
      </trkpt>
      <trkpt lat="43.20089" lon="3.17358">
        <ele>48</ele>
        <time>2024-03-29T12:19:03.496Z</time>
      </trkpt>
      <trkpt lat="43.20088" lon="3.17363">
        <ele>48</ele>
        <time>2024-03-29T12:19:07.496Z</time>
      </trkpt>
      <trkpt lat="43.20087" lon="3.17371">
        <ele>48</ele>
        <time>2024-03-29T12:19:12.496Z</time>
      </trkpt>
      <trkpt lat="43.20085" lon="3.17379">
        <ele>47</ele>
        <time>2024-03-29T12:19:17.496Z</time>
      </trkpt>
      <trkpt lat="43.20086" lon="3.17383">
        <ele>47</ele>
        <time>2024-03-29T12:19:22.496Z</time>
      </trkpt>
      <trkpt lat="43.20086" lon="3.17387">
        <ele>47</ele>
        <time>2024-03-29T12:19:26.496Z</time>
      </trkpt>
      <trkpt lat="43.20085" lon="3.17394">
        <ele>47</ele>
        <time>2024-03-29T12:19:31.496Z</time>
      </trkpt>
      <trkpt lat="43.20083" lon="3.17402">
        <ele>47</ele>
        <time>2024-03-29T12:19:35.496Z</time>
      </trkpt>
      <trkpt lat="43.2008" lon="3.17412">
        <ele>47</ele>
        <time>2024-03-29T12:19:40.496Z</time>
      </trkpt>
      <trkpt lat="43.20079" lon="3.1742">
        <ele>47</ele>
        <time>2024-03-29T12:19:45.496Z</time>
      </trkpt>
      <trkpt lat="43.20077" lon="3.17426">
        <ele>47</ele>
        <time>2024-03-29T12:19:50.496Z</time>
      </trkpt>
      <trkpt lat="43.20076" lon="3.17434">
        <ele>47</ele>
        <time>2024-03-29T12:19:55.496Z</time>
      </trkpt>
      <trkpt lat="43.20075" lon="3.1744">
        <ele>47</ele>
        <time>2024-03-29T12:19:59.496Z</time>
      </trkpt>
      <trkpt lat="43.20074" lon="3.17446">
        <ele>47</ele>
        <time>2024-03-29T12:20:03.496Z</time>
      </trkpt>
      <trkpt lat="43.20074" lon="3.17453">
        <ele>47</ele>
        <time>2024-03-29T12:20:08.496Z</time>
      </trkpt>
      <trkpt lat="43.20075" lon="3.1746">
        <ele>47</ele>
        <time>2024-03-29T12:20:13.496Z</time>
      </trkpt>
      <trkpt lat="43.20074" lon="3.17469">
        <ele>47</ele>
        <time>2024-03-29T12:20:18.496Z</time>
      </trkpt>
      <trkpt lat="43.20075" lon="3.17475">
        <ele>47</ele>
        <time>2024-03-29T12:20:22.496Z</time>
      </trkpt>
      <trkpt lat="43.20075" lon="3.17482">
        <ele>47</ele>
        <time>2024-03-29T12:20:27.496Z</time>
      </trkpt>
      <trkpt lat="43.20076" lon="3.17488">
        <ele>47</ele>
        <time>2024-03-29T12:20:32.496Z</time>
      </trkpt>
      <trkpt lat="43.20077" lon="3.17495">
        <ele>47</ele>
        <time>2024-03-29T12:20:37.496Z</time>
      </trkpt>
      <trkpt lat="43.20076" lon="3.17503">
        <ele>47</ele>
        <time>2024-03-29T12:20:42.496Z</time>
      </trkpt>
      <trkpt lat="43.20077" lon="3.17512">
        <ele>47</ele>
        <time>2024-03-29T12:20:47.496Z</time>
      </trkpt>
      <trkpt lat="43.20076" lon="3.1752">
        <ele>48</ele>
        <time>2024-03-29T12:20:52.496Z</time>
      </trkpt>
      <trkpt lat="43.20076" lon="3.17526">
        <ele>48</ele>
        <time>2024-03-29T12:20:57.496Z</time>
      </trkpt>
      <trkpt lat="43.20077" lon="3.1753">
        <ele>48</ele>
        <time>2024-03-29T12:21:01.496Z</time>
      </trkpt>
      <trkpt lat="43.20078" lon="3.17537">
        <ele>48</ele>
        <time>2024-03-29T12:21:06.496Z</time>
      </trkpt>
      <trkpt lat="43.20078" lon="3.17544">
        <ele>49</ele>
        <time>2024-03-29T12:21:11.496Z</time>
      </trkpt>
      <trkpt lat="43.20077" lon="3.17553">
        <ele>49</ele>
        <time>2024-03-29T12:21:16.496Z</time>
      </trkpt>
      <trkpt lat="43.20078" lon="3.17562">
        <ele>49</ele>
        <time>2024-03-29T12:21:21.496Z</time>
      </trkpt>
      <trkpt lat="43.20078" lon="3.17569">
        <ele>49</ele>
        <time>2024-03-29T12:21:26.496Z</time>
      </trkpt>
      <trkpt lat="43.20077" lon="3.17577">
        <ele>51</ele>
        <time>2024-03-29T12:21:31.496Z</time>
      </trkpt>
      <trkpt lat="43.20078" lon="3.17585">
        <ele>51</ele>
        <time>2024-03-29T12:21:36.496Z</time>
      </trkpt>
      <trkpt lat="43.20078" lon="3.17595">
        <ele>51</ele>
        <time>2024-03-29T12:21:41.496Z</time>
      </trkpt>
      <trkpt lat="43.20078" lon="3.17604">
        <ele>49</ele>
        <time>2024-03-29T12:21:46.496Z</time>
      </trkpt>
      <trkpt lat="43.20079" lon="3.17612">
        <ele>49</ele>
        <time>2024-03-29T12:21:51.496Z</time>
      </trkpt>
      <trkpt lat="43.20079" lon="3.17619">
        <ele>49</ele>
        <time>2024-03-29T12:21:56.496Z</time>
      </trkpt>
      <trkpt lat="43.20079" lon="3.17627">
        <ele>49</ele>
        <time>2024-03-29T12:22:01.496Z</time>
      </trkpt>
      <trkpt lat="43.2008" lon="3.17633">
        <ele>49</ele>
        <time>2024-03-29T12:22:06.496Z</time>
      </trkpt>
      <trkpt lat="43.20082" lon="3.17639">
        <ele>49</ele>
        <time>2024-03-29T12:22:11.496Z</time>
      </trkpt>
      <trkpt lat="43.20083" lon="3.17644">
        <ele>49</ele>
        <time>2024-03-29T12:22:15.496Z</time>
      </trkpt>
      <trkpt lat="43.20085" lon="3.17652">
        <ele>49</ele>
        <time>2024-03-29T12:22:20.496Z</time>
      </trkpt>
      <trkpt lat="43.20087" lon="3.17657">
        <ele>49</ele>
        <time>2024-03-29T12:22:25.496Z</time>
      </trkpt>
      <trkpt lat="43.20089" lon="3.17661">
        <ele>49</ele>
        <time>2024-03-29T12:22:29.496Z</time>
      </trkpt>
      <trkpt lat="43.20093" lon="3.17666">
        <ele>49</ele>
        <time>2024-03-29T12:22:34.496Z</time>
      </trkpt>
      <trkpt lat="43.20096" lon="3.17673">
        <ele>49</ele>
        <time>2024-03-29T12:22:39.496Z</time>
      </trkpt>
      <trkpt lat="43.20099" lon="3.1768">
        <ele>47</ele>
        <time>2024-03-29T12:22:44.496Z</time>
      </trkpt>
      <trkpt lat="43.20101" lon="3.17687">
        <ele>48</ele>
        <time>2024-03-29T12:22:49.496Z</time>
      </trkpt>
      <trkpt lat="43.20104" lon="3.17693">
        <ele>48</ele>
        <time>2024-03-29T12:22:54.496Z</time>
      </trkpt>
      <trkpt lat="43.20105" lon="3.17699">
        <ele>48</ele>
        <time>2024-03-29T12:22:59.496Z</time>
      </trkpt>
      <trkpt lat="43.20106" lon="3.17707">
        <ele>48</ele>
        <time>2024-03-29T12:23:04.496Z</time>
      </trkpt>
      <trkpt lat="43.20106" lon="3.17715">
        <ele>48</ele>
        <time>2024-03-29T12:23:09.496Z</time>
      </trkpt>
      <trkpt lat="43.20107" lon="3.17722">
        <ele>48</ele>
        <time>2024-03-29T12:23:13.496Z</time>
      </trkpt>
      <trkpt lat="43.20107" lon="3.17728">
        <ele>48</ele>
        <time>2024-03-29T12:23:18.496Z</time>
      </trkpt>
      <trkpt lat="43.20108" lon="3.17731">
        <ele>48</ele>
        <time>2024-03-29T12:23:23.496Z</time>
      </trkpt>
      <trkpt lat="43.2011" lon="3.1774">
        <ele>47</ele>
        <time>2024-03-29T12:23:28.496Z</time>
      </trkpt>
      <trkpt lat="43.20111" lon="3.17751">
        <ele>47</ele>
        <time>2024-03-29T12:23:33.496Z</time>
      </trkpt>
      <trkpt lat="43.20112" lon="3.17757">
        <ele>47</ele>
        <time>2024-03-29T12:23:37.496Z</time>
      </trkpt>
      <trkpt lat="43.20112" lon="3.17762">
        <ele>47</ele>
        <time>2024-03-29T12:23:42.496Z</time>
      </trkpt>
      <trkpt lat="43.20113" lon="3.17769">
        <ele>45</ele>
        <time>2024-03-29T12:23:47.496Z</time>
      </trkpt>
      <trkpt lat="43.20113" lon="3.17776">
        <ele>45</ele>
        <time>2024-03-29T12:23:51.496Z</time>
      </trkpt>
      <trkpt lat="43.20113" lon="3.17784">
        <ele>45</ele>
        <time>2024-03-29T12:23:56.496Z</time>
      </trkpt>
      <trkpt lat="43.20113" lon="3.17789">
        <ele>45</ele>
        <time>2024-03-29T12:24:01.496Z</time>
      </trkpt>
      <trkpt lat="43.20114" lon="3.17791">
        <ele>45</ele>
        <time>2024-03-29T12:24:05.496Z</time>
      </trkpt>
      <trkpt lat="43.20114" lon="3.17795">
        <ele>43</ele>
        <time>2024-03-29T12:24:10.496Z</time>
      </trkpt>
      <trkpt lat="43.20112" lon="3.17801">
        <ele>43</ele>
        <time>2024-03-29T12:24:15.496Z</time>
      </trkpt>
      <trkpt lat="43.20112" lon="3.17803">
        <ele>43</ele>
        <time>2024-03-29T12:24:20.496Z</time>
      </trkpt>
      <trkpt lat="43.20112" lon="3.17808">
        <ele>43</ele>
        <time>2024-03-29T12:24:24.496Z</time>
      </trkpt>
      <trkpt lat="43.20112" lon="3.17814">
        <ele>43</ele>
        <time>2024-03-29T12:24:29.496Z</time>
      </trkpt>
      <trkpt lat="43.20112" lon="3.17821">
        <ele>42</ele>
        <time>2024-03-29T12:24:34.496Z</time>
      </trkpt>
      <trkpt lat="43.20114" lon="3.17828">
        <ele>42</ele>
        <time>2024-03-29T12:24:39.496Z</time>
      </trkpt>
      <trkpt lat="43.20114" lon="3.17834">
        <ele>42</ele>
        <time>2024-03-29T12:24:43.496Z</time>
      </trkpt>
      <trkpt lat="43.20116" lon="3.17843">
        <ele>42</ele>
        <time>2024-03-29T12:24:48.496Z</time>
      </trkpt>
      <trkpt lat="43.20116" lon="3.1785">
        <ele>42</ele>
        <time>2024-03-29T12:24:52.496Z</time>
      </trkpt>
      <trkpt lat="43.20118" lon="3.17858">
        <ele>42</ele>
        <time>2024-03-29T12:24:57.496Z</time>
      </trkpt>
      <trkpt lat="43.20119" lon="3.17865">
        <ele>42</ele>
        <time>2024-03-29T12:25:02.496Z</time>
      </trkpt>
      <trkpt lat="43.20122" lon="3.17872">
        <ele>42</ele>
        <time>2024-03-29T12:25:07.496Z</time>
      </trkpt>
      <trkpt lat="43.20123" lon="3.1788">
        <ele>40</ele>
        <time>2024-03-29T12:25:12.496Z</time>
      </trkpt>
      <trkpt lat="43.20125" lon="3.17882">
        <ele>36</ele>
        <time>2024-03-29T12:25:16.496Z</time>
      </trkpt>
      <trkpt lat="43.20129" lon="3.17887">
        <ele>36</ele>
        <time>2024-03-29T12:25:21.496Z</time>
      </trkpt>
      <trkpt lat="43.20132" lon="3.17898">
        <ele>36</ele>
        <time>2024-03-29T12:25:26.496Z</time>
      </trkpt>
      <trkpt lat="43.20135" lon="3.17905">
        <ele>35</ele>
        <time>2024-03-29T12:25:30.496Z</time>
      </trkpt>
      <trkpt lat="43.20138" lon="3.17911">
        <ele>35</ele>
        <time>2024-03-29T12:25:35.496Z</time>
      </trkpt>
      <trkpt lat="43.20139" lon="3.17916">
        <ele>35</ele>
        <time>2024-03-29T12:25:40.496Z</time>
      </trkpt>
      <trkpt lat="43.2014" lon="3.17921">
        <ele>35</ele>
        <time>2024-03-29T12:25:44.496Z</time>
      </trkpt>
      <trkpt lat="43.20139" lon="3.17929">
        <ele>35</ele>
        <time>2024-03-29T12:25:49.496Z</time>
      </trkpt>
      <trkpt lat="43.20138" lon="3.17936">
        <ele>34</ele>
        <time>2024-03-29T12:25:54.496Z</time>
      </trkpt>
      <trkpt lat="43.20135" lon="3.17941">
        <ele>34</ele>
        <time>2024-03-29T12:25:59.496Z</time>
      </trkpt>
      <trkpt lat="43.20134" lon="3.17944">
        <ele>34</ele>
        <time>2024-03-29T12:26:04.496Z</time>
      </trkpt>
      <trkpt lat="43.2013" lon="3.17946">
        <ele>34</ele>
        <time>2024-03-29T12:26:09.496Z</time>
      </trkpt>
      <trkpt lat="43.20129" lon="3.17946">
        <ele>34</ele>
        <time>2024-03-29T12:26:14.496Z</time>
      </trkpt>
      <trkpt lat="43.20128" lon="3.17945">
        <ele>34</ele>
        <time>2024-03-29T12:26:19.496Z</time>
      </trkpt>
      <trkpt lat="43.20128" lon="3.17945">
        <ele>34</ele>
        <time>2024-03-29T12:26:24.496Z</time>
      </trkpt>
      <trkpt lat="43.20123" lon="3.17949">
        <ele>33</ele>
        <time>2024-03-29T12:26:48.496Z</time>
      </trkpt>
      <trkpt lat="43.20117" lon="3.17949">
        <ele>33</ele>
        <time>2024-03-29T12:26:53.496Z</time>
      </trkpt>
      <trkpt lat="43.20113" lon="3.17947">
        <ele>33</ele>
        <time>2024-03-29T12:26:58.496Z</time>
      </trkpt>
      <trkpt lat="43.2011" lon="3.17945">
        <ele>33</ele>
        <time>2024-03-29T12:27:03.496Z</time>
      </trkpt>
      <trkpt lat="43.20106" lon="3.17943">
        <ele>33</ele>
        <time>2024-03-29T12:27:08.496Z</time>
      </trkpt>
      <trkpt lat="43.201" lon="3.17943">
        <ele>33</ele>
        <time>2024-03-29T12:27:13.496Z</time>
      </trkpt>
      <trkpt lat="43.20095" lon="3.17941">
        <ele>30</ele>
        <time>2024-03-29T12:27:18.496Z</time>
      </trkpt>
      <trkpt lat="43.20089" lon="3.17939">
        <ele>30</ele>
        <time>2024-03-29T12:27:23.496Z</time>
      </trkpt>
      <trkpt lat="43.20086" lon="3.17941">
        <ele>30</ele>
        <time>2024-03-29T12:27:28.496Z</time>
      </trkpt>
      <trkpt lat="43.20082" lon="3.17942">
        <ele>30</ele>
        <time>2024-03-29T12:27:33.496Z</time>
      </trkpt>
      <trkpt lat="43.20076" lon="3.17942">
        <ele>30</ele>
        <time>2024-03-29T12:42:08.497Z</time>
      </trkpt>
      <trkpt lat="43.20076" lon="3.17939">
        <ele>30</ele>
        <time>2024-03-29T12:42:13.497Z</time>
      </trkpt>
      <trkpt lat="43.20075" lon="3.17939">
        <ele>30</ele>
        <time>2024-03-29T12:42:18.497Z</time>
      </trkpt>
      <trkpt lat="43.20073" lon="3.17944">
        <ele>30</ele>
        <time>2024-03-29T12:42:37.497Z</time>
      </trkpt>
      <trkpt lat="43.2007" lon="3.17948">
        <ele>30</ele>
        <time>2024-03-29T12:42:41.497Z</time>
      </trkpt>
      <trkpt lat="43.20068" lon="3.1795">
        <ele>29</ele>
        <time>2024-03-29T12:42:54.497Z</time>
      </trkpt>
      <trkpt lat="43.20065" lon="3.17954">
        <ele>29</ele>
        <time>2024-03-29T12:43:16.497Z</time>
      </trkpt>
      <trkpt lat="43.20061" lon="3.17959">
        <ele>25</ele>
        <time>2024-03-29T12:43:21.497Z</time>
      </trkpt>
      <trkpt lat="43.20057" lon="3.17962">
        <ele>25</ele>
        <time>2024-03-29T12:43:26.497Z</time>
      </trkpt>
      <trkpt lat="43.20053" lon="3.17964">
        <ele>25</ele>
        <time>2024-03-29T12:43:31.497Z</time>
      </trkpt>
      <trkpt lat="43.20049" lon="3.17966">
        <ele>25</ele>
        <time>2024-03-29T12:43:36.497Z</time>
      </trkpt>
      <trkpt lat="43.20044" lon="3.1797">
        <ele>25</ele>
        <time>2024-03-29T12:43:41.497Z</time>
      </trkpt>
      <trkpt lat="43.20038" lon="3.17973">
        <ele>26</ele>
        <time>2024-03-29T12:43:46.497Z</time>
      </trkpt>
      <trkpt lat="43.20035" lon="3.17975">
        <ele>26</ele>
        <time>2024-03-29T12:43:50.497Z</time>
      </trkpt>
      <trkpt lat="43.2003" lon="3.1798">
        <ele>26</ele>
        <time>2024-03-29T12:43:55.497Z</time>
      </trkpt>
      <trkpt lat="43.20025" lon="3.17984">
        <ele>26</ele>
        <time>2024-03-29T12:44:00.497Z</time>
      </trkpt>
      <trkpt lat="43.20021" lon="3.17987">
        <ele>24</ele>
        <time>2024-03-29T12:44:05.497Z</time>
      </trkpt>
      <trkpt lat="43.20017" lon="3.17989">
        <ele>24</ele>
        <time>2024-03-29T12:44:09.497Z</time>
      </trkpt>
      <trkpt lat="43.20013" lon="3.17992">
        <ele>23</ele>
        <time>2024-03-29T12:44:14.497Z</time>
      </trkpt>
      <trkpt lat="43.20009" lon="3.17996">
        <ele>23</ele>
        <time>2024-03-29T12:44:18.497Z</time>
      </trkpt>
      <trkpt lat="43.20005" lon="3.18002">
        <ele>23</ele>
        <time>2024-03-29T12:44:23.497Z</time>
      </trkpt>
      <trkpt lat="43.2" lon="3.18009">
        <ele>23</ele>
        <time>2024-03-29T12:44:28.497Z</time>
      </trkpt>
      <trkpt lat="43.19996" lon="3.18014">
        <ele>23</ele>
        <time>2024-03-29T12:44:32.497Z</time>
      </trkpt>
      <trkpt lat="43.19995" lon="3.18021">
        <ele>20</ele>
        <time>2024-03-29T12:44:37.497Z</time>
      </trkpt>
      <trkpt lat="43.19993" lon="3.18028">
        <ele>20</ele>
        <time>2024-03-29T12:44:42.497Z</time>
      </trkpt>
      <trkpt lat="43.1999" lon="3.18035">
        <ele>20</ele>
        <time>2024-03-29T12:44:47.498Z</time>
      </trkpt>
      <trkpt lat="43.19987" lon="3.18041">
        <ele>20</ele>
        <time>2024-03-29T12:44:52.498Z</time>
      </trkpt>
      <trkpt lat="43.19984" lon="3.18048">
        <ele>18</ele>
        <time>2024-03-29T12:44:57.498Z</time>
      </trkpt>
      <trkpt lat="43.19981" lon="3.18054">
        <ele>18</ele>
        <time>2024-03-29T12:45:02.498Z</time>
      </trkpt>
      <trkpt lat="43.19978" lon="3.18059">
        <ele>18</ele>
        <time>2024-03-29T12:45:07.498Z</time>
      </trkpt>
      <trkpt lat="43.19975" lon="3.18065">
        <ele>18</ele>
        <time>2024-03-29T12:45:12.498Z</time>
      </trkpt>
      <trkpt lat="43.19971" lon="3.18069">
        <ele>18</ele>
        <time>2024-03-29T12:45:16.498Z</time>
      </trkpt>
      <trkpt lat="43.19967" lon="3.18074">
        <ele>17</ele>
        <time>2024-03-29T12:45:21.498Z</time>
      </trkpt>
      <trkpt lat="43.19962" lon="3.1808">
        <ele>17</ele>
        <time>2024-03-29T12:45:26.498Z</time>
      </trkpt>
      <trkpt lat="43.19958" lon="3.18085">
        <ele>16</ele>
        <time>2024-03-29T12:45:30.498Z</time>
      </trkpt>
      <trkpt lat="43.19953" lon="3.18091">
        <ele>16</ele>
        <time>2024-03-29T12:45:35.498Z</time>
      </trkpt>
      <trkpt lat="43.1995" lon="3.18099">
        <ele>15</ele>
        <time>2024-03-29T12:45:40.498Z</time>
      </trkpt>
      <trkpt lat="43.19949" lon="3.18108">
        <ele>15</ele>
        <time>2024-03-29T12:45:45.498Z</time>
      </trkpt>
      <trkpt lat="43.19951" lon="3.18113">
        <ele>15</ele>
        <time>2024-03-29T12:45:49.498Z</time>
      </trkpt>
      <trkpt lat="43.19954" lon="3.18118">
        <ele>15</ele>
        <time>2024-03-29T12:45:53.498Z</time>
      </trkpt>
      <trkpt lat="43.19957" lon="3.18125">
        <ele>15</ele>
        <time>2024-03-29T12:45:58.498Z</time>
      </trkpt>
      <trkpt lat="43.19958" lon="3.18131">
        <ele>15</ele>
        <time>2024-03-29T12:46:02.498Z</time>
      </trkpt>
      <trkpt lat="43.19958" lon="3.18138">
        <ele>15</ele>
        <time>2024-03-29T12:46:07.498Z</time>
      </trkpt>
      <trkpt lat="43.19956" lon="3.18145">
        <ele>15</ele>
        <time>2024-03-29T12:46:12.498Z</time>
      </trkpt>
      <trkpt lat="43.19952" lon="3.18149">
        <ele>15</ele>
        <time>2024-03-29T12:46:17.498Z</time>
      </trkpt>
      <trkpt lat="43.1995" lon="3.18154">
        <ele>16</ele>
        <time>2024-03-29T12:46:22.498Z</time>
      </trkpt>
      <trkpt lat="43.19947" lon="3.18158">
        <ele>16</ele>
        <time>2024-03-29T12:46:26.498Z</time>
      </trkpt>
      <trkpt lat="43.19942" lon="3.18164">
        <ele>16</ele>
        <time>2024-03-29T12:46:31.498Z</time>
      </trkpt>
      <trkpt lat="43.19938" lon="3.1817">
        <ele>16</ele>
        <time>2024-03-29T12:46:36.498Z</time>
      </trkpt>
      <trkpt lat="43.19933" lon="3.18176">
        <ele>16</ele>
        <time>2024-03-29T12:46:41.498Z</time>
      </trkpt>
      <trkpt lat="43.19931" lon="3.18181">
        <ele>16</ele>
        <time>2024-03-29T12:46:45.498Z</time>
      </trkpt>
      <trkpt lat="43.19926" lon="3.18186">
        <ele>15</ele>
        <time>2024-03-29T12:46:50.498Z</time>
      </trkpt>
      <trkpt lat="43.19923" lon="3.18191">
        <ele>15</ele>
        <time>2024-03-29T12:46:55.498Z</time>
      </trkpt>
      <trkpt lat="43.19921" lon="3.18195">
        <ele>15</ele>
        <time>2024-03-29T12:46:59.498Z</time>
      </trkpt>
      <trkpt lat="43.19919" lon="3.18201">
        <ele>15</ele>
        <time>2024-03-29T12:47:04.498Z</time>
      </trkpt>
      <trkpt lat="43.19915" lon="3.18206">
        <ele>15</ele>
        <time>2024-03-29T12:47:08.498Z</time>
      </trkpt>
      <trkpt lat="43.19911" lon="3.18212">
        <ele>16</ele>
        <time>2024-03-29T12:47:13.498Z</time>
      </trkpt>
      <trkpt lat="43.19907" lon="3.18216">
        <ele>16</ele>
        <time>2024-03-29T12:47:18.498Z</time>
      </trkpt>
      <trkpt lat="43.19904" lon="3.18221">
        <ele>16</ele>
        <time>2024-03-29T12:47:23.498Z</time>
      </trkpt>
      <trkpt lat="43.199" lon="3.18227">
        <ele>12</ele>
        <time>2024-03-29T12:47:28.498Z</time>
      </trkpt>
      <trkpt lat="43.19896" lon="3.18232">
        <ele>12</ele>
        <time>2024-03-29T12:47:33.498Z</time>
      </trkpt>
      <trkpt lat="43.19893" lon="3.18238">
        <ele>14</ele>
        <time>2024-03-29T12:47:37.498Z</time>
      </trkpt>
      <trkpt lat="43.19889" lon="3.18244">
        <ele>14</ele>
        <time>2024-03-29T12:47:42.498Z</time>
      </trkpt>
      <trkpt lat="43.19885" lon="3.18249">
        <ele>14</ele>
        <time>2024-03-29T12:47:47.498Z</time>
      </trkpt>
      <trkpt lat="43.1988" lon="3.18255">
        <ele>14</ele>
        <time>2024-03-29T12:47:52.498Z</time>
      </trkpt>
      <trkpt lat="43.19876" lon="3.18261">
        <ele>14</ele>
        <time>2024-03-29T12:47:57.498Z</time>
      </trkpt>
      <trkpt lat="43.19872" lon="3.18264">
        <ele>11</ele>
        <time>2024-03-29T12:48:01.498Z</time>
      </trkpt>
      <trkpt lat="43.19869" lon="3.1827">
        <ele>11</ele>
        <time>2024-03-29T12:48:06.498Z</time>
      </trkpt>
      <trkpt lat="43.19865" lon="3.18275">
        <ele>11</ele>
        <time>2024-03-29T12:48:11.498Z</time>
      </trkpt>
      <trkpt lat="43.19862" lon="3.1828">
        <ele>11</ele>
        <time>2024-03-29T12:48:15.498Z</time>
      </trkpt>
      <trkpt lat="43.19858" lon="3.18285">
        <ele>11</ele>
        <time>2024-03-29T12:48:20.498Z</time>
      </trkpt>
      <trkpt lat="43.19855" lon="3.1829">
        <ele>11</ele>
        <time>2024-03-29T12:48:24.498Z</time>
      </trkpt>
      <trkpt lat="43.19852" lon="3.18297">
        <ele>10</ele>
        <time>2024-03-29T12:48:29.498Z</time>
      </trkpt>
      <trkpt lat="43.19848" lon="3.18302">
        <ele>10</ele>
        <time>2024-03-29T12:48:34.498Z</time>
      </trkpt>
      <trkpt lat="43.19845" lon="3.18307">
        <ele>10</ele>
        <time>2024-03-29T12:48:39.498Z</time>
      </trkpt>
      <trkpt lat="43.19841" lon="3.18312">
        <ele>10</ele>
        <time>2024-03-29T12:48:44.498Z</time>
      </trkpt>
      <trkpt lat="43.19837" lon="3.18317">
        <ele>10</ele>
        <time>2024-03-29T12:48:49.498Z</time>
      </trkpt>
      <trkpt lat="43.19833" lon="3.18324">
        <ele>9</ele>
        <time>2024-03-29T12:48:54.498Z</time>
      </trkpt>
      <trkpt lat="43.1983" lon="3.1833">
        <ele>9</ele>
        <time>2024-03-29T12:48:59.498Z</time>
      </trkpt>
      <trkpt lat="43.19826" lon="3.18337">
        <ele>9</ele>
        <time>2024-03-29T12:49:04.498Z</time>
      </trkpt>
      <trkpt lat="43.19823" lon="3.18343">
        <ele>9</ele>
        <time>2024-03-29T12:49:09.498Z</time>
      </trkpt>
      <trkpt lat="43.19819" lon="3.1835">
        <ele>12</ele>
        <time>2024-03-29T12:49:14.498Z</time>
      </trkpt>
      <trkpt lat="43.19816" lon="3.18357">
        <ele>12</ele>
        <time>2024-03-29T12:49:19.498Z</time>
      </trkpt>
      <trkpt lat="43.1981" lon="3.18362">
        <ele>12</ele>
        <time>2024-03-29T12:49:24.498Z</time>
      </trkpt>
      <trkpt lat="43.19806" lon="3.18367">
        <ele>12</ele>
        <time>2024-03-29T12:49:29.498Z</time>
      </trkpt>
      <trkpt lat="43.19802" lon="3.18373">
        <ele>12</ele>
        <time>2024-03-29T12:49:34.498Z</time>
      </trkpt>
      <trkpt lat="43.19798" lon="3.18378">
        <ele>13</ele>
        <time>2024-03-29T12:49:39.498Z</time>
      </trkpt>
      <trkpt lat="43.19797" lon="3.18384">
        <ele>13</ele>
        <time>2024-03-29T12:49:44.498Z</time>
      </trkpt>
      <trkpt lat="43.19796" lon="3.18392">
        <ele>13</ele>
        <time>2024-03-29T12:49:49.498Z</time>
      </trkpt>
      <trkpt lat="43.19795" lon="3.184">
        <ele>13</ele>
        <time>2024-03-29T12:49:54.498Z</time>
      </trkpt>
      <trkpt lat="43.19794" lon="3.18407">
        <ele>14</ele>
        <time>2024-03-29T12:49:59.498Z</time>
      </trkpt>
      <trkpt lat="43.19793" lon="3.18414">
        <ele>14</ele>
        <time>2024-03-29T12:50:04.498Z</time>
      </trkpt>
      <trkpt lat="43.19794" lon="3.18421">
        <ele>14</ele>
        <time>2024-03-29T12:50:09.498Z</time>
      </trkpt>
      <trkpt lat="43.19795" lon="3.18427">
        <ele>14</ele>
        <time>2024-03-29T12:50:13.498Z</time>
      </trkpt>
      <trkpt lat="43.19796" lon="3.18434">
        <ele>14</ele>
        <time>2024-03-29T12:50:18.498Z</time>
      </trkpt>
      <trkpt lat="43.19797" lon="3.18443">
        <ele>14</ele>
        <time>2024-03-29T12:50:23.498Z</time>
      </trkpt>
      <trkpt lat="43.19798" lon="3.18451">
        <ele>14</ele>
        <time>2024-03-29T12:50:28.498Z</time>
      </trkpt>
      <trkpt lat="43.19799" lon="3.18459">
        <ele>11</ele>
        <time>2024-03-29T12:50:33.498Z</time>
      </trkpt>
      <trkpt lat="43.19799" lon="3.18468">
        <ele>11</ele>
        <time>2024-03-29T12:50:38.498Z</time>
      </trkpt>
      <trkpt lat="43.19799" lon="3.18477">
        <ele>11</ele>
        <time>2024-03-29T12:50:43.498Z</time>
      </trkpt>
      <trkpt lat="43.19801" lon="3.18484">
        <ele>11</ele>
        <time>2024-03-29T12:50:48.498Z</time>
      </trkpt>
      <trkpt lat="43.19801" lon="3.18491">
        <ele>10</ele>
        <time>2024-03-29T12:50:53.498Z</time>
      </trkpt>
      <trkpt lat="43.19801" lon="3.18496">
        <ele>10</ele>
        <time>2024-03-29T12:50:57.498Z</time>
      </trkpt>
      <trkpt lat="43.19799" lon="3.18504">
        <ele>10</ele>
        <time>2024-03-29T12:51:02.498Z</time>
      </trkpt>
      <trkpt lat="43.19797" lon="3.18511">
        <ele>10</ele>
        <time>2024-03-29T12:51:06.498Z</time>
      </trkpt>
      <trkpt lat="43.19794" lon="3.18518">
        <ele>8</ele>
        <time>2024-03-29T12:51:11.498Z</time>
      </trkpt>
      <trkpt lat="43.19792" lon="3.18524">
        <ele>8</ele>
        <time>2024-03-29T12:51:15.498Z</time>
      </trkpt>
      <trkpt lat="43.19789" lon="3.18531">
        <ele>13</ele>
        <time>2024-03-29T12:51:20.498Z</time>
      </trkpt>
      <trkpt lat="43.19787" lon="3.18537">
        <ele>13</ele>
        <time>2024-03-29T12:51:25.498Z</time>
      </trkpt>
      <trkpt lat="43.19786" lon="3.18542">
        <ele>13</ele>
        <time>2024-03-29T12:51:30.498Z</time>
      </trkpt>
      <trkpt lat="43.19783" lon="3.18548">
        <ele>11</ele>
        <time>2024-03-29T12:51:35.498Z</time>
      </trkpt>
      <trkpt lat="43.1978" lon="3.18558">
        <ele>11</ele>
        <time>2024-03-29T12:51:40.498Z</time>
      </trkpt>
      <trkpt lat="43.19776" lon="3.18565">
        <ele>11</ele>
        <time>2024-03-29T12:51:44.498Z</time>
      </trkpt>
      <trkpt lat="43.19774" lon="3.18571">
        <ele>8</ele>
        <time>2024-03-29T12:51:49.498Z</time>
      </trkpt>
      <trkpt lat="43.19772" lon="3.18579">
        <ele>8</ele>
        <time>2024-03-29T12:51:54.498Z</time>
      </trkpt>
      <trkpt lat="43.19771" lon="3.18588">
        <ele>8</ele>
        <time>2024-03-29T12:51:59.498Z</time>
      </trkpt>
      <trkpt lat="43.1977" lon="3.18597">
        <ele>8</ele>
        <time>2024-03-29T12:52:04.498Z</time>
      </trkpt>
      <trkpt lat="43.19769" lon="3.18599">
        <ele>6</ele>
        <time>2024-03-29T12:52:09.498Z</time>
      </trkpt>
      <trkpt lat="43.19769" lon="3.18604">
        <ele>6</ele>
        <time>2024-03-29T12:52:13.498Z</time>
      </trkpt>
      <trkpt lat="43.19767" lon="3.18612">
        <ele>6</ele>
        <time>2024-03-29T12:52:18.498Z</time>
      </trkpt>
      <trkpt lat="43.19766" lon="3.18619">
        <ele>6</ele>
        <time>2024-03-29T12:52:23.498Z</time>
      </trkpt>
      <trkpt lat="43.19766" lon="3.18624">
        <ele>6</ele>
        <time>2024-03-29T12:52:28.498Z</time>
      </trkpt>
      <trkpt lat="43.19766" lon="3.1863">
        <ele>4</ele>
        <time>2024-03-29T12:52:32.498Z</time>
      </trkpt>
      <trkpt lat="43.19767" lon="3.18638">
        <ele>4</ele>
        <time>2024-03-29T12:52:37.498Z</time>
      </trkpt>
      <trkpt lat="43.19768" lon="3.18645">
        <ele>4</ele>
        <time>2024-03-29T12:52:42.498Z</time>
      </trkpt>
      <trkpt lat="43.19769" lon="3.18653">
        <ele>6</ele>
        <time>2024-03-29T12:52:47.498Z</time>
      </trkpt>
      <trkpt lat="43.1977" lon="3.1866">
        <ele>6</ele>
        <time>2024-03-29T12:52:52.498Z</time>
      </trkpt>
      <trkpt lat="43.19772" lon="3.18668">
        <ele>6</ele>
        <time>2024-03-29T12:52:57.498Z</time>
      </trkpt>
      <trkpt lat="43.19773" lon="3.18675">
        <ele>6</ele>
        <time>2024-03-29T12:53:02.498Z</time>
      </trkpt>
      <trkpt lat="43.19774" lon="3.18684">
        <ele>9</ele>
        <time>2024-03-29T12:53:07.498Z</time>
      </trkpt>
      <trkpt lat="43.19775" lon="3.18695">
        <ele>9</ele>
        <time>2024-03-29T12:53:12.498Z</time>
      </trkpt>
      <trkpt lat="43.19779" lon="3.18703">
        <ele>9</ele>
        <time>2024-03-29T12:53:17.498Z</time>
      </trkpt>
      <trkpt lat="43.19782" lon="3.18709">
        <ele>10</ele>
        <time>2024-03-29T12:53:22.498Z</time>
      </trkpt>
      <trkpt lat="43.19786" lon="3.18715">
        <ele>10</ele>
        <time>2024-03-29T12:53:27.498Z</time>
      </trkpt>
      <trkpt lat="43.19789" lon="3.18722">
        <ele>10</ele>
        <time>2024-03-29T12:53:32.498Z</time>
      </trkpt>
      <trkpt lat="43.19792" lon="3.18727">
        <ele>6</ele>
        <time>2024-03-29T12:53:37.498Z</time>
      </trkpt>
      <trkpt lat="43.19795" lon="3.18732">
        <ele>6</ele>
        <time>2024-03-29T12:53:42.498Z</time>
      </trkpt>
      <trkpt lat="43.19796" lon="3.18738">
        <ele>8</ele>
        <time>2024-03-29T12:53:46.499Z</time>
      </trkpt>
      <trkpt lat="43.19797" lon="3.18745">
        <ele>8</ele>
        <time>2024-03-29T12:53:51.499Z</time>
      </trkpt>
      <trkpt lat="43.19795" lon="3.1875">
        <ele>8</ele>
        <time>2024-03-29T12:53:56.499Z</time>
      </trkpt>
      <trkpt lat="43.19794" lon="3.18756">
        <ele>8</ele>
        <time>2024-03-29T12:54:00.499Z</time>
      </trkpt>
      <trkpt lat="43.19794" lon="3.18762">
        <ele>8</ele>
        <time>2024-03-29T12:54:05.499Z</time>
      </trkpt>
      <trkpt lat="43.19794" lon="3.18768">
        <ele>9</ele>
        <time>2024-03-29T12:54:09.499Z</time>
      </trkpt>
      <trkpt lat="43.19794" lon="3.18775">
        <ele>9</ele>
        <time>2024-03-29T12:54:14.499Z</time>
      </trkpt>
      <trkpt lat="43.19794" lon="3.18781">
        <ele>9</ele>
        <time>2024-03-29T12:54:19.499Z</time>
      </trkpt>
      <trkpt lat="43.19793" lon="3.1879">
        <ele>9</ele>
        <time>2024-03-29T12:54:24.499Z</time>
      </trkpt>
      <trkpt lat="43.19793" lon="3.18796">
        <ele>7</ele>
        <time>2024-03-29T12:54:28.499Z</time>
      </trkpt>
      <trkpt lat="43.19792" lon="3.188">
        <ele>7</ele>
        <time>2024-03-29T12:54:32.499Z</time>
      </trkpt>
      <trkpt lat="43.19791" lon="3.18807">
        <ele>15</ele>
        <time>2024-03-29T12:54:37.499Z</time>
      </trkpt>
      <trkpt lat="43.19788" lon="3.18816">
        <ele>15</ele>
        <time>2024-03-29T12:54:42.499Z</time>
      </trkpt>
      <trkpt lat="43.19788" lon="3.18825">
        <ele>14</ele>
        <time>2024-03-29T12:54:47.499Z</time>
      </trkpt>
      <trkpt lat="43.19788" lon="3.18832">
        <ele>14</ele>
        <time>2024-03-29T12:54:52.499Z</time>
      </trkpt>
      <trkpt lat="43.19786" lon="3.1884">
        <ele>14</ele>
        <time>2024-03-29T12:54:57.499Z</time>
      </trkpt>
      <trkpt lat="43.19786" lon="3.18846">
        <ele>14</ele>
        <time>2024-03-29T12:55:01.499Z</time>
      </trkpt>
      <trkpt lat="43.19783" lon="3.18853">
        <ele>10</ele>
        <time>2024-03-29T12:55:06.499Z</time>
      </trkpt>
      <trkpt lat="43.19779" lon="3.18859">
        <ele>10</ele>
        <time>2024-03-29T12:55:11.499Z</time>
      </trkpt>
      <trkpt lat="43.19776" lon="3.18865">
        <ele>10</ele>
        <time>2024-03-29T12:55:15.499Z</time>
      </trkpt>
      <trkpt lat="43.19772" lon="3.18871">
        <ele>10</ele>
        <time>2024-03-29T12:55:20.499Z</time>
      </trkpt>
      <trkpt lat="43.19769" lon="3.18875">
        <ele>9</ele>
        <time>2024-03-29T12:55:24.499Z</time>
      </trkpt>
      <trkpt lat="43.19766" lon="3.18881">
        <ele>9</ele>
        <time>2024-03-29T12:55:29.499Z</time>
      </trkpt>
      <trkpt lat="43.1976" lon="3.18884">
        <ele>13</ele>
        <time>2024-03-29T12:55:34.499Z</time>
      </trkpt>
      <trkpt lat="43.19754" lon="3.18887">
        <ele>13</ele>
        <time>2024-03-29T12:55:39.499Z</time>
      </trkpt>
      <trkpt lat="43.19749" lon="3.18889">
        <ele>13</ele>
        <time>2024-03-29T12:55:44.499Z</time>
      </trkpt>
      <trkpt lat="43.19744" lon="3.18895">
        <ele>13</ele>
        <time>2024-03-29T12:55:49.499Z</time>
      </trkpt>
      <trkpt lat="43.1974" lon="3.18898">
        <ele>13</ele>
        <time>2024-03-29T12:55:54.499Z</time>
      </trkpt>
      <trkpt lat="43.19734" lon="3.18902">
        <ele>15</ele>
        <time>2024-03-29T12:55:59.499Z</time>
      </trkpt>
      <trkpt lat="43.19728" lon="3.18906">
        <ele>11</ele>
        <time>2024-03-29T12:56:04.499Z</time>
      </trkpt>
      <trkpt lat="43.19723" lon="3.18912">
        <ele>11</ele>
        <time>2024-03-29T12:56:09.499Z</time>
      </trkpt>
      <trkpt lat="43.19718" lon="3.18915">
        <ele>11</ele>
        <time>2024-03-29T12:56:14.499Z</time>
      </trkpt>
      <trkpt lat="43.19714" lon="3.1892">
        <ele>11</ele>
        <time>2024-03-29T12:56:19.499Z</time>
      </trkpt>
      <trkpt lat="43.1971" lon="3.18925">
        <ele>11</ele>
        <time>2024-03-29T12:56:24.499Z</time>
      </trkpt>
      <trkpt lat="43.19707" lon="3.18934">
        <ele>11</ele>
        <time>2024-03-29T12:56:29.499Z</time>
      </trkpt>
      <trkpt lat="43.19706" lon="3.18943">
        <ele>11</ele>
        <time>2024-03-29T12:56:34.499Z</time>
      </trkpt>
      <trkpt lat="43.19704" lon="3.18952">
        <ele>11</ele>
        <time>2024-03-29T12:56:39.499Z</time>
      </trkpt>
      <trkpt lat="43.19704" lon="3.18959">
        <ele>10</ele>
        <time>2024-03-29T12:56:44.499Z</time>
      </trkpt>
      <trkpt lat="43.19703" lon="3.18968">
        <ele>10</ele>
        <time>2024-03-29T12:56:49.499Z</time>
      </trkpt>
      <trkpt lat="43.19701" lon="3.18974">
        <ele>10</ele>
        <time>2024-03-29T12:56:53.499Z</time>
      </trkpt>
      <trkpt lat="43.197" lon="3.1898">
        <ele>10</ele>
        <time>2024-03-29T12:56:58.499Z</time>
      </trkpt>
      <trkpt lat="43.19698" lon="3.18987">
        <ele>10</ele>
        <time>2024-03-29T12:57:03.499Z</time>
      </trkpt>
      <trkpt lat="43.19698" lon="3.18993">
        <ele>10</ele>
        <time>2024-03-29T12:57:08.499Z</time>
      </trkpt>
      <trkpt lat="43.19698" lon="3.18998">
        <ele>10</ele>
        <time>2024-03-29T12:57:13.499Z</time>
      </trkpt>
      <trkpt lat="43.19697" lon="3.19004">
        <ele>10</ele>
        <time>2024-03-29T12:57:18.499Z</time>
      </trkpt>
      <trkpt lat="43.19696" lon="3.19011">
        <ele>10</ele>
        <time>2024-03-29T12:57:23.499Z</time>
      </trkpt>
      <trkpt lat="43.19695" lon="3.19019">
        <ele>11</ele>
        <time>2024-03-29T12:57:28.499Z</time>
      </trkpt>
      <trkpt lat="43.19695" lon="3.19026">
        <ele>11</ele>
        <time>2024-03-29T12:57:33.499Z</time>
      </trkpt>
      <trkpt lat="43.19694" lon="3.19035">
        <ele>11</ele>
        <time>2024-03-29T12:57:38.499Z</time>
      </trkpt>
      <trkpt lat="43.19693" lon="3.19043">
        <ele>11</ele>
        <time>2024-03-29T12:57:43.499Z</time>
      </trkpt>
      <trkpt lat="43.19692" lon="3.19051">
        <ele>11</ele>
        <time>2024-03-29T12:57:48.499Z</time>
      </trkpt>
      <trkpt lat="43.19691" lon="3.19058">
        <ele>11</ele>
        <time>2024-03-29T12:57:53.499Z</time>
      </trkpt>
      <trkpt lat="43.1969" lon="3.19063">
        <ele>11</ele>
        <time>2024-03-29T12:57:57.499Z</time>
      </trkpt>
      <trkpt lat="43.1969" lon="3.19071">
        <ele>10</ele>
        <time>2024-03-29T12:58:02.499Z</time>
      </trkpt>
      <trkpt lat="43.19689" lon="3.19079">
        <ele>10</ele>
        <time>2024-03-29T12:58:07.499Z</time>
      </trkpt>
      <trkpt lat="43.19688" lon="3.19087">
        <ele>10</ele>
        <time>2024-03-29T12:58:12.499Z</time>
      </trkpt>
      <trkpt lat="43.19688" lon="3.19094">
        <ele>10</ele>
        <time>2024-03-29T12:58:17.499Z</time>
      </trkpt>
      <trkpt lat="43.19687" lon="3.19101">
        <ele>7</ele>
        <time>2024-03-29T12:58:22.499Z</time>
      </trkpt>
      <trkpt lat="43.19685" lon="3.19108">
        <ele>7</ele>
        <time>2024-03-29T12:58:27.499Z</time>
      </trkpt>
      <trkpt lat="43.19683" lon="3.19116">
        <ele>7</ele>
        <time>2024-03-29T12:58:32.499Z</time>
      </trkpt>
      <trkpt lat="43.19683" lon="3.19125">
        <ele>7</ele>
        <time>2024-03-29T12:58:37.499Z</time>
      </trkpt>
      <trkpt lat="43.19682" lon="3.19133">
        <ele>5</ele>
        <time>2024-03-29T12:58:42.499Z</time>
      </trkpt>
      <trkpt lat="43.19681" lon="3.19139">
        <ele>5</ele>
        <time>2024-03-29T12:58:46.499Z</time>
      </trkpt>
      <trkpt lat="43.19681" lon="3.19145">
        <ele>5</ele>
        <time>2024-03-29T12:58:50.499Z</time>
      </trkpt>
      <trkpt lat="43.1968" lon="3.1915">
        <ele>11</ele>
        <time>2024-03-29T12:58:55.499Z</time>
      </trkpt>
      <trkpt lat="43.19681" lon="3.19155">
        <ele>2</ele>
        <time>2024-03-29T12:59:00.499Z</time>
      </trkpt>
      <trkpt lat="43.19678" lon="3.19165">
        <ele>7</ele>
        <time>2024-03-29T12:59:05.499Z</time>
      </trkpt>
      <trkpt lat="43.19677" lon="3.1917">
        <ele>7</ele>
        <time>2024-03-29T12:59:09.499Z</time>
      </trkpt>
      <trkpt lat="43.19677" lon="3.19176">
        <ele>7</ele>
        <time>2024-03-29T12:59:13.499Z</time>
      </trkpt>
      <trkpt lat="43.19677" lon="3.19183">
        <ele>6</ele>
        <time>2024-03-29T12:59:18.499Z</time>
      </trkpt>
      <trkpt lat="43.19676" lon="3.19189">
        <ele>6</ele>
        <time>2024-03-29T12:59:22.499Z</time>
      </trkpt>
      <trkpt lat="43.19675" lon="3.19197">
        <ele>6</ele>
        <time>2024-03-29T12:59:27.499Z</time>
      </trkpt>
      <trkpt lat="43.19673" lon="3.19204">
        <ele>6</ele>
        <time>2024-03-29T12:59:31.499Z</time>
      </trkpt>
      <trkpt lat="43.19672" lon="3.19211">
        <ele>6</ele>
        <time>2024-03-29T12:59:36.499Z</time>
      </trkpt>
      <trkpt lat="43.19673" lon="3.19217">
        <ele>6</ele>
        <time>2024-03-29T12:59:41.499Z</time>
      </trkpt>
      <trkpt lat="43.19674" lon="3.1922">
        <ele>6</ele>
        <time>2024-03-29T12:59:45.499Z</time>
      </trkpt>
      <trkpt lat="43.19675" lon="3.19226">
        <ele>6</ele>
        <time>2024-03-29T12:59:50.499Z</time>
      </trkpt>
      <trkpt lat="43.19674" lon="3.19234">
        <ele>6</ele>
        <time>2024-03-29T12:59:55.499Z</time>
      </trkpt>
      <trkpt lat="43.19673" lon="3.19239">
        <ele>7</ele>
        <time>2024-03-29T12:59:59.499Z</time>
      </trkpt>
      <trkpt lat="43.19671" lon="3.19246">
        <ele>7</ele>
        <time>2024-03-29T13:00:04.499Z</time>
      </trkpt>
      <trkpt lat="43.1967" lon="3.19254">
        <ele>7</ele>
        <time>2024-03-29T13:00:09.499Z</time>
      </trkpt>
      <trkpt lat="43.19669" lon="3.19261">
        <ele>7</ele>
        <time>2024-03-29T13:00:14.499Z</time>
      </trkpt>
      <trkpt lat="43.19668" lon="3.1927">
        <ele>6</ele>
        <time>2024-03-29T13:00:19.499Z</time>
      </trkpt>
      <trkpt lat="43.19668" lon="3.19275">
        <ele>6</ele>
        <time>2024-03-29T13:00:23.499Z</time>
      </trkpt>
      <trkpt lat="43.19667" lon="3.1928">
        <ele>6</ele>
        <time>2024-03-29T13:00:28.499Z</time>
      </trkpt>
      <trkpt lat="43.19665" lon="3.19285">
        <ele>6</ele>
        <time>2024-03-29T13:00:33.499Z</time>
      </trkpt>
      <trkpt lat="43.19663" lon="3.1929">
        <ele>6</ele>
        <time>2024-03-29T13:00:37.499Z</time>
      </trkpt>
      <trkpt lat="43.19659" lon="3.19297">
        <ele>4</ele>
        <time>2024-03-29T13:00:42.499Z</time>
      </trkpt>
      <trkpt lat="43.19656" lon="3.19304">
        <ele>4</ele>
        <time>2024-03-29T13:00:47.499Z</time>
      </trkpt>
      <trkpt lat="43.19652" lon="3.19309">
        <ele>6</ele>
        <time>2024-03-29T13:00:52.499Z</time>
      </trkpt>
      <trkpt lat="43.19648" lon="3.19314">
        <ele>6</ele>
        <time>2024-03-29T13:00:56.499Z</time>
      </trkpt>
      <trkpt lat="43.19642" lon="3.19319">
        <ele>6</ele>
        <time>2024-03-29T13:01:01.499Z</time>
      </trkpt>
      <trkpt lat="43.19637" lon="3.19322">
        <ele>3</ele>
        <time>2024-03-29T13:01:06.499Z</time>
      </trkpt>
      <trkpt lat="43.19634" lon="3.19326">
        <ele>3</ele>
        <time>2024-03-29T13:01:11.499Z</time>
      </trkpt>
      <trkpt lat="43.19633" lon="3.19333">
        <ele>3</ele>
        <time>2024-03-29T13:01:16.499Z</time>
      </trkpt>
      <trkpt lat="43.1963" lon="3.19339">
        <ele>3</ele>
        <time>2024-03-29T13:01:21.499Z</time>
      </trkpt>
      <trkpt lat="43.19627" lon="3.19343">
        <ele>3</ele>
        <time>2024-03-29T13:01:25.499Z</time>
      </trkpt>
      <trkpt lat="43.19623" lon="3.19349">
        <ele>5</ele>
        <time>2024-03-29T13:01:30.499Z</time>
      </trkpt>
      <trkpt lat="43.1962" lon="3.19353">
        <ele>5</ele>
        <time>2024-03-29T13:01:34.499Z</time>
      </trkpt>
      <trkpt lat="43.19614" lon="3.19358">
        <ele>5</ele>
        <time>2024-03-29T13:01:39.499Z</time>
      </trkpt>
      <trkpt lat="43.1961" lon="3.19363">
        <ele>5</ele>
        <time>2024-03-29T13:01:44.499Z</time>
      </trkpt>
      <trkpt lat="43.19607" lon="3.19367">
        <ele>5</ele>
        <time>2024-03-29T13:01:49.499Z</time>
      </trkpt>
      <trkpt lat="43.19603" lon="3.19372">
        <ele>5</ele>
        <time>2024-03-29T13:01:54.499Z</time>
      </trkpt>
      <trkpt lat="43.19597" lon="3.19378">
        <ele>4</ele>
        <time>2024-03-29T13:01:58.499Z</time>
      </trkpt>
      <trkpt lat="43.19591" lon="3.19383">
        <ele>5</ele>
        <time>2024-03-29T13:02:03.499Z</time>
      </trkpt>
      <trkpt lat="43.19588" lon="3.19387">
        <ele>5</ele>
        <time>2024-03-29T13:02:07.499Z</time>
      </trkpt>
      <trkpt lat="43.19585" lon="3.19393">
        <ele>5</ele>
        <time>2024-03-29T13:02:12.499Z</time>
      </trkpt>
      <trkpt lat="43.1958" lon="3.19396">
        <ele>5</ele>
        <time>2024-03-29T13:02:17.499Z</time>
      </trkpt>
      <trkpt lat="43.19575" lon="3.19401">
        <ele>5</ele>
        <time>2024-03-29T13:02:22.499Z</time>
      </trkpt>
      <trkpt lat="43.1957" lon="3.19404">
        <ele>5</ele>
        <time>2024-03-29T13:02:27.499Z</time>
      </trkpt>
      <trkpt lat="43.19565" lon="3.19406">
        <ele>5</ele>
        <time>2024-03-29T13:02:31.499Z</time>
      </trkpt>
      <trkpt lat="43.1956" lon="3.1941">
        <ele>5</ele>
        <time>2024-03-29T13:02:36.499Z</time>
      </trkpt>
      <trkpt lat="43.19556" lon="3.19413">
        <ele>5</ele>
        <time>2024-03-29T13:02:41.499Z</time>
      </trkpt>
      <trkpt lat="43.1955" lon="3.19414">
        <ele>5</ele>
        <time>2024-03-29T13:02:46.499Z</time>
      </trkpt>
      <trkpt lat="43.19546" lon="3.19414">
        <ele>5</ele>
        <time>2024-03-29T13:02:50.499Z</time>
      </trkpt>
      <trkpt lat="43.19541" lon="3.19415">
        <ele>7</ele>
        <time>2024-03-29T13:02:54.499Z</time>
      </trkpt>
      <trkpt lat="43.19535" lon="3.19416">
        <ele>7</ele>
        <time>2024-03-29T13:02:59.499Z</time>
      </trkpt>
      <trkpt lat="43.19528" lon="3.19416">
        <ele>7</ele>
        <time>2024-03-29T13:03:03.499Z</time>
      </trkpt>
      <trkpt lat="43.19522" lon="3.19418">
        <ele>7</ele>
        <time>2024-03-29T13:03:08.499Z</time>
      </trkpt>
      <trkpt lat="43.19518" lon="3.1942">
        <ele>7</ele>
        <time>2024-03-29T13:03:12.499Z</time>
      </trkpt>
      <trkpt lat="43.19513" lon="3.19421">
        <ele>6</ele>
        <time>2024-03-29T13:03:17.499Z</time>
      </trkpt>
      <trkpt lat="43.19505" lon="3.19422">
        <ele>6</ele>
        <time>2024-03-29T13:03:22.499Z</time>
      </trkpt>
      <trkpt lat="43.195" lon="3.19422">
        <ele>6</ele>
        <time>2024-03-29T13:03:26.499Z</time>
      </trkpt>
      <trkpt lat="43.19494" lon="3.19423">
        <ele>6</ele>
        <time>2024-03-29T13:03:31.499Z</time>
      </trkpt>
      <trkpt lat="43.19489" lon="3.19424">
        <ele>6</ele>
        <time>2024-03-29T13:03:36.499Z</time>
      </trkpt>
      <trkpt lat="43.19484" lon="3.19425">
        <ele>5</ele>
        <time>2024-03-29T13:03:40.499Z</time>
      </trkpt>
      <trkpt lat="43.19478" lon="3.19426">
        <ele>5</ele>
        <time>2024-03-29T13:03:45.499Z</time>
      </trkpt>
      <trkpt lat="43.19473" lon="3.19427">
        <ele>5</ele>
        <time>2024-03-29T13:03:50.500Z</time>
      </trkpt>
      <trkpt lat="43.19466" lon="3.19427">
        <ele>5</ele>
        <time>2024-03-29T13:03:55.500Z</time>
      </trkpt>
      <trkpt lat="43.1946" lon="3.19427">
        <ele>5</ele>
        <time>2024-03-29T13:04:00.500Z</time>
      </trkpt>
      <trkpt lat="43.19454" lon="3.19426">
        <ele>4</ele>
        <time>2024-03-29T13:04:05.500Z</time>
      </trkpt>
      <trkpt lat="43.19448" lon="3.19428">
        <ele>4</ele>
        <time>2024-03-29T13:04:10.500Z</time>
      </trkpt>
      <trkpt lat="43.19444" lon="3.19428">
        <ele>4</ele>
        <time>2024-03-29T13:04:14.500Z</time>
      </trkpt>
      <trkpt lat="43.1944" lon="3.19428">
        <ele>4</ele>
        <time>2024-03-29T13:04:19.500Z</time>
      </trkpt>
      <trkpt lat="43.19435" lon="3.19428">
        <ele>4</ele>
        <time>2024-03-29T13:04:24.500Z</time>
      </trkpt>
      <trkpt lat="43.1943" lon="3.19428">
        <ele>2</ele>
        <time>2024-03-29T13:04:29.500Z</time>
      </trkpt>
      <trkpt lat="43.19427" lon="3.19426">
        <ele>2</ele>
        <time>2024-03-29T13:04:33.500Z</time>
      </trkpt>
      <trkpt lat="43.19423" lon="3.19422">
        <ele>2</ele>
        <time>2024-03-29T13:04:38.500Z</time>
      </trkpt>
      <trkpt lat="43.19416" lon="3.1942">
        <ele>2</ele>
        <time>2024-03-29T13:04:43.500Z</time>
      </trkpt>
      <trkpt lat="43.1941" lon="3.19416">
        <ele>2</ele>
        <time>2024-03-29T13:04:48.500Z</time>
      </trkpt>
      <trkpt lat="43.19405" lon="3.19411">
        <ele>2</ele>
        <time>2024-03-29T13:04:53.500Z</time>
      </trkpt>
      <trkpt lat="43.194" lon="3.19407">
        <ele>1</ele>
        <time>2024-03-29T13:04:58.500Z</time>
      </trkpt>
      <trkpt lat="43.19397" lon="3.19404">
        <ele>1</ele>
        <time>2024-03-29T13:05:03.500Z</time>
      </trkpt>
      <trkpt lat="43.19393" lon="3.19402">
        <ele>3</ele>
        <time>2024-03-29T13:05:08.500Z</time>
      </trkpt>
      <trkpt lat="43.19388" lon="3.194">
        <ele>3</ele>
        <time>2024-03-29T13:05:13.500Z</time>
      </trkpt>
      <trkpt lat="43.19381" lon="3.19397">
        <ele>3</ele>
        <time>2024-03-29T13:05:18.500Z</time>
      </trkpt>
      <trkpt lat="43.19376" lon="3.19393">
        <ele>3</ele>
        <time>2024-03-29T13:05:23.500Z</time>
      </trkpt>
      <trkpt lat="43.19372" lon="3.1939">
        <ele>3</ele>
        <time>2024-03-29T13:05:28.500Z</time>
      </trkpt>
      <trkpt lat="43.19368" lon="3.19386">
        <ele>3</ele>
        <time>2024-03-29T13:05:33.500Z</time>
      </trkpt>
      <trkpt lat="43.19363" lon="3.19383">
        <ele>3</ele>
        <time>2024-03-29T13:05:38.500Z</time>
      </trkpt>
      <trkpt lat="43.19358" lon="3.19378">
        <ele>3</ele>
        <time>2024-03-29T13:05:43.500Z</time>
      </trkpt>
      <trkpt lat="43.19352" lon="3.19374">
        <ele>5</ele>
        <time>2024-03-29T13:05:48.500Z</time>
      </trkpt>
      <trkpt lat="43.19347" lon="3.19374">
        <ele>2</ele>
        <time>2024-03-29T13:05:53.500Z</time>
      </trkpt>
      <trkpt lat="43.19343" lon="3.19374">
        <ele>2</ele>
        <time>2024-03-29T13:05:57.500Z</time>
      </trkpt>
      <trkpt lat="43.19337" lon="3.19372">
        <ele>2</ele>
        <time>2024-03-29T13:06:02.500Z</time>
      </trkpt>
      <trkpt lat="43.19331" lon="3.19371">
        <ele>2</ele>
        <time>2024-03-29T13:06:07.500Z</time>
      </trkpt>
      <trkpt lat="43.19324" lon="3.19368">
        <ele>2</ele>
        <time>2024-03-29T13:06:11.500Z</time>
      </trkpt>
      <trkpt lat="43.19317" lon="3.19367">
        <ele>1</ele>
        <time>2024-03-29T13:06:16.500Z</time>
      </trkpt>
      <trkpt lat="43.1931" lon="3.19367">
        <ele>1</ele>
        <time>2024-03-29T13:06:21.500Z</time>
      </trkpt>
      <trkpt lat="43.19303" lon="3.19368">
        <ele>1</ele>
        <time>2024-03-29T13:06:26.500Z</time>
      </trkpt>
      <trkpt lat="43.19297" lon="3.19368">
        <ele>1</ele>
        <time>2024-03-29T13:06:31.500Z</time>
      </trkpt>
      <trkpt lat="43.19293" lon="3.19369">
        <ele>1</ele>
        <time>2024-03-29T13:06:35.500Z</time>
      </trkpt>
      <trkpt lat="43.19288" lon="3.19369">
        <ele>1</ele>
        <time>2024-03-29T13:06:39.500Z</time>
      </trkpt>
      <trkpt lat="43.19282" lon="3.1937">
        <ele>1</ele>
        <time>2024-03-29T13:06:44.500Z</time>
      </trkpt>
      <trkpt lat="43.19277" lon="3.1937">
        <ele>1</ele>
        <time>2024-03-29T13:06:49.500Z</time>
      </trkpt>
      <trkpt lat="43.19271" lon="3.19371">
        <ele>1.2</ele>
        <time>2024-03-29T13:06:54.500Z</time>
      </trkpt>
      <trkpt lat="43.19265" lon="3.19374">
        <ele>1.2</ele>
        <time>2024-03-29T13:06:58.500Z</time>
      </trkpt>
      <trkpt lat="43.1926" lon="3.19377">
        <ele>-1</ele>
        <time>2024-03-29T13:07:03.500Z</time>
      </trkpt>
      <trkpt lat="43.19254" lon="3.19378">
        <ele>-1</ele>
        <time>2024-03-29T13:07:07.500Z</time>
      </trkpt>
      <trkpt lat="43.19248" lon="3.19378">
        <ele>-1</ele>
        <time>2024-03-29T13:07:12.500Z</time>
      </trkpt>
      <trkpt lat="43.19244" lon="3.1938">
        <ele>-1</ele>
        <time>2024-03-29T13:07:17.500Z</time>
      </trkpt>
      <trkpt lat="43.19239" lon="3.19386">
        <ele>-1</ele>
        <time>2024-03-29T13:07:22.500Z</time>
      </trkpt>
      <trkpt lat="43.19236" lon="3.1939">
        <ele>-1</ele>
        <time>2024-03-29T13:07:26.500Z</time>
      </trkpt>
      <trkpt lat="43.19233" lon="3.19395">
        <ele>1</ele>
        <time>2024-03-29T13:07:31.500Z</time>
      </trkpt>
      <trkpt lat="43.1923" lon="3.19399">
        <ele>1</ele>
        <time>2024-03-29T13:07:35.500Z</time>
      </trkpt>
      <trkpt lat="43.19228" lon="3.19406">
        <ele>1</ele>
        <time>2024-03-29T13:07:40.500Z</time>
      </trkpt>
      <trkpt lat="43.19226" lon="3.19414">
        <ele>1</ele>
        <time>2024-03-29T13:07:45.500Z</time>
      </trkpt>
      <trkpt lat="43.19223" lon="3.19422">
        <ele>1</ele>
        <time>2024-03-29T13:07:50.500Z</time>
      </trkpt>
      <trkpt lat="43.1922" lon="3.19428">
        <ele>1</ele>
        <time>2024-03-29T13:07:55.500Z</time>
      </trkpt>
      <trkpt lat="43.19219" lon="3.19432">
        <ele>1</ele>
        <time>2024-03-29T13:08:00.500Z</time>
      </trkpt>
      <trkpt lat="43.19216" lon="3.19437">
        <ele>1</ele>
        <time>2024-03-29T13:08:05.500Z</time>
      </trkpt>
      <trkpt lat="43.19213" lon="3.19444">
        <ele>1</ele>
        <time>2024-03-29T13:08:10.500Z</time>
      </trkpt>
      <trkpt lat="43.19208" lon="3.19449">
        <ele>1</ele>
        <time>2024-03-29T13:08:15.500Z</time>
      </trkpt>
      <trkpt lat="43.19204" lon="3.19455">
        <ele>3</ele>
        <time>2024-03-29T13:08:20.500Z</time>
      </trkpt>
      <trkpt lat="43.192" lon="3.19459">
        <ele>3</ele>
        <time>2024-03-29T13:08:25.500Z</time>
      </trkpt>
      <trkpt lat="43.19196" lon="3.19465">
        <ele>3</ele>
        <time>2024-03-29T13:08:30.500Z</time>
      </trkpt>
      <trkpt lat="43.19192" lon="3.1947">
        <ele>3</ele>
        <time>2024-03-29T13:08:35.500Z</time>
      </trkpt>
      <trkpt lat="43.19189" lon="3.19474">
        <ele>3</ele>
        <time>2024-03-29T13:08:39.500Z</time>
      </trkpt>
      <trkpt lat="43.19184" lon="3.19479">
        <ele>3</ele>
        <time>2024-03-29T13:08:44.500Z</time>
      </trkpt>
      <trkpt lat="43.19178" lon="3.19483">
        <ele>5</ele>
        <time>2024-03-29T13:08:49.500Z</time>
      </trkpt>
      <trkpt lat="43.19175" lon="3.19486">
        <ele>5</ele>
        <time>2024-03-29T13:08:53.500Z</time>
      </trkpt>
      <trkpt lat="43.19169" lon="3.19491">
        <ele>3</ele>
        <time>2024-03-29T13:08:58.500Z</time>
      </trkpt>
      <trkpt lat="43.19165" lon="3.19496">
        <ele>3</ele>
        <time>2024-03-29T13:09:02.500Z</time>
      </trkpt>
      <trkpt lat="43.19161" lon="3.19501">
        <ele>3</ele>
        <time>2024-03-29T13:09:06.500Z</time>
      </trkpt>
      <trkpt lat="43.19156" lon="3.19507">
        <ele>3</ele>
        <time>2024-03-29T13:09:11.500Z</time>
      </trkpt>
      <trkpt lat="43.19151" lon="3.19513">
        <ele>4</ele>
        <time>2024-03-29T13:09:16.500Z</time>
      </trkpt>
      <trkpt lat="43.19147" lon="3.19518">
        <ele>2</ele>
        <time>2024-03-29T13:09:21.500Z</time>
      </trkpt>
      <trkpt lat="43.19142" lon="3.19523">
        <ele>2</ele>
        <time>2024-03-29T13:09:26.500Z</time>
      </trkpt>
      <trkpt lat="43.19139" lon="3.19529">
        <ele>2</ele>
        <time>2024-03-29T13:09:31.500Z</time>
      </trkpt>
      <trkpt lat="43.19135" lon="3.19532">
        <ele>2</ele>
        <time>2024-03-29T13:09:35.500Z</time>
      </trkpt>
      <trkpt lat="43.19131" lon="3.19536">
        <ele>2</ele>
        <time>2024-03-29T13:09:40.500Z</time>
      </trkpt>
      <trkpt lat="43.19127" lon="3.19538">
        <ele>2</ele>
        <time>2024-03-29T13:09:45.500Z</time>
      </trkpt>
      <trkpt lat="43.19123" lon="3.19542">
        <ele>1</ele>
        <time>2024-03-29T13:09:50.500Z</time>
      </trkpt>
      <trkpt lat="43.19119" lon="3.19547">
        <ele>1</ele>
        <time>2024-03-29T13:09:55.500Z</time>
      </trkpt>
      <trkpt lat="43.19115" lon="3.19552">
        <ele>1</ele>
        <time>2024-03-29T13:10:00.500Z</time>
      </trkpt>
      <trkpt lat="43.1911" lon="3.19554">
        <ele>1</ele>
        <time>2024-03-29T13:10:05.500Z</time>
      </trkpt>
      <trkpt lat="43.19106" lon="3.19554">
        <ele>1</ele>
        <time>2024-03-29T13:10:09.500Z</time>
      </trkpt>
      <trkpt lat="43.191" lon="3.19555">
        <ele>1</ele>
        <time>2024-03-29T13:10:14.500Z</time>
      </trkpt>
      <trkpt lat="43.19095" lon="3.19554">
        <ele>1.1</ele>
        <time>2024-03-29T13:10:19.500Z</time>
      </trkpt>
      <trkpt lat="43.19092" lon="3.19555">
        <ele>1.1</ele>
        <time>2024-03-29T13:10:23.500Z</time>
      </trkpt>
      <trkpt lat="43.19088" lon="3.19554">
        <ele>1.1</ele>
        <time>2024-03-29T13:10:28.500Z</time>
      </trkpt>
      <trkpt lat="43.19083" lon="3.19555">
        <ele>1.1</ele>
        <time>2024-03-29T13:10:33.500Z</time>
      </trkpt>
      <trkpt lat="43.19076" lon="3.1955">
        <ele>1.5</ele>
        <time>2024-03-29T13:10:38.500Z</time>
      </trkpt>
      <trkpt lat="43.19069" lon="3.19545">
        <ele>1.8</ele>
        <time>2024-03-29T13:10:43.500Z</time>
      </trkpt>
      <trkpt lat="43.19064" lon="3.19546">
        <ele>1.5</ele>
        <time>2024-03-29T13:10:47.500Z</time>
      </trkpt>
      <trkpt lat="43.19059" lon="3.19551">
        <ele>1.2</ele>
        <time>2024-03-29T13:10:52.500Z</time>
      </trkpt>
      <trkpt lat="43.19055" lon="3.19556">
        <ele>1.1</ele>
        <time>2024-03-29T13:10:56.500Z</time>
      </trkpt>
      <trkpt lat="43.19049" lon="3.19562">
        <ele>1.6</ele>
        <time>2024-03-29T13:11:01.500Z</time>
      </trkpt>
      <trkpt lat="43.19045" lon="3.19569">
        <ele>1.8</ele>
        <time>2024-03-29T13:11:06.500Z</time>
      </trkpt>
      <trkpt lat="43.19044" lon="3.19577">
        <ele>-2</ele>
        <time>2024-03-29T13:11:11.500Z</time>
      </trkpt>
      <trkpt lat="43.1904" lon="3.19583">
        <ele>1.6</ele>
        <time>2024-03-29T13:11:16.500Z</time>
      </trkpt>
      <trkpt lat="43.19037" lon="3.19588">
        <ele>1.6</ele>
        <time>2024-03-29T13:11:21.500Z</time>
      </trkpt>
      <trkpt lat="43.19033" lon="3.19595">
        <ele>1.5</ele>
        <time>2024-03-29T13:11:26.500Z</time>
      </trkpt>
      <trkpt lat="43.1903" lon="3.19602">
        <ele>-1</ele>
        <time>2024-03-29T13:11:31.500Z</time>
      </trkpt>
      <trkpt lat="43.19027" lon="3.19606">
        <ele>-1</ele>
        <time>2024-03-29T13:11:35.500Z</time>
      </trkpt>
      <trkpt lat="43.19021" lon="3.1961">
        <ele>-1</ele>
        <time>2024-03-29T13:11:40.500Z</time>
      </trkpt>
      <trkpt lat="43.19018" lon="3.19615">
        <ele>-1</ele>
        <time>2024-03-29T13:11:44.500Z</time>
      </trkpt>
      <trkpt lat="43.19015" lon="3.19618">
        <ele>-1</ele>
        <time>2024-03-29T13:11:48.500Z</time>
      </trkpt>
      <trkpt lat="43.19012" lon="3.19622">
        <ele>1</ele>
        <time>2024-03-29T13:11:53.500Z</time>
      </trkpt>
      <trkpt lat="43.19008" lon="3.19627">
        <ele>1</ele>
        <time>2024-03-29T13:11:58.500Z</time>
      </trkpt>
      <trkpt lat="43.19004" lon="3.19634">
        <ele>1</ele>
        <time>2024-03-29T13:12:03.500Z</time>
      </trkpt>
      <trkpt lat="43.19003" lon="3.19641">
        <ele>1</ele>
        <time>2024-03-29T13:12:08.500Z</time>
      </trkpt>
      <trkpt lat="43.19003" lon="3.19645">
        <ele>1</ele>
        <time>2024-03-29T13:12:13.500Z</time>
      </trkpt>
      <trkpt lat="43.19005" lon="3.19657">
        <ele>1</ele>
        <time>2024-03-29T13:12:18.500Z</time>
      </trkpt>
      <trkpt lat="43.19008" lon="3.19666">
        <ele>1</ele>
        <time>2024-03-29T13:12:23.500Z</time>
      </trkpt>
      <trkpt lat="43.19006" lon="3.19674">
        <ele>1</ele>
        <time>2024-03-29T13:12:28.500Z</time>
      </trkpt>
      <trkpt lat="43.19006" lon="3.19679">
        <ele>1</ele>
        <time>2024-03-29T13:12:32.500Z</time>
      </trkpt>
      <trkpt lat="43.19005" lon="3.19687">
        <ele>1</ele>
        <time>2024-03-29T13:12:37.500Z</time>
      </trkpt>
      <trkpt lat="43.19004" lon="3.19694">
        <ele>1</ele>
        <time>2024-03-29T13:12:41.500Z</time>
      </trkpt>
      <trkpt lat="43.19005" lon="3.19703">
        <ele>1</ele>
        <time>2024-03-29T13:12:46.500Z</time>
      </trkpt>
      <trkpt lat="43.19008" lon="3.19708">
        <ele>1</ele>
        <time>2024-03-29T13:12:50.500Z</time>
      </trkpt>
      <trkpt lat="43.19013" lon="3.19712">
        <ele>2</ele>
        <time>2024-03-29T13:12:55.500Z</time>
      </trkpt>
      <trkpt lat="43.19018" lon="3.19714">
        <ele>2</ele>
        <time>2024-03-29T13:13:00.500Z</time>
      </trkpt>
      <trkpt lat="43.19022" lon="3.19719">
        <ele>2</ele>
        <time>2024-03-29T13:13:05.500Z</time>
      </trkpt>
      <trkpt lat="43.19026" lon="3.19723">
        <ele>2</ele>
        <time>2024-03-29T13:13:10.500Z</time>
      </trkpt>
      <trkpt lat="43.1903" lon="3.19728">
        <ele>2</ele>
        <time>2024-03-29T13:13:15.500Z</time>
      </trkpt>
      <trkpt lat="43.19033" lon="3.19733">
        <ele>2</ele>
        <time>2024-03-29T13:13:19.500Z</time>
      </trkpt>
      <trkpt lat="43.19032" lon="3.19739">
        <ele>3</ele>
        <time>2024-03-29T13:13:24.500Z</time>
      </trkpt>
      <trkpt lat="43.19029" lon="3.19745">
        <ele>3</ele>
        <time>2024-03-29T13:13:29.500Z</time>
      </trkpt>
      <trkpt lat="43.19025" lon="3.19751">
        <ele>3</ele>
        <time>2024-03-29T13:13:34.500Z</time>
      </trkpt>
      <trkpt lat="43.19022" lon="3.19755">
        <ele>3</ele>
        <time>2024-03-29T13:13:38.500Z</time>
      </trkpt>
      <trkpt lat="43.19017" lon="3.1976">
        <ele>3</ele>
        <time>2024-03-29T13:13:43.500Z</time>
      </trkpt>
      <trkpt lat="43.19012" lon="3.19765">
        <ele>2</ele>
        <time>2024-03-29T13:13:48.500Z</time>
      </trkpt>
      <trkpt lat="43.19008" lon="3.19771">
        <ele>2</ele>
        <time>2024-03-29T13:13:53.500Z</time>
      </trkpt>
      <trkpt lat="43.19003" lon="3.19777">
        <ele>2</ele>
        <time>2024-03-29T13:13:58.500Z</time>
      </trkpt>
      <trkpt lat="43.19" lon="3.19783">
        <ele>2</ele>
        <time>2024-03-29T13:14:03.500Z</time>
      </trkpt>
      <trkpt lat="43.18995" lon="3.19789">
        <ele>2</ele>
        <time>2024-03-29T13:14:08.500Z</time>
      </trkpt>
      <trkpt lat="43.18991" lon="3.19796">
        <ele>2</ele>
        <time>2024-03-29T13:14:13.500Z</time>
      </trkpt>
      <trkpt lat="43.18986" lon="3.19802">
        <ele>1</ele>
        <time>2024-03-29T13:14:18.500Z</time>
      </trkpt>
      <trkpt lat="43.18982" lon="3.19807">
        <ele>1</ele>
        <time>2024-03-29T13:14:23.500Z</time>
      </trkpt>
      <trkpt lat="43.18977" lon="3.19812">
        <ele>1</ele>
        <time>2024-03-29T13:14:28.500Z</time>
      </trkpt>
      <trkpt lat="43.18973" lon="3.19818">
        <ele>1</ele>
        <time>2024-03-29T13:14:33.500Z</time>
      </trkpt>
      <trkpt lat="43.18971" lon="3.19823">
        <ele>1</ele>
        <time>2024-03-29T13:14:37.500Z</time>
      </trkpt>
      <trkpt lat="43.18967" lon="3.19829">
        <ele>1</ele>
        <time>2024-03-29T13:14:42.500Z</time>
      </trkpt>
      <trkpt lat="43.18961" lon="3.19834">
        <ele>1</ele>
        <time>2024-03-29T13:14:47.500Z</time>
      </trkpt>
      <trkpt lat="43.18958" lon="3.19841">
        <ele>1</ele>
        <time>2024-03-29T13:14:52.500Z</time>
      </trkpt>
      <trkpt lat="43.18954" lon="3.19846">
        <ele>1</ele>
        <time>2024-03-29T13:14:57.501Z</time>
      </trkpt>
      <trkpt lat="43.1895" lon="3.1985">
        <ele>1</ele>
        <time>2024-03-29T13:15:01.501Z</time>
      </trkpt>
      <trkpt lat="43.18947" lon="3.19857">
        <ele>1</ele>
        <time>2024-03-29T13:15:06.501Z</time>
      </trkpt>
      <trkpt lat="43.18943" lon="3.19864">
        <ele>1</ele>
        <time>2024-03-29T13:15:11.501Z</time>
      </trkpt>
      <trkpt lat="43.18939" lon="3.19871">
        <ele>1</ele>
        <time>2024-03-29T13:15:16.501Z</time>
      </trkpt>
      <trkpt lat="43.18936" lon="3.19879">
        <ele>2</ele>
        <time>2024-03-29T13:15:21.501Z</time>
      </trkpt>
      <trkpt lat="43.18932" lon="3.19884">
        <ele>2</ele>
        <time>2024-03-29T13:15:26.501Z</time>
      </trkpt>
      <trkpt lat="43.18929" lon="3.19888">
        <ele>2</ele>
        <time>2024-03-29T13:15:30.501Z</time>
      </trkpt>
      <trkpt lat="43.18925" lon="3.19893">
        <ele>2</ele>
        <time>2024-03-29T13:15:35.501Z</time>
      </trkpt>
      <trkpt lat="43.18921" lon="3.19899">
        <ele>2</ele>
        <time>2024-03-29T13:15:40.501Z</time>
      </trkpt>
      <trkpt lat="43.18917" lon="3.19904">
        <ele>3</ele>
        <time>2024-03-29T13:15:45.501Z</time>
      </trkpt>
      <trkpt lat="43.18913" lon="3.19911">
        <ele>3</ele>
        <time>2024-03-29T13:15:50.501Z</time>
      </trkpt>
      <trkpt lat="43.18909" lon="3.19917">
        <ele>3</ele>
        <time>2024-03-29T13:15:55.501Z</time>
      </trkpt>
      <trkpt lat="43.18905" lon="3.19923">
        <ele>3</ele>
        <time>2024-03-29T13:16:00.501Z</time>
      </trkpt>
      <trkpt lat="43.18902" lon="3.19927">
        <ele>3</ele>
        <time>2024-03-29T13:16:05.501Z</time>
      </trkpt>
      <trkpt lat="43.18897" lon="3.19932">
        <ele>4</ele>
        <time>2024-03-29T13:16:10.501Z</time>
      </trkpt>
      <trkpt lat="43.18893" lon="3.19937">
        <ele>4</ele>
        <time>2024-03-29T13:16:15.501Z</time>
      </trkpt>
      <trkpt lat="43.18889" lon="3.19943">
        <ele>4</ele>
        <time>2024-03-29T13:16:20.501Z</time>
      </trkpt>
      <trkpt lat="43.18885" lon="3.19949">
        <ele>4</ele>
        <time>2024-03-29T13:16:25.501Z</time>
      </trkpt>
      <trkpt lat="43.18881" lon="3.19955">
        <ele>4</ele>
        <time>2024-03-29T13:16:30.501Z</time>
      </trkpt>
      <trkpt lat="43.18877" lon="3.19961">
        <ele>4</ele>
        <time>2024-03-29T13:16:35.501Z</time>
      </trkpt>
      <trkpt lat="43.18873" lon="3.19966">
        <ele>3</ele>
        <time>2024-03-29T13:16:40.501Z</time>
      </trkpt>
      <trkpt lat="43.18869" lon="3.19972">
        <ele>3</ele>
        <time>2024-03-29T13:16:45.501Z</time>
      </trkpt>
      <trkpt lat="43.18865" lon="3.19978">
        <ele>3</ele>
        <time>2024-03-29T13:16:50.501Z</time>
      </trkpt>
      <trkpt lat="43.1886" lon="3.19983">
        <ele>3</ele>
        <time>2024-03-29T13:16:55.501Z</time>
      </trkpt>
      <trkpt lat="43.18857" lon="3.1999">
        <ele>3</ele>
        <time>2024-03-29T13:17:00.501Z</time>
      </trkpt>
      <trkpt lat="43.18854" lon="3.19994">
        <ele>3</ele>
        <time>2024-03-29T13:17:04.501Z</time>
      </trkpt>
      <trkpt lat="43.1885" lon="3.2">
        <ele>3</ele>
        <time>2024-03-29T13:17:09.501Z</time>
      </trkpt>
      <trkpt lat="43.18846" lon="3.20006">
        <ele>2</ele>
        <time>2024-03-29T13:17:14.501Z</time>
      </trkpt>
      <trkpt lat="43.18842" lon="3.20012">
        <ele>2</ele>
        <time>2024-03-29T13:17:19.501Z</time>
      </trkpt>
      <trkpt lat="43.18838" lon="3.20017">
        <ele>2</ele>
        <time>2024-03-29T13:17:24.501Z</time>
      </trkpt>
      <trkpt lat="43.18833" lon="3.20024">
        <ele>2</ele>
        <time>2024-03-29T13:17:29.501Z</time>
      </trkpt>
      <trkpt lat="43.1883" lon="3.2003">
        <ele>2</ele>
        <time>2024-03-29T13:17:34.501Z</time>
      </trkpt>
      <trkpt lat="43.18827" lon="3.20034">
        <ele>2</ele>
        <time>2024-03-29T13:17:38.501Z</time>
      </trkpt>
      <trkpt lat="43.18822" lon="3.20038">
        <ele>2</ele>
        <time>2024-03-29T13:17:43.501Z</time>
      </trkpt>
      <trkpt lat="43.18817" lon="3.20044">
        <ele>1.3</ele>
        <time>2024-03-29T13:17:48.501Z</time>
      </trkpt>
      <trkpt lat="43.18813" lon="3.2005">
        <ele>1.2</ele>
        <time>2024-03-29T13:17:53.501Z</time>
      </trkpt>
      <trkpt lat="43.18812" lon="3.20056">
        <ele>1</ele>
        <time>2024-03-29T13:17:57.501Z</time>
      </trkpt>
      <trkpt lat="43.1881" lon="3.20064">
        <ele>1.3</ele>
        <time>2024-03-29T13:18:02.501Z</time>
      </trkpt>
      <trkpt lat="43.18811" lon="3.20071">
        <ele>1</ele>
        <time>2024-03-29T13:18:06.501Z</time>
      </trkpt>
      <trkpt lat="43.18815" lon="3.20077">
        <ele>1</ele>
        <time>2024-03-29T13:18:11.501Z</time>
      </trkpt>
      <trkpt lat="43.1882" lon="3.20082">
        <ele>2</ele>
        <time>2024-03-29T13:18:16.501Z</time>
      </trkpt>
      <trkpt lat="43.18824" lon="3.20086">
        <ele>2</ele>
        <time>2024-03-29T13:18:21.501Z</time>
      </trkpt>
      <trkpt lat="43.18828" lon="3.2009">
        <ele>2</ele>
        <time>2024-03-29T13:18:25.501Z</time>
      </trkpt>
      <trkpt lat="43.18831" lon="3.20096">
        <ele>2</ele>
        <time>2024-03-29T13:18:30.501Z</time>
      </trkpt>
      <trkpt lat="43.18836" lon="3.201">
        <ele>1.5</ele>
        <time>2024-03-29T13:18:35.501Z</time>
      </trkpt>
      <trkpt lat="43.1884" lon="3.20106">
        <ele>1.6</ele>
        <time>2024-03-29T13:18:40.501Z</time>
      </trkpt>
      <trkpt lat="43.18844" lon="3.20111">
        <ele>1.6</ele>
        <time>2024-03-29T13:18:45.501Z</time>
      </trkpt>
      <trkpt lat="43.18849" lon="3.20116">
        <ele>1.4</ele>
        <time>2024-03-29T13:18:50.501Z</time>
      </trkpt>
      <trkpt lat="43.18853" lon="3.2012">
        <ele>1.3</ele>
        <time>2024-03-29T13:18:55.501Z</time>
      </trkpt>
      <trkpt lat="43.18856" lon="3.20125">
        <ele>1.2</ele>
        <time>2024-03-29T13:18:59.501Z</time>
      </trkpt>
      <trkpt lat="43.18861" lon="3.20129">
        <ele>1</ele>
        <time>2024-03-29T13:19:04.501Z</time>
      </trkpt>
      <trkpt lat="43.18864" lon="3.20131">
        <ele>1</ele>
        <time>2024-03-29T13:19:08.501Z</time>
      </trkpt>
      <trkpt lat="43.18867" lon="3.20136">
        <ele>1</ele>
        <time>2024-03-29T13:19:13.501Z</time>
      </trkpt>
      <trkpt lat="43.1887" lon="3.20141">
        <ele>1.1</ele>
        <time>2024-03-29T13:19:17.501Z</time>
      </trkpt>
      <trkpt lat="43.18872" lon="3.20148">
        <ele>1.3</ele>
        <time>2024-03-29T13:19:22.501Z</time>
      </trkpt>
      <trkpt lat="43.18874" lon="3.20157">
        <ele>1.6</ele>
        <time>2024-03-29T13:19:27.501Z</time>
      </trkpt>
      <trkpt lat="43.18876" lon="3.20164">
        <ele>1.9</ele>
        <time>2024-03-29T13:19:32.501Z</time>
      </trkpt>
      <trkpt lat="43.18877" lon="3.20173">
        <ele>1.9</ele>
        <time>2024-03-29T13:19:37.501Z</time>
      </trkpt>
      <trkpt lat="43.18879" lon="3.20179">
        <ele>1.7</ele>
        <time>2024-03-29T13:19:41.501Z</time>
      </trkpt>
      <trkpt lat="43.18883" lon="3.20186">
        <ele>1.5</ele>
        <time>2024-03-29T13:19:46.501Z</time>
      </trkpt>
      <trkpt lat="43.18884" lon="3.20193">
        <ele>1.2</ele>
        <time>2024-03-29T13:19:51.501Z</time>
      </trkpt>
      <trkpt lat="43.18888" lon="3.20197">
        <ele>1.1</ele>
        <time>2024-03-29T13:19:56.501Z</time>
      </trkpt>
      <trkpt lat="43.18891" lon="3.20203">
        <ele>1.3</ele>
        <time>2024-03-29T13:20:00.501Z</time>
      </trkpt>
      <trkpt lat="43.18895" lon="3.20205">
        <ele>1.3</ele>
        <time>2024-03-29T13:20:05.501Z</time>
      </trkpt>
      <trkpt lat="43.189" lon="3.20208">
        <ele>1.3</ele>
        <time>2024-03-29T13:20:10.501Z</time>
      </trkpt>
      <trkpt lat="43.18902" lon="3.20215">
        <ele>1.4</ele>
        <time>2024-03-29T13:20:15.501Z</time>
      </trkpt>
      <trkpt lat="43.18905" lon="3.2022">
        <ele>1.4</ele>
        <time>2024-03-29T13:20:19.501Z</time>
      </trkpt>
      <trkpt lat="43.18909" lon="3.20228">
        <ele>1.4</ele>
        <time>2024-03-29T13:20:24.501Z</time>
      </trkpt>
      <trkpt lat="43.18911" lon="3.20237">
        <ele>1.5</ele>
        <time>2024-03-29T13:20:29.501Z</time>
      </trkpt>
      <trkpt lat="43.18911" lon="3.20242">
        <ele>1.6</ele>
        <time>2024-03-29T13:20:33.501Z</time>
      </trkpt>
      <trkpt lat="43.18915" lon="3.20249">
        <ele>1.9</ele>
        <time>2024-03-29T13:20:38.501Z</time>
      </trkpt>
      <trkpt lat="43.18919" lon="3.20255">
        <ele>2</ele>
        <time>2024-03-29T13:20:43.501Z</time>
      </trkpt>
      <trkpt lat="43.18922" lon="3.20262">
        <ele>1.9</ele>
        <time>2024-03-29T13:20:48.501Z</time>
      </trkpt>
      <trkpt lat="43.18923" lon="3.2027">
        <ele>1.8</ele>
        <time>2024-03-29T13:20:53.501Z</time>
      </trkpt>
      <trkpt lat="43.18926" lon="3.20276">
        <ele>1.7</ele>
        <time>2024-03-29T13:20:58.501Z</time>
      </trkpt>
      <trkpt lat="43.18929" lon="3.20282">
        <ele>1.6</ele>
        <time>2024-03-29T13:21:03.501Z</time>
      </trkpt>
      <trkpt lat="43.18931" lon="3.20289">
        <ele>1.5</ele>
        <time>2024-03-29T13:21:08.501Z</time>
      </trkpt>
      <trkpt lat="43.18935" lon="3.20295">
        <ele>1.4</ele>
        <time>2024-03-29T13:21:13.501Z</time>
      </trkpt>
      <trkpt lat="43.18938" lon="3.203">
        <ele>1.2</ele>
        <time>2024-03-29T13:21:18.501Z</time>
      </trkpt>
      <trkpt lat="43.18942" lon="3.20305">
        <ele>1.1</ele>
        <time>2024-03-29T13:21:23.501Z</time>
      </trkpt>
      <trkpt lat="43.18947" lon="3.20309">
        <ele>1.1</ele>
        <time>2024-03-29T13:21:28.501Z</time>
      </trkpt>
      <trkpt lat="43.1895" lon="3.20315">
        <ele>1.3</ele>
        <time>2024-03-29T13:21:33.501Z</time>
      </trkpt>
      <trkpt lat="43.18951" lon="3.20322">
        <ele>1.6</ele>
        <time>2024-03-29T13:21:38.501Z</time>
      </trkpt>
      <trkpt lat="43.18954" lon="3.20329">
        <ele>1.8</ele>
        <time>2024-03-29T13:21:43.501Z</time>
      </trkpt>
      <trkpt lat="43.18957" lon="3.20332">
        <ele>2</ele>
        <time>2024-03-29T13:21:47.501Z</time>
      </trkpt>
      <trkpt lat="43.18962" lon="3.20337">
        <ele>1.9</ele>
        <time>2024-03-29T13:21:52.501Z</time>
      </trkpt>
      <trkpt lat="43.18964" lon="3.20343">
        <ele>1.6</ele>
        <time>2024-03-29T13:21:57.501Z</time>
      </trkpt>
      <trkpt lat="43.18966" lon="3.20348">
        <ele>1.5</ele>
        <time>2024-03-29T13:22:01.501Z</time>
      </trkpt>
      <trkpt lat="43.18968" lon="3.20355">
        <ele>1.2</ele>
        <time>2024-03-29T13:22:06.501Z</time>
      </trkpt>
      <trkpt lat="43.18971" lon="3.20359">
        <ele>1.1</ele>
        <time>2024-03-29T13:22:10.501Z</time>
      </trkpt>
      <trkpt lat="43.18974" lon="3.20364">
        <ele>1</ele>
        <time>2024-03-29T13:22:15.501Z</time>
      </trkpt>
      <trkpt lat="43.18977" lon="3.20369">
        <ele>1</ele>
        <time>2024-03-29T13:22:19.501Z</time>
      </trkpt>
      <trkpt lat="43.18981" lon="3.20373">
        <ele>1</ele>
        <time>2024-03-29T13:22:24.501Z</time>
      </trkpt>
      <trkpt lat="43.18982" lon="3.20378">
        <ele>1</ele>
        <time>2024-03-29T13:22:29.501Z</time>
      </trkpt>
      <trkpt lat="43.18983" lon="3.20384">
        <ele>1</ele>
        <time>2024-03-29T13:22:34.501Z</time>
      </trkpt>
      <trkpt lat="43.18985" lon="3.2039">
        <ele>1</ele>
        <time>2024-03-29T13:22:39.501Z</time>
      </trkpt>
      <trkpt lat="43.18986" lon="3.20396">
        <ele>1.1</ele>
        <time>2024-03-29T13:22:44.501Z</time>
      </trkpt>
      <trkpt lat="43.18988" lon="3.204">
        <ele>1.2</ele>
        <time>2024-03-29T13:22:49.501Z</time>
      </trkpt>
      <trkpt lat="43.18992" lon="3.20409">
        <ele>1.2</ele>
        <time>2024-03-29T13:23:47.501Z</time>
      </trkpt>
      <trkpt lat="43.18989" lon="3.20411">
        <ele>1.3</ele>
        <time>2024-03-29T13:23:52.501Z</time>
      </trkpt>
      <trkpt lat="43.18985" lon="3.20416">
        <ele>1.5</ele>
        <time>2024-03-29T13:23:57.501Z</time>
      </trkpt>
      <trkpt lat="43.18982" lon="3.20421">
        <ele>1.5</ele>
        <time>2024-03-29T13:24:01.501Z</time>
      </trkpt>
      <trkpt lat="43.18983" lon="3.20428">
        <ele>1.4</ele>
        <time>2024-03-29T13:24:06.501Z</time>
      </trkpt>
      <trkpt lat="43.18981" lon="3.20429">
        <ele>1.4</ele>
        <time>2024-03-29T13:24:11.501Z</time>
      </trkpt>
      <trkpt lat="43.18978" lon="3.20431">
        <ele>1.4</ele>
        <time>2024-03-29T13:24:15.501Z</time>
      </trkpt>
      <trkpt lat="43.18973" lon="3.20432">
        <ele>1.4</ele>
        <time>2024-03-29T13:24:20.501Z</time>
      </trkpt>
      <trkpt lat="43.18969" lon="3.20431">
        <ele>1.4</ele>
        <time>2024-03-29T13:24:25.501Z</time>
      </trkpt>
      <trkpt lat="43.18964" lon="3.20429">
        <ele>1.4</ele>
        <time>2024-03-29T13:24:30.501Z</time>
      </trkpt>
      <trkpt lat="43.18959" lon="3.20427">
        <ele>1.3</ele>
        <time>2024-03-29T13:24:35.501Z</time>
      </trkpt>
      <trkpt lat="43.18954" lon="3.20424">
        <ele>1.2</ele>
        <time>2024-03-29T13:24:40.501Z</time>
      </trkpt>
      <trkpt lat="43.1895" lon="3.20418">
        <ele>1.2</ele>
        <time>2024-03-29T13:24:45.501Z</time>
      </trkpt>
      <trkpt lat="43.18947" lon="3.20413">
        <ele>1.1</ele>
        <time>2024-03-29T13:24:50.501Z</time>
      </trkpt>
      <trkpt lat="43.18942" lon="3.20412">
        <ele>1</ele>
        <time>2024-03-29T13:24:55.501Z</time>
      </trkpt>
      <trkpt lat="43.18938" lon="3.20414">
        <ele>1</ele>
        <time>2024-03-29T13:25:00.501Z</time>
      </trkpt>
      <trkpt lat="43.18933" lon="3.20415">
        <ele>1</ele>
        <time>2024-03-29T13:25:05.501Z</time>
      </trkpt>
      <trkpt lat="43.18927" lon="3.20414">
        <ele>1.1</ele>
        <time>2024-03-29T13:25:10.501Z</time>
      </trkpt>
      <trkpt lat="43.18921" lon="3.20413">
        <ele>1.1</ele>
        <time>2024-03-29T13:25:15.501Z</time>
      </trkpt>
      <trkpt lat="43.18916" lon="3.20412">
        <ele>1.2</ele>
        <time>2024-03-29T13:25:20.501Z</time>
      </trkpt>
      <trkpt lat="43.18912" lon="3.20409">
        <ele>1.2</ele>
        <time>2024-03-29T13:25:25.501Z</time>
      </trkpt>
      <trkpt lat="43.18907" lon="3.20407">
        <ele>1.2</ele>
        <time>2024-03-29T13:25:30.501Z</time>
      </trkpt>
      <trkpt lat="43.18904" lon="3.20406">
        <ele>1.2</ele>
        <time>2024-03-29T13:25:35.502Z</time>
      </trkpt>
      <trkpt lat="43.189" lon="3.20403">
        <ele>1.2</ele>
        <time>2024-03-29T13:25:40.502Z</time>
      </trkpt>
      <trkpt lat="43.18895" lon="3.20401">
        <ele>1.1</ele>
        <time>2024-03-29T13:25:44.502Z</time>
      </trkpt>
      <trkpt lat="43.1889" lon="3.20399">
        <ele>1</ele>
        <time>2024-03-29T13:25:49.502Z</time>
      </trkpt>
      <trkpt lat="43.18886" lon="3.20396">
        <ele>1</ele>
        <time>2024-03-29T13:25:54.502Z</time>
      </trkpt>
      <trkpt lat="43.18881" lon="3.20392">
        <ele>1</ele>
        <time>2024-03-29T13:25:59.502Z</time>
      </trkpt>
      <trkpt lat="43.18876" lon="3.20388">
        <ele>1</ele>
        <time>2024-03-29T13:26:04.502Z</time>
      </trkpt>
      <trkpt lat="43.18872" lon="3.20386">
        <ele>1</ele>
        <time>2024-03-29T13:26:09.502Z</time>
      </trkpt>
      <trkpt lat="43.18868" lon="3.20382">
        <ele>1.1</ele>
        <time>2024-03-29T13:26:14.502Z</time>
      </trkpt>
      <trkpt lat="43.18863" lon="3.20383">
        <ele>1</ele>
        <time>2024-03-29T13:26:19.502Z</time>
      </trkpt>
      <trkpt lat="43.18859" lon="3.20379">
        <ele>1</ele>
        <time>2024-03-29T13:26:24.502Z</time>
      </trkpt>
      <trkpt lat="43.18854" lon="3.20375">
        <ele>1</ele>
        <time>2024-03-29T13:26:29.502Z</time>
      </trkpt>
      <trkpt lat="43.1885" lon="3.20374">
        <ele>1</ele>
        <time>2024-03-29T13:26:33.502Z</time>
      </trkpt>
      <trkpt lat="43.18845" lon="3.20371">
        <ele>1</ele>
        <time>2024-03-29T13:26:38.502Z</time>
      </trkpt>
      <trkpt lat="43.18839" lon="3.20368">
        <ele>1</ele>
        <time>2024-03-29T13:26:43.502Z</time>
      </trkpt>
      <trkpt lat="43.18834" lon="3.20366">
        <ele>1</ele>
        <time>2024-03-29T13:26:48.502Z</time>
      </trkpt>
      <trkpt lat="43.18831" lon="3.20361">
        <ele>1</ele>
        <time>2024-03-29T13:26:53.502Z</time>
      </trkpt>
      <trkpt lat="43.18831" lon="3.20359">
        <ele>1.1</ele>
        <time>2024-03-29T13:26:58.502Z</time>
      </trkpt>
      <trkpt lat="43.18828" lon="3.20356">
        <ele>1.2</ele>
        <time>2024-03-29T13:27:03.502Z</time>
      </trkpt>
      <trkpt lat="43.18824" lon="3.2035">
        <ele>1.3</ele>
        <time>2024-03-29T13:27:08.502Z</time>
      </trkpt>
      <trkpt lat="43.1882" lon="3.20346">
        <ele>1.3</ele>
        <time>2024-03-29T13:27:13.502Z</time>
      </trkpt>
      <trkpt lat="43.18816" lon="3.20341">
        <ele>1.3</ele>
        <time>2024-03-29T13:27:18.502Z</time>
      </trkpt>
      <trkpt lat="43.18812" lon="3.20337">
        <ele>1.2</ele>
        <time>2024-03-29T13:27:23.502Z</time>
      </trkpt>
      <trkpt lat="43.18808" lon="3.20334">
        <ele>1.1</ele>
        <time>2024-03-29T13:27:28.502Z</time>
      </trkpt>
      <trkpt lat="43.18804" lon="3.20329">
        <ele>1.1</ele>
        <time>2024-03-29T13:27:33.502Z</time>
      </trkpt>
      <trkpt lat="43.18801" lon="3.20325">
        <ele>1.3</ele>
        <time>2024-03-29T13:27:37.502Z</time>
      </trkpt>
      <trkpt lat="43.18798" lon="3.20323">
        <ele>1.3</ele>
        <time>2024-03-29T13:27:41.502Z</time>
      </trkpt>
      <trkpt lat="43.18794" lon="3.20319">
        <ele>1.3</ele>
        <time>2024-03-29T13:27:46.502Z</time>
      </trkpt>
      <trkpt lat="43.1879" lon="3.20317">
        <ele>1.3</ele>
        <time>2024-03-29T13:27:50.502Z</time>
      </trkpt>
      <trkpt lat="43.18785" lon="3.20313">
        <ele>1.2</ele>
        <time>2024-03-29T13:27:54.502Z</time>
      </trkpt>
      <trkpt lat="43.1878" lon="3.20308">
        <ele>1.1</ele>
        <time>2024-03-29T13:27:59.502Z</time>
      </trkpt>
      <trkpt lat="43.18775" lon="3.20305">
        <ele>1</ele>
        <time>2024-03-29T13:28:04.502Z</time>
      </trkpt>
      <trkpt lat="43.18771" lon="3.20303">
        <ele>1.1</ele>
        <time>2024-03-29T13:28:08.502Z</time>
      </trkpt>
      <trkpt lat="43.18767" lon="3.20302">
        <ele>1.1</ele>
        <time>2024-03-29T13:28:13.502Z</time>
      </trkpt>
      <trkpt lat="43.18763" lon="3.20299">
        <ele>1.1</ele>
        <time>2024-03-29T13:28:18.502Z</time>
      </trkpt>
      <trkpt lat="43.18758" lon="3.20293">
        <ele>1.1</ele>
        <time>2024-03-29T13:28:23.502Z</time>
      </trkpt>
      <trkpt lat="43.18754" lon="3.20289">
        <ele>1.1</ele>
        <time>2024-03-29T13:28:28.502Z</time>
      </trkpt>
      <trkpt lat="43.18749" lon="3.20287">
        <ele>1</ele>
        <time>2024-03-29T13:28:33.502Z</time>
      </trkpt>
      <trkpt lat="43.18746" lon="3.20282">
        <ele>1</ele>
        <time>2024-03-29T13:28:38.502Z</time>
      </trkpt>
      <trkpt lat="43.18742" lon="3.20279">
        <ele>1</ele>
        <time>2024-03-29T13:28:43.502Z</time>
      </trkpt>
      <trkpt lat="43.18738" lon="3.20274">
        <ele>1</ele>
        <time>2024-03-29T13:28:47.502Z</time>
      </trkpt>
      <trkpt lat="43.18734" lon="3.20269">
        <ele>1</ele>
        <time>2024-03-29T13:28:52.502Z</time>
      </trkpt>
      <trkpt lat="43.1873" lon="3.20264">
        <ele>1</ele>
        <time>2024-03-29T13:28:57.502Z</time>
      </trkpt>
      <trkpt lat="43.18726" lon="3.2026">
        <ele>1</ele>
        <time>2024-03-29T13:29:02.502Z</time>
      </trkpt>
      <trkpt lat="43.18722" lon="3.20255">
        <ele>1</ele>
        <time>2024-03-29T13:29:06.502Z</time>
      </trkpt>
      <trkpt lat="43.18718" lon="3.2025">
        <ele>1</ele>
        <time>2024-03-29T13:29:11.502Z</time>
      </trkpt>
      <trkpt lat="43.18714" lon="3.20245">
        <ele>1</ele>
        <time>2024-03-29T13:29:16.502Z</time>
      </trkpt>
      <trkpt lat="43.18709" lon="3.20243">
        <ele>1</ele>
        <time>2024-03-29T13:29:21.502Z</time>
      </trkpt>
      <trkpt lat="43.18704" lon="3.20239">
        <ele>2</ele>
        <time>2024-03-29T13:29:26.502Z</time>
      </trkpt>
      <trkpt lat="43.187" lon="3.20233">
        <ele>2</ele>
        <time>2024-03-29T13:29:31.502Z</time>
      </trkpt>
      <trkpt lat="43.18696" lon="3.20229">
        <ele>2</ele>
        <time>2024-03-29T13:29:36.502Z</time>
      </trkpt>
      <trkpt lat="43.18694" lon="3.20227">
        <ele>2</ele>
        <time>2024-03-29T13:29:40.502Z</time>
      </trkpt>
      <trkpt lat="43.18689" lon="3.20227">
        <ele>2</ele>
        <time>2024-03-29T13:29:45.502Z</time>
      </trkpt>
      <trkpt lat="43.18685" lon="3.2023">
        <ele>2</ele>
        <time>2024-03-29T13:29:50.502Z</time>
      </trkpt>
      <trkpt lat="43.18682" lon="3.20232">
        <ele>2</ele>
        <time>2024-03-29T13:29:55.502Z</time>
      </trkpt>
      <trkpt lat="43.1868" lon="3.2023">
        <ele>3</ele>
        <time>2024-03-29T13:30:00.502Z</time>
      </trkpt>
      <trkpt lat="43.1868" lon="3.20227">
        <ele>3</ele>
        <time>2024-03-29T13:30:05.502Z</time>
      </trkpt>
      <trkpt lat="43.1868" lon="3.20227">
        <ele>3</ele>
        <time>2024-03-29T13:30:10.502Z</time>
      </trkpt>
      <trkpt lat="43.18679" lon="3.20224">
        <ele>3</ele>
        <time>2024-03-29T13:30:19.502Z</time>
      </trkpt>
      <trkpt lat="43.18674" lon="3.20219">
        <ele>3</ele>
        <time>2024-03-29T13:30:24.502Z</time>
      </trkpt>
      <trkpt lat="43.18671" lon="3.20217">
        <ele>3</ele>
        <time>2024-03-29T13:30:29.502Z</time>
      </trkpt>
      <trkpt lat="43.18667" lon="3.20212">
        <ele>3</ele>
        <time>2024-03-29T13:30:34.502Z</time>
      </trkpt>
      <trkpt lat="43.18662" lon="3.20207">
        <ele>1</ele>
        <time>2024-03-29T13:30:38.502Z</time>
      </trkpt>
      <trkpt lat="43.18657" lon="3.20201">
        <ele>1</ele>
        <time>2024-03-29T13:30:43.502Z</time>
      </trkpt>
      <trkpt lat="43.18653" lon="3.20195">
        <ele>1</ele>
        <time>2024-03-29T13:30:48.502Z</time>
      </trkpt>
      <trkpt lat="43.18649" lon="3.20191">
        <ele>3</ele>
        <time>2024-03-29T13:30:53.502Z</time>
      </trkpt>
      <trkpt lat="43.18644" lon="3.20186">
        <ele>3</ele>
        <time>2024-03-29T13:30:58.502Z</time>
      </trkpt>
      <trkpt lat="43.1864" lon="3.2018">
        <ele>1</ele>
        <time>2024-03-29T13:31:03.502Z</time>
      </trkpt>
      <trkpt lat="43.18637" lon="3.20176">
        <ele>1</ele>
        <time>2024-03-29T13:31:07.502Z</time>
      </trkpt>
      <trkpt lat="43.18635" lon="3.20171">
        <ele>1</ele>
        <time>2024-03-29T13:31:11.502Z</time>
      </trkpt>
      <trkpt lat="43.1863" lon="3.20167">
        <ele>1</ele>
        <time>2024-03-29T13:31:16.502Z</time>
      </trkpt>
      <trkpt lat="43.18625" lon="3.20162">
        <ele>1</ele>
        <time>2024-03-29T13:31:21.502Z</time>
      </trkpt>
      <trkpt lat="43.18621" lon="3.20156">
        <ele>5</ele>
        <time>2024-03-29T13:31:26.502Z</time>
      </trkpt>
      <trkpt lat="43.18617" lon="3.20151">
        <ele>2</ele>
        <time>2024-03-29T13:31:31.502Z</time>
      </trkpt>
      <trkpt lat="43.18613" lon="3.20146">
        <ele>2</ele>
        <time>2024-03-29T13:31:36.502Z</time>
      </trkpt>
      <trkpt lat="43.1861" lon="3.20139">
        <ele>2</ele>
        <time>2024-03-29T13:31:41.502Z</time>
      </trkpt>
      <trkpt lat="43.18606" lon="3.20133">
        <ele>2</ele>
        <time>2024-03-29T13:31:46.502Z</time>
      </trkpt>
      <trkpt lat="43.18601" lon="3.20128">
        <ele>2</ele>
        <time>2024-03-29T13:31:51.502Z</time>
      </trkpt>
      <trkpt lat="43.18597" lon="3.20122">
        <ele>2</ele>
        <time>2024-03-29T13:31:56.502Z</time>
      </trkpt>
      <trkpt lat="43.18592" lon="3.20116">
        <ele>2</ele>
        <time>2024-03-29T13:32:01.502Z</time>
      </trkpt>
      <trkpt lat="43.1859" lon="3.20112">
        <ele>2</ele>
        <time>2024-03-29T13:32:05.502Z</time>
      </trkpt>
      <trkpt lat="43.18585" lon="3.20106">
        <ele>2</ele>
        <time>2024-03-29T13:32:10.502Z</time>
      </trkpt>
      <trkpt lat="43.18581" lon="3.20101">
        <ele>2</ele>
        <time>2024-03-29T13:32:15.502Z</time>
      </trkpt>
      <trkpt lat="43.18578" lon="3.20097">
        <ele>2</ele>
        <time>2024-03-29T13:32:19.502Z</time>
      </trkpt>
      <trkpt lat="43.18573" lon="3.20092">
        <ele>2</ele>
        <time>2024-03-29T13:32:24.502Z</time>
      </trkpt>
      <trkpt lat="43.1857" lon="3.20089">
        <ele>2</ele>
        <time>2024-03-29T13:32:28.502Z</time>
      </trkpt>
      <trkpt lat="43.18566" lon="3.20085">
        <ele>4</ele>
        <time>2024-03-29T13:32:33.502Z</time>
      </trkpt>
      <trkpt lat="43.18562" lon="3.20079">
        <ele>4</ele>
        <time>2024-03-29T13:32:38.502Z</time>
      </trkpt>
      <trkpt lat="43.18554" lon="3.2007">
        <ele>4</ele>
        <time>2024-03-29T13:32:43.502Z</time>
      </trkpt>
      <trkpt lat="43.1855" lon="3.20064">
        <ele>4</ele>
        <time>2024-03-29T13:32:47.502Z</time>
      </trkpt>
      <trkpt lat="43.18546" lon="3.20057">
        <ele>4</ele>
        <time>2024-03-29T13:32:52.502Z</time>
      </trkpt>
      <trkpt lat="43.18541" lon="3.20052">
        <ele>8</ele>
        <time>2024-03-29T13:32:57.502Z</time>
      </trkpt>
      <trkpt lat="43.18536" lon="3.20045">
        <ele>8</ele>
        <time>2024-03-29T13:33:02.502Z</time>
      </trkpt>
      <trkpt lat="43.18531" lon="3.20037">
        <ele>7</ele>
        <time>2024-03-29T13:33:07.502Z</time>
      </trkpt>
      <trkpt lat="43.18527" lon="3.20032">
        <ele>7</ele>
        <time>2024-03-29T13:33:12.502Z</time>
      </trkpt>
      <trkpt lat="43.18524" lon="3.2003">
        <ele>7</ele>
        <time>2024-03-29T13:33:17.502Z</time>
      </trkpt>
      <trkpt lat="43.1852" lon="3.20025">
        <ele>7</ele>
        <time>2024-03-29T13:33:22.502Z</time>
      </trkpt>
      <trkpt lat="43.18515" lon="3.20017">
        <ele>7</ele>
        <time>2024-03-29T13:33:27.502Z</time>
      </trkpt>
      <trkpt lat="43.18511" lon="3.20011">
        <ele>7</ele>
        <time>2024-03-29T13:33:31.502Z</time>
      </trkpt>
      <trkpt lat="43.18506" lon="3.20005">
        <ele>7</ele>
        <time>2024-03-29T13:33:36.502Z</time>
      </trkpt>
      <trkpt lat="43.18502" lon="3.19999">
        <ele>7</ele>
        <time>2024-03-29T13:33:41.503Z</time>
      </trkpt>
      <trkpt lat="43.18498" lon="3.19993">
        <ele>7</ele>
        <time>2024-03-29T13:33:46.503Z</time>
      </trkpt>
      <trkpt lat="43.18495" lon="3.19988">
        <ele>7</ele>
        <time>2024-03-29T13:33:51.503Z</time>
      </trkpt>
      <trkpt lat="43.1849" lon="3.19983">
        <ele>5</ele>
        <time>2024-03-29T13:33:56.503Z</time>
      </trkpt>
      <trkpt lat="43.18485" lon="3.19976">
        <ele>4</ele>
        <time>2024-03-29T13:34:01.503Z</time>
      </trkpt>
      <trkpt lat="43.18479" lon="3.19971">
        <ele>4</ele>
        <time>2024-03-29T13:34:06.503Z</time>
      </trkpt>
      <trkpt lat="43.18475" lon="3.19965">
        <ele>4</ele>
        <time>2024-03-29T13:34:11.503Z</time>
      </trkpt>
      <trkpt lat="43.18472" lon="3.1996">
        <ele>4</ele>
        <time>2024-03-29T13:34:16.503Z</time>
      </trkpt>
      <trkpt lat="43.18469" lon="3.19955">
        <ele>4</ele>
        <time>2024-03-29T13:34:20.503Z</time>
      </trkpt>
      <trkpt lat="43.18466" lon="3.19949">
        <ele>4</ele>
        <time>2024-03-29T13:34:25.503Z</time>
      </trkpt>
      <trkpt lat="43.18463" lon="3.1994">
        <ele>4</ele>
        <time>2024-03-29T13:34:30.503Z</time>
      </trkpt>
      <trkpt lat="43.18458" lon="3.19933">
        <ele>4</ele>
        <time>2024-03-29T13:34:35.503Z</time>
      </trkpt>
      <trkpt lat="43.18455" lon="3.19925">
        <ele>6</ele>
        <time>2024-03-29T13:34:40.503Z</time>
      </trkpt>
      <trkpt lat="43.18449" lon="3.19921">
        <ele>6</ele>
        <time>2024-03-29T13:34:45.503Z</time>
      </trkpt>
      <trkpt lat="43.18445" lon="3.19917">
        <ele>6</ele>
        <time>2024-03-29T13:34:50.503Z</time>
      </trkpt>
      <trkpt lat="43.1844" lon="3.19912">
        <ele>6</ele>
        <time>2024-03-29T13:34:55.503Z</time>
      </trkpt>
      <trkpt lat="43.18435" lon="3.19908">
        <ele>6</ele>
        <time>2024-03-29T13:35:00.503Z</time>
      </trkpt>
      <trkpt lat="43.18432" lon="3.19905">
        <ele>6</ele>
        <time>2024-03-29T13:35:04.503Z</time>
      </trkpt>
      <trkpt lat="43.18428" lon="3.199">
        <ele>7</ele>
        <time>2024-03-29T13:35:09.503Z</time>
      </trkpt>
      <trkpt lat="43.18425" lon="3.19895">
        <ele>7</ele>
        <time>2024-03-29T13:35:14.503Z</time>
      </trkpt>
      <trkpt lat="43.1842" lon="3.19888">
        <ele>7</ele>
        <time>2024-03-29T13:35:19.503Z</time>
      </trkpt>
      <trkpt lat="43.18415" lon="3.19882">
        <ele>7</ele>
        <time>2024-03-29T13:35:24.503Z</time>
      </trkpt>
      <trkpt lat="43.18411" lon="3.19876">
        <ele>7</ele>
        <time>2024-03-29T13:35:29.503Z</time>
      </trkpt>
      <trkpt lat="43.18407" lon="3.1987">
        <ele>6</ele>
        <time>2024-03-29T13:35:34.503Z</time>
      </trkpt>
      <trkpt lat="43.18403" lon="3.19866">
        <ele>6</ele>
        <time>2024-03-29T13:35:38.503Z</time>
      </trkpt>
      <trkpt lat="43.184" lon="3.19863">
        <ele>6</ele>
        <time>2024-03-29T13:35:43.503Z</time>
      </trkpt>
      <trkpt lat="43.18395" lon="3.19858">
        <ele>6</ele>
        <time>2024-03-29T13:35:48.503Z</time>
      </trkpt>
      <trkpt lat="43.18391" lon="3.19851">
        <ele>6</ele>
        <time>2024-03-29T13:35:53.503Z</time>
      </trkpt>
      <trkpt lat="43.18387" lon="3.19844">
        <ele>5</ele>
        <time>2024-03-29T13:35:58.503Z</time>
      </trkpt>
      <trkpt lat="43.18383" lon="3.1984">
        <ele>5</ele>
        <time>2024-03-29T13:36:02.503Z</time>
      </trkpt>
      <trkpt lat="43.18378" lon="3.19834">
        <ele>5</ele>
        <time>2024-03-29T13:36:07.503Z</time>
      </trkpt>
      <trkpt lat="43.18374" lon="3.19829">
        <ele>8</ele>
        <time>2024-03-29T13:36:12.503Z</time>
      </trkpt>
      <trkpt lat="43.1837" lon="3.19823">
        <ele>8</ele>
        <time>2024-03-29T13:36:17.503Z</time>
      </trkpt>
      <trkpt lat="43.18366" lon="3.19818">
        <ele>6</ele>
        <time>2024-03-29T13:36:21.503Z</time>
      </trkpt>
      <trkpt lat="43.18363" lon="3.19813">
        <ele>6</ele>
        <time>2024-03-29T13:36:26.503Z</time>
      </trkpt>
      <trkpt lat="43.18359" lon="3.19807">
        <ele>6</ele>
        <time>2024-03-29T13:36:31.503Z</time>
      </trkpt>
      <trkpt lat="43.18354" lon="3.198">
        <ele>6</ele>
        <time>2024-03-29T13:36:36.503Z</time>
      </trkpt>
      <trkpt lat="43.18349" lon="3.19794">
        <ele>6</ele>
        <time>2024-03-29T13:36:41.503Z</time>
      </trkpt>
      <trkpt lat="43.18343" lon="3.19786">
        <ele>7</ele>
        <time>2024-03-29T13:36:46.503Z</time>
      </trkpt>
      <trkpt lat="43.18339" lon="3.19781">
        <ele>7</ele>
        <time>2024-03-29T13:36:51.503Z</time>
      </trkpt>
      <trkpt lat="43.18335" lon="3.19777">
        <ele>7</ele>
        <time>2024-03-29T13:36:56.503Z</time>
      </trkpt>
      <trkpt lat="43.1833" lon="3.1977">
        <ele>7</ele>
        <time>2024-03-29T13:37:01.503Z</time>
      </trkpt>
      <trkpt lat="43.18327" lon="3.19764">
        <ele>5</ele>
        <time>2024-03-29T13:37:06.503Z</time>
      </trkpt>
      <trkpt lat="43.18323" lon="3.19759">
        <ele>5</ele>
        <time>2024-03-29T13:37:11.503Z</time>
      </trkpt>
      <trkpt lat="43.18319" lon="3.19754">
        <ele>3</ele>
        <time>2024-03-29T13:37:16.503Z</time>
      </trkpt>
      <trkpt lat="43.18316" lon="3.19749">
        <ele>3</ele>
        <time>2024-03-29T13:37:21.503Z</time>
      </trkpt>
      <trkpt lat="43.18313" lon="3.19746">
        <ele>3</ele>
        <time>2024-03-29T13:37:25.503Z</time>
      </trkpt>
      <trkpt lat="43.18309" lon="3.19739">
        <ele>3</ele>
        <time>2024-03-29T13:37:30.503Z</time>
      </trkpt>
      <trkpt lat="43.18304" lon="3.19732">
        <ele>1</ele>
        <time>2024-03-29T13:37:35.503Z</time>
      </trkpt>
      <trkpt lat="43.183" lon="3.19727">
        <ele>1</ele>
        <time>2024-03-29T13:37:40.503Z</time>
      </trkpt>
      <trkpt lat="43.18297" lon="3.19723">
        <ele>1</ele>
        <time>2024-03-29T13:37:44.503Z</time>
      </trkpt>
      <trkpt lat="43.18293" lon="3.19717">
        <ele>1</ele>
        <time>2024-03-29T13:37:48.503Z</time>
      </trkpt>
      <trkpt lat="43.18289" lon="3.19712">
        <ele>-1</ele>
        <time>2024-03-29T13:37:53.503Z</time>
      </trkpt>
      <trkpt lat="43.18286" lon="3.19708">
        <ele>1</ele>
        <time>2024-03-29T13:37:57.503Z</time>
      </trkpt>
      <trkpt lat="43.18281" lon="3.19704">
        <ele>1</ele>
        <time>2024-03-29T13:38:02.503Z</time>
      </trkpt>
      <trkpt lat="43.18277" lon="3.19699">
        <ele>1</ele>
        <time>2024-03-29T13:38:07.503Z</time>
      </trkpt>
      <trkpt lat="43.18272" lon="3.19694">
        <ele>1</ele>
        <time>2024-03-29T13:38:11.503Z</time>
      </trkpt>
      <trkpt lat="43.18268" lon="3.19688">
        <ele>1</ele>
        <time>2024-03-29T13:38:16.503Z</time>
      </trkpt>
      <trkpt lat="43.18263" lon="3.19684">
        <ele>1</ele>
        <time>2024-03-29T13:38:21.503Z</time>
      </trkpt>
      <trkpt lat="43.1826" lon="3.19679">
        <ele>2</ele>
        <time>2024-03-29T13:38:26.503Z</time>
      </trkpt>
      <trkpt lat="43.18255" lon="3.19674">
        <ele>2</ele>
        <time>2024-03-29T13:38:31.503Z</time>
      </trkpt>
      <trkpt lat="43.18249" lon="3.19666">
        <ele>2</ele>
        <time>2024-03-29T13:38:36.503Z</time>
      </trkpt>
      <trkpt lat="43.18245" lon="3.1966">
        <ele>2</ele>
        <time>2024-03-29T13:38:41.503Z</time>
      </trkpt>
      <trkpt lat="43.1824" lon="3.19655">
        <ele>2</ele>
        <time>2024-03-29T13:38:46.503Z</time>
      </trkpt>
      <trkpt lat="43.18236" lon="3.19651">
        <ele>4</ele>
        <time>2024-03-29T13:38:50.503Z</time>
      </trkpt>
      <trkpt lat="43.1823" lon="3.19646">
        <ele>4</ele>
        <time>2024-03-29T13:38:55.503Z</time>
      </trkpt>
      <trkpt lat="43.18226" lon="3.19641">
        <ele>4</ele>
        <time>2024-03-29T13:39:00.503Z</time>
      </trkpt>
      <trkpt lat="43.18221" lon="3.19635">
        <ele>4</ele>
        <time>2024-03-29T13:39:05.503Z</time>
      </trkpt>
      <trkpt lat="43.18218" lon="3.19628">
        <ele>4</ele>
        <time>2024-03-29T13:39:10.503Z</time>
      </trkpt>
      <trkpt lat="43.18217" lon="3.19623">
        <ele>4</ele>
        <time>2024-03-29T13:39:15.503Z</time>
      </trkpt>
      <trkpt lat="43.18216" lon="3.19616">
        <ele>4</ele>
        <time>2024-03-29T13:39:20.503Z</time>
      </trkpt>
      <trkpt lat="43.18213" lon="3.19607">
        <ele>4</ele>
        <time>2024-03-29T13:39:25.503Z</time>
      </trkpt>
      <trkpt lat="43.1821" lon="3.196">
        <ele>4</ele>
        <time>2024-03-29T13:39:30.503Z</time>
      </trkpt>
      <trkpt lat="43.1821" lon="3.19593">
        <ele>3</ele>
        <time>2024-03-29T13:39:35.503Z</time>
      </trkpt>
      <trkpt lat="43.18207" lon="3.19587">
        <ele>3</ele>
        <time>2024-03-29T13:39:40.503Z</time>
      </trkpt>
      <trkpt lat="43.18203" lon="3.19584">
        <ele>3</ele>
        <time>2024-03-29T13:39:44.503Z</time>
      </trkpt>
      <trkpt lat="43.18199" lon="3.19579">
        <ele>3</ele>
        <time>2024-03-29T13:39:49.503Z</time>
      </trkpt>
      <trkpt lat="43.18196" lon="3.19575">
        <ele>3</ele>
        <time>2024-03-29T13:39:54.503Z</time>
      </trkpt>
      <trkpt lat="43.18192" lon="3.1957">
        <ele>3</ele>
        <time>2024-03-29T13:39:59.503Z</time>
      </trkpt>
      <trkpt lat="43.18187" lon="3.19565">
        <ele>2</ele>
        <time>2024-03-29T13:40:04.503Z</time>
      </trkpt>
      <trkpt lat="43.18184" lon="3.19561">
        <ele>2</ele>
        <time>2024-03-29T13:40:09.503Z</time>
      </trkpt>
      <trkpt lat="43.18181" lon="3.19556">
        <ele>2</ele>
        <time>2024-03-29T13:40:13.503Z</time>
      </trkpt>
      <trkpt lat="43.18176" lon="3.19552">
        <ele>1.4</ele>
        <time>2024-03-29T13:40:18.503Z</time>
      </trkpt>
      <trkpt lat="43.18172" lon="3.19547">
        <ele>1.4</ele>
        <time>2024-03-29T13:40:22.503Z</time>
      </trkpt>
      <trkpt lat="43.18167" lon="3.19541">
        <ele>1.5</ele>
        <time>2024-03-29T13:40:27.503Z</time>
      </trkpt>
      <trkpt lat="43.18162" lon="3.19534">
        <ele>1.7</ele>
        <time>2024-03-29T13:40:32.503Z</time>
      </trkpt>
      <trkpt lat="43.18158" lon="3.1953">
        <ele>1.7</ele>
        <time>2024-03-29T13:40:37.503Z</time>
      </trkpt>
      <trkpt lat="43.18154" lon="3.19525">
        <ele>1.6</ele>
        <time>2024-03-29T13:40:42.503Z</time>
      </trkpt>
      <trkpt lat="43.18149" lon="3.19519">
        <ele>1.6</ele>
        <time>2024-03-29T13:40:47.503Z</time>
      </trkpt>
      <trkpt lat="43.18146" lon="3.19514">
        <ele>1.6</ele>
        <time>2024-03-29T13:40:51.503Z</time>
      </trkpt>
      <trkpt lat="43.18143" lon="3.19509">
        <ele>1.7</ele>
        <time>2024-03-29T13:40:55.503Z</time>
      </trkpt>
      <trkpt lat="43.18139" lon="3.19505">
        <ele>1.8</ele>
        <time>2024-03-29T13:41:00.503Z</time>
      </trkpt>
      <trkpt lat="43.18134" lon="3.19496">
        <ele>1.8</ele>
        <time>2024-03-29T13:41:05.503Z</time>
      </trkpt>
      <trkpt lat="43.1813" lon="3.19492">
        <ele>1.8</ele>
        <time>2024-03-29T13:41:10.503Z</time>
      </trkpt>
      <trkpt lat="43.18127" lon="3.19489">
        <ele>1.7</ele>
        <time>2024-03-29T13:41:14.503Z</time>
      </trkpt>
      <trkpt lat="43.18123" lon="3.19483">
        <ele>1.8</ele>
        <time>2024-03-29T13:41:19.503Z</time>
      </trkpt>
      <trkpt lat="43.18121" lon="3.1948">
        <ele>1.8</ele>
        <time>2024-03-29T13:41:23.503Z</time>
      </trkpt>
      <trkpt lat="43.18117" lon="3.19474">
        <ele>1.9</ele>
        <time>2024-03-29T13:41:28.503Z</time>
      </trkpt>
      <trkpt lat="43.18113" lon="3.1947">
        <ele>2</ele>
        <time>2024-03-29T13:41:32.503Z</time>
      </trkpt>
      <trkpt lat="43.18109" lon="3.19463">
        <ele>2</ele>
        <time>2024-03-29T13:41:37.503Z</time>
      </trkpt>
      <trkpt lat="43.18105" lon="3.19458">
        <ele>1.9</ele>
        <time>2024-03-29T13:41:41.503Z</time>
      </trkpt>
      <trkpt lat="43.18101" lon="3.19453">
        <ele>1.9</ele>
        <time>2024-03-29T13:41:46.503Z</time>
      </trkpt>
      <trkpt lat="43.18098" lon="3.19449">
        <ele>1.9</ele>
        <time>2024-03-29T13:41:50.503Z</time>
      </trkpt>
      <trkpt lat="43.18093" lon="3.19444">
        <ele>2</ele>
        <time>2024-03-29T13:41:55.503Z</time>
      </trkpt>
      <trkpt lat="43.18087" lon="3.19438">
        <ele>2</ele>
        <time>2024-03-29T13:42:00.503Z</time>
      </trkpt>
      <trkpt lat="43.18082" lon="3.19433">
        <ele>2</ele>
        <time>2024-03-29T13:42:05.503Z</time>
      </trkpt>
      <trkpt lat="43.18076" lon="3.19428">
        <ele>1.8</ele>
        <time>2024-03-29T13:42:10.503Z</time>
      </trkpt>
      <trkpt lat="43.18072" lon="3.19424">
        <ele>1.7</ele>
        <time>2024-03-29T13:42:14.503Z</time>
      </trkpt>
      <trkpt lat="43.18072" lon="3.19424">
        <ele>1.7</ele>
        <time>2024-03-29T13:42:19.503Z</time>
      </trkpt>
      <trkpt lat="43.18072" lon="3.19424">
        <ele>1.7</ele>
        <time>2024-03-29T13:42:24.503Z</time>
      </trkpt>
      <trkpt lat="43.18072" lon="3.19424">
        <ele>1.7</ele>
        <time>2024-03-29T13:42:29.503Z</time>
      </trkpt>
      <trkpt lat="43.18068" lon="3.1942">
        <ele>1.5</ele>
        <time>2024-03-29T13:42:53.504Z</time>
      </trkpt>
      <trkpt lat="43.18062" lon="3.19413">
        <ele>1.3</ele>
        <time>2024-03-29T13:42:58.504Z</time>
      </trkpt>
      <trkpt lat="43.18061" lon="3.19412">
        <ele>1.3</ele>
        <time>2024-03-29T13:43:11.504Z</time>
      </trkpt>
      <trkpt lat="43.18054" lon="3.19401">
        <ele>1.5</ele>
        <time>2024-03-29T13:43:48.504Z</time>
      </trkpt>
      <trkpt lat="43.18051" lon="3.19397">
        <ele>1.6</ele>
        <time>2024-03-29T13:43:53.504Z</time>
      </trkpt>
      <trkpt lat="43.18047" lon="3.19393">
        <ele>1.6</ele>
        <time>2024-03-29T13:43:58.504Z</time>
      </trkpt>
      <trkpt lat="43.18043" lon="3.1939">
        <ele>1.5</ele>
        <time>2024-03-29T13:44:02.504Z</time>
      </trkpt>
      <trkpt lat="43.18038" lon="3.19387">
        <ele>1.4</ele>
        <time>2024-03-29T13:44:07.504Z</time>
      </trkpt>
      <trkpt lat="43.18033" lon="3.19382">
        <ele>1.4</ele>
        <time>2024-03-29T13:44:12.504Z</time>
      </trkpt>
      <trkpt lat="43.18028" lon="3.19377">
        <ele>1.4</ele>
        <time>2024-03-29T13:44:17.504Z</time>
      </trkpt>
      <trkpt lat="43.18024" lon="3.1937">
        <ele>1.6</ele>
        <time>2024-03-29T13:44:22.504Z</time>
      </trkpt>
      <trkpt lat="43.18021" lon="3.19366">
        <ele>1.7</ele>
        <time>2024-03-29T13:44:26.504Z</time>
      </trkpt>
      <trkpt lat="43.18017" lon="3.1936">
        <ele>1.6</ele>
        <time>2024-03-29T13:44:31.504Z</time>
      </trkpt>
      <trkpt lat="43.18013" lon="3.19356">
        <ele>1.6</ele>
        <time>2024-03-29T13:44:36.504Z</time>
      </trkpt>
      <trkpt lat="43.18009" lon="3.19352">
        <ele>1.5</ele>
        <time>2024-03-29T13:44:41.504Z</time>
      </trkpt>
      <trkpt lat="43.18002" lon="3.19346">
        <ele>1.6</ele>
        <time>2024-03-29T13:44:46.504Z</time>
      </trkpt>
      <trkpt lat="43.17998" lon="3.1935">
        <ele>1.4</ele>
        <time>2024-03-29T13:44:51.504Z</time>
      </trkpt>
      <trkpt lat="43.17995" lon="3.19357">
        <ele>1.3</ele>
        <time>2024-03-29T13:44:56.504Z</time>
      </trkpt>
      <trkpt lat="43.17993" lon="3.19361">
        <ele>1.3</ele>
        <time>2024-03-29T13:45:00.504Z</time>
      </trkpt>
      <trkpt lat="43.1799" lon="3.19367">
        <ele>1.4</ele>
        <time>2024-03-29T13:45:05.504Z</time>
      </trkpt>
      <trkpt lat="43.17987" lon="3.19375">
        <ele>1.5</ele>
        <time>2024-03-29T13:45:10.504Z</time>
      </trkpt>
      <trkpt lat="43.17984" lon="3.19382">
        <ele>1.5</ele>
        <time>2024-03-29T13:45:14.504Z</time>
      </trkpt>
      <trkpt lat="43.17984" lon="3.19389">
        <ele>1.4</ele>
        <time>2024-03-29T13:45:19.504Z</time>
      </trkpt>
      <trkpt lat="43.17988" lon="3.19398">
        <ele>1.4</ele>
        <time>2024-03-29T13:45:38.504Z</time>
      </trkpt>
      <trkpt lat="43.17988" lon="3.19398">
        <ele>1.4</ele>
        <time>2024-03-29T13:45:43.504Z</time>
      </trkpt>
      <trkpt lat="43.1799" lon="3.194">
        <ele>1.4</ele>
        <time>2024-03-29T13:45:48.504Z</time>
      </trkpt>
      <trkpt lat="43.17992" lon="3.19404">
        <ele>1.3</ele>
        <time>2024-03-29T13:45:53.504Z</time>
      </trkpt>
      <trkpt lat="43.17992" lon="3.19405">
        <ele>1.3</ele>
        <time>2024-03-29T13:45:58.504Z</time>
      </trkpt>
      <trkpt lat="43.17997" lon="3.1941">
        <ele>1.2</ele>
        <time>2024-03-29T13:46:21.504Z</time>
      </trkpt>
      <trkpt lat="43.17998" lon="3.19411">
        <ele>1.2</ele>
        <time>2024-03-29T13:46:41.504Z</time>
      </trkpt>
      <trkpt lat="43.18001" lon="3.19414">
        <ele>1.1</ele>
        <time>2024-03-29T13:46:46.504Z</time>
      </trkpt>
      <trkpt lat="43.18001" lon="3.19414">
        <ele>1.1</ele>
        <time>2024-03-29T13:46:50.504Z</time>
      </trkpt>
      <trkpt lat="43.18001" lon="3.19415">
        <ele>1.1</ele>
        <time>2024-03-29T13:46:55.504Z</time>
      </trkpt>
      <trkpt lat="43.18004" lon="3.1942">
        <ele>1.1</ele>
        <time>2024-03-29T13:47:14.504Z</time>
      </trkpt>
      <trkpt lat="43.18004" lon="3.1942">
        <ele>1.1</ele>
        <time>2024-03-29T13:47:19.504Z</time>
      </trkpt>
      <trkpt lat="43.18004" lon="3.1942">
        <ele>1.1</ele>
        <time>2024-03-29T13:47:24.504Z</time>
      </trkpt>
      <trkpt lat="43.18007" lon="3.1942">
        <ele>1.2</ele>
        <time>2024-03-29T13:47:38.504Z</time>
      </trkpt>
      <trkpt lat="43.18009" lon="3.19423">
        <ele>1.3</ele>
        <time>2024-03-29T13:47:43.504Z</time>
      </trkpt>
      <trkpt lat="43.18009" lon="3.19423">
        <ele>1.3</ele>
        <time>2024-03-29T13:47:47.504Z</time>
      </trkpt>
      <trkpt lat="43.18009" lon="3.19423">
        <ele>1.2</ele>
        <time>2024-03-29T13:47:52.504Z</time>
      </trkpt>
      <trkpt lat="43.18008" lon="3.19419">
        <ele>1.3</ele>
        <time>2024-03-29T13:49:20.504Z</time>
      </trkpt>
      <trkpt lat="43.18004" lon="3.19413">
        <ele>1.2</ele>
        <time>2024-03-29T13:49:25.504Z</time>
      </trkpt>
      <trkpt lat="43.17999" lon="3.19409">
        <ele>1.2</ele>
        <time>2024-03-29T13:49:30.504Z</time>
      </trkpt>
      <trkpt lat="43.17995" lon="3.19404">
        <ele>1.4</ele>
        <time>2024-03-29T13:49:35.504Z</time>
      </trkpt>
      <trkpt lat="43.17991" lon="3.194">
        <ele>1.4</ele>
        <time>2024-03-29T13:49:40.504Z</time>
      </trkpt>
      <trkpt lat="43.17987" lon="3.19396">
        <ele>1.4</ele>
        <time>2024-03-29T13:49:45.504Z</time>
      </trkpt>
      <trkpt lat="43.17985" lon="3.19391">
        <ele>1.4</ele>
        <time>2024-03-29T13:49:49.504Z</time>
      </trkpt>
      <trkpt lat="43.17984" lon="3.19385">
        <ele>1.4</ele>
        <time>2024-03-29T13:49:54.504Z</time>
      </trkpt>
      <trkpt lat="43.17983" lon="3.19377">
        <ele>1.5</ele>
        <time>2024-03-29T13:49:59.504Z</time>
      </trkpt>
      <trkpt lat="43.17985" lon="3.19373">
        <ele>1.5</ele>
        <time>2024-03-29T13:50:03.504Z</time>
      </trkpt>
      <trkpt lat="43.1799" lon="3.19365">
        <ele>1.4</ele>
        <time>2024-03-29T13:50:08.504Z</time>
      </trkpt>
      <trkpt lat="43.17991" lon="3.1936">
        <ele>1.3</ele>
        <time>2024-03-29T13:50:12.504Z</time>
      </trkpt>
      <trkpt lat="43.17994" lon="3.19353">
        <ele>1.4</ele>
        <time>2024-03-29T13:50:17.504Z</time>
      </trkpt>
      <trkpt lat="43.17998" lon="3.19346">
        <ele>1.5</ele>
        <time>2024-03-29T13:50:22.504Z</time>
      </trkpt>
      <trkpt lat="43.17999" lon="3.1934">
        <ele>1.7</ele>
        <time>2024-03-29T13:50:27.504Z</time>
      </trkpt>
      <trkpt lat="43.17999" lon="3.19331">
        <ele>1.9</ele>
        <time>2024-03-29T13:50:32.504Z</time>
      </trkpt>
      <trkpt lat="43.17999" lon="3.19325">
        <ele>2</ele>
        <time>2024-03-29T13:50:36.504Z</time>
      </trkpt>
      <trkpt lat="43.18" lon="3.19318">
        <ele>2</ele>
        <time>2024-03-29T13:50:41.504Z</time>
      </trkpt>
      <trkpt lat="43.18002" lon="3.19311">
        <ele>2</ele>
        <time>2024-03-29T13:50:46.504Z</time>
      </trkpt>
      <trkpt lat="43.18002" lon="3.19307">
        <ele>2</ele>
        <time>2024-03-29T13:50:50.504Z</time>
      </trkpt>
      <trkpt lat="43.18003" lon="3.19301">
        <ele>2</ele>
        <time>2024-03-29T13:50:55.504Z</time>
      </trkpt>
      <trkpt lat="43.18006" lon="3.19295">
        <ele>2</ele>
        <time>2024-03-29T13:50:59.504Z</time>
      </trkpt>
      <trkpt lat="43.1801" lon="3.19288">
        <ele>2</ele>
        <time>2024-03-29T13:51:04.504Z</time>
      </trkpt>
      <trkpt lat="43.18012" lon="3.19283">
        <ele>2</ele>
        <time>2024-03-29T13:51:09.504Z</time>
      </trkpt>
      <trkpt lat="43.18014" lon="3.19276">
        <ele>8</ele>
        <time>2024-03-29T13:51:14.504Z</time>
      </trkpt>
      <trkpt lat="43.18018" lon="3.1927">
        <ele>8</ele>
        <time>2024-03-29T13:51:18.505Z</time>
      </trkpt>
      <trkpt lat="43.18021" lon="3.19262">
        <ele>5</ele>
        <time>2024-03-29T13:51:23.505Z</time>
      </trkpt>
      <trkpt lat="43.18026" lon="3.19256">
        <ele>5</ele>
        <time>2024-03-29T13:51:28.505Z</time>
      </trkpt>
      <trkpt lat="43.18031" lon="3.1925">
        <ele>5</ele>
        <time>2024-03-29T13:51:33.505Z</time>
      </trkpt>
      <trkpt lat="43.18036" lon="3.19245">
        <ele>5</ele>
        <time>2024-03-29T13:51:38.505Z</time>
      </trkpt>
      <trkpt lat="43.18039" lon="3.19237">
        <ele>5</ele>
        <time>2024-03-29T13:51:43.505Z</time>
      </trkpt>
      <trkpt lat="43.18041" lon="3.19229">
        <ele>3</ele>
        <time>2024-03-29T13:51:48.505Z</time>
      </trkpt>
      <trkpt lat="43.18043" lon="3.19223">
        <ele>3</ele>
        <time>2024-03-29T13:51:53.505Z</time>
      </trkpt>
      <trkpt lat="43.18048" lon="3.19219">
        <ele>3</ele>
        <time>2024-03-29T13:51:58.505Z</time>
      </trkpt>
      <trkpt lat="43.18052" lon="3.19218">
        <ele>3</ele>
        <time>2024-03-29T13:52:03.505Z</time>
      </trkpt>
      <trkpt lat="43.18055" lon="3.19211">
        <ele>3</ele>
        <time>2024-03-29T13:52:08.505Z</time>
      </trkpt>
      <trkpt lat="43.18058" lon="3.19206">
        <ele>3</ele>
        <time>2024-03-29T13:52:13.505Z</time>
      </trkpt>
      <trkpt lat="43.18059" lon="3.192">
        <ele>3</ele>
        <time>2024-03-29T13:52:18.505Z</time>
      </trkpt>
      <trkpt lat="43.18062" lon="3.19193">
        <ele>3</ele>
        <time>2024-03-29T13:52:22.505Z</time>
      </trkpt>
      <trkpt lat="43.18067" lon="3.19187">
        <ele>3</ele>
        <time>2024-03-29T13:52:27.505Z</time>
      </trkpt>
      <trkpt lat="43.1807" lon="3.19179">
        <ele>4</ele>
        <time>2024-03-29T13:52:32.505Z</time>
      </trkpt>
      <trkpt lat="43.18073" lon="3.19171">
        <ele>4</ele>
        <time>2024-03-29T13:52:37.505Z</time>
      </trkpt>
      <trkpt lat="43.18076" lon="3.19165">
        <ele>4</ele>
        <time>2024-03-29T13:52:42.505Z</time>
      </trkpt>
      <trkpt lat="43.18079" lon="3.1916">
        <ele>4</ele>
        <time>2024-03-29T13:52:46.505Z</time>
      </trkpt>
      <trkpt lat="43.18082" lon="3.19152">
        <ele>4</ele>
        <time>2024-03-29T13:52:51.505Z</time>
      </trkpt>
      <trkpt lat="43.18084" lon="3.19146">
        <ele>4</ele>
        <time>2024-03-29T13:52:55.505Z</time>
      </trkpt>
      <trkpt lat="43.18087" lon="3.19139">
        <ele>4</ele>
        <time>2024-03-29T13:53:00.505Z</time>
      </trkpt>
      <trkpt lat="43.1809" lon="3.19134">
        <ele>4</ele>
        <time>2024-03-29T13:53:04.505Z</time>
      </trkpt>
      <trkpt lat="43.18094" lon="3.19127">
        <ele>4</ele>
        <time>2024-03-29T13:53:09.505Z</time>
      </trkpt>
      <trkpt lat="43.18097" lon="3.19119">
        <ele>5</ele>
        <time>2024-03-29T13:53:14.505Z</time>
      </trkpt>
      <trkpt lat="43.181" lon="3.19112">
        <ele>5</ele>
        <time>2024-03-29T13:53:19.505Z</time>
      </trkpt>
      <trkpt lat="43.18103" lon="3.19103">
        <ele>5</ele>
        <time>2024-03-29T13:53:24.505Z</time>
      </trkpt>
      <trkpt lat="43.18107" lon="3.19094">
        <ele>8</ele>
        <time>2024-03-29T13:53:29.505Z</time>
      </trkpt>
      <trkpt lat="43.18111" lon="3.19088">
        <ele>8</ele>
        <time>2024-03-29T13:53:34.505Z</time>
      </trkpt>
      <trkpt lat="43.18114" lon="3.1908">
        <ele>8</ele>
        <time>2024-03-29T13:53:39.505Z</time>
      </trkpt>
      <trkpt lat="43.18117" lon="3.19074">
        <ele>8</ele>
        <time>2024-03-29T13:53:44.505Z</time>
      </trkpt>
      <trkpt lat="43.18122" lon="3.19067">
        <ele>9</ele>
        <time>2024-03-29T13:53:49.505Z</time>
      </trkpt>
      <trkpt lat="43.18126" lon="3.1906">
        <ele>10</ele>
        <time>2024-03-29T13:53:54.505Z</time>
      </trkpt>
      <trkpt lat="43.18128" lon="3.19054">
        <ele>10</ele>
        <time>2024-03-29T13:53:59.505Z</time>
      </trkpt>
      <trkpt lat="43.1813" lon="3.19048">
        <ele>10</ele>
        <time>2024-03-29T13:54:04.505Z</time>
      </trkpt>
      <trkpt lat="43.18133" lon="3.19043">
        <ele>10</ele>
        <time>2024-03-29T13:54:08.505Z</time>
      </trkpt>
      <trkpt lat="43.18137" lon="3.19037">
        <ele>10</ele>
        <time>2024-03-29T13:54:13.505Z</time>
      </trkpt>
      <trkpt lat="43.1814" lon="3.19029">
        <ele>10</ele>
        <time>2024-03-29T13:54:18.505Z</time>
      </trkpt>
      <trkpt lat="43.18144" lon="3.19023">
        <ele>10</ele>
        <time>2024-03-29T13:54:23.505Z</time>
      </trkpt>
      <trkpt lat="43.18148" lon="3.19017">
        <ele>10</ele>
        <time>2024-03-29T13:54:28.505Z</time>
      </trkpt>
      <trkpt lat="43.18151" lon="3.19009">
        <ele>11</ele>
        <time>2024-03-29T13:54:33.505Z</time>
      </trkpt>
      <trkpt lat="43.18152" lon="3.19004">
        <ele>11</ele>
        <time>2024-03-29T13:54:38.505Z</time>
      </trkpt>
      <trkpt lat="43.18154" lon="3.18997">
        <ele>13</ele>
        <time>2024-03-29T13:54:43.505Z</time>
      </trkpt>
      <trkpt lat="43.18154" lon="3.1899">
        <ele>13</ele>
        <time>2024-03-29T13:54:48.505Z</time>
      </trkpt>
      <trkpt lat="43.18155" lon="3.18984">
        <ele>15</ele>
        <time>2024-03-29T13:54:53.505Z</time>
      </trkpt>
    </trkseg>
  </trk>
</gpx>